<?xml version="1.0" encoding="UTF-8" standalone="no" ?>
<gpx xmlns="http://www.topografix.com/GPX/1/1" xmlns:xsi="http://www.w3.org/2001/XMLSchema-instance" xsi:schemaLocation="http://www.topografix.com/GPX/1/1 http://www.topografix.com/GPX/1/1/gpx.xsd" version="1.1" creator="VisuGPX - https://www.visugpx.com">
  <metadata>
    <name>20140830 Bassachaux Chardonniere</name>
    <desc><![CDATA[5 ème étape du circuit sur le GR5 entre Thonon les bains et Chamonix]]></desc>
  </metadata>
  <trk>
    <name><![CDATA[20140830 Bassachaux Chardonniere_1]]></name>
    <trkseg>
      <trkpt lat="46.22151" lon="6.77311">
        <ele>1795.5</ele>
        <time>2014-08-30T07:51:57Z</time>
      </trkpt>
      <trkpt lat="46.2215" lon="6.7731">
        <ele>1795.5</ele>
        <time>2014-08-30T07:52:02Z</time>
      </trkpt>
      <trkpt lat="46.2215" lon="6.77309">
        <ele>1795.5</ele>
        <time>2014-08-30T07:52:07Z</time>
      </trkpt>
      <trkpt lat="46.22149" lon="6.77308">
        <ele>1795.5</ele>
        <time>2014-08-30T07:52:12Z</time>
      </trkpt>
      <trkpt lat="46.22148" lon="6.77307">
        <ele>1795.5</ele>
        <time>2014-08-30T07:52:17Z</time>
      </trkpt>
      <trkpt lat="46.22148" lon="6.77306">
        <ele>1795.5</ele>
        <time>2014-08-30T07:52:22Z</time>
      </trkpt>
      <trkpt lat="46.22148" lon="6.77306">
        <ele>1795.5</ele>
        <time>2014-08-30T07:52:27Z</time>
      </trkpt>
      <trkpt lat="46.22148" lon="6.77307">
        <ele>1795.5</ele>
        <time>2014-08-30T07:52:32Z</time>
      </trkpt>
      <trkpt lat="46.22149" lon="6.77309">
        <ele>1795.5</ele>
        <time>2014-08-30T07:52:37Z</time>
      </trkpt>
      <trkpt lat="46.22151" lon="6.77305">
        <ele>1795.7992</ele>
        <time>2014-08-30T07:52:42Z</time>
      </trkpt>
      <trkpt lat="46.22157" lon="6.77301">
        <ele>1795.7992</ele>
        <time>2014-08-30T07:52:47Z</time>
      </trkpt>
      <trkpt lat="46.22163" lon="6.77298">
        <ele>1804.3463</ele>
        <time>2014-08-30T07:52:52Z</time>
      </trkpt>
      <trkpt lat="46.22163" lon="6.77294">
        <ele>1804.3463</ele>
        <time>2014-08-30T07:52:57Z</time>
      </trkpt>
      <trkpt lat="46.22159" lon="6.77294">
        <ele>1804.3463</ele>
        <time>2014-08-30T07:53:02Z</time>
      </trkpt>
      <trkpt lat="46.22153" lon="6.77295">
        <ele>1813.0096</ele>
        <time>2014-08-30T07:53:07Z</time>
      </trkpt>
      <trkpt lat="46.22147" lon="6.77296">
        <ele>1813.0096</ele>
        <time>2014-08-30T07:53:12Z</time>
      </trkpt>
      <trkpt lat="46.22143" lon="6.77294">
        <ele>1821.5093</ele>
        <time>2014-08-30T07:53:17Z</time>
      </trkpt>
      <trkpt lat="46.22136" lon="6.77292">
        <ele>1821.5093</ele>
        <time>2014-08-30T07:53:22Z</time>
      </trkpt>
      <trkpt lat="46.22127" lon="6.77289">
        <ele>1829.5563</ele>
        <time>2014-08-30T07:53:27Z</time>
      </trkpt>
      <trkpt lat="46.22123" lon="6.77289">
        <ele>1829.5563</ele>
        <time>2014-08-30T07:53:32Z</time>
      </trkpt>
      <trkpt lat="46.22119" lon="6.77289">
        <ele>1829.5563</ele>
        <time>2014-08-30T07:53:37Z</time>
      </trkpt>
      <trkpt lat="46.22114" lon="6.7729">
        <ele>1836.9088</ele>
        <time>2014-08-30T07:53:42Z</time>
      </trkpt>
      <trkpt lat="46.22112" lon="6.77292">
        <ele>1836.9088</ele>
        <time>2014-08-30T07:53:47Z</time>
      </trkpt>
      <trkpt lat="46.22112" lon="6.77292">
        <ele>1836.9088</ele>
        <time>2014-08-30T07:53:52Z</time>
      </trkpt>
      <trkpt lat="46.22113" lon="6.77292">
        <ele>1836.9088</ele>
        <time>2014-08-30T07:53:57Z</time>
      </trkpt>
      <trkpt lat="46.22114" lon="6.77292">
        <ele>1836.9088</ele>
        <time>2014-08-30T07:54:02Z</time>
      </trkpt>
      <trkpt lat="46.22114" lon="6.77292">
        <ele>1836.9088</ele>
        <time>2014-08-30T07:54:07Z</time>
      </trkpt>
      <trkpt lat="46.22115" lon="6.77291">
        <ele>1836.9088</ele>
        <time>2014-08-30T07:54:12Z</time>
      </trkpt>
      <trkpt lat="46.22115" lon="6.7729">
        <ele>1836.9088</ele>
        <time>2014-08-30T07:54:17Z</time>
      </trkpt>
      <trkpt lat="46.22115" lon="6.77289">
        <ele>1836.9088</ele>
        <time>2014-08-30T07:54:22Z</time>
      </trkpt>
      <trkpt lat="46.22114" lon="6.77289">
        <ele>1836.9088</ele>
        <time>2014-08-30T07:54:27Z</time>
      </trkpt>
      <trkpt lat="46.22106" lon="6.77294">
        <ele>1843.2808</ele>
        <time>2014-08-30T07:54:32Z</time>
      </trkpt>
      <trkpt lat="46.22101" lon="6.77298">
        <ele>1843.2808</ele>
        <time>2014-08-30T07:54:37Z</time>
      </trkpt>
      <trkpt lat="46.22096" lon="6.773">
        <ele>1848.4763</ele>
        <time>2014-08-30T07:54:42Z</time>
      </trkpt>
      <trkpt lat="46.2209" lon="6.77304">
        <ele>1848.4763</ele>
        <time>2014-08-30T07:54:47Z</time>
      </trkpt>
      <trkpt lat="46.22085" lon="6.77306">
        <ele>1852.3655</ele>
        <time>2014-08-30T07:54:52Z</time>
      </trkpt>
      <trkpt lat="46.2208" lon="6.77312">
        <ele>1852.3655</ele>
        <time>2014-08-30T07:54:57Z</time>
      </trkpt>
      <trkpt lat="46.22076" lon="6.77318">
        <ele>1854.906</ele>
        <time>2014-08-30T07:55:02Z</time>
      </trkpt>
      <trkpt lat="46.22073" lon="6.77323">
        <ele>1854.906</ele>
        <time>2014-08-30T07:55:07Z</time>
      </trkpt>
      <trkpt lat="46.22069" lon="6.77328">
        <ele>1855.9568</ele>
        <time>2014-08-30T07:55:12Z</time>
      </trkpt>
      <trkpt lat="46.22064" lon="6.77331">
        <ele>1855.9568</ele>
        <time>2014-08-30T07:55:17Z</time>
      </trkpt>
      <trkpt lat="46.2206" lon="6.77335">
        <ele>1855.5896</ele>
        <time>2014-08-30T07:55:22Z</time>
      </trkpt>
      <trkpt lat="46.22055" lon="6.77338">
        <ele>1855.5896</ele>
        <time>2014-08-30T07:55:27Z</time>
      </trkpt>
      <trkpt lat="46.22047" lon="6.77339">
        <ele>1854.1484</ele>
        <time>2014-08-30T07:55:32Z</time>
      </trkpt>
      <trkpt lat="46.2204" lon="6.77343">
        <ele>1854.1484</ele>
        <time>2014-08-30T07:55:37Z</time>
      </trkpt>
      <trkpt lat="46.22036" lon="6.77349">
        <ele>1851.8342</ele>
        <time>2014-08-30T07:55:42Z</time>
      </trkpt>
      <trkpt lat="46.22033" lon="6.77355">
        <ele>1851.8342</ele>
        <time>2014-08-30T07:55:47Z</time>
      </trkpt>
      <trkpt lat="46.22028" lon="6.77362">
        <ele>1849.0594</ele>
        <time>2014-08-30T07:55:52Z</time>
      </trkpt>
      <trkpt lat="46.22022" lon="6.7737">
        <ele>1849.0594</ele>
        <time>2014-08-30T07:55:57Z</time>
      </trkpt>
      <trkpt lat="46.22019" lon="6.77374">
        <ele>1846.0758</ele>
        <time>2014-08-30T07:56:02Z</time>
      </trkpt>
      <trkpt lat="46.22015" lon="6.7738">
        <ele>1846.0758</ele>
        <time>2014-08-30T07:56:07Z</time>
      </trkpt>
      <trkpt lat="46.22011" lon="6.77385">
        <ele>1843.028</ele>
        <time>2014-08-30T07:56:12Z</time>
      </trkpt>
      <trkpt lat="46.22006" lon="6.7739">
        <ele>1843.028</ele>
        <time>2014-08-30T07:56:17Z</time>
      </trkpt>
      <trkpt lat="46.22004" lon="6.77394">
        <ele>1839.9941</ele>
        <time>2014-08-30T07:56:22Z</time>
      </trkpt>
      <trkpt lat="46.21998" lon="6.77401">
        <ele>1839.9941</ele>
        <time>2014-08-30T07:56:27Z</time>
      </trkpt>
      <trkpt lat="46.21995" lon="6.77406">
        <ele>1837.073</ele>
        <time>2014-08-30T07:56:32Z</time>
      </trkpt>
      <trkpt lat="46.21987" lon="6.7741">
        <ele>1837.073</ele>
        <time>2014-08-30T07:56:37Z</time>
      </trkpt>
      <trkpt lat="46.21982" lon="6.77414">
        <ele>1834.4138</ele>
        <time>2014-08-30T07:56:42Z</time>
      </trkpt>
      <trkpt lat="46.21979" lon="6.77416">
        <ele>1834.4138</ele>
        <time>2014-08-30T07:56:47Z</time>
      </trkpt>
      <trkpt lat="46.21973" lon="6.77418">
        <ele>1832.0859</ele>
        <time>2014-08-30T07:56:52Z</time>
      </trkpt>
      <trkpt lat="46.21964" lon="6.77424">
        <ele>1829.9557</ele>
        <time>2014-08-30T07:56:57Z</time>
      </trkpt>
      <trkpt lat="46.21961" lon="6.77428">
        <ele>1829.9557</ele>
        <time>2014-08-30T07:57:02Z</time>
      </trkpt>
      <trkpt lat="46.21955" lon="6.77433">
        <ele>1828.1227</ele>
        <time>2014-08-30T07:57:07Z</time>
      </trkpt>
      <trkpt lat="46.21951" lon="6.77437">
        <ele>1828.1227</ele>
        <time>2014-08-30T07:57:12Z</time>
      </trkpt>
      <trkpt lat="46.21946" lon="6.77442">
        <ele>1826.5054</ele>
        <time>2014-08-30T07:57:17Z</time>
      </trkpt>
      <trkpt lat="46.21943" lon="6.77448">
        <ele>1826.5054</ele>
        <time>2014-08-30T07:57:22Z</time>
      </trkpt>
      <trkpt lat="46.21939" lon="6.77454">
        <ele>1825.1582</ele>
        <time>2014-08-30T07:57:27Z</time>
      </trkpt>
      <trkpt lat="46.21936" lon="6.77459">
        <ele>1825.1582</ele>
        <time>2014-08-30T07:57:32Z</time>
      </trkpt>
      <trkpt lat="46.21934" lon="6.77463">
        <ele>1825.1582</ele>
        <time>2014-08-30T07:57:37Z</time>
      </trkpt>
      <trkpt lat="46.2193" lon="6.7747">
        <ele>1824.0835</ele>
        <time>2014-08-30T07:57:42Z</time>
      </trkpt>
      <trkpt lat="46.21926" lon="6.77475">
        <ele>1824.0835</ele>
        <time>2014-08-30T07:57:47Z</time>
      </trkpt>
      <trkpt lat="46.21924" lon="6.7748">
        <ele>1823.1528</ele>
        <time>2014-08-30T07:57:52Z</time>
      </trkpt>
      <trkpt lat="46.21921" lon="6.77488">
        <ele>1823.1528</ele>
        <time>2014-08-30T07:57:57Z</time>
      </trkpt>
      <trkpt lat="46.21917" lon="6.77493">
        <ele>1822.2933</ele>
        <time>2014-08-30T07:58:02Z</time>
      </trkpt>
      <trkpt lat="46.21914" lon="6.77499">
        <ele>1822.2933</ele>
        <time>2014-08-30T07:58:07Z</time>
      </trkpt>
      <trkpt lat="46.21912" lon="6.77503">
        <ele>1822.2933</ele>
        <time>2014-08-30T07:58:12Z</time>
      </trkpt>
      <trkpt lat="46.21907" lon="6.77511">
        <ele>1821.4535</ele>
        <time>2014-08-30T07:58:17Z</time>
      </trkpt>
      <trkpt lat="46.21905" lon="6.77515">
        <ele>1821.4535</ele>
        <time>2014-08-30T07:58:22Z</time>
      </trkpt>
      <trkpt lat="46.21902" lon="6.77521">
        <ele>1820.5443</ele>
        <time>2014-08-30T07:58:27Z</time>
      </trkpt>
      <trkpt lat="46.219" lon="6.77526">
        <ele>1820.5443</ele>
        <time>2014-08-30T07:58:32Z</time>
      </trkpt>
      <trkpt lat="46.21897" lon="6.77533">
        <ele>1819.624</ele>
        <time>2014-08-30T07:58:37Z</time>
      </trkpt>
      <trkpt lat="46.21896" lon="6.77537">
        <ele>1819.624</ele>
        <time>2014-08-30T07:58:42Z</time>
      </trkpt>
      <trkpt lat="46.21895" lon="6.77543">
        <ele>1819.624</ele>
        <time>2014-08-30T07:58:47Z</time>
      </trkpt>
      <trkpt lat="46.21894" lon="6.77547">
        <ele>1818.6357</ele>
        <time>2014-08-30T07:58:52Z</time>
      </trkpt>
      <trkpt lat="46.21894" lon="6.77552">
        <ele>1818.6357</ele>
        <time>2014-08-30T07:58:57Z</time>
      </trkpt>
      <trkpt lat="46.21891" lon="6.7756">
        <ele>1817.3889</ele>
        <time>2014-08-30T07:59:02Z</time>
      </trkpt>
      <trkpt lat="46.21888" lon="6.77565">
        <ele>1817.3889</ele>
        <time>2014-08-30T07:59:07Z</time>
      </trkpt>
      <trkpt lat="46.21886" lon="6.7757">
        <ele>1817.3889</ele>
        <time>2014-08-30T07:59:12Z</time>
      </trkpt>
      <trkpt lat="46.21883" lon="6.77579">
        <ele>1816.0826</ele>
        <time>2014-08-30T07:59:17Z</time>
      </trkpt>
      <trkpt lat="46.2188" lon="6.77584">
        <ele>1816.0826</ele>
        <time>2014-08-30T07:59:22Z</time>
      </trkpt>
      <trkpt lat="46.21876" lon="6.77588">
        <ele>1814.7648</ele>
        <time>2014-08-30T07:59:27Z</time>
      </trkpt>
      <trkpt lat="46.21873" lon="6.77592">
        <ele>1814.7648</ele>
        <time>2014-08-30T07:59:32Z</time>
      </trkpt>
      <trkpt lat="46.21872" lon="6.77597">
        <ele>1814.7648</ele>
        <time>2014-08-30T07:59:37Z</time>
      </trkpt>
      <trkpt lat="46.21869" lon="6.77601">
        <ele>1813.3138</ele>
        <time>2014-08-30T07:59:42Z</time>
      </trkpt>
      <trkpt lat="46.21866" lon="6.77605">
        <ele>1813.3138</ele>
        <time>2014-08-30T07:59:47Z</time>
      </trkpt>
      <trkpt lat="46.21864" lon="6.7761">
        <ele>1813.3138</ele>
        <time>2014-08-30T07:59:52Z</time>
      </trkpt>
      <trkpt lat="46.21859" lon="6.77624">
        <ele>1811.4476</ele>
        <time>2014-08-30T07:59:57Z</time>
      </trkpt>
      <trkpt lat="46.21856" lon="6.7763">
        <ele>1811.4476</ele>
        <time>2014-08-30T08:00:02Z</time>
      </trkpt>
      <trkpt lat="46.21851" lon="6.77641">
        <ele>1809.7091</ele>
        <time>2014-08-30T08:00:07Z</time>
      </trkpt>
      <trkpt lat="46.21845" lon="6.77656">
        <ele>1808.2289</ele>
        <time>2014-08-30T08:00:12Z</time>
      </trkpt>
      <trkpt lat="46.21842" lon="6.77662">
        <ele>1808.2289</ele>
        <time>2014-08-30T08:00:17Z</time>
      </trkpt>
      <trkpt lat="46.21838" lon="6.77667">
        <ele>1807.1749</ele>
        <time>2014-08-30T08:00:22Z</time>
      </trkpt>
      <trkpt lat="46.21835" lon="6.77674">
        <ele>1807.1749</ele>
        <time>2014-08-30T08:00:27Z</time>
      </trkpt>
      <trkpt lat="46.21833" lon="6.77679">
        <ele>1806.4163</ele>
        <time>2014-08-30T08:00:32Z</time>
      </trkpt>
      <trkpt lat="46.2183" lon="6.77687">
        <ele>1806.4163</ele>
        <time>2014-08-30T08:00:37Z</time>
      </trkpt>
      <trkpt lat="46.21827" lon="6.77696">
        <ele>1805.8859</ele>
        <time>2014-08-30T08:00:42Z</time>
      </trkpt>
      <trkpt lat="46.21824" lon="6.77702">
        <ele>1805.8859</ele>
        <time>2014-08-30T08:00:47Z</time>
      </trkpt>
      <trkpt lat="46.21821" lon="6.77708">
        <ele>1805.3723</ele>
        <time>2014-08-30T08:00:52Z</time>
      </trkpt>
      <trkpt lat="46.21818" lon="6.77717">
        <ele>1805.3723</ele>
        <time>2014-08-30T08:00:57Z</time>
      </trkpt>
      <trkpt lat="46.21814" lon="6.77725">
        <ele>1804.9845</ele>
        <time>2014-08-30T08:01:02Z</time>
      </trkpt>
      <trkpt lat="46.2181" lon="6.77731">
        <ele>1804.9845</ele>
        <time>2014-08-30T08:01:07Z</time>
      </trkpt>
      <trkpt lat="46.21808" lon="6.77735">
        <ele>1804.691</ele>
        <time>2014-08-30T08:01:12Z</time>
      </trkpt>
      <trkpt lat="46.21807" lon="6.77735">
        <ele>1804.691</ele>
        <time>2014-08-30T08:01:17Z</time>
      </trkpt>
      <trkpt lat="46.21806" lon="6.77734">
        <ele>1804.691</ele>
        <time>2014-08-30T08:01:22Z</time>
      </trkpt>
      <trkpt lat="46.21805" lon="6.77733">
        <ele>1804.691</ele>
        <time>2014-08-30T08:01:27Z</time>
      </trkpt>
      <trkpt lat="46.21805" lon="6.77733">
        <ele>1804.691</ele>
        <time>2014-08-30T08:01:32Z</time>
      </trkpt>
      <trkpt lat="46.21801" lon="6.77739">
        <ele>1804.6104</ele>
        <time>2014-08-30T08:01:37Z</time>
      </trkpt>
      <trkpt lat="46.21798" lon="6.77745">
        <ele>1804.6104</ele>
        <time>2014-08-30T08:01:42Z</time>
      </trkpt>
      <trkpt lat="46.21793" lon="6.7775">
        <ele>1804.7174</ele>
        <time>2014-08-30T08:01:47Z</time>
      </trkpt>
      <trkpt lat="46.21789" lon="6.77754">
        <ele>1804.7174</ele>
        <time>2014-08-30T08:01:52Z</time>
      </trkpt>
      <trkpt lat="46.21783" lon="6.7776">
        <ele>1804.9271</ele>
        <time>2014-08-30T08:01:57Z</time>
      </trkpt>
      <trkpt lat="46.21781" lon="6.77764">
        <ele>1804.9271</ele>
        <time>2014-08-30T08:02:02Z</time>
      </trkpt>
      <trkpt lat="46.21775" lon="6.7777">
        <ele>1805.1743</ele>
        <time>2014-08-30T08:02:07Z</time>
      </trkpt>
      <trkpt lat="46.21771" lon="6.77775">
        <ele>1805.1743</ele>
        <time>2014-08-30T08:02:12Z</time>
      </trkpt>
      <trkpt lat="46.21766" lon="6.7778">
        <ele>1805.4426</ele>
        <time>2014-08-30T08:02:17Z</time>
      </trkpt>
      <trkpt lat="46.2176" lon="6.77785">
        <ele>1805.4426</ele>
        <time>2014-08-30T08:02:22Z</time>
      </trkpt>
      <trkpt lat="46.21754" lon="6.7779">
        <ele>1805.8676</ele>
        <time>2014-08-30T08:02:27Z</time>
      </trkpt>
      <trkpt lat="46.21748" lon="6.77794">
        <ele>1805.8676</ele>
        <time>2014-08-30T08:02:32Z</time>
      </trkpt>
      <trkpt lat="46.21743" lon="6.77799">
        <ele>1806.4227</ele>
        <time>2014-08-30T08:02:37Z</time>
      </trkpt>
      <trkpt lat="46.21739" lon="6.77802">
        <ele>1806.4227</ele>
        <time>2014-08-30T08:02:42Z</time>
      </trkpt>
      <trkpt lat="46.21735" lon="6.77807">
        <ele>1806.9473</ele>
        <time>2014-08-30T08:02:47Z</time>
      </trkpt>
      <trkpt lat="46.2173" lon="6.77811">
        <ele>1806.9473</ele>
        <time>2014-08-30T08:02:52Z</time>
      </trkpt>
      <trkpt lat="46.21724" lon="6.77816">
        <ele>1807.5942</ele>
        <time>2014-08-30T08:02:57Z</time>
      </trkpt>
      <trkpt lat="46.21719" lon="6.77818">
        <ele>1807.5942</ele>
        <time>2014-08-30T08:03:02Z</time>
      </trkpt>
      <trkpt lat="46.21711" lon="6.77822">
        <ele>1808.2478</ele>
        <time>2014-08-30T08:03:07Z</time>
      </trkpt>
      <trkpt lat="46.21706" lon="6.77825">
        <ele>1808.2478</ele>
        <time>2014-08-30T08:03:12Z</time>
      </trkpt>
      <trkpt lat="46.21702" lon="6.77827">
        <ele>1808.2478</ele>
        <time>2014-08-30T08:03:17Z</time>
      </trkpt>
      <trkpt lat="46.21702" lon="6.77827">
        <ele>1808.9523</ele>
        <time>2014-08-30T08:03:22Z</time>
      </trkpt>
      <trkpt lat="46.217" lon="6.77829">
        <ele>1808.9523</ele>
        <time>2014-08-30T08:03:27Z</time>
      </trkpt>
      <trkpt lat="46.21695" lon="6.77833">
        <ele>1808.9523</ele>
        <time>2014-08-30T08:03:32Z</time>
      </trkpt>
      <trkpt lat="46.21689" lon="6.77835">
        <ele>1809.6727</ele>
        <time>2014-08-30T08:03:37Z</time>
      </trkpt>
      <trkpt lat="46.21686" lon="6.77838">
        <ele>1809.6727</ele>
        <time>2014-08-30T08:03:42Z</time>
      </trkpt>
      <trkpt lat="46.2168" lon="6.77844">
        <ele>1810.377</ele>
        <time>2014-08-30T08:03:47Z</time>
      </trkpt>
      <trkpt lat="46.21677" lon="6.77847">
        <ele>1810.377</ele>
        <time>2014-08-30T08:03:52Z</time>
      </trkpt>
      <trkpt lat="46.2167" lon="6.77851">
        <ele>1811.0658</ele>
        <time>2014-08-30T08:03:57Z</time>
      </trkpt>
      <trkpt lat="46.21664" lon="6.77852">
        <ele>1811.0658</ele>
        <time>2014-08-30T08:04:02Z</time>
      </trkpt>
      <trkpt lat="46.2166" lon="6.77856">
        <ele>1811.71</ele>
        <time>2014-08-30T08:04:07Z</time>
      </trkpt>
      <trkpt lat="46.21655" lon="6.77858">
        <ele>1811.71</ele>
        <time>2014-08-30T08:04:12Z</time>
      </trkpt>
      <trkpt lat="46.21648" lon="6.77861">
        <ele>1812.3722</ele>
        <time>2014-08-30T08:04:17Z</time>
      </trkpt>
      <trkpt lat="46.21644" lon="6.77864">
        <ele>1812.3722</ele>
        <time>2014-08-30T08:04:22Z</time>
      </trkpt>
      <trkpt lat="46.21639" lon="6.77868">
        <ele>1813.0656</ele>
        <time>2014-08-30T08:04:27Z</time>
      </trkpt>
      <trkpt lat="46.21637" lon="6.7787">
        <ele>1813.0656</ele>
        <time>2014-08-30T08:04:32Z</time>
      </trkpt>
      <trkpt lat="46.21632" lon="6.77875">
        <ele>1813.7572</ele>
        <time>2014-08-30T08:04:37Z</time>
      </trkpt>
      <trkpt lat="46.21629" lon="6.7788">
        <ele>1813.7572</ele>
        <time>2014-08-30T08:04:42Z</time>
      </trkpt>
      <trkpt lat="46.21628" lon="6.77879">
        <ele>1813.7572</ele>
        <time>2014-08-30T08:04:47Z</time>
      </trkpt>
      <trkpt lat="46.21628" lon="6.7788">
        <ele>1813.7572</ele>
        <time>2014-08-30T08:04:52Z</time>
      </trkpt>
      <trkpt lat="46.21627" lon="6.7788">
        <ele>1813.7572</ele>
        <time>2014-08-30T08:04:57Z</time>
      </trkpt>
      <trkpt lat="46.21627" lon="6.77879">
        <ele>1813.7572</ele>
        <time>2014-08-30T08:05:02Z</time>
      </trkpt>
      <trkpt lat="46.21627" lon="6.77879">
        <ele>1813.7572</ele>
        <time>2014-08-30T08:05:07Z</time>
      </trkpt>
      <trkpt lat="46.21627" lon="6.7788">
        <ele>1813.7572</ele>
        <time>2014-08-30T08:05:12Z</time>
      </trkpt>
      <trkpt lat="46.21622" lon="6.77886">
        <ele>1814.4911</ele>
        <time>2014-08-30T08:05:17Z</time>
      </trkpt>
      <trkpt lat="46.2162" lon="6.77891">
        <ele>1814.4911</ele>
        <time>2014-08-30T08:05:22Z</time>
      </trkpt>
      <trkpt lat="46.21615" lon="6.77898">
        <ele>1815.1746</ele>
        <time>2014-08-30T08:05:27Z</time>
      </trkpt>
      <trkpt lat="46.21612" lon="6.77902">
        <ele>1815.1746</ele>
        <time>2014-08-30T08:05:32Z</time>
      </trkpt>
      <trkpt lat="46.21609" lon="6.77908">
        <ele>1815.7965</ele>
        <time>2014-08-30T08:05:37Z</time>
      </trkpt>
      <trkpt lat="46.21603" lon="6.77912">
        <ele>1815.7965</ele>
        <time>2014-08-30T08:05:42Z</time>
      </trkpt>
      <trkpt lat="46.21598" lon="6.77919">
        <ele>1816.4056</ele>
        <time>2014-08-30T08:05:47Z</time>
      </trkpt>
      <trkpt lat="46.21594" lon="6.77924">
        <ele>1816.4056</ele>
        <time>2014-08-30T08:05:52Z</time>
      </trkpt>
      <trkpt lat="46.21589" lon="6.77932">
        <ele>1817.0171</ele>
        <time>2014-08-30T08:05:57Z</time>
      </trkpt>
      <trkpt lat="46.21585" lon="6.77937">
        <ele>1817.0171</ele>
        <time>2014-08-30T08:06:02Z</time>
      </trkpt>
      <trkpt lat="46.21581" lon="6.77944">
        <ele>1817.6305</ele>
        <time>2014-08-30T08:06:07Z</time>
      </trkpt>
      <trkpt lat="46.21576" lon="6.77952">
        <ele>1817.6305</ele>
        <time>2014-08-30T08:06:12Z</time>
      </trkpt>
      <trkpt lat="46.21572" lon="6.77959">
        <ele>1818.1868</ele>
        <time>2014-08-30T08:06:17Z</time>
      </trkpt>
      <trkpt lat="46.21569" lon="6.77965">
        <ele>1818.1868</ele>
        <time>2014-08-30T08:06:22Z</time>
      </trkpt>
      <trkpt lat="46.21566" lon="6.77974">
        <ele>1818.7631</ele>
        <time>2014-08-30T08:06:27Z</time>
      </trkpt>
      <trkpt lat="46.21564" lon="6.7798">
        <ele>1818.7631</ele>
        <time>2014-08-30T08:06:32Z</time>
      </trkpt>
      <trkpt lat="46.21563" lon="6.77989">
        <ele>1819.3429</ele>
        <time>2014-08-30T08:06:37Z</time>
      </trkpt>
      <trkpt lat="46.21561" lon="6.77998">
        <ele>1819.3429</ele>
        <time>2014-08-30T08:06:42Z</time>
      </trkpt>
      <trkpt lat="46.21557" lon="6.78006">
        <ele>1819.824</ele>
        <time>2014-08-30T08:06:47Z</time>
      </trkpt>
      <trkpt lat="46.21554" lon="6.78016">
        <ele>1819.824</ele>
        <time>2014-08-30T08:06:52Z</time>
      </trkpt>
      <trkpt lat="46.21551" lon="6.78024">
        <ele>1820.1993</ele>
        <time>2014-08-30T08:06:57Z</time>
      </trkpt>
      <trkpt lat="46.21549" lon="6.78029">
        <ele>1820.1993</ele>
        <time>2014-08-30T08:07:02Z</time>
      </trkpt>
      <trkpt lat="46.21548" lon="6.78035">
        <ele>1820.1993</ele>
        <time>2014-08-30T08:07:07Z</time>
      </trkpt>
      <trkpt lat="46.21547" lon="6.78041">
        <ele>1820.3757</ele>
        <time>2014-08-30T08:07:12Z</time>
      </trkpt>
      <trkpt lat="46.21545" lon="6.78049">
        <ele>1820.3757</ele>
        <time>2014-08-30T08:07:17Z</time>
      </trkpt>
      <trkpt lat="46.21543" lon="6.78058">
        <ele>1820.398</ele>
        <time>2014-08-30T08:07:22Z</time>
      </trkpt>
      <trkpt lat="46.21541" lon="6.78067">
        <ele>1820.398</ele>
        <time>2014-08-30T08:07:27Z</time>
      </trkpt>
      <trkpt lat="46.2154" lon="6.78077">
        <ele>1820.3656</ele>
        <time>2014-08-30T08:07:32Z</time>
      </trkpt>
      <trkpt lat="46.21539" lon="6.78084">
        <ele>1820.3656</ele>
        <time>2014-08-30T08:07:37Z</time>
      </trkpt>
      <trkpt lat="46.21538" lon="6.78092">
        <ele>1820.3561</ele>
        <time>2014-08-30T08:07:42Z</time>
      </trkpt>
      <trkpt lat="46.21537" lon="6.78099">
        <ele>1820.3561</ele>
        <time>2014-08-30T08:07:47Z</time>
      </trkpt>
      <trkpt lat="46.21537" lon="6.78104">
        <ele>1820.3561</ele>
        <time>2014-08-30T08:07:52Z</time>
      </trkpt>
      <trkpt lat="46.21532" lon="6.78116">
        <ele>1820.3109</ele>
        <time>2014-08-30T08:07:57Z</time>
      </trkpt>
      <trkpt lat="46.21529" lon="6.78124">
        <ele>1820.3109</ele>
        <time>2014-08-30T08:08:02Z</time>
      </trkpt>
      <trkpt lat="46.21528" lon="6.78129">
        <ele>1820.133</ele>
        <time>2014-08-30T08:08:07Z</time>
      </trkpt>
      <trkpt lat="46.21526" lon="6.78137">
        <ele>1820.133</ele>
        <time>2014-08-30T08:08:12Z</time>
      </trkpt>
      <trkpt lat="46.21525" lon="6.78145">
        <ele>1819.7904</ele>
        <time>2014-08-30T08:08:17Z</time>
      </trkpt>
      <trkpt lat="46.21524" lon="6.78151">
        <ele>1819.7904</ele>
        <time>2014-08-30T08:08:22Z</time>
      </trkpt>
      <trkpt lat="46.21522" lon="6.78166">
        <ele>1819.3262</ele>
        <time>2014-08-30T08:08:27Z</time>
      </trkpt>
      <trkpt lat="46.2152" lon="6.78172">
        <ele>1819.3262</ele>
        <time>2014-08-30T08:08:32Z</time>
      </trkpt>
      <trkpt lat="46.21521" lon="6.78179">
        <ele>1818.9535</ele>
        <time>2014-08-30T08:08:37Z</time>
      </trkpt>
      <trkpt lat="46.21523" lon="6.78188">
        <ele>1818.9535</ele>
        <time>2014-08-30T08:08:42Z</time>
      </trkpt>
      <trkpt lat="46.21521" lon="6.782">
        <ele>1818.5521</ele>
        <time>2014-08-30T08:08:47Z</time>
      </trkpt>
      <trkpt lat="46.21518" lon="6.78209">
        <ele>1818.5521</ele>
        <time>2014-08-30T08:08:52Z</time>
      </trkpt>
      <trkpt lat="46.21515" lon="6.78216">
        <ele>1818.1984</ele>
        <time>2014-08-30T08:08:57Z</time>
      </trkpt>
      <trkpt lat="46.21511" lon="6.78225">
        <ele>1818.1984</ele>
        <time>2014-08-30T08:09:02Z</time>
      </trkpt>
      <trkpt lat="46.21507" lon="6.78232">
        <ele>1817.7897</ele>
        <time>2014-08-30T08:09:07Z</time>
      </trkpt>
      <trkpt lat="46.21505" lon="6.78239">
        <ele>1817.7897</ele>
        <time>2014-08-30T08:09:12Z</time>
      </trkpt>
      <trkpt lat="46.21501" lon="6.78246">
        <ele>1817.3752</ele>
        <time>2014-08-30T08:09:17Z</time>
      </trkpt>
      <trkpt lat="46.21499" lon="6.78252">
        <ele>1817.3752</ele>
        <time>2014-08-30T08:09:22Z</time>
      </trkpt>
      <trkpt lat="46.21495" lon="6.78261">
        <ele>1817.0874</ele>
        <time>2014-08-30T08:09:27Z</time>
      </trkpt>
      <trkpt lat="46.2149" lon="6.78266">
        <ele>1817.0874</ele>
        <time>2014-08-30T08:09:32Z</time>
      </trkpt>
      <trkpt lat="46.21484" lon="6.78274">
        <ele>1817.0192</ele>
        <time>2014-08-30T08:09:37Z</time>
      </trkpt>
      <trkpt lat="46.2148" lon="6.7828">
        <ele>1817.0192</ele>
        <time>2014-08-30T08:09:42Z</time>
      </trkpt>
      <trkpt lat="46.21476" lon="6.78288">
        <ele>1817.2709</ele>
        <time>2014-08-30T08:09:47Z</time>
      </trkpt>
      <trkpt lat="46.21471" lon="6.78296">
        <ele>1817.2709</ele>
        <time>2014-08-30T08:09:52Z</time>
      </trkpt>
      <trkpt lat="46.21467" lon="6.78303">
        <ele>1817.7467</ele>
        <time>2014-08-30T08:09:57Z</time>
      </trkpt>
      <trkpt lat="46.21463" lon="6.7831">
        <ele>1817.7467</ele>
        <time>2014-08-30T08:10:02Z</time>
      </trkpt>
      <trkpt lat="46.21459" lon="6.78313">
        <ele>1818.4009</ele>
        <time>2014-08-30T08:10:07Z</time>
      </trkpt>
      <trkpt lat="46.21454" lon="6.78318">
        <ele>1818.4009</ele>
        <time>2014-08-30T08:10:12Z</time>
      </trkpt>
      <trkpt lat="46.21452" lon="6.78322">
        <ele>1819.1901</ele>
        <time>2014-08-30T08:10:17Z</time>
      </trkpt>
      <trkpt lat="46.21447" lon="6.78328">
        <ele>1819.1901</ele>
        <time>2014-08-30T08:10:22Z</time>
      </trkpt>
      <trkpt lat="46.21443" lon="6.78333">
        <ele>1820.0164</ele>
        <time>2014-08-30T08:10:27Z</time>
      </trkpt>
      <trkpt lat="46.21438" lon="6.78337">
        <ele>1820.0164</ele>
        <time>2014-08-30T08:10:32Z</time>
      </trkpt>
      <trkpt lat="46.21434" lon="6.7834">
        <ele>1820.8606</ele>
        <time>2014-08-30T08:10:37Z</time>
      </trkpt>
      <trkpt lat="46.21429" lon="6.78347">
        <ele>1820.8606</ele>
        <time>2014-08-30T08:10:42Z</time>
      </trkpt>
      <trkpt lat="46.21424" lon="6.78354">
        <ele>1821.7343</ele>
        <time>2014-08-30T08:10:47Z</time>
      </trkpt>
      <trkpt lat="46.21419" lon="6.78358">
        <ele>1821.7343</ele>
        <time>2014-08-30T08:10:52Z</time>
      </trkpt>
      <trkpt lat="46.21413" lon="6.78363">
        <ele>1822.5753</ele>
        <time>2014-08-30T08:10:57Z</time>
      </trkpt>
      <trkpt lat="46.21409" lon="6.78367">
        <ele>1822.5753</ele>
        <time>2014-08-30T08:11:02Z</time>
      </trkpt>
      <trkpt lat="46.21404" lon="6.78369">
        <ele>1823.4854</ele>
        <time>2014-08-30T08:11:07Z</time>
      </trkpt>
      <trkpt lat="46.21398" lon="6.78371">
        <ele>1823.4854</ele>
        <time>2014-08-30T08:11:12Z</time>
      </trkpt>
      <trkpt lat="46.21393" lon="6.78373">
        <ele>1824.3997</ele>
        <time>2014-08-30T08:11:17Z</time>
      </trkpt>
      <trkpt lat="46.21388" lon="6.78379">
        <ele>1824.3997</ele>
        <time>2014-08-30T08:11:22Z</time>
      </trkpt>
      <trkpt lat="46.21384" lon="6.78385">
        <ele>1825.2725</ele>
        <time>2014-08-30T08:11:27Z</time>
      </trkpt>
      <trkpt lat="46.2138" lon="6.78391">
        <ele>1825.2725</ele>
        <time>2014-08-30T08:11:32Z</time>
      </trkpt>
      <trkpt lat="46.21376" lon="6.78398">
        <ele>1826.0616</ele>
        <time>2014-08-30T08:11:37Z</time>
      </trkpt>
      <trkpt lat="46.21372" lon="6.78404">
        <ele>1826.0616</ele>
        <time>2014-08-30T08:11:42Z</time>
      </trkpt>
      <trkpt lat="46.21367" lon="6.78411">
        <ele>1826.815</ele>
        <time>2014-08-30T08:11:47Z</time>
      </trkpt>
      <trkpt lat="46.21365" lon="6.78415">
        <ele>1826.815</ele>
        <time>2014-08-30T08:11:52Z</time>
      </trkpt>
      <trkpt lat="46.21361" lon="6.7842">
        <ele>1827.4901</ele>
        <time>2014-08-30T08:11:57Z</time>
      </trkpt>
      <trkpt lat="46.21356" lon="6.78425">
        <ele>1827.4901</ele>
        <time>2014-08-30T08:12:02Z</time>
      </trkpt>
      <trkpt lat="46.2135" lon="6.78429">
        <ele>1828.063</ele>
        <time>2014-08-30T08:12:07Z</time>
      </trkpt>
      <trkpt lat="46.21345" lon="6.78434">
        <ele>1828.063</ele>
        <time>2014-08-30T08:12:12Z</time>
      </trkpt>
      <trkpt lat="46.21339" lon="6.78439">
        <ele>1828.4966</ele>
        <time>2014-08-30T08:12:17Z</time>
      </trkpt>
      <trkpt lat="46.21335" lon="6.78443">
        <ele>1828.4966</ele>
        <time>2014-08-30T08:12:22Z</time>
      </trkpt>
      <trkpt lat="46.2133" lon="6.78448">
        <ele>1828.8151</ele>
        <time>2014-08-30T08:12:27Z</time>
      </trkpt>
      <trkpt lat="46.21325" lon="6.78454">
        <ele>1828.8151</ele>
        <time>2014-08-30T08:12:32Z</time>
      </trkpt>
      <trkpt lat="46.21322" lon="6.78459">
        <ele>1829.0846</ele>
        <time>2014-08-30T08:12:37Z</time>
      </trkpt>
      <trkpt lat="46.21316" lon="6.78464">
        <ele>1829.0846</ele>
        <time>2014-08-30T08:12:42Z</time>
      </trkpt>
      <trkpt lat="46.21308" lon="6.78472">
        <ele>1829.3517</ele>
        <time>2014-08-30T08:12:47Z</time>
      </trkpt>
      <trkpt lat="46.21304" lon="6.78474">
        <ele>1829.3517</ele>
        <time>2014-08-30T08:12:52Z</time>
      </trkpt>
      <trkpt lat="46.21299" lon="6.78476">
        <ele>1829.5734</ele>
        <time>2014-08-30T08:12:57Z</time>
      </trkpt>
      <trkpt lat="46.21294" lon="6.78477">
        <ele>1829.5734</ele>
        <time>2014-08-30T08:13:02Z</time>
      </trkpt>
      <trkpt lat="46.21288" lon="6.78479">
        <ele>1829.6666</ele>
        <time>2014-08-30T08:13:07Z</time>
      </trkpt>
      <trkpt lat="46.21283" lon="6.78481">
        <ele>1829.6666</ele>
        <time>2014-08-30T08:13:12Z</time>
      </trkpt>
      <trkpt lat="46.21276" lon="6.78483">
        <ele>1829.7424</ele>
        <time>2014-08-30T08:13:17Z</time>
      </trkpt>
      <trkpt lat="46.21271" lon="6.78485">
        <ele>1829.7424</ele>
        <time>2014-08-30T08:13:22Z</time>
      </trkpt>
      <trkpt lat="46.21265" lon="6.78488">
        <ele>1829.788</ele>
        <time>2014-08-30T08:13:27Z</time>
      </trkpt>
      <trkpt lat="46.21261" lon="6.7849">
        <ele>1829.788</ele>
        <time>2014-08-30T08:13:32Z</time>
      </trkpt>
      <trkpt lat="46.21254" lon="6.78496">
        <ele>1829.7054</ele>
        <time>2014-08-30T08:13:37Z</time>
      </trkpt>
      <trkpt lat="46.2125" lon="6.78498">
        <ele>1829.7054</ele>
        <time>2014-08-30T08:13:42Z</time>
      </trkpt>
      <trkpt lat="46.21241" lon="6.78501">
        <ele>1829.5918</ele>
        <time>2014-08-30T08:13:47Z</time>
      </trkpt>
      <trkpt lat="46.21237" lon="6.78504">
        <ele>1829.5918</ele>
        <time>2014-08-30T08:13:52Z</time>
      </trkpt>
      <trkpt lat="46.21232" lon="6.78507">
        <ele>1829.4935</ele>
        <time>2014-08-30T08:13:57Z</time>
      </trkpt>
      <trkpt lat="46.21227" lon="6.78513">
        <ele>1829.4935</ele>
        <time>2014-08-30T08:14:02Z</time>
      </trkpt>
      <trkpt lat="46.21222" lon="6.78519">
        <ele>1829.382</ele>
        <time>2014-08-30T08:14:07Z</time>
      </trkpt>
      <trkpt lat="46.21219" lon="6.78522">
        <ele>1829.382</ele>
        <time>2014-08-30T08:14:12Z</time>
      </trkpt>
      <trkpt lat="46.21214" lon="6.78531">
        <ele>1829.2014</ele>
        <time>2014-08-30T08:14:17Z</time>
      </trkpt>
      <trkpt lat="46.21211" lon="6.78536">
        <ele>1829.2014</ele>
        <time>2014-08-30T08:14:22Z</time>
      </trkpt>
      <trkpt lat="46.21207" lon="6.78541">
        <ele>1829.0305</ele>
        <time>2014-08-30T08:14:27Z</time>
      </trkpt>
      <trkpt lat="46.21201" lon="6.78543">
        <ele>1829.0305</ele>
        <time>2014-08-30T08:14:32Z</time>
      </trkpt>
      <trkpt lat="46.21195" lon="6.78544">
        <ele>1828.812</ele>
        <time>2014-08-30T08:14:37Z</time>
      </trkpt>
      <trkpt lat="46.21189" lon="6.78545">
        <ele>1828.812</ele>
        <time>2014-08-30T08:14:42Z</time>
      </trkpt>
      <trkpt lat="46.21183" lon="6.78549">
        <ele>1828.5077</ele>
        <time>2014-08-30T08:14:47Z</time>
      </trkpt>
      <trkpt lat="46.21179" lon="6.78553">
        <ele>1828.5077</ele>
        <time>2014-08-30T08:14:52Z</time>
      </trkpt>
      <trkpt lat="46.21174" lon="6.78561">
        <ele>1828.1687</ele>
        <time>2014-08-30T08:14:57Z</time>
      </trkpt>
      <trkpt lat="46.21172" lon="6.78566">
        <ele>1828.1687</ele>
        <time>2014-08-30T08:15:02Z</time>
      </trkpt>
      <trkpt lat="46.21169" lon="6.78575">
        <ele>1827.7848</ele>
        <time>2014-08-30T08:15:07Z</time>
      </trkpt>
      <trkpt lat="46.21168" lon="6.78584">
        <ele>1827.7848</ele>
        <time>2014-08-30T08:15:12Z</time>
      </trkpt>
      <trkpt lat="46.21167" lon="6.78593">
        <ele>1827.3613</ele>
        <time>2014-08-30T08:15:17Z</time>
      </trkpt>
      <trkpt lat="46.21168" lon="6.78602">
        <ele>1827.3613</ele>
        <time>2014-08-30T08:15:22Z</time>
      </trkpt>
      <trkpt lat="46.21168" lon="6.78612">
        <ele>1826.9749</ele>
        <time>2014-08-30T08:15:27Z</time>
      </trkpt>
      <trkpt lat="46.21166" lon="6.78619">
        <ele>1826.9749</ele>
        <time>2014-08-30T08:15:32Z</time>
      </trkpt>
      <trkpt lat="46.21165" lon="6.78628">
        <ele>1826.495</ele>
        <time>2014-08-30T08:15:37Z</time>
      </trkpt>
      <trkpt lat="46.21164" lon="6.78639">
        <ele>1826.495</ele>
        <time>2014-08-30T08:15:42Z</time>
      </trkpt>
      <trkpt lat="46.2116" lon="6.78647">
        <ele>1825.8008</ele>
        <time>2014-08-30T08:15:47Z</time>
      </trkpt>
      <trkpt lat="46.21158" lon="6.78652">
        <ele>1825.8008</ele>
        <time>2014-08-30T08:15:52Z</time>
      </trkpt>
      <trkpt lat="46.21152" lon="6.78659">
        <ele>1825.0835</ele>
        <time>2014-08-30T08:15:57Z</time>
      </trkpt>
      <trkpt lat="46.21148" lon="6.78665">
        <ele>1825.0835</ele>
        <time>2014-08-30T08:16:02Z</time>
      </trkpt>
      <trkpt lat="46.21144" lon="6.78672">
        <ele>1824.2465</ele>
        <time>2014-08-30T08:16:07Z</time>
      </trkpt>
      <trkpt lat="46.21141" lon="6.78678">
        <ele>1824.2465</ele>
        <time>2014-08-30T08:16:12Z</time>
      </trkpt>
      <trkpt lat="46.21137" lon="6.78686">
        <ele>1823.3446</ele>
        <time>2014-08-30T08:16:17Z</time>
      </trkpt>
      <trkpt lat="46.21136" lon="6.78692">
        <ele>1823.3446</ele>
        <time>2014-08-30T08:16:22Z</time>
      </trkpt>
      <trkpt lat="46.21132" lon="6.78699">
        <ele>1822.3281</ele>
        <time>2014-08-30T08:16:27Z</time>
      </trkpt>
      <trkpt lat="46.21129" lon="6.78704">
        <ele>1822.3281</ele>
        <time>2014-08-30T08:16:32Z</time>
      </trkpt>
      <trkpt lat="46.21124" lon="6.78712">
        <ele>1821.2231</ele>
        <time>2014-08-30T08:16:37Z</time>
      </trkpt>
      <trkpt lat="46.21119" lon="6.78717">
        <ele>1821.2231</ele>
        <time>2014-08-30T08:16:42Z</time>
      </trkpt>
      <trkpt lat="46.21113" lon="6.78722">
        <ele>1820.0107</ele>
        <time>2014-08-30T08:16:47Z</time>
      </trkpt>
      <trkpt lat="46.21111" lon="6.78726">
        <ele>1820.0107</ele>
        <time>2014-08-30T08:16:52Z</time>
      </trkpt>
      <trkpt lat="46.21104" lon="6.78732">
        <ele>1818.8466</ele>
        <time>2014-08-30T08:16:57Z</time>
      </trkpt>
      <trkpt lat="46.21098" lon="6.78735">
        <ele>1818.8466</ele>
        <time>2014-08-30T08:17:02Z</time>
      </trkpt>
      <trkpt lat="46.21092" lon="6.78739">
        <ele>1817.7307</ele>
        <time>2014-08-30T08:17:07Z</time>
      </trkpt>
      <trkpt lat="46.21087" lon="6.78742">
        <ele>1817.7307</ele>
        <time>2014-08-30T08:17:12Z</time>
      </trkpt>
      <trkpt lat="46.2108" lon="6.78746">
        <ele>1816.5762</ele>
        <time>2014-08-30T08:17:17Z</time>
      </trkpt>
      <trkpt lat="46.21075" lon="6.7875">
        <ele>1816.5762</ele>
        <time>2014-08-30T08:17:22Z</time>
      </trkpt>
      <trkpt lat="46.2107" lon="6.78753">
        <ele>1815.4902</ele>
        <time>2014-08-30T08:17:27Z</time>
      </trkpt>
      <trkpt lat="46.21065" lon="6.78756">
        <ele>1815.4902</ele>
        <time>2014-08-30T08:17:32Z</time>
      </trkpt>
      <trkpt lat="46.21057" lon="6.7876">
        <ele>1814.5139</ele>
        <time>2014-08-30T08:17:37Z</time>
      </trkpt>
      <trkpt lat="46.21055" lon="6.7876">
        <ele>1814.5139</ele>
        <time>2014-08-30T08:17:42Z</time>
      </trkpt>
      <trkpt lat="46.21055" lon="6.78759">
        <ele>1814.5139</ele>
        <time>2014-08-30T08:17:47Z</time>
      </trkpt>
      <trkpt lat="46.21055" lon="6.78759">
        <ele>1814.5139</ele>
        <time>2014-08-30T08:17:52Z</time>
      </trkpt>
      <trkpt lat="46.21053" lon="6.7876">
        <ele>1814.5139</ele>
        <time>2014-08-30T08:17:57Z</time>
      </trkpt>
      <trkpt lat="46.21053" lon="6.7876">
        <ele>1814.5139</ele>
        <time>2014-08-30T08:18:02Z</time>
      </trkpt>
      <trkpt lat="46.21054" lon="6.7876">
        <ele>1814.5139</ele>
        <time>2014-08-30T08:18:07Z</time>
      </trkpt>
      <trkpt lat="46.21053" lon="6.78759">
        <ele>1814.5139</ele>
        <time>2014-08-30T08:18:12Z</time>
      </trkpt>
      <trkpt lat="46.21054" lon="6.78759">
        <ele>1814.5139</ele>
        <time>2014-08-30T08:18:17Z</time>
      </trkpt>
      <trkpt lat="46.21054" lon="6.7876">
        <ele>1814.5139</ele>
        <time>2014-08-30T08:18:22Z</time>
      </trkpt>
      <trkpt lat="46.21054" lon="6.7876">
        <ele>1814.5139</ele>
        <time>2014-08-30T08:18:27Z</time>
      </trkpt>
      <trkpt lat="46.21051" lon="6.78763">
        <ele>1814.0743</ele>
        <time>2014-08-30T08:18:32Z</time>
      </trkpt>
      <trkpt lat="46.21045" lon="6.78767">
        <ele>1814.0743</ele>
        <time>2014-08-30T08:18:37Z</time>
      </trkpt>
      <trkpt lat="46.2104" lon="6.78774">
        <ele>1813.7006</ele>
        <time>2014-08-30T08:18:42Z</time>
      </trkpt>
      <trkpt lat="46.21035" lon="6.78781">
        <ele>1813.7006</ele>
        <time>2014-08-30T08:18:47Z</time>
      </trkpt>
      <trkpt lat="46.21029" lon="6.78786">
        <ele>1813.3597</ele>
        <time>2014-08-30T08:18:52Z</time>
      </trkpt>
      <trkpt lat="46.21024" lon="6.78789">
        <ele>1813.3597</ele>
        <time>2014-08-30T08:18:57Z</time>
      </trkpt>
      <trkpt lat="46.21017" lon="6.78793">
        <ele>1812.978</ele>
        <time>2014-08-30T08:19:02Z</time>
      </trkpt>
      <trkpt lat="46.21012" lon="6.78797">
        <ele>1812.978</ele>
        <time>2014-08-30T08:19:07Z</time>
      </trkpt>
      <trkpt lat="46.21009" lon="6.788">
        <ele>1812.5878</ele>
        <time>2014-08-30T08:19:12Z</time>
      </trkpt>
      <trkpt lat="46.21002" lon="6.78805">
        <ele>1812.5878</ele>
        <time>2014-08-30T08:19:17Z</time>
      </trkpt>
      <trkpt lat="46.20998" lon="6.7881">
        <ele>1812.2625</ele>
        <time>2014-08-30T08:19:22Z</time>
      </trkpt>
      <trkpt lat="46.20992" lon="6.78816">
        <ele>1812.2625</ele>
        <time>2014-08-30T08:19:27Z</time>
      </trkpt>
      <trkpt lat="46.20986" lon="6.78819">
        <ele>1811.9685</ele>
        <time>2014-08-30T08:19:32Z</time>
      </trkpt>
      <trkpt lat="46.20981" lon="6.78822">
        <ele>1811.9685</ele>
        <time>2014-08-30T08:19:37Z</time>
      </trkpt>
      <trkpt lat="46.20977" lon="6.78827">
        <ele>1811.6753</ele>
        <time>2014-08-30T08:19:42Z</time>
      </trkpt>
      <trkpt lat="46.20972" lon="6.78833">
        <ele>1811.6753</ele>
        <time>2014-08-30T08:19:47Z</time>
      </trkpt>
      <trkpt lat="46.20967" lon="6.78838">
        <ele>1811.3682</ele>
        <time>2014-08-30T08:19:52Z</time>
      </trkpt>
      <trkpt lat="46.20962" lon="6.78841">
        <ele>1811.3682</ele>
        <time>2014-08-30T08:19:57Z</time>
      </trkpt>
      <trkpt lat="46.2096" lon="6.78842">
        <ele>1811.3682</ele>
        <time>2014-08-30T08:20:02Z</time>
      </trkpt>
      <trkpt lat="46.20956" lon="6.78841">
        <ele>1810.9187</ele>
        <time>2014-08-30T08:20:07Z</time>
      </trkpt>
      <trkpt lat="46.20951" lon="6.78838">
        <ele>1810.9187</ele>
        <time>2014-08-30T08:20:12Z</time>
      </trkpt>
      <trkpt lat="46.20942" lon="6.7883">
        <ele>1810.3378</ele>
        <time>2014-08-30T08:20:17Z</time>
      </trkpt>
      <trkpt lat="46.20938" lon="6.78826">
        <ele>1810.3378</ele>
        <time>2014-08-30T08:20:22Z</time>
      </trkpt>
      <trkpt lat="46.20934" lon="6.78822">
        <ele>1809.8086</ele>
        <time>2014-08-30T08:20:27Z</time>
      </trkpt>
      <trkpt lat="46.20928" lon="6.78819">
        <ele>1809.8086</ele>
        <time>2014-08-30T08:20:32Z</time>
      </trkpt>
      <trkpt lat="46.2092" lon="6.78816">
        <ele>1809.2561</ele>
        <time>2014-08-30T08:20:37Z</time>
      </trkpt>
      <trkpt lat="46.20914" lon="6.78813">
        <ele>1809.2561</ele>
        <time>2014-08-30T08:20:42Z</time>
      </trkpt>
      <trkpt lat="46.20908" lon="6.78811">
        <ele>1808.8264</ele>
        <time>2014-08-30T08:20:47Z</time>
      </trkpt>
      <trkpt lat="46.20903" lon="6.78808">
        <ele>1808.8264</ele>
        <time>2014-08-30T08:20:52Z</time>
      </trkpt>
      <trkpt lat="46.20898" lon="6.78807">
        <ele>1808.4534</ele>
        <time>2014-08-30T08:20:57Z</time>
      </trkpt>
      <trkpt lat="46.20892" lon="6.78809">
        <ele>1808.4534</ele>
        <time>2014-08-30T08:21:02Z</time>
      </trkpt>
      <trkpt lat="46.20886" lon="6.78809">
        <ele>1808.1038</ele>
        <time>2014-08-30T08:21:07Z</time>
      </trkpt>
      <trkpt lat="46.20879" lon="6.78809">
        <ele>1808.1038</ele>
        <time>2014-08-30T08:21:12Z</time>
      </trkpt>
      <trkpt lat="46.20874" lon="6.7881">
        <ele>1807.8191</ele>
        <time>2014-08-30T08:21:17Z</time>
      </trkpt>
      <trkpt lat="46.20868" lon="6.7881">
        <ele>1807.8191</ele>
        <time>2014-08-30T08:21:22Z</time>
      </trkpt>
      <trkpt lat="46.20863" lon="6.78812">
        <ele>1807.6805</ele>
        <time>2014-08-30T08:21:27Z</time>
      </trkpt>
      <trkpt lat="46.20856" lon="6.78813">
        <ele>1807.6805</ele>
        <time>2014-08-30T08:21:32Z</time>
      </trkpt>
      <trkpt lat="46.20851" lon="6.78815">
        <ele>1807.6193</ele>
        <time>2014-08-30T08:21:37Z</time>
      </trkpt>
      <trkpt lat="46.20844" lon="6.78819">
        <ele>1807.6193</ele>
        <time>2014-08-30T08:21:42Z</time>
      </trkpt>
      <trkpt lat="46.2084" lon="6.78824">
        <ele>1807.6571</ele>
        <time>2014-08-30T08:21:47Z</time>
      </trkpt>
      <trkpt lat="46.20835" lon="6.78828">
        <ele>1807.6571</ele>
        <time>2014-08-30T08:21:52Z</time>
      </trkpt>
      <trkpt lat="46.20829" lon="6.7883">
        <ele>1807.6992</ele>
        <time>2014-08-30T08:21:57Z</time>
      </trkpt>
      <trkpt lat="46.20824" lon="6.78831">
        <ele>1807.6992</ele>
        <time>2014-08-30T08:22:02Z</time>
      </trkpt>
      <trkpt lat="46.20817" lon="6.7883">
        <ele>1807.715</ele>
        <time>2014-08-30T08:22:07Z</time>
      </trkpt>
      <trkpt lat="46.20811" lon="6.78827">
        <ele>1807.715</ele>
        <time>2014-08-30T08:22:12Z</time>
      </trkpt>
      <trkpt lat="46.20806" lon="6.78824">
        <ele>1807.6619</ele>
        <time>2014-08-30T08:22:17Z</time>
      </trkpt>
      <trkpt lat="46.208" lon="6.78819">
        <ele>1807.6619</ele>
        <time>2014-08-30T08:22:22Z</time>
      </trkpt>
      <trkpt lat="46.20794" lon="6.78819">
        <ele>1807.6447</ele>
        <time>2014-08-30T08:22:27Z</time>
      </trkpt>
      <trkpt lat="46.20788" lon="6.78817">
        <ele>1807.6447</ele>
        <time>2014-08-30T08:22:32Z</time>
      </trkpt>
      <trkpt lat="46.2078" lon="6.78817">
        <ele>1807.6741</ele>
        <time>2014-08-30T08:22:37Z</time>
      </trkpt>
      <trkpt lat="46.20774" lon="6.78816">
        <ele>1807.6741</ele>
        <time>2014-08-30T08:22:42Z</time>
      </trkpt>
      <trkpt lat="46.20769" lon="6.78814">
        <ele>1807.7164</ele>
        <time>2014-08-30T08:22:47Z</time>
      </trkpt>
      <trkpt lat="46.20766" lon="6.78813">
        <ele>1807.7164</ele>
        <time>2014-08-30T08:22:52Z</time>
      </trkpt>
      <trkpt lat="46.20761" lon="6.78811">
        <ele>1807.7164</ele>
        <time>2014-08-30T08:22:57Z</time>
      </trkpt>
      <trkpt lat="46.2076" lon="6.7881">
        <ele>1807.8416</ele>
        <time>2014-08-30T08:23:02Z</time>
      </trkpt>
      <trkpt lat="46.2076" lon="6.7881">
        <ele>1807.8416</ele>
        <time>2014-08-30T08:23:07Z</time>
      </trkpt>
      <trkpt lat="46.20761" lon="6.7881">
        <ele>1807.8416</ele>
        <time>2014-08-30T08:23:12Z</time>
      </trkpt>
      <trkpt lat="46.20761" lon="6.78809">
        <ele>1807.8416</ele>
        <time>2014-08-30T08:23:17Z</time>
      </trkpt>
      <trkpt lat="46.20762" lon="6.7881">
        <ele>1807.8416</ele>
        <time>2014-08-30T08:23:22Z</time>
      </trkpt>
      <trkpt lat="46.20763" lon="6.7881">
        <ele>1807.8416</ele>
        <time>2014-08-30T08:23:27Z</time>
      </trkpt>
      <trkpt lat="46.20764" lon="6.7881">
        <ele>1807.8416</ele>
        <time>2014-08-30T08:23:32Z</time>
      </trkpt>
      <trkpt lat="46.20764" lon="6.7881">
        <ele>1807.8416</ele>
        <time>2014-08-30T08:23:37Z</time>
      </trkpt>
      <trkpt lat="46.20763" lon="6.78809">
        <ele>1807.8416</ele>
        <time>2014-08-30T08:23:42Z</time>
      </trkpt>
      <trkpt lat="46.20764" lon="6.7881">
        <ele>1807.8416</ele>
        <time>2014-08-30T08:23:47Z</time>
      </trkpt>
      <trkpt lat="46.20764" lon="6.78812">
        <ele>1807.8416</ele>
        <time>2014-08-30T08:23:52Z</time>
      </trkpt>
      <trkpt lat="46.20764" lon="6.78814">
        <ele>1807.8416</ele>
        <time>2014-08-30T08:23:57Z</time>
      </trkpt>
      <trkpt lat="46.20764" lon="6.78812">
        <ele>1807.7391</ele>
        <time>2014-08-30T08:24:02Z</time>
      </trkpt>
      <trkpt lat="46.20762" lon="6.78813">
        <ele>1807.7391</ele>
        <time>2014-08-30T08:24:07Z</time>
      </trkpt>
      <trkpt lat="46.20761" lon="6.78814">
        <ele>1807.7391</ele>
        <time>2014-08-30T08:24:12Z</time>
      </trkpt>
      <trkpt lat="46.2076" lon="6.78815">
        <ele>1807.7391</ele>
        <time>2014-08-30T08:24:17Z</time>
      </trkpt>
      <trkpt lat="46.20761" lon="6.78816">
        <ele>1807.7391</ele>
        <time>2014-08-30T08:24:22Z</time>
      </trkpt>
      <trkpt lat="46.2076" lon="6.78818">
        <ele>1807.7391</ele>
        <time>2014-08-30T08:24:27Z</time>
      </trkpt>
      <trkpt lat="46.20759" lon="6.7882">
        <ele>1807.7391</ele>
        <time>2014-08-30T08:24:32Z</time>
      </trkpt>
      <trkpt lat="46.20752" lon="6.78824">
        <ele>1807.8572</ele>
        <time>2014-08-30T08:24:37Z</time>
      </trkpt>
      <trkpt lat="46.20747" lon="6.78825">
        <ele>1807.8572</ele>
        <time>2014-08-30T08:24:42Z</time>
      </trkpt>
      <trkpt lat="46.20744" lon="6.78828">
        <ele>1807.8572</ele>
        <time>2014-08-30T08:24:47Z</time>
      </trkpt>
      <trkpt lat="46.20741" lon="6.78836">
        <ele>1808.034</ele>
        <time>2014-08-30T08:24:52Z</time>
      </trkpt>
      <trkpt lat="46.20742" lon="6.78843">
        <ele>1808.034</ele>
        <time>2014-08-30T08:24:57Z</time>
      </trkpt>
      <trkpt lat="46.20742" lon="6.78848">
        <ele>1808.034</ele>
        <time>2014-08-30T08:25:02Z</time>
      </trkpt>
      <trkpt lat="46.20738" lon="6.78852">
        <ele>1808.3068</ele>
        <time>2014-08-30T08:25:07Z</time>
      </trkpt>
      <trkpt lat="46.20735" lon="6.78854">
        <ele>1808.3068</ele>
        <time>2014-08-30T08:25:12Z</time>
      </trkpt>
      <trkpt lat="46.20732" lon="6.78859">
        <ele>1808.3068</ele>
        <time>2014-08-30T08:25:17Z</time>
      </trkpt>
      <trkpt lat="46.20728" lon="6.78866">
        <ele>1808.5513</ele>
        <time>2014-08-30T08:25:22Z</time>
      </trkpt>
      <trkpt lat="46.20724" lon="6.78874">
        <ele>1808.5513</ele>
        <time>2014-08-30T08:25:27Z</time>
      </trkpt>
      <trkpt lat="46.20721" lon="6.7888">
        <ele>1808.8398</ele>
        <time>2014-08-30T08:25:32Z</time>
      </trkpt>
      <trkpt lat="46.20717" lon="6.78886">
        <ele>1808.8398</ele>
        <time>2014-08-30T08:25:37Z</time>
      </trkpt>
      <trkpt lat="46.20716" lon="6.78891">
        <ele>1809.2104</ele>
        <time>2014-08-30T08:25:42Z</time>
      </trkpt>
      <trkpt lat="46.20713" lon="6.78897">
        <ele>1809.2104</ele>
        <time>2014-08-30T08:25:47Z</time>
      </trkpt>
      <trkpt lat="46.20711" lon="6.78904">
        <ele>1809.6117</ele>
        <time>2014-08-30T08:25:52Z</time>
      </trkpt>
      <trkpt lat="46.20709" lon="6.78911">
        <ele>1809.6117</ele>
        <time>2014-08-30T08:25:57Z</time>
      </trkpt>
      <trkpt lat="46.20707" lon="6.78918">
        <ele>1810.0538</ele>
        <time>2014-08-30T08:26:02Z</time>
      </trkpt>
      <trkpt lat="46.20707" lon="6.78923">
        <ele>1810.0538</ele>
        <time>2014-08-30T08:26:07Z</time>
      </trkpt>
      <trkpt lat="46.20705" lon="6.7893">
        <ele>1810.0538</ele>
        <time>2014-08-30T08:26:12Z</time>
      </trkpt>
      <trkpt lat="46.20702" lon="6.78939">
        <ele>1810.5746</ele>
        <time>2014-08-30T08:26:17Z</time>
      </trkpt>
      <trkpt lat="46.20699" lon="6.78947">
        <ele>1810.5746</ele>
        <time>2014-08-30T08:26:22Z</time>
      </trkpt>
      <trkpt lat="46.20698" lon="6.78953">
        <ele>1811.1516</ele>
        <time>2014-08-30T08:26:27Z</time>
      </trkpt>
      <trkpt lat="46.20697" lon="6.78956">
        <ele>1811.1516</ele>
        <time>2014-08-30T08:26:32Z</time>
      </trkpt>
      <trkpt lat="46.20697" lon="6.78961">
        <ele>1811.1516</ele>
        <time>2014-08-30T08:26:37Z</time>
      </trkpt>
      <trkpt lat="46.20697" lon="6.78963">
        <ele>1811.1516</ele>
        <time>2014-08-30T08:26:42Z</time>
      </trkpt>
      <trkpt lat="46.20694" lon="6.78968">
        <ele>1811.9222</ele>
        <time>2014-08-30T08:26:47Z</time>
      </trkpt>
      <trkpt lat="46.20695" lon="6.78974">
        <ele>1811.9222</ele>
        <time>2014-08-30T08:26:52Z</time>
      </trkpt>
      <trkpt lat="46.20694" lon="6.78976">
        <ele>1811.9222</ele>
        <time>2014-08-30T08:26:57Z</time>
      </trkpt>
      <trkpt lat="46.20692" lon="6.78979">
        <ele>1811.9222</ele>
        <time>2014-08-30T08:27:02Z</time>
      </trkpt>
      <trkpt lat="46.20689" lon="6.78982">
        <ele>1812.5521</ele>
        <time>2014-08-30T08:27:07Z</time>
      </trkpt>
      <trkpt lat="46.20684" lon="6.78986">
        <ele>1812.5521</ele>
        <time>2014-08-30T08:27:12Z</time>
      </trkpt>
      <trkpt lat="46.20682" lon="6.78988">
        <ele>1812.5521</ele>
        <time>2014-08-30T08:27:17Z</time>
      </trkpt>
      <trkpt lat="46.20678" lon="6.78992">
        <ele>1813.2365</ele>
        <time>2014-08-30T08:27:22Z</time>
      </trkpt>
      <trkpt lat="46.20676" lon="6.78994">
        <ele>1813.2365</ele>
        <time>2014-08-30T08:27:27Z</time>
      </trkpt>
      <trkpt lat="46.20674" lon="6.78997">
        <ele>1813.2365</ele>
        <time>2014-08-30T08:27:32Z</time>
      </trkpt>
      <trkpt lat="46.20671" lon="6.78998">
        <ele>1814.0408</ele>
        <time>2014-08-30T08:27:37Z</time>
      </trkpt>
      <trkpt lat="46.20669" lon="6.79001">
        <ele>1814.0408</ele>
        <time>2014-08-30T08:27:42Z</time>
      </trkpt>
      <trkpt lat="46.20667" lon="6.79004">
        <ele>1814.0408</ele>
        <time>2014-08-30T08:27:47Z</time>
      </trkpt>
      <trkpt lat="46.20666" lon="6.79009">
        <ele>1814.0408</ele>
        <time>2014-08-30T08:27:52Z</time>
      </trkpt>
      <trkpt lat="46.20665" lon="6.79012">
        <ele>1815.1405</ele>
        <time>2014-08-30T08:27:57Z</time>
      </trkpt>
      <trkpt lat="46.20663" lon="6.79016">
        <ele>1815.1405</ele>
        <time>2014-08-30T08:28:02Z</time>
      </trkpt>
      <trkpt lat="46.20661" lon="6.79019">
        <ele>1815.1405</ele>
        <time>2014-08-30T08:28:07Z</time>
      </trkpt>
      <trkpt lat="46.20658" lon="6.79022">
        <ele>1816.3086</ele>
        <time>2014-08-30T08:28:12Z</time>
      </trkpt>
      <trkpt lat="46.20654" lon="6.79023">
        <ele>1816.3086</ele>
        <time>2014-08-30T08:28:17Z</time>
      </trkpt>
      <trkpt lat="46.20652" lon="6.79025">
        <ele>1816.3086</ele>
        <time>2014-08-30T08:28:22Z</time>
      </trkpt>
      <trkpt lat="46.2065" lon="6.79026">
        <ele>1816.3086</ele>
        <time>2014-08-30T08:28:27Z</time>
      </trkpt>
      <trkpt lat="46.20648" lon="6.79028">
        <ele>1817.5939</ele>
        <time>2014-08-30T08:28:32Z</time>
      </trkpt>
      <trkpt lat="46.20646" lon="6.79033">
        <ele>1817.5939</ele>
        <time>2014-08-30T08:28:37Z</time>
      </trkpt>
      <trkpt lat="46.20642" lon="6.79035">
        <ele>1817.5939</ele>
        <time>2014-08-30T08:28:42Z</time>
      </trkpt>
      <trkpt lat="46.20639" lon="6.79038">
        <ele>1819.0126</ele>
        <time>2014-08-30T08:28:47Z</time>
      </trkpt>
      <trkpt lat="46.20636" lon="6.79042">
        <ele>1819.0126</ele>
        <time>2014-08-30T08:28:52Z</time>
      </trkpt>
      <trkpt lat="46.20634" lon="6.79044">
        <ele>1819.0126</ele>
        <time>2014-08-30T08:28:57Z</time>
      </trkpt>
      <trkpt lat="46.20632" lon="6.79047">
        <ele>1820.6514</ele>
        <time>2014-08-30T08:29:02Z</time>
      </trkpt>
      <trkpt lat="46.2063" lon="6.7905">
        <ele>1820.6514</ele>
        <time>2014-08-30T08:29:07Z</time>
      </trkpt>
      <trkpt lat="46.20628" lon="6.79052">
        <ele>1820.6514</ele>
        <time>2014-08-30T08:29:12Z</time>
      </trkpt>
      <trkpt lat="46.20625" lon="6.79054">
        <ele>1820.6514</ele>
        <time>2014-08-30T08:29:17Z</time>
      </trkpt>
      <trkpt lat="46.20622" lon="6.79056">
        <ele>1822.4891</ele>
        <time>2014-08-30T08:29:22Z</time>
      </trkpt>
      <trkpt lat="46.2062" lon="6.79059">
        <ele>1822.4891</ele>
        <time>2014-08-30T08:29:27Z</time>
      </trkpt>
      <trkpt lat="46.20617" lon="6.79062">
        <ele>1822.4891</ele>
        <time>2014-08-30T08:29:32Z</time>
      </trkpt>
      <trkpt lat="46.20613" lon="6.7907">
        <ele>1824.463</ele>
        <time>2014-08-30T08:29:37Z</time>
      </trkpt>
      <trkpt lat="46.20612" lon="6.79073">
        <ele>1824.463</ele>
        <time>2014-08-30T08:29:42Z</time>
      </trkpt>
      <trkpt lat="46.20609" lon="6.79079">
        <ele>1824.463</ele>
        <time>2014-08-30T08:29:47Z</time>
      </trkpt>
      <trkpt lat="46.20606" lon="6.79085">
        <ele>1826.6147</ele>
        <time>2014-08-30T08:29:52Z</time>
      </trkpt>
      <trkpt lat="46.20603" lon="6.79089">
        <ele>1826.6147</ele>
        <time>2014-08-30T08:29:57Z</time>
      </trkpt>
      <trkpt lat="46.20601" lon="6.79093">
        <ele>1826.6147</ele>
        <time>2014-08-30T08:30:02Z</time>
      </trkpt>
      <trkpt lat="46.20598" lon="6.79099">
        <ele>1828.7958</ele>
        <time>2014-08-30T08:30:07Z</time>
      </trkpt>
      <trkpt lat="46.20595" lon="6.79106">
        <ele>1828.7958</ele>
        <time>2014-08-30T08:30:12Z</time>
      </trkpt>
      <trkpt lat="46.20592" lon="6.79111">
        <ele>1830.8971</ele>
        <time>2014-08-30T08:30:17Z</time>
      </trkpt>
      <trkpt lat="46.20588" lon="6.79116">
        <ele>1830.8971</ele>
        <time>2014-08-30T08:30:22Z</time>
      </trkpt>
      <trkpt lat="46.20585" lon="6.79118">
        <ele>1830.8971</ele>
        <time>2014-08-30T08:30:27Z</time>
      </trkpt>
      <trkpt lat="46.2058" lon="6.79123">
        <ele>1832.8613</ele>
        <time>2014-08-30T08:30:32Z</time>
      </trkpt>
      <trkpt lat="46.20577" lon="6.79131">
        <ele>1832.8613</ele>
        <time>2014-08-30T08:30:37Z</time>
      </trkpt>
      <trkpt lat="46.20574" lon="6.79135">
        <ele>1834.6504</ele>
        <time>2014-08-30T08:30:42Z</time>
      </trkpt>
      <trkpt lat="46.20571" lon="6.79138">
        <ele>1834.6504</ele>
        <time>2014-08-30T08:30:47Z</time>
      </trkpt>
      <trkpt lat="46.20569" lon="6.7914">
        <ele>1834.6504</ele>
        <time>2014-08-30T08:30:52Z</time>
      </trkpt>
      <trkpt lat="46.20563" lon="6.79143">
        <ele>1836.2439</ele>
        <time>2014-08-30T08:30:57Z</time>
      </trkpt>
      <trkpt lat="46.20558" lon="6.79146">
        <ele>1836.2439</ele>
        <time>2014-08-30T08:31:02Z</time>
      </trkpt>
      <trkpt lat="46.20555" lon="6.79149">
        <ele>1837.6235</ele>
        <time>2014-08-30T08:31:07Z</time>
      </trkpt>
      <trkpt lat="46.20551" lon="6.79152">
        <ele>1837.6235</ele>
        <time>2014-08-30T08:31:12Z</time>
      </trkpt>
      <trkpt lat="46.20549" lon="6.79157">
        <ele>1837.6235</ele>
        <time>2014-08-30T08:31:17Z</time>
      </trkpt>
      <trkpt lat="46.20547" lon="6.79162">
        <ele>1838.8741</ele>
        <time>2014-08-30T08:31:22Z</time>
      </trkpt>
      <trkpt lat="46.20544" lon="6.79167">
        <ele>1838.8741</ele>
        <time>2014-08-30T08:31:27Z</time>
      </trkpt>
      <trkpt lat="46.20541" lon="6.79172">
        <ele>1840.0317</ele>
        <time>2014-08-30T08:31:32Z</time>
      </trkpt>
      <trkpt lat="46.20536" lon="6.79179">
        <ele>1840.0317</ele>
        <time>2014-08-30T08:31:37Z</time>
      </trkpt>
      <trkpt lat="46.20533" lon="6.79185">
        <ele>1841.0289</ele>
        <time>2014-08-30T08:31:42Z</time>
      </trkpt>
      <trkpt lat="46.2053" lon="6.7919">
        <ele>1841.0289</ele>
        <time>2014-08-30T08:31:47Z</time>
      </trkpt>
      <trkpt lat="46.20526" lon="6.79196">
        <ele>1841.9624</ele>
        <time>2014-08-30T08:31:52Z</time>
      </trkpt>
      <trkpt lat="46.20522" lon="6.792">
        <ele>1841.9624</ele>
        <time>2014-08-30T08:31:57Z</time>
      </trkpt>
      <trkpt lat="46.20518" lon="6.79202">
        <ele>1842.7782</ele>
        <time>2014-08-30T08:32:02Z</time>
      </trkpt>
      <trkpt lat="46.20515" lon="6.79203">
        <ele>1842.7782</ele>
        <time>2014-08-30T08:32:07Z</time>
      </trkpt>
      <trkpt lat="46.20511" lon="6.79203">
        <ele>1842.7782</ele>
        <time>2014-08-30T08:32:12Z</time>
      </trkpt>
      <trkpt lat="46.20507" lon="6.79204">
        <ele>1843.4987</ele>
        <time>2014-08-30T08:32:17Z</time>
      </trkpt>
      <trkpt lat="46.20502" lon="6.79205">
        <ele>1843.4987</ele>
        <time>2014-08-30T08:32:22Z</time>
      </trkpt>
      <trkpt lat="46.20496" lon="6.79205">
        <ele>1844.1014</ele>
        <time>2014-08-30T08:32:27Z</time>
      </trkpt>
      <trkpt lat="46.20492" lon="6.79208">
        <ele>1844.1014</ele>
        <time>2014-08-30T08:32:32Z</time>
      </trkpt>
      <trkpt lat="46.20488" lon="6.79211">
        <ele>1844.1014</ele>
        <time>2014-08-30T08:32:37Z</time>
      </trkpt>
      <trkpt lat="46.20486" lon="6.79213">
        <ele>1844.7684</ele>
        <time>2014-08-30T08:32:42Z</time>
      </trkpt>
      <trkpt lat="46.20482" lon="6.79216">
        <ele>1844.7684</ele>
        <time>2014-08-30T08:32:47Z</time>
      </trkpt>
      <trkpt lat="46.2048" lon="6.79219">
        <ele>1844.7684</ele>
        <time>2014-08-30T08:32:52Z</time>
      </trkpt>
      <trkpt lat="46.20475" lon="6.79225">
        <ele>1845.5093</ele>
        <time>2014-08-30T08:32:57Z</time>
      </trkpt>
      <trkpt lat="46.20473" lon="6.79228">
        <ele>1845.5093</ele>
        <time>2014-08-30T08:33:02Z</time>
      </trkpt>
      <trkpt lat="46.20469" lon="6.7923">
        <ele>1845.5093</ele>
        <time>2014-08-30T08:33:07Z</time>
      </trkpt>
      <trkpt lat="46.20465" lon="6.79233">
        <ele>1846.333</ele>
        <time>2014-08-30T08:33:12Z</time>
      </trkpt>
      <trkpt lat="46.20462" lon="6.79235">
        <ele>1846.333</ele>
        <time>2014-08-30T08:33:17Z</time>
      </trkpt>
      <trkpt lat="46.20459" lon="6.79237">
        <ele>1846.333</ele>
        <time>2014-08-30T08:33:22Z</time>
      </trkpt>
      <trkpt lat="46.20454" lon="6.79236">
        <ele>1847.2332</ele>
        <time>2014-08-30T08:33:27Z</time>
      </trkpt>
      <trkpt lat="46.20452" lon="6.79236">
        <ele>1847.2332</ele>
        <time>2014-08-30T08:33:32Z</time>
      </trkpt>
      <trkpt lat="46.20445" lon="6.79235">
        <ele>1848.0886</ele>
        <time>2014-08-30T08:33:37Z</time>
      </trkpt>
      <trkpt lat="46.20442" lon="6.79237">
        <ele>1848.0886</ele>
        <time>2014-08-30T08:33:42Z</time>
      </trkpt>
      <trkpt lat="46.20438" lon="6.79238">
        <ele>1848.0886</ele>
        <time>2014-08-30T08:33:47Z</time>
      </trkpt>
      <trkpt lat="46.20435" lon="6.79241">
        <ele>1849.0465</ele>
        <time>2014-08-30T08:33:52Z</time>
      </trkpt>
      <trkpt lat="46.20433" lon="6.79241">
        <ele>1849.0465</ele>
        <time>2014-08-30T08:33:57Z</time>
      </trkpt>
      <trkpt lat="46.20432" lon="6.79242">
        <ele>1849.0465</ele>
        <time>2014-08-30T08:34:02Z</time>
      </trkpt>
      <trkpt lat="46.20429" lon="6.79244">
        <ele>1849.0465</ele>
        <time>2014-08-30T08:34:07Z</time>
      </trkpt>
      <trkpt lat="46.20427" lon="6.79246">
        <ele>1849.0465</ele>
        <time>2014-08-30T08:34:12Z</time>
      </trkpt>
      <trkpt lat="46.20424" lon="6.79247">
        <ele>1850.2286</ele>
        <time>2014-08-30T08:34:17Z</time>
      </trkpt>
      <trkpt lat="46.20421" lon="6.79249">
        <ele>1850.2286</ele>
        <time>2014-08-30T08:34:22Z</time>
      </trkpt>
      <trkpt lat="46.20416" lon="6.79251">
        <ele>1850.2286</ele>
        <time>2014-08-30T08:34:27Z</time>
      </trkpt>
      <trkpt lat="46.20414" lon="6.79252">
        <ele>1851.6754</ele>
        <time>2014-08-30T08:34:32Z</time>
      </trkpt>
      <trkpt lat="46.20411" lon="6.79254">
        <ele>1851.6754</ele>
        <time>2014-08-30T08:34:37Z</time>
      </trkpt>
      <trkpt lat="46.20406" lon="6.79255">
        <ele>1851.6754</ele>
        <time>2014-08-30T08:34:42Z</time>
      </trkpt>
      <trkpt lat="46.20401" lon="6.79258">
        <ele>1853.3367</ele>
        <time>2014-08-30T08:34:47Z</time>
      </trkpt>
      <trkpt lat="46.20398" lon="6.79259">
        <ele>1853.3367</ele>
        <time>2014-08-30T08:34:52Z</time>
      </trkpt>
      <trkpt lat="46.20392" lon="6.79261">
        <ele>1855.0507</ele>
        <time>2014-08-30T08:34:57Z</time>
      </trkpt>
      <trkpt lat="46.20388" lon="6.79261">
        <ele>1855.0507</ele>
        <time>2014-08-30T08:35:02Z</time>
      </trkpt>
      <trkpt lat="46.20384" lon="6.79261">
        <ele>1855.0507</ele>
        <time>2014-08-30T08:35:07Z</time>
      </trkpt>
      <trkpt lat="46.20382" lon="6.79263">
        <ele>1856.8401</ele>
        <time>2014-08-30T08:35:12Z</time>
      </trkpt>
      <trkpt lat="46.20379" lon="6.79265">
        <ele>1856.8401</ele>
        <time>2014-08-30T08:35:17Z</time>
      </trkpt>
      <trkpt lat="46.20375" lon="6.79266">
        <ele>1856.8401</ele>
        <time>2014-08-30T08:35:22Z</time>
      </trkpt>
      <trkpt lat="46.20372" lon="6.79266">
        <ele>1858.4807</ele>
        <time>2014-08-30T08:35:27Z</time>
      </trkpt>
      <trkpt lat="46.20364" lon="6.79265">
        <ele>1858.4807</ele>
        <time>2014-08-30T08:35:32Z</time>
      </trkpt>
      <trkpt lat="46.2036" lon="6.79267">
        <ele>1859.996</ele>
        <time>2014-08-30T08:35:37Z</time>
      </trkpt>
      <trkpt lat="46.20356" lon="6.79267">
        <ele>1859.996</ele>
        <time>2014-08-30T08:35:42Z</time>
      </trkpt>
      <trkpt lat="46.20349" lon="6.79267">
        <ele>1861.3938</ele>
        <time>2014-08-30T08:35:47Z</time>
      </trkpt>
      <trkpt lat="46.20345" lon="6.79268">
        <ele>1861.3938</ele>
        <time>2014-08-30T08:35:52Z</time>
      </trkpt>
      <trkpt lat="46.20342" lon="6.79273">
        <ele>1861.3938</ele>
        <time>2014-08-30T08:35:57Z</time>
      </trkpt>
      <trkpt lat="46.2034" lon="6.79279">
        <ele>1862.6528</ele>
        <time>2014-08-30T08:36:02Z</time>
      </trkpt>
      <trkpt lat="46.20337" lon="6.79286">
        <ele>1862.6528</ele>
        <time>2014-08-30T08:36:07Z</time>
      </trkpt>
      <trkpt lat="46.20336" lon="6.79291">
        <ele>1862.6528</ele>
        <time>2014-08-30T08:36:12Z</time>
      </trkpt>
      <trkpt lat="46.20333" lon="6.79298">
        <ele>1863.7538</ele>
        <time>2014-08-30T08:36:17Z</time>
      </trkpt>
      <trkpt lat="46.20331" lon="6.79301">
        <ele>1863.7538</ele>
        <time>2014-08-30T08:36:22Z</time>
      </trkpt>
      <trkpt lat="46.20329" lon="6.79307">
        <ele>1863.7538</ele>
        <time>2014-08-30T08:36:27Z</time>
      </trkpt>
      <trkpt lat="46.20328" lon="6.79312">
        <ele>1864.6506</ele>
        <time>2014-08-30T08:36:32Z</time>
      </trkpt>
      <trkpt lat="46.20326" lon="6.79317">
        <ele>1864.6506</ele>
        <time>2014-08-30T08:36:37Z</time>
      </trkpt>
      <trkpt lat="46.20322" lon="6.79322">
        <ele>1865.4308</ele>
        <time>2014-08-30T08:36:42Z</time>
      </trkpt>
      <trkpt lat="46.2032" lon="6.79326">
        <ele>1865.4308</ele>
        <time>2014-08-30T08:36:47Z</time>
      </trkpt>
      <trkpt lat="46.20317" lon="6.79331">
        <ele>1865.4308</ele>
        <time>2014-08-30T08:36:52Z</time>
      </trkpt>
      <trkpt lat="46.20316" lon="6.79332">
        <ele>1866.1471</ele>
        <time>2014-08-30T08:36:57Z</time>
      </trkpt>
      <trkpt lat="46.20314" lon="6.79333">
        <ele>1866.1471</ele>
        <time>2014-08-30T08:37:02Z</time>
      </trkpt>
      <trkpt lat="46.20312" lon="6.79338">
        <ele>1866.1471</ele>
        <time>2014-08-30T08:37:07Z</time>
      </trkpt>
      <trkpt lat="46.20308" lon="6.79342">
        <ele>1866.8773</ele>
        <time>2014-08-30T08:37:12Z</time>
      </trkpt>
      <trkpt lat="46.20305" lon="6.79346">
        <ele>1866.8773</ele>
        <time>2014-08-30T08:37:17Z</time>
      </trkpt>
      <trkpt lat="46.20304" lon="6.79349">
        <ele>1866.8773</ele>
        <time>2014-08-30T08:37:22Z</time>
      </trkpt>
      <trkpt lat="46.20301" lon="6.79352">
        <ele>1867.564</ele>
        <time>2014-08-30T08:37:27Z</time>
      </trkpt>
      <trkpt lat="46.20298" lon="6.79355">
        <ele>1867.564</ele>
        <time>2014-08-30T08:37:32Z</time>
      </trkpt>
      <trkpt lat="46.20295" lon="6.79361">
        <ele>1868.1971</ele>
        <time>2014-08-30T08:37:37Z</time>
      </trkpt>
      <trkpt lat="46.20292" lon="6.79366">
        <ele>1868.1971</ele>
        <time>2014-08-30T08:37:42Z</time>
      </trkpt>
      <trkpt lat="46.20291" lon="6.79368">
        <ele>1868.1971</ele>
        <time>2014-08-30T08:37:47Z</time>
      </trkpt>
      <trkpt lat="46.2029" lon="6.79371">
        <ele>1868.1971</ele>
        <time>2014-08-30T08:37:52Z</time>
      </trkpt>
      <trkpt lat="46.20288" lon="6.79375">
        <ele>1868.9119</ele>
        <time>2014-08-30T08:37:57Z</time>
      </trkpt>
      <trkpt lat="46.20286" lon="6.7938">
        <ele>1868.9119</ele>
        <time>2014-08-30T08:38:02Z</time>
      </trkpt>
      <trkpt lat="46.20283" lon="6.79384">
        <ele>1868.9119</ele>
        <time>2014-08-30T08:38:07Z</time>
      </trkpt>
      <trkpt lat="46.2028" lon="6.79389">
        <ele>1869.5305</ele>
        <time>2014-08-30T08:38:12Z</time>
      </trkpt>
      <trkpt lat="46.20276" lon="6.79394">
        <ele>1869.5305</ele>
        <time>2014-08-30T08:38:17Z</time>
      </trkpt>
      <trkpt lat="46.20274" lon="6.79398">
        <ele>1869.5305</ele>
        <time>2014-08-30T08:38:22Z</time>
      </trkpt>
      <trkpt lat="46.20271" lon="6.79402">
        <ele>1870.0905</ele>
        <time>2014-08-30T08:38:27Z</time>
      </trkpt>
      <trkpt lat="46.20268" lon="6.79405">
        <ele>1870.0905</ele>
        <time>2014-08-30T08:38:32Z</time>
      </trkpt>
      <trkpt lat="46.20264" lon="6.79411">
        <ele>1870.5977</ele>
        <time>2014-08-30T08:38:37Z</time>
      </trkpt>
      <trkpt lat="46.20262" lon="6.79414">
        <ele>1870.5977</ele>
        <time>2014-08-30T08:38:42Z</time>
      </trkpt>
      <trkpt lat="46.20258" lon="6.79418">
        <ele>1870.5977</ele>
        <time>2014-08-30T08:38:47Z</time>
      </trkpt>
      <trkpt lat="46.20256" lon="6.79421">
        <ele>1871.1444</ele>
        <time>2014-08-30T08:38:52Z</time>
      </trkpt>
      <trkpt lat="46.20253" lon="6.79426">
        <ele>1871.1444</ele>
        <time>2014-08-30T08:38:57Z</time>
      </trkpt>
      <trkpt lat="46.20252" lon="6.79429">
        <ele>1871.1444</ele>
        <time>2014-08-30T08:39:02Z</time>
      </trkpt>
      <trkpt lat="46.2025" lon="6.79432">
        <ele>1871.7583</ele>
        <time>2014-08-30T08:39:07Z</time>
      </trkpt>
      <trkpt lat="46.20247" lon="6.79437">
        <ele>1871.7583</ele>
        <time>2014-08-30T08:39:12Z</time>
      </trkpt>
      <trkpt lat="46.20241" lon="6.79443">
        <ele>1872.364</ele>
        <time>2014-08-30T08:39:17Z</time>
      </trkpt>
      <trkpt lat="46.20239" lon="6.79446">
        <ele>1872.364</ele>
        <time>2014-08-30T08:39:22Z</time>
      </trkpt>
      <trkpt lat="46.20235" lon="6.79451">
        <ele>1872.364</ele>
        <time>2014-08-30T08:39:27Z</time>
      </trkpt>
      <trkpt lat="46.20233" lon="6.79456">
        <ele>1873.0068</ele>
        <time>2014-08-30T08:39:32Z</time>
      </trkpt>
      <trkpt lat="46.20229" lon="6.79463">
        <ele>1873.0068</ele>
        <time>2014-08-30T08:39:37Z</time>
      </trkpt>
      <trkpt lat="46.20226" lon="6.79467">
        <ele>1873.6278</ele>
        <time>2014-08-30T08:39:42Z</time>
      </trkpt>
      <trkpt lat="46.20222" lon="6.7947">
        <ele>1873.6278</ele>
        <time>2014-08-30T08:39:47Z</time>
      </trkpt>
      <trkpt lat="46.20218" lon="6.79473">
        <ele>1874.2733</ele>
        <time>2014-08-30T08:39:52Z</time>
      </trkpt>
      <trkpt lat="46.20216" lon="6.79476">
        <ele>1874.2733</ele>
        <time>2014-08-30T08:39:57Z</time>
      </trkpt>
      <trkpt lat="46.20214" lon="6.79478">
        <ele>1874.2733</ele>
        <time>2014-08-30T08:40:02Z</time>
      </trkpt>
      <trkpt lat="46.20212" lon="6.79481">
        <ele>1874.2733</ele>
        <time>2014-08-30T08:40:07Z</time>
      </trkpt>
      <trkpt lat="46.20209" lon="6.79484">
        <ele>1874.8853</ele>
        <time>2014-08-30T08:40:12Z</time>
      </trkpt>
      <trkpt lat="46.20207" lon="6.79487">
        <ele>1874.8853</ele>
        <time>2014-08-30T08:40:17Z</time>
      </trkpt>
      <trkpt lat="46.20206" lon="6.79489">
        <ele>1874.8853</ele>
        <time>2014-08-30T08:40:22Z</time>
      </trkpt>
      <trkpt lat="46.20205" lon="6.7949">
        <ele>1874.8853</ele>
        <time>2014-08-30T08:40:27Z</time>
      </trkpt>
      <trkpt lat="46.20199" lon="6.79495">
        <ele>1875.655</ele>
        <time>2014-08-30T08:40:32Z</time>
      </trkpt>
      <trkpt lat="46.20197" lon="6.79499">
        <ele>1875.655</ele>
        <time>2014-08-30T08:40:37Z</time>
      </trkpt>
      <trkpt lat="46.20195" lon="6.795">
        <ele>1875.655</ele>
        <time>2014-08-30T08:40:42Z</time>
      </trkpt>
      <trkpt lat="46.20193" lon="6.79507">
        <ele>1876.5286</ele>
        <time>2014-08-30T08:40:47Z</time>
      </trkpt>
      <trkpt lat="46.20189" lon="6.79513">
        <ele>1876.5286</ele>
        <time>2014-08-30T08:40:52Z</time>
      </trkpt>
      <trkpt lat="46.20185" lon="6.79517">
        <ele>1877.3406</ele>
        <time>2014-08-30T08:40:57Z</time>
      </trkpt>
      <trkpt lat="46.20183" lon="6.79521">
        <ele>1877.3406</ele>
        <time>2014-08-30T08:41:02Z</time>
      </trkpt>
      <trkpt lat="46.2018" lon="6.79525">
        <ele>1877.3406</ele>
        <time>2014-08-30T08:41:07Z</time>
      </trkpt>
      <trkpt lat="46.20177" lon="6.79529">
        <ele>1878.2549</ele>
        <time>2014-08-30T08:41:12Z</time>
      </trkpt>
      <trkpt lat="46.20174" lon="6.79533">
        <ele>1878.2549</ele>
        <time>2014-08-30T08:41:17Z</time>
      </trkpt>
      <trkpt lat="46.20171" lon="6.79538">
        <ele>1878.2549</ele>
        <time>2014-08-30T08:41:22Z</time>
      </trkpt>
      <trkpt lat="46.20168" lon="6.79542">
        <ele>1879.2068</ele>
        <time>2014-08-30T08:41:27Z</time>
      </trkpt>
      <trkpt lat="46.20166" lon="6.79548">
        <ele>1879.2068</ele>
        <time>2014-08-30T08:41:32Z</time>
      </trkpt>
      <trkpt lat="46.20164" lon="6.79552">
        <ele>1879.2068</ele>
        <time>2014-08-30T08:41:37Z</time>
      </trkpt>
      <trkpt lat="46.20162" lon="6.79557">
        <ele>1880.1075</ele>
        <time>2014-08-30T08:41:42Z</time>
      </trkpt>
      <trkpt lat="46.20162" lon="6.79561">
        <ele>1880.1075</ele>
        <time>2014-08-30T08:41:47Z</time>
      </trkpt>
      <trkpt lat="46.20161" lon="6.79567">
        <ele>1880.1075</ele>
        <time>2014-08-30T08:41:52Z</time>
      </trkpt>
      <trkpt lat="46.20159" lon="6.79573">
        <ele>1881.091</ele>
        <time>2014-08-30T08:41:57Z</time>
      </trkpt>
      <trkpt lat="46.20155" lon="6.79577">
        <ele>1881.091</ele>
        <time>2014-08-30T08:42:02Z</time>
      </trkpt>
      <trkpt lat="46.20153" lon="6.79582">
        <ele>1882.1655</ele>
        <time>2014-08-30T08:42:07Z</time>
      </trkpt>
      <trkpt lat="46.20148" lon="6.79589">
        <ele>1882.1655</ele>
        <time>2014-08-30T08:42:12Z</time>
      </trkpt>
      <trkpt lat="46.20146" lon="6.79594">
        <ele>1883.1951</ele>
        <time>2014-08-30T08:42:17Z</time>
      </trkpt>
      <trkpt lat="46.20145" lon="6.79598">
        <ele>1883.1951</ele>
        <time>2014-08-30T08:42:22Z</time>
      </trkpt>
      <trkpt lat="46.20144" lon="6.796">
        <ele>1883.1951</ele>
        <time>2014-08-30T08:42:27Z</time>
      </trkpt>
      <trkpt lat="46.20144" lon="6.79599">
        <ele>1883.1951</ele>
        <time>2014-08-30T08:42:32Z</time>
      </trkpt>
      <trkpt lat="46.2014" lon="6.79597">
        <ele>1883.1951</ele>
        <time>2014-08-30T08:42:37Z</time>
      </trkpt>
      <trkpt lat="46.2014" lon="6.79595">
        <ele>1884.5719</ele>
        <time>2014-08-30T08:42:42Z</time>
      </trkpt>
      <trkpt lat="46.2014" lon="6.79594">
        <ele>1884.5719</ele>
        <time>2014-08-30T08:42:47Z</time>
      </trkpt>
      <trkpt lat="46.2014" lon="6.79594">
        <ele>1884.5719</ele>
        <time>2014-08-30T08:42:52Z</time>
      </trkpt>
      <trkpt lat="46.20139" lon="6.79592">
        <ele>1884.5719</ele>
        <time>2014-08-30T08:42:57Z</time>
      </trkpt>
      <trkpt lat="46.2014" lon="6.79592">
        <ele>1884.5719</ele>
        <time>2014-08-30T08:43:02Z</time>
      </trkpt>
      <trkpt lat="46.20141" lon="6.79592">
        <ele>1884.5719</ele>
        <time>2014-08-30T08:43:07Z</time>
      </trkpt>
      <trkpt lat="46.20143" lon="6.79592">
        <ele>1884.5719</ele>
        <time>2014-08-30T08:43:12Z</time>
      </trkpt>
      <trkpt lat="46.20144" lon="6.79593">
        <ele>1884.5719</ele>
        <time>2014-08-30T08:43:17Z</time>
      </trkpt>
      <trkpt lat="46.20146" lon="6.79594">
        <ele>1885.9669</ele>
        <time>2014-08-30T08:43:22Z</time>
      </trkpt>
      <trkpt lat="46.20143" lon="6.79595">
        <ele>1885.9669</ele>
        <time>2014-08-30T08:43:27Z</time>
      </trkpt>
      <trkpt lat="46.20141" lon="6.79599">
        <ele>1885.9669</ele>
        <time>2014-08-30T08:43:32Z</time>
      </trkpt>
      <trkpt lat="46.20141" lon="6.796">
        <ele>1885.9669</ele>
        <time>2014-08-30T08:43:37Z</time>
      </trkpt>
      <trkpt lat="46.2014" lon="6.796">
        <ele>1885.9669</ele>
        <time>2014-08-30T08:43:42Z</time>
      </trkpt>
      <trkpt lat="46.2014" lon="6.79599">
        <ele>1885.9669</ele>
        <time>2014-08-30T08:43:47Z</time>
      </trkpt>
      <trkpt lat="46.2014" lon="6.796">
        <ele>1887.003</ele>
        <time>2014-08-30T08:43:52Z</time>
      </trkpt>
      <trkpt lat="46.20139" lon="6.796">
        <ele>1887.003</ele>
        <time>2014-08-30T08:43:57Z</time>
      </trkpt>
      <trkpt lat="46.20138" lon="6.796">
        <ele>1887.003</ele>
        <time>2014-08-30T08:44:02Z</time>
      </trkpt>
      <trkpt lat="46.20137" lon="6.796">
        <ele>1887.003</ele>
        <time>2014-08-30T08:44:07Z</time>
      </trkpt>
      <trkpt lat="46.20137" lon="6.796">
        <ele>1887.003</ele>
        <time>2014-08-30T08:44:12Z</time>
      </trkpt>
      <trkpt lat="46.20135" lon="6.79601">
        <ele>1887.003</ele>
        <time>2014-08-30T08:44:17Z</time>
      </trkpt>
      <trkpt lat="46.20133" lon="6.79603">
        <ele>1887.003</ele>
        <time>2014-08-30T08:44:22Z</time>
      </trkpt>
      <trkpt lat="46.20129" lon="6.79606">
        <ele>1887.8652</ele>
        <time>2014-08-30T08:44:27Z</time>
      </trkpt>
      <trkpt lat="46.20127" lon="6.79606">
        <ele>1887.8652</ele>
        <time>2014-08-30T08:44:32Z</time>
      </trkpt>
      <trkpt lat="46.20125" lon="6.79608">
        <ele>1887.8652</ele>
        <time>2014-08-30T08:44:37Z</time>
      </trkpt>
      <trkpt lat="46.20121" lon="6.79611">
        <ele>1888.5956</ele>
        <time>2014-08-30T08:44:42Z</time>
      </trkpt>
      <trkpt lat="46.20118" lon="6.79616">
        <ele>1888.5956</ele>
        <time>2014-08-30T08:44:47Z</time>
      </trkpt>
      <trkpt lat="46.20113" lon="6.79621">
        <ele>1889.291</ele>
        <time>2014-08-30T08:44:52Z</time>
      </trkpt>
      <trkpt lat="46.2011" lon="6.79626">
        <ele>1889.291</ele>
        <time>2014-08-30T08:44:57Z</time>
      </trkpt>
      <trkpt lat="46.20109" lon="6.79629">
        <ele>1889.291</ele>
        <time>2014-08-30T08:45:02Z</time>
      </trkpt>
      <trkpt lat="46.20108" lon="6.7963">
        <ele>1889.291</ele>
        <time>2014-08-30T08:45:07Z</time>
      </trkpt>
      <trkpt lat="46.20107" lon="6.79632">
        <ele>1890.0702</ele>
        <time>2014-08-30T08:45:12Z</time>
      </trkpt>
      <trkpt lat="46.20101" lon="6.79634">
        <ele>1890.0702</ele>
        <time>2014-08-30T08:45:17Z</time>
      </trkpt>
      <trkpt lat="46.20098" lon="6.79633">
        <ele>1890.0702</ele>
        <time>2014-08-30T08:45:22Z</time>
      </trkpt>
      <trkpt lat="46.20095" lon="6.79632">
        <ele>1890.971</ele>
        <time>2014-08-30T08:45:27Z</time>
      </trkpt>
      <trkpt lat="46.20093" lon="6.79634">
        <ele>1890.971</ele>
        <time>2014-08-30T08:45:32Z</time>
      </trkpt>
      <trkpt lat="46.20091" lon="6.79639">
        <ele>1890.971</ele>
        <time>2014-08-30T08:45:37Z</time>
      </trkpt>
      <trkpt lat="46.20089" lon="6.79641">
        <ele>1892.0134</ele>
        <time>2014-08-30T08:45:42Z</time>
      </trkpt>
      <trkpt lat="46.20086" lon="6.79645">
        <ele>1892.0134</ele>
        <time>2014-08-30T08:45:47Z</time>
      </trkpt>
      <trkpt lat="46.20082" lon="6.79648">
        <ele>1892.0134</ele>
        <time>2014-08-30T08:45:52Z</time>
      </trkpt>
      <trkpt lat="46.20079" lon="6.79649">
        <ele>1893.1727</ele>
        <time>2014-08-30T08:45:57Z</time>
      </trkpt>
      <trkpt lat="46.20076" lon="6.7965">
        <ele>1893.1727</ele>
        <time>2014-08-30T08:46:02Z</time>
      </trkpt>
      <trkpt lat="46.20074" lon="6.7965">
        <ele>1893.1727</ele>
        <time>2014-08-30T08:46:07Z</time>
      </trkpt>
      <trkpt lat="46.20071" lon="6.79653">
        <ele>1893.1727</ele>
        <time>2014-08-30T08:46:12Z</time>
      </trkpt>
      <trkpt lat="46.20067" lon="6.79658">
        <ele>1894.3678</ele>
        <time>2014-08-30T08:46:17Z</time>
      </trkpt>
      <trkpt lat="46.20066" lon="6.79658">
        <ele>1894.3678</ele>
        <time>2014-08-30T08:46:22Z</time>
      </trkpt>
      <trkpt lat="46.20065" lon="6.79658">
        <ele>1894.3678</ele>
        <time>2014-08-30T08:46:27Z</time>
      </trkpt>
      <trkpt lat="46.20062" lon="6.79657">
        <ele>1894.3678</ele>
        <time>2014-08-30T08:46:32Z</time>
      </trkpt>
      <trkpt lat="46.20059" lon="6.79656">
        <ele>1894.3678</ele>
        <time>2014-08-30T08:46:37Z</time>
      </trkpt>
      <trkpt lat="46.20056" lon="6.79654">
        <ele>1895.5665</ele>
        <time>2014-08-30T08:46:42Z</time>
      </trkpt>
      <trkpt lat="46.20054" lon="6.79654">
        <ele>1895.5665</ele>
        <time>2014-08-30T08:46:47Z</time>
      </trkpt>
      <trkpt lat="46.20051" lon="6.79655">
        <ele>1895.5665</ele>
        <time>2014-08-30T08:46:52Z</time>
      </trkpt>
      <trkpt lat="46.20048" lon="6.79656">
        <ele>1895.5665</ele>
        <time>2014-08-30T08:46:57Z</time>
      </trkpt>
      <trkpt lat="46.20045" lon="6.79655">
        <ele>1896.8113</ele>
        <time>2014-08-30T08:47:02Z</time>
      </trkpt>
      <trkpt lat="46.20043" lon="6.79655">
        <ele>1896.8113</ele>
        <time>2014-08-30T08:47:07Z</time>
      </trkpt>
      <trkpt lat="46.20038" lon="6.79655">
        <ele>1896.8113</ele>
        <time>2014-08-30T08:47:12Z</time>
      </trkpt>
      <trkpt lat="46.20035" lon="6.79656">
        <ele>1898.1989</ele>
        <time>2014-08-30T08:47:17Z</time>
      </trkpt>
      <trkpt lat="46.20032" lon="6.79657">
        <ele>1898.1989</ele>
        <time>2014-08-30T08:47:22Z</time>
      </trkpt>
      <trkpt lat="46.20032" lon="6.79657">
        <ele>1898.1989</ele>
        <time>2014-08-30T08:47:27Z</time>
      </trkpt>
      <trkpt lat="46.20032" lon="6.79656">
        <ele>1898.1989</ele>
        <time>2014-08-30T08:47:32Z</time>
      </trkpt>
      <trkpt lat="46.20033" lon="6.79656">
        <ele>1898.1989</ele>
        <time>2014-08-30T08:47:37Z</time>
      </trkpt>
      <trkpt lat="46.20034" lon="6.79656">
        <ele>1898.1989</ele>
        <time>2014-08-30T08:47:42Z</time>
      </trkpt>
      <trkpt lat="46.20035" lon="6.79656">
        <ele>1898.1989</ele>
        <time>2014-08-30T08:47:47Z</time>
      </trkpt>
      <trkpt lat="46.20036" lon="6.79656">
        <ele>1898.1989</ele>
        <time>2014-08-30T08:47:52Z</time>
      </trkpt>
      <trkpt lat="46.20036" lon="6.79656">
        <ele>1898.1989</ele>
        <time>2014-08-30T08:47:57Z</time>
      </trkpt>
      <trkpt lat="46.20034" lon="6.7966">
        <ele>1899.7177</ele>
        <time>2014-08-30T08:48:02Z</time>
      </trkpt>
      <trkpt lat="46.20033" lon="6.79665">
        <ele>1899.7177</ele>
        <time>2014-08-30T08:48:07Z</time>
      </trkpt>
      <trkpt lat="46.20031" lon="6.79669">
        <ele>1899.7177</ele>
        <time>2014-08-30T08:48:12Z</time>
      </trkpt>
      <trkpt lat="46.2003" lon="6.79671">
        <ele>1899.7177</ele>
        <time>2014-08-30T08:48:17Z</time>
      </trkpt>
      <trkpt lat="46.20029" lon="6.79675">
        <ele>1901.4286</ele>
        <time>2014-08-30T08:48:22Z</time>
      </trkpt>
      <trkpt lat="46.20027" lon="6.79677">
        <ele>1901.4286</ele>
        <time>2014-08-30T08:48:27Z</time>
      </trkpt>
      <trkpt lat="46.20026" lon="6.79679">
        <ele>1901.4286</ele>
        <time>2014-08-30T08:48:32Z</time>
      </trkpt>
      <trkpt lat="46.20025" lon="6.79682">
        <ele>1901.4286</ele>
        <time>2014-08-30T08:48:37Z</time>
      </trkpt>
      <trkpt lat="46.20023" lon="6.79686">
        <ele>1903.2003</ele>
        <time>2014-08-30T08:48:42Z</time>
      </trkpt>
      <trkpt lat="46.2002" lon="6.79689">
        <ele>1903.2003</ele>
        <time>2014-08-30T08:48:47Z</time>
      </trkpt>
      <trkpt lat="46.20018" lon="6.79692">
        <ele>1903.2003</ele>
        <time>2014-08-30T08:48:52Z</time>
      </trkpt>
      <trkpt lat="46.20015" lon="6.79698">
        <ele>1905.1412</ele>
        <time>2014-08-30T08:48:57Z</time>
      </trkpt>
      <trkpt lat="46.20013" lon="6.797">
        <ele>1905.1412</ele>
        <time>2014-08-30T08:49:02Z</time>
      </trkpt>
      <trkpt lat="46.20011" lon="6.79704">
        <ele>1905.1412</ele>
        <time>2014-08-30T08:49:07Z</time>
      </trkpt>
      <trkpt lat="46.2001" lon="6.79705">
        <ele>1905.1412</ele>
        <time>2014-08-30T08:49:12Z</time>
      </trkpt>
      <trkpt lat="46.2001" lon="6.79707">
        <ele>1905.1412</ele>
        <time>2014-08-30T08:49:17Z</time>
      </trkpt>
      <trkpt lat="46.20009" lon="6.79712">
        <ele>1907.1932</ele>
        <time>2014-08-30T08:49:22Z</time>
      </trkpt>
      <trkpt lat="46.20008" lon="6.79716">
        <ele>1907.1932</ele>
        <time>2014-08-30T08:49:27Z</time>
      </trkpt>
      <trkpt lat="46.20006" lon="6.79719">
        <ele>1907.1932</ele>
        <time>2014-08-30T08:49:32Z</time>
      </trkpt>
      <trkpt lat="46.20002" lon="6.79722">
        <ele>1909.2444</ele>
        <time>2014-08-30T08:49:37Z</time>
      </trkpt>
      <trkpt lat="46.2" lon="6.79725">
        <ele>1909.2444</ele>
        <time>2014-08-30T08:49:42Z</time>
      </trkpt>
      <trkpt lat="46.19998" lon="6.79729">
        <ele>1909.2444</ele>
        <time>2014-08-30T08:49:47Z</time>
      </trkpt>
      <trkpt lat="46.19996" lon="6.79731">
        <ele>1911.234</ele>
        <time>2014-08-30T08:49:52Z</time>
      </trkpt>
      <trkpt lat="46.19992" lon="6.79735">
        <ele>1911.234</ele>
        <time>2014-08-30T08:49:57Z</time>
      </trkpt>
      <trkpt lat="46.19991" lon="6.79736">
        <ele>1911.234</ele>
        <time>2014-08-30T08:50:02Z</time>
      </trkpt>
      <trkpt lat="46.19988" lon="6.79739">
        <ele>1913.3081</ele>
        <time>2014-08-30T08:50:07Z</time>
      </trkpt>
      <trkpt lat="46.19984" lon="6.79739">
        <ele>1913.3081</ele>
        <time>2014-08-30T08:50:12Z</time>
      </trkpt>
      <trkpt lat="46.19982" lon="6.79739">
        <ele>1913.3081</ele>
        <time>2014-08-30T08:50:17Z</time>
      </trkpt>
      <trkpt lat="46.19979" lon="6.7974">
        <ele>1913.3081</ele>
        <time>2014-08-30T08:50:22Z</time>
      </trkpt>
      <trkpt lat="46.19976" lon="6.7974">
        <ele>1915.3856</ele>
        <time>2014-08-30T08:50:27Z</time>
      </trkpt>
      <trkpt lat="46.19973" lon="6.7974">
        <ele>1915.3856</ele>
        <time>2014-08-30T08:50:32Z</time>
      </trkpt>
      <trkpt lat="46.19971" lon="6.79742">
        <ele>1915.3856</ele>
        <time>2014-08-30T08:50:37Z</time>
      </trkpt>
      <trkpt lat="46.19972" lon="6.79743">
        <ele>1915.3856</ele>
        <time>2014-08-30T08:50:42Z</time>
      </trkpt>
      <trkpt lat="46.19975" lon="6.79746">
        <ele>1917.3336</ele>
        <time>2014-08-30T08:50:47Z</time>
      </trkpt>
      <trkpt lat="46.19979" lon="6.7975">
        <ele>1917.3336</ele>
        <time>2014-08-30T08:50:52Z</time>
      </trkpt>
      <trkpt lat="46.19983" lon="6.79755">
        <ele>1919.0009</ele>
        <time>2014-08-30T08:50:57Z</time>
      </trkpt>
      <trkpt lat="46.19982" lon="6.79757">
        <ele>1919.0009</ele>
        <time>2014-08-30T08:51:02Z</time>
      </trkpt>
      <trkpt lat="46.19979" lon="6.79761">
        <ele>1919.0009</ele>
        <time>2014-08-30T08:51:07Z</time>
      </trkpt>
      <trkpt lat="46.19977" lon="6.79764">
        <ele>1920.6511</ele>
        <time>2014-08-30T08:51:12Z</time>
      </trkpt>
      <trkpt lat="46.19974" lon="6.79766">
        <ele>1920.6511</ele>
        <time>2014-08-30T08:51:17Z</time>
      </trkpt>
      <trkpt lat="46.19974" lon="6.79766">
        <ele>1920.6511</ele>
        <time>2014-08-30T08:51:22Z</time>
      </trkpt>
      <trkpt lat="46.19974" lon="6.79765">
        <ele>1920.6511</ele>
        <time>2014-08-30T08:51:27Z</time>
      </trkpt>
      <trkpt lat="46.19974" lon="6.79764">
        <ele>1920.6511</ele>
        <time>2014-08-30T08:51:32Z</time>
      </trkpt>
      <trkpt lat="46.19974" lon="6.79764">
        <ele>1920.6511</ele>
        <time>2014-08-30T08:51:37Z</time>
      </trkpt>
      <trkpt lat="46.19974" lon="6.79763">
        <ele>1920.6511</ele>
        <time>2014-08-30T08:51:42Z</time>
      </trkpt>
      <trkpt lat="46.19973" lon="6.79762">
        <ele>1920.6511</ele>
        <time>2014-08-30T08:51:47Z</time>
      </trkpt>
      <trkpt lat="46.19973" lon="6.79763">
        <ele>1920.6511</ele>
        <time>2014-08-30T08:51:52Z</time>
      </trkpt>
      <trkpt lat="46.19972" lon="6.79763">
        <ele>1920.6511</ele>
        <time>2014-08-30T08:51:57Z</time>
      </trkpt>
      <trkpt lat="46.19972" lon="6.79764">
        <ele>1920.6511</ele>
        <time>2014-08-30T08:52:02Z</time>
      </trkpt>
      <trkpt lat="46.19972" lon="6.79764">
        <ele>1920.6511</ele>
        <time>2014-08-30T08:52:07Z</time>
      </trkpt>
      <trkpt lat="46.19973" lon="6.79765">
        <ele>1920.6511</ele>
        <time>2014-08-30T08:52:12Z</time>
      </trkpt>
      <trkpt lat="46.19974" lon="6.79765">
        <ele>1922.3851</ele>
        <time>2014-08-30T08:52:17Z</time>
      </trkpt>
      <trkpt lat="46.19975" lon="6.79765">
        <ele>1922.3851</ele>
        <time>2014-08-30T08:52:22Z</time>
      </trkpt>
      <trkpt lat="46.19975" lon="6.79765">
        <ele>1922.3851</ele>
        <time>2014-08-30T08:52:27Z</time>
      </trkpt>
      <trkpt lat="46.19974" lon="6.79765">
        <ele>1922.3851</ele>
        <time>2014-08-30T08:52:32Z</time>
      </trkpt>
      <trkpt lat="46.19975" lon="6.79764">
        <ele>1922.3851</ele>
        <time>2014-08-30T08:52:37Z</time>
      </trkpt>
      <trkpt lat="46.19975" lon="6.79764">
        <ele>1922.3851</ele>
        <time>2014-08-30T08:52:42Z</time>
      </trkpt>
      <trkpt lat="46.19975" lon="6.79765">
        <ele>1922.3851</ele>
        <time>2014-08-30T08:52:47Z</time>
      </trkpt>
      <trkpt lat="46.19975" lon="6.79764">
        <ele>1922.3851</ele>
        <time>2014-08-30T08:52:52Z</time>
      </trkpt>
      <trkpt lat="46.19975" lon="6.79766">
        <ele>1922.3851</ele>
        <time>2014-08-30T08:52:57Z</time>
      </trkpt>
      <trkpt lat="46.19975" lon="6.79767">
        <ele>1922.3851</ele>
        <time>2014-08-30T08:53:02Z</time>
      </trkpt>
      <trkpt lat="46.19974" lon="6.79767">
        <ele>1922.3851</ele>
        <time>2014-08-30T08:53:07Z</time>
      </trkpt>
      <trkpt lat="46.19974" lon="6.79768">
        <ele>1922.3851</ele>
        <time>2014-08-30T08:53:12Z</time>
      </trkpt>
      <trkpt lat="46.19973" lon="6.79769">
        <ele>1922.3851</ele>
        <time>2014-08-30T08:53:17Z</time>
      </trkpt>
      <trkpt lat="46.19973" lon="6.79767">
        <ele>1922.3851</ele>
        <time>2014-08-30T08:53:22Z</time>
      </trkpt>
      <trkpt lat="46.19973" lon="6.79768">
        <ele>1922.3851</ele>
        <time>2014-08-30T08:53:27Z</time>
      </trkpt>
      <trkpt lat="46.19973" lon="6.79768">
        <ele>1922.3851</ele>
        <time>2014-08-30T08:53:32Z</time>
      </trkpt>
      <trkpt lat="46.19973" lon="6.79769">
        <ele>1923.9357</ele>
        <time>2014-08-30T08:53:37Z</time>
      </trkpt>
      <trkpt lat="46.19974" lon="6.7977">
        <ele>1923.9357</ele>
        <time>2014-08-30T08:53:42Z</time>
      </trkpt>
      <trkpt lat="46.19974" lon="6.7977">
        <ele>1923.9357</ele>
        <time>2014-08-30T08:53:47Z</time>
      </trkpt>
      <trkpt lat="46.19974" lon="6.79771">
        <ele>1923.9357</ele>
        <time>2014-08-30T08:53:52Z</time>
      </trkpt>
      <trkpt lat="46.19974" lon="6.79771">
        <ele>1923.9357</ele>
        <time>2014-08-30T08:53:57Z</time>
      </trkpt>
      <trkpt lat="46.19973" lon="6.7977">
        <ele>1923.9357</ele>
        <time>2014-08-30T08:54:02Z</time>
      </trkpt>
      <trkpt lat="46.19973" lon="6.79769">
        <ele>1923.9357</ele>
        <time>2014-08-30T08:54:07Z</time>
      </trkpt>
      <trkpt lat="46.19972" lon="6.79769">
        <ele>1923.9357</ele>
        <time>2014-08-30T08:54:12Z</time>
      </trkpt>
      <trkpt lat="46.19973" lon="6.79768">
        <ele>1923.9357</ele>
        <time>2014-08-30T08:54:17Z</time>
      </trkpt>
      <trkpt lat="46.19973" lon="6.79768">
        <ele>1923.9357</ele>
        <time>2014-08-30T08:54:22Z</time>
      </trkpt>
      <trkpt lat="46.19973" lon="6.79768">
        <ele>1923.9357</ele>
        <time>2014-08-30T08:54:27Z</time>
      </trkpt>
      <trkpt lat="46.19974" lon="6.79768">
        <ele>1923.9357</ele>
        <time>2014-08-30T08:54:32Z</time>
      </trkpt>
      <trkpt lat="46.19975" lon="6.79768">
        <ele>1923.9357</ele>
        <time>2014-08-30T08:54:37Z</time>
      </trkpt>
      <trkpt lat="46.19976" lon="6.79769">
        <ele>1923.9357</ele>
        <time>2014-08-30T08:54:42Z</time>
      </trkpt>
      <trkpt lat="46.19977" lon="6.7977">
        <ele>1925.5168</ele>
        <time>2014-08-30T08:54:47Z</time>
      </trkpt>
      <trkpt lat="46.19977" lon="6.79769">
        <ele>1925.5168</ele>
        <time>2014-08-30T08:54:52Z</time>
      </trkpt>
      <trkpt lat="46.19978" lon="6.79768">
        <ele>1925.5168</ele>
        <time>2014-08-30T08:54:57Z</time>
      </trkpt>
      <trkpt lat="46.19978" lon="6.79769">
        <ele>1925.5168</ele>
        <time>2014-08-30T08:55:02Z</time>
      </trkpt>
      <trkpt lat="46.19977" lon="6.79769">
        <ele>1925.5168</ele>
        <time>2014-08-30T08:55:07Z</time>
      </trkpt>
      <trkpt lat="46.19977" lon="6.7977">
        <ele>1925.5168</ele>
        <time>2014-08-30T08:55:12Z</time>
      </trkpt>
      <trkpt lat="46.19973" lon="6.79772">
        <ele>1925.5168</ele>
        <time>2014-08-30T08:55:17Z</time>
      </trkpt>
      <trkpt lat="46.19968" lon="6.79773">
        <ele>1926.9524</ele>
        <time>2014-08-30T08:55:22Z</time>
      </trkpt>
      <trkpt lat="46.19964" lon="6.79774">
        <ele>1926.9524</ele>
        <time>2014-08-30T08:55:27Z</time>
      </trkpt>
      <trkpt lat="46.19961" lon="6.79776">
        <ele>1926.9524</ele>
        <time>2014-08-30T08:55:32Z</time>
      </trkpt>
      <trkpt lat="46.19958" lon="6.79776">
        <ele>1928.2667</ele>
        <time>2014-08-30T08:55:37Z</time>
      </trkpt>
      <trkpt lat="46.19954" lon="6.79777">
        <ele>1928.2667</ele>
        <time>2014-08-30T08:55:42Z</time>
      </trkpt>
      <trkpt lat="46.19949" lon="6.79779">
        <ele>1929.5405</ele>
        <time>2014-08-30T08:55:47Z</time>
      </trkpt>
      <trkpt lat="46.19944" lon="6.7978">
        <ele>1929.5405</ele>
        <time>2014-08-30T08:55:52Z</time>
      </trkpt>
      <trkpt lat="46.19941" lon="6.79782">
        <ele>1929.5405</ele>
        <time>2014-08-30T08:55:57Z</time>
      </trkpt>
      <trkpt lat="46.1994" lon="6.79784">
        <ele>1930.7911</ele>
        <time>2014-08-30T08:56:02Z</time>
      </trkpt>
      <trkpt lat="46.19939" lon="6.79784">
        <ele>1930.7911</ele>
        <time>2014-08-30T08:56:07Z</time>
      </trkpt>
      <trkpt lat="46.19939" lon="6.79784">
        <ele>1930.7911</ele>
        <time>2014-08-30T08:56:12Z</time>
      </trkpt>
      <trkpt lat="46.19939" lon="6.79783">
        <ele>1930.7911</ele>
        <time>2014-08-30T08:56:17Z</time>
      </trkpt>
      <trkpt lat="46.19937" lon="6.79783">
        <ele>1930.7911</ele>
        <time>2014-08-30T08:56:22Z</time>
      </trkpt>
      <trkpt lat="46.19933" lon="6.79785">
        <ele>1930.7911</ele>
        <time>2014-08-30T08:56:27Z</time>
      </trkpt>
      <trkpt lat="46.19928" lon="6.79786">
        <ele>1932.0634</ele>
        <time>2014-08-30T08:56:32Z</time>
      </trkpt>
      <trkpt lat="46.19924" lon="6.79788">
        <ele>1932.0634</ele>
        <time>2014-08-30T08:56:37Z</time>
      </trkpt>
      <trkpt lat="46.1992" lon="6.79792">
        <ele>1933.2261</ele>
        <time>2014-08-30T08:56:42Z</time>
      </trkpt>
      <trkpt lat="46.19916" lon="6.79795">
        <ele>1933.2261</ele>
        <time>2014-08-30T08:56:47Z</time>
      </trkpt>
      <trkpt lat="46.19913" lon="6.79798">
        <ele>1933.2261</ele>
        <time>2014-08-30T08:56:52Z</time>
      </trkpt>
      <trkpt lat="46.19908" lon="6.79801">
        <ele>1934.4027</ele>
        <time>2014-08-30T08:56:57Z</time>
      </trkpt>
      <trkpt lat="46.19902" lon="6.79804">
        <ele>1934.4027</ele>
        <time>2014-08-30T08:57:02Z</time>
      </trkpt>
      <trkpt lat="46.19899" lon="6.79808">
        <ele>1935.492</ele>
        <time>2014-08-30T08:57:07Z</time>
      </trkpt>
      <trkpt lat="46.19897" lon="6.79812">
        <ele>1935.492</ele>
        <time>2014-08-30T08:57:12Z</time>
      </trkpt>
      <trkpt lat="46.19895" lon="6.79817">
        <ele>1935.492</ele>
        <time>2014-08-30T08:57:17Z</time>
      </trkpt>
      <trkpt lat="46.19895" lon="6.79818">
        <ele>1935.492</ele>
        <time>2014-08-30T08:57:22Z</time>
      </trkpt>
      <trkpt lat="46.19894" lon="6.79822">
        <ele>1936.6302</ele>
        <time>2014-08-30T08:57:27Z</time>
      </trkpt>
      <trkpt lat="46.19891" lon="6.79832">
        <ele>1936.6302</ele>
        <time>2014-08-30T08:57:32Z</time>
      </trkpt>
      <trkpt lat="46.19889" lon="6.79839">
        <ele>1937.7571</ele>
        <time>2014-08-30T08:57:37Z</time>
      </trkpt>
      <trkpt lat="46.19888" lon="6.79842">
        <ele>1937.7571</ele>
        <time>2014-08-30T08:57:42Z</time>
      </trkpt>
      <trkpt lat="46.19888" lon="6.79844">
        <ele>1937.7571</ele>
        <time>2014-08-30T08:57:47Z</time>
      </trkpt>
      <trkpt lat="46.19889" lon="6.79845">
        <ele>1937.7571</ele>
        <time>2014-08-30T08:57:52Z</time>
      </trkpt>
      <trkpt lat="46.19889" lon="6.79844">
        <ele>1937.7571</ele>
        <time>2014-08-30T08:57:57Z</time>
      </trkpt>
      <trkpt lat="46.19888" lon="6.79845">
        <ele>1937.7571</ele>
        <time>2014-08-30T08:58:02Z</time>
      </trkpt>
      <trkpt lat="46.19886" lon="6.7985">
        <ele>1938.8304</ele>
        <time>2014-08-30T08:58:07Z</time>
      </trkpt>
      <trkpt lat="46.19884" lon="6.79856">
        <ele>1938.8304</ele>
        <time>2014-08-30T08:58:12Z</time>
      </trkpt>
      <trkpt lat="46.19883" lon="6.79862">
        <ele>1938.8304</ele>
        <time>2014-08-30T08:58:17Z</time>
      </trkpt>
      <trkpt lat="46.19884" lon="6.79869">
        <ele>1939.8551</ele>
        <time>2014-08-30T08:58:22Z</time>
      </trkpt>
      <trkpt lat="46.19886" lon="6.79879">
        <ele>1939.8551</ele>
        <time>2014-08-30T08:58:27Z</time>
      </trkpt>
      <trkpt lat="46.19886" lon="6.79887">
        <ele>1940.821</ele>
        <time>2014-08-30T08:58:32Z</time>
      </trkpt>
      <trkpt lat="46.19885" lon="6.79891">
        <ele>1940.821</ele>
        <time>2014-08-30T08:58:37Z</time>
      </trkpt>
      <trkpt lat="46.19884" lon="6.79895">
        <ele>1940.821</ele>
        <time>2014-08-30T08:58:42Z</time>
      </trkpt>
      <trkpt lat="46.19883" lon="6.799">
        <ele>1941.8057</ele>
        <time>2014-08-30T08:58:47Z</time>
      </trkpt>
      <trkpt lat="46.19882" lon="6.79906">
        <ele>1941.8057</ele>
        <time>2014-08-30T08:58:52Z</time>
      </trkpt>
      <trkpt lat="46.19881" lon="6.7991">
        <ele>1941.8057</ele>
        <time>2014-08-30T08:58:57Z</time>
      </trkpt>
      <trkpt lat="46.1988" lon="6.79916">
        <ele>1942.8231</ele>
        <time>2014-08-30T08:59:02Z</time>
      </trkpt>
      <trkpt lat="46.19879" lon="6.79921">
        <ele>1942.8231</ele>
        <time>2014-08-30T08:59:07Z</time>
      </trkpt>
      <trkpt lat="46.19877" lon="6.79926">
        <ele>1942.8231</ele>
        <time>2014-08-30T08:59:12Z</time>
      </trkpt>
      <trkpt lat="46.19876" lon="6.79928">
        <ele>1943.8717</ele>
        <time>2014-08-30T08:59:17Z</time>
      </trkpt>
      <trkpt lat="46.19875" lon="6.7993">
        <ele>1943.8717</ele>
        <time>2014-08-30T08:59:22Z</time>
      </trkpt>
      <trkpt lat="46.19873" lon="6.79935">
        <ele>1943.8717</ele>
        <time>2014-08-30T08:59:27Z</time>
      </trkpt>
      <trkpt lat="46.19872" lon="6.79939">
        <ele>1944.9934</ele>
        <time>2014-08-30T08:59:32Z</time>
      </trkpt>
      <trkpt lat="46.1987" lon="6.79941">
        <ele>1944.9934</ele>
        <time>2014-08-30T08:59:37Z</time>
      </trkpt>
      <trkpt lat="46.19869" lon="6.79945">
        <ele>1944.9934</ele>
        <time>2014-08-30T08:59:42Z</time>
      </trkpt>
      <trkpt lat="46.19868" lon="6.79949">
        <ele>1944.9934</ele>
        <time>2014-08-30T08:59:47Z</time>
      </trkpt>
      <trkpt lat="46.19866" lon="6.79954">
        <ele>1946.1979</ele>
        <time>2014-08-30T08:59:52Z</time>
      </trkpt>
      <trkpt lat="46.19865" lon="6.79957">
        <ele>1946.1979</ele>
        <time>2014-08-30T08:59:57Z</time>
      </trkpt>
      <trkpt lat="46.19865" lon="6.7996">
        <ele>1946.1979</ele>
        <time>2014-08-30T09:00:02Z</time>
      </trkpt>
      <trkpt lat="46.19864" lon="6.79964">
        <ele>1946.1979</ele>
        <time>2014-08-30T09:00:07Z</time>
      </trkpt>
      <trkpt lat="46.19863" lon="6.79969">
        <ele>1947.5226</ele>
        <time>2014-08-30T09:00:12Z</time>
      </trkpt>
      <trkpt lat="46.19862" lon="6.79975">
        <ele>1947.5226</ele>
        <time>2014-08-30T09:00:17Z</time>
      </trkpt>
      <trkpt lat="46.19861" lon="6.79981">
        <ele>1947.5226</ele>
        <time>2014-08-30T09:00:22Z</time>
      </trkpt>
      <trkpt lat="46.19858" lon="6.79987">
        <ele>1948.8435</ele>
        <time>2014-08-30T09:00:27Z</time>
      </trkpt>
      <trkpt lat="46.19856" lon="6.79991">
        <ele>1948.8435</ele>
        <time>2014-08-30T09:00:32Z</time>
      </trkpt>
      <trkpt lat="46.19855" lon="6.79995">
        <ele>1948.8435</ele>
        <time>2014-08-30T09:00:37Z</time>
      </trkpt>
      <trkpt lat="46.19852" lon="6.79999">
        <ele>1950.2041</ele>
        <time>2014-08-30T09:00:42Z</time>
      </trkpt>
      <trkpt lat="46.1985" lon="6.80003">
        <ele>1950.2041</ele>
        <time>2014-08-30T09:00:47Z</time>
      </trkpt>
      <trkpt lat="46.19848" lon="6.80007">
        <ele>1950.2041</ele>
        <time>2014-08-30T09:00:52Z</time>
      </trkpt>
      <trkpt lat="46.19845" lon="6.8001">
        <ele>1951.6304</ele>
        <time>2014-08-30T09:00:57Z</time>
      </trkpt>
      <trkpt lat="46.19842" lon="6.80014">
        <ele>1951.6304</ele>
        <time>2014-08-30T09:01:02Z</time>
      </trkpt>
      <trkpt lat="46.1984" lon="6.80018">
        <ele>1951.6304</ele>
        <time>2014-08-30T09:01:07Z</time>
      </trkpt>
      <trkpt lat="46.19838" lon="6.80022">
        <ele>1953.0164</ele>
        <time>2014-08-30T09:01:12Z</time>
      </trkpt>
      <trkpt lat="46.19834" lon="6.80025">
        <ele>1953.0164</ele>
        <time>2014-08-30T09:01:17Z</time>
      </trkpt>
      <trkpt lat="46.19831" lon="6.80029">
        <ele>1953.0164</ele>
        <time>2014-08-30T09:01:22Z</time>
      </trkpt>
      <trkpt lat="46.19829" lon="6.80032">
        <ele>1954.3649</ele>
        <time>2014-08-30T09:01:27Z</time>
      </trkpt>
      <trkpt lat="46.19826" lon="6.80035">
        <ele>1954.3649</ele>
        <time>2014-08-30T09:01:32Z</time>
      </trkpt>
      <trkpt lat="46.19823" lon="6.80037">
        <ele>1954.3649</ele>
        <time>2014-08-30T09:01:37Z</time>
      </trkpt>
      <trkpt lat="46.19819" lon="6.80041">
        <ele>1955.6642</ele>
        <time>2014-08-30T09:01:42Z</time>
      </trkpt>
      <trkpt lat="46.19815" lon="6.80045">
        <ele>1955.6642</ele>
        <time>2014-08-30T09:01:47Z</time>
      </trkpt>
      <trkpt lat="46.19811" lon="6.8005">
        <ele>1956.9037</ele>
        <time>2014-08-30T09:01:52Z</time>
      </trkpt>
      <trkpt lat="46.19808" lon="6.80055">
        <ele>1956.9037</ele>
        <time>2014-08-30T09:01:57Z</time>
      </trkpt>
      <trkpt lat="46.19805" lon="6.80059">
        <ele>1956.9037</ele>
        <time>2014-08-30T09:02:02Z</time>
      </trkpt>
      <trkpt lat="46.19802" lon="6.80063">
        <ele>1958.2034</ele>
        <time>2014-08-30T09:02:07Z</time>
      </trkpt>
      <trkpt lat="46.198" lon="6.80067">
        <ele>1958.2034</ele>
        <time>2014-08-30T09:02:12Z</time>
      </trkpt>
      <trkpt lat="46.19799" lon="6.80073">
        <ele>1958.2034</ele>
        <time>2014-08-30T09:02:17Z</time>
      </trkpt>
      <trkpt lat="46.19799" lon="6.80078">
        <ele>1959.4723</ele>
        <time>2014-08-30T09:02:22Z</time>
      </trkpt>
      <trkpt lat="46.19799" lon="6.80084">
        <ele>1959.4723</ele>
        <time>2014-08-30T09:02:27Z</time>
      </trkpt>
      <trkpt lat="46.19798" lon="6.80091">
        <ele>1959.4723</ele>
        <time>2014-08-30T09:02:32Z</time>
      </trkpt>
      <trkpt lat="46.19798" lon="6.80099">
        <ele>1960.641</ele>
        <time>2014-08-30T09:02:37Z</time>
      </trkpt>
      <trkpt lat="46.19797" lon="6.80103">
        <ele>1960.641</ele>
        <time>2014-08-30T09:02:42Z</time>
      </trkpt>
      <trkpt lat="46.19797" lon="6.80107">
        <ele>1960.641</ele>
        <time>2014-08-30T09:02:47Z</time>
      </trkpt>
      <trkpt lat="46.19798" lon="6.80113">
        <ele>1961.7029</ele>
        <time>2014-08-30T09:02:52Z</time>
      </trkpt>
      <trkpt lat="46.198" lon="6.80119">
        <ele>1961.7029</ele>
        <time>2014-08-30T09:02:57Z</time>
      </trkpt>
      <trkpt lat="46.19802" lon="6.80124">
        <ele>1961.7029</ele>
        <time>2014-08-30T09:03:02Z</time>
      </trkpt>
      <trkpt lat="46.19805" lon="6.80129">
        <ele>1962.6376</ele>
        <time>2014-08-30T09:03:07Z</time>
      </trkpt>
      <trkpt lat="46.19806" lon="6.80134">
        <ele>1962.6376</ele>
        <time>2014-08-30T09:03:12Z</time>
      </trkpt>
      <trkpt lat="46.19804" lon="6.8014">
        <ele>1962.6376</ele>
        <time>2014-08-30T09:03:17Z</time>
      </trkpt>
      <trkpt lat="46.19802" lon="6.80142">
        <ele>1963.499</ele>
        <time>2014-08-30T09:03:22Z</time>
      </trkpt>
      <trkpt lat="46.198" lon="6.80146">
        <ele>1963.499</ele>
        <time>2014-08-30T09:03:27Z</time>
      </trkpt>
      <trkpt lat="46.19799" lon="6.8015">
        <ele>1963.499</ele>
        <time>2014-08-30T09:03:32Z</time>
      </trkpt>
      <trkpt lat="46.19797" lon="6.80154">
        <ele>1964.2937</ele>
        <time>2014-08-30T09:03:37Z</time>
      </trkpt>
      <trkpt lat="46.19797" lon="6.8016">
        <ele>1964.2937</ele>
        <time>2014-08-30T09:03:42Z</time>
      </trkpt>
      <trkpt lat="46.19797" lon="6.80165">
        <ele>1964.2937</ele>
        <time>2014-08-30T09:03:47Z</time>
      </trkpt>
      <trkpt lat="46.19797" lon="6.8017">
        <ele>1965.1722</ele>
        <time>2014-08-30T09:03:52Z</time>
      </trkpt>
      <trkpt lat="46.19797" lon="6.80174">
        <ele>1965.1722</ele>
        <time>2014-08-30T09:03:57Z</time>
      </trkpt>
      <trkpt lat="46.19798" lon="6.80178">
        <ele>1965.1722</ele>
        <time>2014-08-30T09:04:02Z</time>
      </trkpt>
      <trkpt lat="46.19799" lon="6.80183">
        <ele>1966.0432</ele>
        <time>2014-08-30T09:04:07Z</time>
      </trkpt>
      <trkpt lat="46.19798" lon="6.80186">
        <ele>1966.0432</ele>
        <time>2014-08-30T09:04:12Z</time>
      </trkpt>
      <trkpt lat="46.19794" lon="6.80192">
        <ele>1966.0432</ele>
        <time>2014-08-30T09:04:17Z</time>
      </trkpt>
      <trkpt lat="46.19792" lon="6.80197">
        <ele>1966.9084</ele>
        <time>2014-08-30T09:04:22Z</time>
      </trkpt>
      <trkpt lat="46.19791" lon="6.80204">
        <ele>1966.9084</ele>
        <time>2014-08-30T09:04:27Z</time>
      </trkpt>
      <trkpt lat="46.1979" lon="6.80209">
        <ele>1966.9084</ele>
        <time>2014-08-30T09:04:32Z</time>
      </trkpt>
      <trkpt lat="46.19791" lon="6.80213">
        <ele>1967.7694</ele>
        <time>2014-08-30T09:04:37Z</time>
      </trkpt>
      <trkpt lat="46.19792" lon="6.80219">
        <ele>1967.7694</ele>
        <time>2014-08-30T09:04:42Z</time>
      </trkpt>
      <trkpt lat="46.19793" lon="6.80221">
        <ele>1967.7694</ele>
        <time>2014-08-30T09:04:47Z</time>
      </trkpt>
      <trkpt lat="46.19794" lon="6.80223">
        <ele>1967.7694</ele>
        <time>2014-08-30T09:04:52Z</time>
      </trkpt>
      <trkpt lat="46.19792" lon="6.80228">
        <ele>1968.7144</ele>
        <time>2014-08-30T09:04:57Z</time>
      </trkpt>
      <trkpt lat="46.19788" lon="6.80234">
        <ele>1968.7144</ele>
        <time>2014-08-30T09:05:02Z</time>
      </trkpt>
      <trkpt lat="46.19788" lon="6.8024">
        <ele>1969.6083</ele>
        <time>2014-08-30T09:05:07Z</time>
      </trkpt>
      <trkpt lat="46.19786" lon="6.80246">
        <ele>1969.6083</ele>
        <time>2014-08-30T09:05:12Z</time>
      </trkpt>
      <trkpt lat="46.19784" lon="6.8025">
        <ele>1969.6083</ele>
        <time>2014-08-30T09:05:17Z</time>
      </trkpt>
      <trkpt lat="46.19782" lon="6.80254">
        <ele>1970.4991</ele>
        <time>2014-08-30T09:05:22Z</time>
      </trkpt>
      <trkpt lat="46.1978" lon="6.80257">
        <ele>1970.4991</ele>
        <time>2014-08-30T09:05:27Z</time>
      </trkpt>
      <trkpt lat="46.19778" lon="6.8026">
        <ele>1970.4991</ele>
        <time>2014-08-30T09:05:32Z</time>
      </trkpt>
      <trkpt lat="46.19778" lon="6.80264">
        <ele>1970.4991</ele>
        <time>2014-08-30T09:05:37Z</time>
      </trkpt>
      <trkpt lat="46.19776" lon="6.8027">
        <ele>1971.4749</ele>
        <time>2014-08-30T09:05:42Z</time>
      </trkpt>
      <trkpt lat="46.19774" lon="6.80275">
        <ele>1971.4749</ele>
        <time>2014-08-30T09:05:47Z</time>
      </trkpt>
      <trkpt lat="46.19772" lon="6.80279">
        <ele>1971.4749</ele>
        <time>2014-08-30T09:05:52Z</time>
      </trkpt>
      <trkpt lat="46.19772" lon="6.80283">
        <ele>1972.429</ele>
        <time>2014-08-30T09:05:57Z</time>
      </trkpt>
      <trkpt lat="46.19771" lon="6.80288">
        <ele>1972.429</ele>
        <time>2014-08-30T09:06:02Z</time>
      </trkpt>
      <trkpt lat="46.19768" lon="6.80295">
        <ele>1973.3784</ele>
        <time>2014-08-30T09:06:07Z</time>
      </trkpt>
      <trkpt lat="46.19765" lon="6.80299">
        <ele>1973.3784</ele>
        <time>2014-08-30T09:06:12Z</time>
      </trkpt>
      <trkpt lat="46.19763" lon="6.80305">
        <ele>1973.3784</ele>
        <time>2014-08-30T09:06:17Z</time>
      </trkpt>
      <trkpt lat="46.19762" lon="6.80309">
        <ele>1974.4252</ele>
        <time>2014-08-30T09:06:22Z</time>
      </trkpt>
      <trkpt lat="46.19761" lon="6.80314">
        <ele>1974.4252</ele>
        <time>2014-08-30T09:06:27Z</time>
      </trkpt>
      <trkpt lat="46.1976" lon="6.80319">
        <ele>1974.4252</ele>
        <time>2014-08-30T09:06:32Z</time>
      </trkpt>
      <trkpt lat="46.19757" lon="6.80324">
        <ele>1975.577</ele>
        <time>2014-08-30T09:06:37Z</time>
      </trkpt>
      <trkpt lat="46.19755" lon="6.80329">
        <ele>1975.577</ele>
        <time>2014-08-30T09:06:42Z</time>
      </trkpt>
      <trkpt lat="46.19753" lon="6.80333">
        <ele>1975.577</ele>
        <time>2014-08-30T09:06:47Z</time>
      </trkpt>
      <trkpt lat="46.19751" lon="6.80338">
        <ele>1976.7976</ele>
        <time>2014-08-30T09:06:52Z</time>
      </trkpt>
      <trkpt lat="46.19748" lon="6.80343">
        <ele>1976.7976</ele>
        <time>2014-08-30T09:06:57Z</time>
      </trkpt>
      <trkpt lat="46.19746" lon="6.80348">
        <ele>1978.0242</ele>
        <time>2014-08-30T09:07:02Z</time>
      </trkpt>
      <trkpt lat="46.19745" lon="6.80354">
        <ele>1978.0242</ele>
        <time>2014-08-30T09:07:07Z</time>
      </trkpt>
      <trkpt lat="46.19744" lon="6.80359">
        <ele>1978.0242</ele>
        <time>2014-08-30T09:07:12Z</time>
      </trkpt>
      <trkpt lat="46.19743" lon="6.80364">
        <ele>1979.2706</ele>
        <time>2014-08-30T09:07:17Z</time>
      </trkpt>
      <trkpt lat="46.19742" lon="6.80371">
        <ele>1979.2706</ele>
        <time>2014-08-30T09:07:22Z</time>
      </trkpt>
      <trkpt lat="46.19741" lon="6.80376">
        <ele>1979.2706</ele>
        <time>2014-08-30T09:07:27Z</time>
      </trkpt>
      <trkpt lat="46.1974" lon="6.80381">
        <ele>1980.4922</ele>
        <time>2014-08-30T09:07:32Z</time>
      </trkpt>
      <trkpt lat="46.19737" lon="6.80389">
        <ele>1980.4922</ele>
        <time>2014-08-30T09:07:37Z</time>
      </trkpt>
      <trkpt lat="46.19735" lon="6.80395">
        <ele>1981.705</ele>
        <time>2014-08-30T09:07:42Z</time>
      </trkpt>
      <trkpt lat="46.19734" lon="6.804">
        <ele>1981.705</ele>
        <time>2014-08-30T09:07:47Z</time>
      </trkpt>
      <trkpt lat="46.19732" lon="6.80406">
        <ele>1981.705</ele>
        <time>2014-08-30T09:07:52Z</time>
      </trkpt>
      <trkpt lat="46.19731" lon="6.80411">
        <ele>1982.9958</ele>
        <time>2014-08-30T09:07:57Z</time>
      </trkpt>
      <trkpt lat="46.19729" lon="6.80415">
        <ele>1982.9958</ele>
        <time>2014-08-30T09:08:02Z</time>
      </trkpt>
      <trkpt lat="46.19726" lon="6.80419">
        <ele>1982.9958</ele>
        <time>2014-08-30T09:08:07Z</time>
      </trkpt>
      <trkpt lat="46.19724" lon="6.80422">
        <ele>1984.3446</ele>
        <time>2014-08-30T09:08:12Z</time>
      </trkpt>
      <trkpt lat="46.19721" lon="6.80427">
        <ele>1984.3446</ele>
        <time>2014-08-30T09:08:17Z</time>
      </trkpt>
      <trkpt lat="46.1972" lon="6.8043">
        <ele>1984.3446</ele>
        <time>2014-08-30T09:08:22Z</time>
      </trkpt>
      <trkpt lat="46.19718" lon="6.80433">
        <ele>1985.6598</ele>
        <time>2014-08-30T09:08:27Z</time>
      </trkpt>
      <trkpt lat="46.19716" lon="6.80438">
        <ele>1985.6598</ele>
        <time>2014-08-30T09:08:32Z</time>
      </trkpt>
      <trkpt lat="46.19715" lon="6.80442">
        <ele>1985.6598</ele>
        <time>2014-08-30T09:08:37Z</time>
      </trkpt>
      <trkpt lat="46.19713" lon="6.80446">
        <ele>1987.0444</ele>
        <time>2014-08-30T09:08:42Z</time>
      </trkpt>
      <trkpt lat="46.19713" lon="6.80448">
        <ele>1987.0444</ele>
        <time>2014-08-30T09:08:47Z</time>
      </trkpt>
      <trkpt lat="46.19713" lon="6.80451">
        <ele>1987.0444</ele>
        <time>2014-08-30T09:08:52Z</time>
      </trkpt>
      <trkpt lat="46.19713" lon="6.80453">
        <ele>1987.0444</ele>
        <time>2014-08-30T09:08:57Z</time>
      </trkpt>
      <trkpt lat="46.19712" lon="6.80456">
        <ele>1987.0444</ele>
        <time>2014-08-30T09:09:02Z</time>
      </trkpt>
      <trkpt lat="46.19712" lon="6.80459">
        <ele>1988.5216</ele>
        <time>2014-08-30T09:09:07Z</time>
      </trkpt>
      <trkpt lat="46.1971" lon="6.80464">
        <ele>1988.5216</ele>
        <time>2014-08-30T09:09:12Z</time>
      </trkpt>
      <trkpt lat="46.19709" lon="6.80468">
        <ele>1988.5216</ele>
        <time>2014-08-30T09:09:17Z</time>
      </trkpt>
      <trkpt lat="46.19708" lon="6.80473">
        <ele>1989.9827</ele>
        <time>2014-08-30T09:09:22Z</time>
      </trkpt>
      <trkpt lat="46.19707" lon="6.80476">
        <ele>1989.9827</ele>
        <time>2014-08-30T09:09:27Z</time>
      </trkpt>
      <trkpt lat="46.19705" lon="6.80482">
        <ele>1989.9827</ele>
        <time>2014-08-30T09:09:32Z</time>
      </trkpt>
      <trkpt lat="46.19701" lon="6.80488">
        <ele>1991.4713</ele>
        <time>2014-08-30T09:09:37Z</time>
      </trkpt>
      <trkpt lat="46.19699" lon="6.80493">
        <ele>1991.4713</ele>
        <time>2014-08-30T09:09:42Z</time>
      </trkpt>
      <trkpt lat="46.19697" lon="6.80498">
        <ele>1991.4713</ele>
        <time>2014-08-30T09:09:47Z</time>
      </trkpt>
      <trkpt lat="46.19696" lon="6.80506">
        <ele>1992.9124</ele>
        <time>2014-08-30T09:09:52Z</time>
      </trkpt>
      <trkpt lat="46.19695" lon="6.80513">
        <ele>1992.9124</ele>
        <time>2014-08-30T09:09:57Z</time>
      </trkpt>
      <trkpt lat="46.19693" lon="6.8052">
        <ele>1994.2367</ele>
        <time>2014-08-30T09:10:02Z</time>
      </trkpt>
      <trkpt lat="46.19691" lon="6.80524">
        <ele>1994.2367</ele>
        <time>2014-08-30T09:10:07Z</time>
      </trkpt>
      <trkpt lat="46.19688" lon="6.8053">
        <ele>1994.2367</ele>
        <time>2014-08-30T09:10:12Z</time>
      </trkpt>
      <trkpt lat="46.19687" lon="6.80537">
        <ele>1995.4089</ele>
        <time>2014-08-30T09:10:17Z</time>
      </trkpt>
      <trkpt lat="46.19687" lon="6.80545">
        <ele>1995.4089</ele>
        <time>2014-08-30T09:10:22Z</time>
      </trkpt>
      <trkpt lat="46.19686" lon="6.80552">
        <ele>1996.4979</ele>
        <time>2014-08-30T09:10:27Z</time>
      </trkpt>
      <trkpt lat="46.19683" lon="6.80558">
        <ele>1996.4979</ele>
        <time>2014-08-30T09:10:32Z</time>
      </trkpt>
      <trkpt lat="46.1968" lon="6.80566">
        <ele>1997.4812</ele>
        <time>2014-08-30T09:10:37Z</time>
      </trkpt>
      <trkpt lat="46.19679" lon="6.80569">
        <ele>1997.4812</ele>
        <time>2014-08-30T09:10:42Z</time>
      </trkpt>
      <trkpt lat="46.19679" lon="6.8057">
        <ele>1997.4812</ele>
        <time>2014-08-30T09:10:47Z</time>
      </trkpt>
      <trkpt lat="46.1968" lon="6.8057">
        <ele>1997.4812</ele>
        <time>2014-08-30T09:10:52Z</time>
      </trkpt>
      <trkpt lat="46.1968" lon="6.80571">
        <ele>1997.4812</ele>
        <time>2014-08-30T09:10:57Z</time>
      </trkpt>
      <trkpt lat="46.1968" lon="6.80571">
        <ele>1997.4812</ele>
        <time>2014-08-30T09:11:02Z</time>
      </trkpt>
      <trkpt lat="46.1968" lon="6.8057">
        <ele>1997.4812</ele>
        <time>2014-08-30T09:11:07Z</time>
      </trkpt>
      <trkpt lat="46.19681" lon="6.8057">
        <ele>1997.4812</ele>
        <time>2014-08-30T09:11:12Z</time>
      </trkpt>
      <trkpt lat="46.19681" lon="6.8057">
        <ele>1997.4812</ele>
        <time>2014-08-30T09:11:17Z</time>
      </trkpt>
      <trkpt lat="46.19681" lon="6.8057">
        <ele>1997.4812</ele>
        <time>2014-08-30T09:11:22Z</time>
      </trkpt>
      <trkpt lat="46.19681" lon="6.8057">
        <ele>1997.4812</ele>
        <time>2014-08-30T09:11:27Z</time>
      </trkpt>
      <trkpt lat="46.19681" lon="6.80569">
        <ele>1997.4812</ele>
        <time>2014-08-30T09:11:32Z</time>
      </trkpt>
      <trkpt lat="46.19682" lon="6.80569">
        <ele>1997.4812</ele>
        <time>2014-08-30T09:11:37Z</time>
      </trkpt>
      <trkpt lat="46.19681" lon="6.80569">
        <ele>1997.4812</ele>
        <time>2014-08-30T09:11:42Z</time>
      </trkpt>
      <trkpt lat="46.19681" lon="6.80569">
        <ele>1997.4812</ele>
        <time>2014-08-30T09:11:47Z</time>
      </trkpt>
      <trkpt lat="46.1968" lon="6.80575">
        <ele>1998.54</ele>
        <time>2014-08-30T09:11:52Z</time>
      </trkpt>
      <trkpt lat="46.19678" lon="6.80581">
        <ele>1998.54</ele>
        <time>2014-08-30T09:11:57Z</time>
      </trkpt>
      <trkpt lat="46.19675" lon="6.80588">
        <ele>1999.4097</ele>
        <time>2014-08-30T09:12:02Z</time>
      </trkpt>
      <trkpt lat="46.19674" lon="6.80594">
        <ele>1999.4097</ele>
        <time>2014-08-30T09:12:07Z</time>
      </trkpt>
      <trkpt lat="46.19672" lon="6.80602">
        <ele>2000.1191</ele>
        <time>2014-08-30T09:12:12Z</time>
      </trkpt>
      <trkpt lat="46.19672" lon="6.80611">
        <ele>2000.1191</ele>
        <time>2014-08-30T09:12:17Z</time>
      </trkpt>
      <trkpt lat="46.19673" lon="6.80617">
        <ele>2000.7394</ele>
        <time>2014-08-30T09:12:22Z</time>
      </trkpt>
      <trkpt lat="46.19673" lon="6.80622">
        <ele>2000.7394</ele>
        <time>2014-08-30T09:12:27Z</time>
      </trkpt>
      <trkpt lat="46.19671" lon="6.8063">
        <ele>2001.2062</ele>
        <time>2014-08-30T09:12:32Z</time>
      </trkpt>
      <trkpt lat="46.19669" lon="6.80635">
        <ele>2001.2062</ele>
        <time>2014-08-30T09:12:37Z</time>
      </trkpt>
      <trkpt lat="46.19667" lon="6.8064">
        <ele>2001.2062</ele>
        <time>2014-08-30T09:12:42Z</time>
      </trkpt>
      <trkpt lat="46.19664" lon="6.80649">
        <ele>2001.4032</ele>
        <time>2014-08-30T09:12:47Z</time>
      </trkpt>
      <trkpt lat="46.19661" lon="6.80654">
        <ele>2001.4032</ele>
        <time>2014-08-30T09:12:52Z</time>
      </trkpt>
      <trkpt lat="46.19658" lon="6.80661">
        <ele>2001.4537</ele>
        <time>2014-08-30T09:12:57Z</time>
      </trkpt>
      <trkpt lat="46.19658" lon="6.8067">
        <ele>2001.4537</ele>
        <time>2014-08-30T09:13:02Z</time>
      </trkpt>
      <trkpt lat="46.19657" lon="6.80678">
        <ele>2001.314</ele>
        <time>2014-08-30T09:13:07Z</time>
      </trkpt>
      <trkpt lat="46.19656" lon="6.80685">
        <ele>2001.314</ele>
        <time>2014-08-30T09:13:12Z</time>
      </trkpt>
      <trkpt lat="46.19656" lon="6.80693">
        <ele>2001.0159</ele>
        <time>2014-08-30T09:13:17Z</time>
      </trkpt>
      <trkpt lat="46.19658" lon="6.807">
        <ele>2001.0159</ele>
        <time>2014-08-30T09:13:22Z</time>
      </trkpt>
      <trkpt lat="46.1966" lon="6.80707">
        <ele>2000.6903</ele>
        <time>2014-08-30T09:13:27Z</time>
      </trkpt>
      <trkpt lat="46.19662" lon="6.80714">
        <ele>2000.6903</ele>
        <time>2014-08-30T09:13:32Z</time>
      </trkpt>
      <trkpt lat="46.19664" lon="6.80721">
        <ele>2000.3433</ele>
        <time>2014-08-30T09:13:37Z</time>
      </trkpt>
      <trkpt lat="46.19666" lon="6.80727">
        <ele>2000.3433</ele>
        <time>2014-08-30T09:13:42Z</time>
      </trkpt>
      <trkpt lat="46.19668" lon="6.80734">
        <ele>1999.9083</ele>
        <time>2014-08-30T09:13:47Z</time>
      </trkpt>
      <trkpt lat="46.19667" lon="6.8074">
        <ele>1999.9083</ele>
        <time>2014-08-30T09:13:52Z</time>
      </trkpt>
      <trkpt lat="46.19667" lon="6.80741">
        <ele>1999.9083</ele>
        <time>2014-08-30T09:13:57Z</time>
      </trkpt>
      <trkpt lat="46.19667" lon="6.80741">
        <ele>1999.9083</ele>
        <time>2014-08-30T09:14:02Z</time>
      </trkpt>
      <trkpt lat="46.19666" lon="6.80741">
        <ele>1999.9083</ele>
        <time>2014-08-30T09:14:07Z</time>
      </trkpt>
      <trkpt lat="46.19665" lon="6.8074">
        <ele>1999.9083</ele>
        <time>2014-08-30T09:14:12Z</time>
      </trkpt>
      <trkpt lat="46.19665" lon="6.8074">
        <ele>1999.9083</ele>
        <time>2014-08-30T09:14:17Z</time>
      </trkpt>
      <trkpt lat="46.19665" lon="6.80741">
        <ele>1999.9083</ele>
        <time>2014-08-30T09:14:22Z</time>
      </trkpt>
      <trkpt lat="46.19665" lon="6.80752">
        <ele>1999.598</ele>
        <time>2014-08-30T09:14:27Z</time>
      </trkpt>
      <trkpt lat="46.19665" lon="6.80758">
        <ele>1999.598</ele>
        <time>2014-08-30T09:14:32Z</time>
      </trkpt>
      <trkpt lat="46.19664" lon="6.80765">
        <ele>1999.3059</ele>
        <time>2014-08-30T09:14:37Z</time>
      </trkpt>
      <trkpt lat="46.19663" lon="6.80773">
        <ele>1999.3059</ele>
        <time>2014-08-30T09:14:42Z</time>
      </trkpt>
      <trkpt lat="46.19662" lon="6.80776">
        <ele>1999.3059</ele>
        <time>2014-08-30T09:14:47Z</time>
      </trkpt>
      <trkpt lat="46.19661" lon="6.80782">
        <ele>1998.8613</ele>
        <time>2014-08-30T09:14:52Z</time>
      </trkpt>
      <trkpt lat="46.19658" lon="6.80789">
        <ele>1998.8613</ele>
        <time>2014-08-30T09:14:57Z</time>
      </trkpt>
      <trkpt lat="46.19657" lon="6.80797">
        <ele>1998.2509</ele>
        <time>2014-08-30T09:15:02Z</time>
      </trkpt>
      <trkpt lat="46.19656" lon="6.80807">
        <ele>1998.2509</ele>
        <time>2014-08-30T09:15:07Z</time>
      </trkpt>
      <trkpt lat="46.19655" lon="6.80812">
        <ele>1997.5773</ele>
        <time>2014-08-30T09:15:12Z</time>
      </trkpt>
      <trkpt lat="46.19655" lon="6.80818">
        <ele>1997.5773</ele>
        <time>2014-08-30T09:15:17Z</time>
      </trkpt>
      <trkpt lat="46.19653" lon="6.80822">
        <ele>1997.5773</ele>
        <time>2014-08-30T09:15:22Z</time>
      </trkpt>
      <trkpt lat="46.1965" lon="6.80825">
        <ele>1996.7057</ele>
        <time>2014-08-30T09:15:27Z</time>
      </trkpt>
      <trkpt lat="46.19647" lon="6.80827">
        <ele>1996.7057</ele>
        <time>2014-08-30T09:15:32Z</time>
      </trkpt>
      <trkpt lat="46.19647" lon="6.80832">
        <ele>1996.7057</ele>
        <time>2014-08-30T09:15:37Z</time>
      </trkpt>
      <trkpt lat="46.19645" lon="6.80838">
        <ele>1995.6412</ele>
        <time>2014-08-30T09:15:42Z</time>
      </trkpt>
      <trkpt lat="46.19644" lon="6.80843">
        <ele>1995.6412</ele>
        <time>2014-08-30T09:15:47Z</time>
      </trkpt>
      <trkpt lat="46.19647" lon="6.80849">
        <ele>1994.5762</ele>
        <time>2014-08-30T09:15:52Z</time>
      </trkpt>
      <trkpt lat="46.19645" lon="6.80855">
        <ele>1994.5762</ele>
        <time>2014-08-30T09:15:57Z</time>
      </trkpt>
      <trkpt lat="46.19644" lon="6.80859">
        <ele>1994.5762</ele>
        <time>2014-08-30T09:16:02Z</time>
      </trkpt>
      <trkpt lat="46.19645" lon="6.80863">
        <ele>1993.5446</ele>
        <time>2014-08-30T09:16:07Z</time>
      </trkpt>
      <trkpt lat="46.19645" lon="6.80866">
        <ele>1993.5446</ele>
        <time>2014-08-30T09:16:14Z</time>
      </trkpt>
      <trkpt lat="46.19645" lon="6.80867">
        <ele>1993.5446</ele>
        <time>2014-08-30T09:16:17Z</time>
      </trkpt>
      <trkpt lat="46.19646" lon="6.8087">
        <ele>1993.5446</ele>
        <time>2014-08-30T09:16:22Z</time>
      </trkpt>
      <trkpt lat="46.19646" lon="6.80872">
        <ele>1993.5446</ele>
        <time>2014-08-30T09:16:27Z</time>
      </trkpt>
      <trkpt lat="46.19647" lon="6.80877">
        <ele>1992.3474</ele>
        <time>2014-08-30T09:16:32Z</time>
      </trkpt>
      <trkpt lat="46.19648" lon="6.80879">
        <ele>1992.3474</ele>
        <time>2014-08-30T09:16:37Z</time>
      </trkpt>
      <trkpt lat="46.19647" lon="6.80883">
        <ele>1992.3474</ele>
        <time>2014-08-30T09:16:42Z</time>
      </trkpt>
      <trkpt lat="46.19646" lon="6.80888">
        <ele>1992.3474</ele>
        <time>2014-08-30T09:16:47Z</time>
      </trkpt>
      <trkpt lat="46.19647" lon="6.80892">
        <ele>1991.1749</ele>
        <time>2014-08-30T09:16:52Z</time>
      </trkpt>
      <trkpt lat="46.19649" lon="6.80898">
        <ele>1991.1749</ele>
        <time>2014-08-30T09:16:57Z</time>
      </trkpt>
      <trkpt lat="46.1965" lon="6.80901">
        <ele>1991.1749</ele>
        <time>2014-08-30T09:17:02Z</time>
      </trkpt>
      <trkpt lat="46.19652" lon="6.80904">
        <ele>1990.0594</ele>
        <time>2014-08-30T09:17:07Z</time>
      </trkpt>
      <trkpt lat="46.19655" lon="6.80907">
        <ele>1990.0594</ele>
        <time>2014-08-30T09:17:12Z</time>
      </trkpt>
      <trkpt lat="46.19655" lon="6.8091">
        <ele>1990.0594</ele>
        <time>2014-08-30T09:17:17Z</time>
      </trkpt>
      <trkpt lat="46.19657" lon="6.80916">
        <ele>1989.0015</ele>
        <time>2014-08-30T09:17:22Z</time>
      </trkpt>
      <trkpt lat="46.19658" lon="6.80921">
        <ele>1989.0015</ele>
        <time>2014-08-30T09:17:27Z</time>
      </trkpt>
      <trkpt lat="46.19656" lon="6.80933">
        <ele>1987.9725</ele>
        <time>2014-08-30T09:17:32Z</time>
      </trkpt>
      <trkpt lat="46.19654" lon="6.80939">
        <ele>1987.9725</ele>
        <time>2014-08-30T09:17:37Z</time>
      </trkpt>
      <trkpt lat="46.19653" lon="6.80948">
        <ele>1987.0325</ele>
        <time>2014-08-30T09:17:42Z</time>
      </trkpt>
      <trkpt lat="46.19653" lon="6.80955">
        <ele>1987.0325</ele>
        <time>2014-08-30T09:17:47Z</time>
      </trkpt>
      <trkpt lat="46.19655" lon="6.80962">
        <ele>1986.1642</ele>
        <time>2014-08-30T09:17:52Z</time>
      </trkpt>
      <trkpt lat="46.19654" lon="6.80968">
        <ele>1986.1642</ele>
        <time>2014-08-30T09:17:57Z</time>
      </trkpt>
      <trkpt lat="46.19652" lon="6.80977">
        <ele>1985.2509</ele>
        <time>2014-08-30T09:18:02Z</time>
      </trkpt>
      <trkpt lat="46.19652" lon="6.80983">
        <ele>1985.2509</ele>
        <time>2014-08-30T09:18:07Z</time>
      </trkpt>
      <trkpt lat="46.19654" lon="6.80988">
        <ele>1985.2509</ele>
        <time>2014-08-30T09:18:12Z</time>
      </trkpt>
      <trkpt lat="46.19655" lon="6.80993">
        <ele>1984.4865</ele>
        <time>2014-08-30T09:18:17Z</time>
      </trkpt>
      <trkpt lat="46.19656" lon="6.80999">
        <ele>1984.4865</ele>
        <time>2014-08-30T09:18:22Z</time>
      </trkpt>
      <trkpt lat="46.19657" lon="6.81007">
        <ele>1983.8342</ele>
        <time>2014-08-30T09:18:27Z</time>
      </trkpt>
      <trkpt lat="46.19658" lon="6.81015">
        <ele>1983.8342</ele>
        <time>2014-08-30T09:18:32Z</time>
      </trkpt>
      <trkpt lat="46.19656" lon="6.8102">
        <ele>1983.2598</ele>
        <time>2014-08-30T09:18:37Z</time>
      </trkpt>
      <trkpt lat="46.19656" lon="6.81029">
        <ele>1983.2598</ele>
        <time>2014-08-30T09:18:42Z</time>
      </trkpt>
      <trkpt lat="46.19656" lon="6.81036">
        <ele>1982.8169</ele>
        <time>2014-08-30T09:18:47Z</time>
      </trkpt>
      <trkpt lat="46.19656" lon="6.81042">
        <ele>1982.8169</ele>
        <time>2014-08-30T09:18:52Z</time>
      </trkpt>
      <trkpt lat="46.19657" lon="6.81048">
        <ele>1982.8169</ele>
        <time>2014-08-30T09:18:57Z</time>
      </trkpt>
      <trkpt lat="46.19659" lon="6.81055">
        <ele>1982.4115</ele>
        <time>2014-08-30T09:19:02Z</time>
      </trkpt>
      <trkpt lat="46.19659" lon="6.81063">
        <ele>1982.4115</ele>
        <time>2014-08-30T09:19:07Z</time>
      </trkpt>
      <trkpt lat="46.19659" lon="6.8107">
        <ele>1982.0275</ele>
        <time>2014-08-30T09:19:12Z</time>
      </trkpt>
      <trkpt lat="46.19659" lon="6.81077">
        <ele>1982.0275</ele>
        <time>2014-08-30T09:19:17Z</time>
      </trkpt>
      <trkpt lat="46.19659" lon="6.81083">
        <ele>1982.0275</ele>
        <time>2014-08-30T09:19:22Z</time>
      </trkpt>
      <trkpt lat="46.19659" lon="6.81089">
        <ele>1981.5927</ele>
        <time>2014-08-30T09:19:27Z</time>
      </trkpt>
      <trkpt lat="46.19658" lon="6.81095">
        <ele>1981.5927</ele>
        <time>2014-08-30T09:19:32Z</time>
      </trkpt>
      <trkpt lat="46.19657" lon="6.81102">
        <ele>1981.1406</ele>
        <time>2014-08-30T09:19:37Z</time>
      </trkpt>
      <trkpt lat="46.19654" lon="6.81109">
        <ele>1981.1406</ele>
        <time>2014-08-30T09:19:42Z</time>
      </trkpt>
      <trkpt lat="46.19651" lon="6.81118">
        <ele>1980.674</ele>
        <time>2014-08-30T09:19:47Z</time>
      </trkpt>
      <trkpt lat="46.19648" lon="6.81125">
        <ele>1980.674</ele>
        <time>2014-08-30T09:19:52Z</time>
      </trkpt>
      <trkpt lat="46.19648" lon="6.81125">
        <ele>1980.674</ele>
        <time>2014-08-30T09:19:57Z</time>
      </trkpt>
      <trkpt lat="46.19649" lon="6.81124">
        <ele>1980.674</ele>
        <time>2014-08-30T09:20:02Z</time>
      </trkpt>
      <trkpt lat="46.19651" lon="6.81122">
        <ele>1980.2526</ele>
        <time>2014-08-30T09:20:07Z</time>
      </trkpt>
      <trkpt lat="46.19652" lon="6.8112">
        <ele>1980.2526</ele>
        <time>2014-08-30T09:20:12Z</time>
      </trkpt>
      <trkpt lat="46.19651" lon="6.8112">
        <ele>1980.2526</ele>
        <time>2014-08-30T09:20:17Z</time>
      </trkpt>
      <trkpt lat="46.19651" lon="6.8112">
        <ele>1980.2526</ele>
        <time>2014-08-30T09:20:22Z</time>
      </trkpt>
      <trkpt lat="46.1965" lon="6.8112">
        <ele>1980.2526</ele>
        <time>2014-08-30T09:20:27Z</time>
      </trkpt>
      <trkpt lat="46.19647" lon="6.81123">
        <ele>1980.2526</ele>
        <time>2014-08-30T09:20:32Z</time>
      </trkpt>
      <trkpt lat="46.19643" lon="6.81128">
        <ele>1979.9747</ele>
        <time>2014-08-30T09:20:37Z</time>
      </trkpt>
      <trkpt lat="46.1964" lon="6.81131">
        <ele>1979.9747</ele>
        <time>2014-08-30T09:20:42Z</time>
      </trkpt>
      <trkpt lat="46.19638" lon="6.81135">
        <ele>1979.9747</ele>
        <time>2014-08-30T09:20:47Z</time>
      </trkpt>
      <trkpt lat="46.19636" lon="6.81143">
        <ele>1979.643</ele>
        <time>2014-08-30T09:20:52Z</time>
      </trkpt>
      <trkpt lat="46.19635" lon="6.81147">
        <ele>1979.643</ele>
        <time>2014-08-30T09:20:57Z</time>
      </trkpt>
      <trkpt lat="46.19637" lon="6.81149">
        <ele>1979.643</ele>
        <time>2014-08-30T09:21:02Z</time>
      </trkpt>
      <trkpt lat="46.19637" lon="6.81156">
        <ele>1979.2761</ele>
        <time>2014-08-30T09:21:07Z</time>
      </trkpt>
      <trkpt lat="46.19638" lon="6.81163">
        <ele>1979.2761</ele>
        <time>2014-08-30T09:21:12Z</time>
      </trkpt>
      <trkpt lat="46.19635" lon="6.81173">
        <ele>1978.9492</ele>
        <time>2014-08-30T09:21:17Z</time>
      </trkpt>
      <trkpt lat="46.19631" lon="6.81181">
        <ele>1978.9492</ele>
        <time>2014-08-30T09:21:22Z</time>
      </trkpt>
      <trkpt lat="46.19629" lon="6.81188">
        <ele>1978.7172</ele>
        <time>2014-08-30T09:21:27Z</time>
      </trkpt>
      <trkpt lat="46.19627" lon="6.81197">
        <ele>1978.7172</ele>
        <time>2014-08-30T09:21:32Z</time>
      </trkpt>
      <trkpt lat="46.19627" lon="6.81203">
        <ele>1978.5587</ele>
        <time>2014-08-30T09:21:37Z</time>
      </trkpt>
      <trkpt lat="46.19627" lon="6.8121">
        <ele>1978.5587</ele>
        <time>2014-08-30T09:21:42Z</time>
      </trkpt>
      <trkpt lat="46.19626" lon="6.81217">
        <ele>1978.4679</ele>
        <time>2014-08-30T09:21:47Z</time>
      </trkpt>
      <trkpt lat="46.19626" lon="6.81223">
        <ele>1978.4679</ele>
        <time>2014-08-30T09:21:52Z</time>
      </trkpt>
      <trkpt lat="46.19627" lon="6.81229">
        <ele>1978.4679</ele>
        <time>2014-08-30T09:21:57Z</time>
      </trkpt>
      <trkpt lat="46.19628" lon="6.81235">
        <ele>1978.5112</ele>
        <time>2014-08-30T09:22:02Z</time>
      </trkpt>
      <trkpt lat="46.19628" lon="6.81243">
        <ele>1978.5112</ele>
        <time>2014-08-30T09:22:08Z</time>
      </trkpt>
      <trkpt lat="46.19626" lon="6.81248">
        <ele>1978.6201</ele>
        <time>2014-08-30T09:22:12Z</time>
      </trkpt>
      <trkpt lat="46.19628" lon="6.81251">
        <ele>1978.6201</ele>
        <time>2014-08-30T09:22:17Z</time>
      </trkpt>
      <trkpt lat="46.19629" lon="6.81256">
        <ele>1978.6201</ele>
        <time>2014-08-30T09:22:22Z</time>
      </trkpt>
      <trkpt lat="46.1963" lon="6.81261">
        <ele>1978.7308</ele>
        <time>2014-08-30T09:22:27Z</time>
      </trkpt>
      <trkpt lat="46.19631" lon="6.81267">
        <ele>1978.7308</ele>
        <time>2014-08-30T09:22:32Z</time>
      </trkpt>
      <trkpt lat="46.19632" lon="6.81273">
        <ele>1978.7308</ele>
        <time>2014-08-30T09:22:37Z</time>
      </trkpt>
      <trkpt lat="46.19634" lon="6.81279">
        <ele>1978.8564</ele>
        <time>2014-08-30T09:22:42Z</time>
      </trkpt>
      <trkpt lat="46.19635" lon="6.8128">
        <ele>1978.8564</ele>
        <time>2014-08-30T09:22:47Z</time>
      </trkpt>
      <trkpt lat="46.19636" lon="6.8128">
        <ele>1978.8564</ele>
        <time>2014-08-30T09:22:52Z</time>
      </trkpt>
      <trkpt lat="46.19636" lon="6.81284">
        <ele>1978.8564</ele>
        <time>2014-08-30T09:22:57Z</time>
      </trkpt>
      <trkpt lat="46.19637" lon="6.8129">
        <ele>1978.8564</ele>
        <time>2014-08-30T09:23:02Z</time>
      </trkpt>
      <trkpt lat="46.19639" lon="6.81297">
        <ele>1978.951</ele>
        <time>2014-08-30T09:23:07Z</time>
      </trkpt>
      <trkpt lat="46.19642" lon="6.81301">
        <ele>1978.951</ele>
        <time>2014-08-30T09:23:12Z</time>
      </trkpt>
      <trkpt lat="46.19645" lon="6.81306">
        <ele>1978.951</ele>
        <time>2014-08-30T09:23:17Z</time>
      </trkpt>
      <trkpt lat="46.19646" lon="6.81307">
        <ele>1978.9436</ele>
        <time>2014-08-30T09:23:22Z</time>
      </trkpt>
      <trkpt lat="46.19645" lon="6.81308">
        <ele>1978.9436</ele>
        <time>2014-08-30T09:23:27Z</time>
      </trkpt>
      <trkpt lat="46.19645" lon="6.81309">
        <ele>1978.9436</ele>
        <time>2014-08-30T09:23:32Z</time>
      </trkpt>
      <trkpt lat="46.19645" lon="6.8131">
        <ele>1978.9436</ele>
        <time>2014-08-30T09:23:37Z</time>
      </trkpt>
      <trkpt lat="46.19645" lon="6.8131">
        <ele>1978.9436</ele>
        <time>2014-08-30T09:23:42Z</time>
      </trkpt>
      <trkpt lat="46.19646" lon="6.81308">
        <ele>1978.9436</ele>
        <time>2014-08-30T09:23:47Z</time>
      </trkpt>
      <trkpt lat="46.19645" lon="6.81309">
        <ele>1978.9436</ele>
        <time>2014-08-30T09:23:52Z</time>
      </trkpt>
      <trkpt lat="46.19641" lon="6.81308">
        <ele>1979.0999</ele>
        <time>2014-08-30T09:23:57Z</time>
      </trkpt>
      <trkpt lat="46.19638" lon="6.81308">
        <ele>1979.0999</ele>
        <time>2014-08-30T09:24:02Z</time>
      </trkpt>
      <trkpt lat="46.19638" lon="6.81309">
        <ele>1979.0999</ele>
        <time>2014-08-30T09:24:07Z</time>
      </trkpt>
      <trkpt lat="46.19637" lon="6.8131">
        <ele>1979.0999</ele>
        <time>2014-08-30T09:24:12Z</time>
      </trkpt>
      <trkpt lat="46.19635" lon="6.81311">
        <ele>1979.0999</ele>
        <time>2014-08-30T09:24:17Z</time>
      </trkpt>
      <trkpt lat="46.19634" lon="6.8131">
        <ele>1979.0999</ele>
        <time>2014-08-30T09:24:22Z</time>
      </trkpt>
      <trkpt lat="46.19635" lon="6.81308">
        <ele>1979.3774</ele>
        <time>2014-08-30T09:24:27Z</time>
      </trkpt>
      <trkpt lat="46.19635" lon="6.81307">
        <ele>1979.3774</ele>
        <time>2014-08-30T09:24:32Z</time>
      </trkpt>
      <trkpt lat="46.19634" lon="6.81307">
        <ele>1979.3774</ele>
        <time>2014-08-30T09:24:37Z</time>
      </trkpt>
      <trkpt lat="46.19634" lon="6.81307">
        <ele>1979.3774</ele>
        <time>2014-08-30T09:24:42Z</time>
      </trkpt>
      <trkpt lat="46.19634" lon="6.81305">
        <ele>1979.3774</ele>
        <time>2014-08-30T09:24:47Z</time>
      </trkpt>
      <trkpt lat="46.19633" lon="6.81305">
        <ele>1979.3774</ele>
        <time>2014-08-30T09:24:52Z</time>
      </trkpt>
      <trkpt lat="46.19632" lon="6.81306">
        <ele>1979.3774</ele>
        <time>2014-08-30T09:24:57Z</time>
      </trkpt>
      <trkpt lat="46.19631" lon="6.81306">
        <ele>1979.3774</ele>
        <time>2014-08-30T09:25:02Z</time>
      </trkpt>
      <trkpt lat="46.19631" lon="6.81308">
        <ele>1979.3774</ele>
        <time>2014-08-30T09:25:07Z</time>
      </trkpt>
      <trkpt lat="46.19631" lon="6.81309">
        <ele>1979.7655</ele>
        <time>2014-08-30T09:25:12Z</time>
      </trkpt>
      <trkpt lat="46.19632" lon="6.81308">
        <ele>1979.7655</ele>
        <time>2014-08-30T09:25:17Z</time>
      </trkpt>
      <trkpt lat="46.19634" lon="6.81307">
        <ele>1979.7655</ele>
        <time>2014-08-30T09:25:22Z</time>
      </trkpt>
      <trkpt lat="46.19634" lon="6.81306">
        <ele>1979.7655</ele>
        <time>2014-08-30T09:25:27Z</time>
      </trkpt>
      <trkpt lat="46.19635" lon="6.81305">
        <ele>1979.7655</ele>
        <time>2014-08-30T09:25:32Z</time>
      </trkpt>
      <trkpt lat="46.19637" lon="6.81305">
        <ele>1979.7655</ele>
        <time>2014-08-30T09:25:37Z</time>
      </trkpt>
      <trkpt lat="46.19638" lon="6.81302">
        <ele>1980.2393</ele>
        <time>2014-08-30T09:25:42Z</time>
      </trkpt>
      <trkpt lat="46.19638" lon="6.813">
        <ele>1980.2393</ele>
        <time>2014-08-30T09:25:47Z</time>
      </trkpt>
      <trkpt lat="46.19637" lon="6.813">
        <ele>1980.2393</ele>
        <time>2014-08-30T09:25:52Z</time>
      </trkpt>
      <trkpt lat="46.19637" lon="6.813">
        <ele>1980.2393</ele>
        <time>2014-08-30T09:25:57Z</time>
      </trkpt>
      <trkpt lat="46.19636" lon="6.81299">
        <ele>1980.2393</ele>
        <time>2014-08-30T09:26:02Z</time>
      </trkpt>
      <trkpt lat="46.19636" lon="6.81298">
        <ele>1980.2393</ele>
        <time>2014-08-30T09:26:07Z</time>
      </trkpt>
      <trkpt lat="46.19636" lon="6.81299">
        <ele>1980.2393</ele>
        <time>2014-08-30T09:26:12Z</time>
      </trkpt>
      <trkpt lat="46.19636" lon="6.81301">
        <ele>1980.2393</ele>
        <time>2014-08-30T09:26:17Z</time>
      </trkpt>
      <trkpt lat="46.19636" lon="6.81302">
        <ele>1980.2393</ele>
        <time>2014-08-30T09:26:22Z</time>
      </trkpt>
      <trkpt lat="46.19637" lon="6.81302">
        <ele>1980.2393</ele>
        <time>2014-08-30T09:26:27Z</time>
      </trkpt>
      <trkpt lat="46.19637" lon="6.81303">
        <ele>1980.2393</ele>
        <time>2014-08-30T09:26:32Z</time>
      </trkpt>
      <trkpt lat="46.19638" lon="6.81304">
        <ele>1980.2393</ele>
        <time>2014-08-30T09:26:37Z</time>
      </trkpt>
      <trkpt lat="46.19638" lon="6.81304">
        <ele>1980.8044</ele>
        <time>2014-08-30T09:26:42Z</time>
      </trkpt>
      <trkpt lat="46.19637" lon="6.81304">
        <ele>1980.8044</ele>
        <time>2014-08-30T09:26:47Z</time>
      </trkpt>
      <trkpt lat="46.19637" lon="6.81304">
        <ele>1980.8044</ele>
        <time>2014-08-30T09:26:52Z</time>
      </trkpt>
      <trkpt lat="46.19635" lon="6.81304">
        <ele>1980.8044</ele>
        <time>2014-08-30T09:26:57Z</time>
      </trkpt>
      <trkpt lat="46.19635" lon="6.81304">
        <ele>1980.8044</ele>
        <time>2014-08-30T09:27:02Z</time>
      </trkpt>
      <trkpt lat="46.19634" lon="6.81304">
        <ele>1980.8044</ele>
        <time>2014-08-30T09:27:07Z</time>
      </trkpt>
      <trkpt lat="46.19634" lon="6.81304">
        <ele>1980.8044</ele>
        <time>2014-08-30T09:27:12Z</time>
      </trkpt>
      <trkpt lat="46.19635" lon="6.81305">
        <ele>1980.8044</ele>
        <time>2014-08-30T09:27:17Z</time>
      </trkpt>
      <trkpt lat="46.19636" lon="6.81305">
        <ele>1980.8044</ele>
        <time>2014-08-30T09:27:22Z</time>
      </trkpt>
      <trkpt lat="46.19636" lon="6.81306">
        <ele>1980.8044</ele>
        <time>2014-08-30T09:27:27Z</time>
      </trkpt>
      <trkpt lat="46.19637" lon="6.81306">
        <ele>1980.8044</ele>
        <time>2014-08-30T09:27:32Z</time>
      </trkpt>
      <trkpt lat="46.19637" lon="6.81307">
        <ele>1980.8044</ele>
        <time>2014-08-30T09:27:37Z</time>
      </trkpt>
      <trkpt lat="46.19637" lon="6.81307">
        <ele>1980.8044</ele>
        <time>2014-08-30T09:27:42Z</time>
      </trkpt>
      <trkpt lat="46.19636" lon="6.81306">
        <ele>1980.8044</ele>
        <time>2014-08-30T09:27:47Z</time>
      </trkpt>
      <trkpt lat="46.19637" lon="6.81307">
        <ele>1981.3651</ele>
        <time>2014-08-30T09:27:52Z</time>
      </trkpt>
      <trkpt lat="46.19637" lon="6.81307">
        <ele>1981.3651</ele>
        <time>2014-08-30T09:27:57Z</time>
      </trkpt>
      <trkpt lat="46.19638" lon="6.81307">
        <ele>1981.3651</ele>
        <time>2014-08-30T09:28:02Z</time>
      </trkpt>
      <trkpt lat="46.19638" lon="6.81306">
        <ele>1981.3651</ele>
        <time>2014-08-30T09:28:07Z</time>
      </trkpt>
      <trkpt lat="46.19638" lon="6.81306">
        <ele>1981.3651</ele>
        <time>2014-08-30T09:28:12Z</time>
      </trkpt>
      <trkpt lat="46.19638" lon="6.81307">
        <ele>1981.3651</ele>
        <time>2014-08-30T09:28:17Z</time>
      </trkpt>
      <trkpt lat="46.19637" lon="6.81309">
        <ele>1981.3651</ele>
        <time>2014-08-30T09:28:22Z</time>
      </trkpt>
      <trkpt lat="46.19636" lon="6.8131">
        <ele>1981.3651</ele>
        <time>2014-08-30T09:28:27Z</time>
      </trkpt>
      <trkpt lat="46.19636" lon="6.81311">
        <ele>1981.3651</ele>
        <time>2014-08-30T09:28:32Z</time>
      </trkpt>
      <trkpt lat="46.19637" lon="6.81309">
        <ele>1981.3651</ele>
        <time>2014-08-30T09:28:37Z</time>
      </trkpt>
      <trkpt lat="46.19637" lon="6.81309">
        <ele>1981.3651</ele>
        <time>2014-08-30T09:28:42Z</time>
      </trkpt>
      <trkpt lat="46.19636" lon="6.81309">
        <ele>1981.3651</ele>
        <time>2014-08-30T09:28:47Z</time>
      </trkpt>
      <trkpt lat="46.19636" lon="6.81309">
        <ele>1981.3651</ele>
        <time>2014-08-30T09:28:52Z</time>
      </trkpt>
      <trkpt lat="46.19637" lon="6.8131">
        <ele>1981.3651</ele>
        <time>2014-08-30T09:28:57Z</time>
      </trkpt>
      <trkpt lat="46.19637" lon="6.8131">
        <ele>1981.3651</ele>
        <time>2014-08-30T09:29:02Z</time>
      </trkpt>
      <trkpt lat="46.19637" lon="6.81309">
        <ele>1982.1063</ele>
        <time>2014-08-30T09:29:07Z</time>
      </trkpt>
      <trkpt lat="46.19637" lon="6.81309">
        <ele>1982.1063</ele>
        <time>2014-08-30T09:29:12Z</time>
      </trkpt>
      <trkpt lat="46.19638" lon="6.81309">
        <ele>1982.1063</ele>
        <time>2014-08-30T09:29:17Z</time>
      </trkpt>
      <trkpt lat="46.19638" lon="6.81308">
        <ele>1982.1063</ele>
        <time>2014-08-30T09:29:22Z</time>
      </trkpt>
      <trkpt lat="46.1964" lon="6.81306">
        <ele>1982.1063</ele>
        <time>2014-08-30T09:29:27Z</time>
      </trkpt>
      <trkpt lat="46.19639" lon="6.81307">
        <ele>1982.1063</ele>
        <time>2014-08-30T09:29:32Z</time>
      </trkpt>
      <trkpt lat="46.19638" lon="6.81308">
        <ele>1982.1063</ele>
        <time>2014-08-30T09:29:37Z</time>
      </trkpt>
      <trkpt lat="46.19638" lon="6.81308">
        <ele>1982.1063</ele>
        <time>2014-08-30T09:29:42Z</time>
      </trkpt>
      <trkpt lat="46.19637" lon="6.81308">
        <ele>1982.1063</ele>
        <time>2014-08-30T09:29:47Z</time>
      </trkpt>
      <trkpt lat="46.19637" lon="6.81307">
        <ele>1982.1063</ele>
        <time>2014-08-30T09:29:52Z</time>
      </trkpt>
      <trkpt lat="46.19636" lon="6.81307">
        <ele>1982.1063</ele>
        <time>2014-08-30T09:29:57Z</time>
      </trkpt>
      <trkpt lat="46.19635" lon="6.81307">
        <ele>1982.1063</ele>
        <time>2014-08-30T09:30:02Z</time>
      </trkpt>
      <trkpt lat="46.19636" lon="6.81307">
        <ele>1982.8098</ele>
        <time>2014-08-30T09:30:07Z</time>
      </trkpt>
      <trkpt lat="46.19637" lon="6.81306">
        <ele>1982.8098</ele>
        <time>2014-08-30T09:30:12Z</time>
      </trkpt>
      <trkpt lat="46.19639" lon="6.81305">
        <ele>1982.8098</ele>
        <time>2014-08-30T09:30:17Z</time>
      </trkpt>
      <trkpt lat="46.19639" lon="6.81303">
        <ele>1982.8098</ele>
        <time>2014-08-30T09:30:22Z</time>
      </trkpt>
      <trkpt lat="46.19638" lon="6.81302">
        <ele>1982.8098</ele>
        <time>2014-08-30T09:30:27Z</time>
      </trkpt>
      <trkpt lat="46.19638" lon="6.81301">
        <ele>1982.8098</ele>
        <time>2014-08-30T09:30:32Z</time>
      </trkpt>
      <trkpt lat="46.19637" lon="6.81302">
        <ele>1982.8098</ele>
        <time>2014-08-30T09:30:37Z</time>
      </trkpt>
      <trkpt lat="46.19637" lon="6.81304">
        <ele>1982.8098</ele>
        <time>2014-08-30T09:30:42Z</time>
      </trkpt>
      <trkpt lat="46.19636" lon="6.81305">
        <ele>1983.461</ele>
        <time>2014-08-30T09:30:47Z</time>
      </trkpt>
      <trkpt lat="46.19635" lon="6.81305">
        <ele>1983.461</ele>
        <time>2014-08-30T09:30:52Z</time>
      </trkpt>
      <trkpt lat="46.19635" lon="6.81307">
        <ele>1983.461</ele>
        <time>2014-08-30T09:30:57Z</time>
      </trkpt>
      <trkpt lat="46.19634" lon="6.81307">
        <ele>1983.461</ele>
        <time>2014-08-30T09:31:02Z</time>
      </trkpt>
      <trkpt lat="46.19634" lon="6.81307">
        <ele>1983.461</ele>
        <time>2014-08-30T09:31:07Z</time>
      </trkpt>
      <trkpt lat="46.19634" lon="6.81309">
        <ele>1983.461</ele>
        <time>2014-08-30T09:31:12Z</time>
      </trkpt>
      <trkpt lat="46.19635" lon="6.81308">
        <ele>1983.461</ele>
        <time>2014-08-30T09:31:17Z</time>
      </trkpt>
      <trkpt lat="46.19635" lon="6.81308">
        <ele>1983.461</ele>
        <time>2014-08-30T09:31:22Z</time>
      </trkpt>
      <trkpt lat="46.19636" lon="6.81308">
        <ele>1983.461</ele>
        <time>2014-08-30T09:31:27Z</time>
      </trkpt>
      <trkpt lat="46.1964" lon="6.81306">
        <ele>1984.0464</ele>
        <time>2014-08-30T09:31:32Z</time>
      </trkpt>
      <trkpt lat="46.19642" lon="6.81307">
        <ele>1984.0464</ele>
        <time>2014-08-30T09:31:37Z</time>
      </trkpt>
      <trkpt lat="46.19645" lon="6.8131">
        <ele>1984.0464</ele>
        <time>2014-08-30T09:31:42Z</time>
      </trkpt>
      <trkpt lat="46.19646" lon="6.8131">
        <ele>1984.0464</ele>
        <time>2014-08-30T09:31:47Z</time>
      </trkpt>
      <trkpt lat="46.19645" lon="6.81311">
        <ele>1984.0464</ele>
        <time>2014-08-30T09:31:52Z</time>
      </trkpt>
      <trkpt lat="46.19646" lon="6.81312">
        <ele>1984.0464</ele>
        <time>2014-08-30T09:31:57Z</time>
      </trkpt>
      <trkpt lat="46.19646" lon="6.81312">
        <ele>1984.6548</ele>
        <time>2014-08-30T09:32:02Z</time>
      </trkpt>
      <trkpt lat="46.19647" lon="6.81315">
        <ele>1984.6548</ele>
        <time>2014-08-30T09:32:07Z</time>
      </trkpt>
      <trkpt lat="46.19648" lon="6.81315">
        <ele>1984.6548</ele>
        <time>2014-08-30T09:32:12Z</time>
      </trkpt>
      <trkpt lat="46.19648" lon="6.81314">
        <ele>1984.6548</ele>
        <time>2014-08-30T09:32:17Z</time>
      </trkpt>
      <trkpt lat="46.19648" lon="6.81315">
        <ele>1984.6548</ele>
        <time>2014-08-30T09:32:22Z</time>
      </trkpt>
      <trkpt lat="46.19647" lon="6.81315">
        <ele>1984.6548</ele>
        <time>2014-08-30T09:32:27Z</time>
      </trkpt>
      <trkpt lat="46.19646" lon="6.81317">
        <ele>1984.6548</ele>
        <time>2014-08-30T09:32:32Z</time>
      </trkpt>
      <trkpt lat="46.19645" lon="6.81314">
        <ele>1984.6548</ele>
        <time>2014-08-30T09:32:37Z</time>
      </trkpt>
      <trkpt lat="46.19645" lon="6.81313">
        <ele>1985.2385</ele>
        <time>2014-08-30T09:32:42Z</time>
      </trkpt>
      <trkpt lat="46.19645" lon="6.81314">
        <ele>1985.2385</ele>
        <time>2014-08-30T09:32:47Z</time>
      </trkpt>
      <trkpt lat="46.19644" lon="6.81314">
        <ele>1985.2385</ele>
        <time>2014-08-30T09:32:52Z</time>
      </trkpt>
      <trkpt lat="46.19643" lon="6.81315">
        <ele>1985.2385</ele>
        <time>2014-08-30T09:32:57Z</time>
      </trkpt>
      <trkpt lat="46.19643" lon="6.81318">
        <ele>1985.2385</ele>
        <time>2014-08-30T09:33:02Z</time>
      </trkpt>
      <trkpt lat="46.19643" lon="6.81318">
        <ele>1985.2385</ele>
        <time>2014-08-30T09:33:07Z</time>
      </trkpt>
      <trkpt lat="46.19644" lon="6.81317">
        <ele>1985.2385</ele>
        <time>2014-08-30T09:33:12Z</time>
      </trkpt>
      <trkpt lat="46.19643" lon="6.81316">
        <ele>1985.2385</ele>
        <time>2014-08-30T09:33:17Z</time>
      </trkpt>
      <trkpt lat="46.19644" lon="6.81315">
        <ele>1985.2385</ele>
        <time>2014-08-30T09:33:22Z</time>
      </trkpt>
      <trkpt lat="46.19644" lon="6.81315">
        <ele>1985.2385</ele>
        <time>2014-08-30T09:33:27Z</time>
      </trkpt>
      <trkpt lat="46.19644" lon="6.81314">
        <ele>1985.2385</ele>
        <time>2014-08-30T09:33:32Z</time>
      </trkpt>
      <trkpt lat="46.19645" lon="6.81313">
        <ele>1985.9698</ele>
        <time>2014-08-30T09:33:37Z</time>
      </trkpt>
      <trkpt lat="46.19645" lon="6.81312">
        <ele>1985.9698</ele>
        <time>2014-08-30T09:33:42Z</time>
      </trkpt>
      <trkpt lat="46.19646" lon="6.81311">
        <ele>1985.9698</ele>
        <time>2014-08-30T09:33:47Z</time>
      </trkpt>
      <trkpt lat="46.19646" lon="6.8131">
        <ele>1985.9698</ele>
        <time>2014-08-30T09:33:52Z</time>
      </trkpt>
      <trkpt lat="46.19647" lon="6.8131">
        <ele>1985.9698</ele>
        <time>2014-08-30T09:33:57Z</time>
      </trkpt>
      <trkpt lat="46.19647" lon="6.81312">
        <ele>1985.9698</ele>
        <time>2014-08-30T09:34:02Z</time>
      </trkpt>
      <trkpt lat="46.19647" lon="6.8131">
        <ele>1985.9698</ele>
        <time>2014-08-30T09:34:07Z</time>
      </trkpt>
      <trkpt lat="46.19649" lon="6.81306">
        <ele>1985.9698</ele>
        <time>2014-08-30T09:34:12Z</time>
      </trkpt>
      <trkpt lat="46.1965" lon="6.81305">
        <ele>1986.5902</ele>
        <time>2014-08-30T09:34:17Z</time>
      </trkpt>
      <trkpt lat="46.19651" lon="6.81304">
        <ele>1986.5902</ele>
        <time>2014-08-30T09:34:22Z</time>
      </trkpt>
      <trkpt lat="46.19651" lon="6.81304">
        <ele>1986.5902</ele>
        <time>2014-08-30T09:34:27Z</time>
      </trkpt>
      <trkpt lat="46.19651" lon="6.81304">
        <ele>1986.5902</ele>
        <time>2014-08-30T09:34:32Z</time>
      </trkpt>
      <trkpt lat="46.19651" lon="6.81304">
        <ele>1986.5902</ele>
        <time>2014-08-30T09:34:37Z</time>
      </trkpt>
      <trkpt lat="46.1965" lon="6.81306">
        <ele>1986.5902</ele>
        <time>2014-08-30T09:34:42Z</time>
      </trkpt>
      <trkpt lat="46.1965" lon="6.81307">
        <ele>1986.5902</ele>
        <time>2014-08-30T09:34:47Z</time>
      </trkpt>
      <trkpt lat="46.19649" lon="6.81309">
        <ele>1986.5902</ele>
        <time>2014-08-30T09:34:52Z</time>
      </trkpt>
      <trkpt lat="46.19648" lon="6.81311">
        <ele>1986.5902</ele>
        <time>2014-08-30T09:46:24Z</time>
      </trkpt>
      <trkpt lat="46.19648" lon="6.81311">
        <ele>1986.5902</ele>
        <time>2014-08-30T09:46:29Z</time>
      </trkpt>
      <trkpt lat="46.19648" lon="6.81312">
        <ele>1986.5902</ele>
        <time>2014-08-30T09:46:34Z</time>
      </trkpt>
      <trkpt lat="46.19648" lon="6.81311">
        <ele>1986.5902</ele>
        <time>2014-08-30T09:46:39Z</time>
      </trkpt>
      <trkpt lat="46.19648" lon="6.81311">
        <ele>1986.5902</ele>
        <time>2014-08-30T09:46:44Z</time>
      </trkpt>
      <trkpt lat="46.19648" lon="6.81311">
        <ele>1986.2115</ele>
        <time>2014-08-30T09:46:49Z</time>
      </trkpt>
      <trkpt lat="46.19648" lon="6.81312">
        <ele>1986.2115</ele>
        <time>2014-08-30T09:46:54Z</time>
      </trkpt>
      <trkpt lat="46.19648" lon="6.81312">
        <ele>1986.2115</ele>
        <time>2014-08-30T09:46:59Z</time>
      </trkpt>
      <trkpt lat="46.19647" lon="6.81312">
        <ele>1986.2115</ele>
        <time>2014-08-30T09:47:04Z</time>
      </trkpt>
      <trkpt lat="46.19647" lon="6.8131">
        <ele>1986.2115</ele>
        <time>2014-08-30T09:47:09Z</time>
      </trkpt>
      <trkpt lat="46.19647" lon="6.81308">
        <ele>1986.2115</ele>
        <time>2014-08-30T09:47:14Z</time>
      </trkpt>
      <trkpt lat="46.19646" lon="6.81306">
        <ele>1986.2115</ele>
        <time>2014-08-30T09:47:19Z</time>
      </trkpt>
      <trkpt lat="46.19647" lon="6.81304">
        <ele>1986.2115</ele>
        <time>2014-08-30T09:47:24Z</time>
      </trkpt>
      <trkpt lat="46.19648" lon="6.81303">
        <ele>1986.2115</ele>
        <time>2014-08-30T09:47:29Z</time>
      </trkpt>
      <trkpt lat="46.19649" lon="6.81306">
        <ele>1985.931</ele>
        <time>2014-08-30T09:47:34Z</time>
      </trkpt>
      <trkpt lat="46.19649" lon="6.81307">
        <ele>1985.931</ele>
        <time>2014-08-30T09:47:39Z</time>
      </trkpt>
      <trkpt lat="46.19649" lon="6.81307">
        <ele>1985.931</ele>
        <time>2014-08-30T09:47:54Z</time>
      </trkpt>
      <trkpt lat="46.19649" lon="6.81308">
        <ele>1985.931</ele>
        <time>2014-08-30T09:47:59Z</time>
      </trkpt>
      <trkpt lat="46.19648" lon="6.81309">
        <ele>1985.931</ele>
        <time>2014-08-30T09:48:04Z</time>
      </trkpt>
      <trkpt lat="46.19648" lon="6.81309">
        <ele>1985.931</ele>
        <time>2014-08-30T09:48:09Z</time>
      </trkpt>
      <trkpt lat="46.19651" lon="6.81312">
        <ele>1985.931</ele>
        <time>2014-08-30T09:48:14Z</time>
      </trkpt>
      <trkpt lat="46.19654" lon="6.8131">
        <ele>1985.828</ele>
        <time>2014-08-30T09:48:19Z</time>
      </trkpt>
      <trkpt lat="46.19655" lon="6.81308">
        <ele>1985.828</ele>
        <time>2014-08-30T09:48:24Z</time>
      </trkpt>
      <trkpt lat="46.19653" lon="6.81321">
        <ele>1985.6584</ele>
        <time>2014-08-30T09:48:29Z</time>
      </trkpt>
      <trkpt lat="46.19647" lon="6.81332">
        <ele>1985.4706</ele>
        <time>2014-08-30T09:48:34Z</time>
      </trkpt>
      <trkpt lat="46.19641" lon="6.81335">
        <ele>1985.4706</ele>
        <time>2014-08-30T09:48:39Z</time>
      </trkpt>
      <trkpt lat="46.19636" lon="6.81338">
        <ele>1985.1649</ele>
        <time>2014-08-30T09:48:44Z</time>
      </trkpt>
      <trkpt lat="46.19635" lon="6.81346">
        <ele>1985.1649</ele>
        <time>2014-08-30T09:48:49Z</time>
      </trkpt>
      <trkpt lat="46.19634" lon="6.81353">
        <ele>1984.635</ele>
        <time>2014-08-30T09:48:54Z</time>
      </trkpt>
      <trkpt lat="46.19629" lon="6.81363">
        <ele>1984.635</ele>
        <time>2014-08-30T09:48:59Z</time>
      </trkpt>
      <trkpt lat="46.19627" lon="6.81369">
        <ele>1984.0717</ele>
        <time>2014-08-30T09:49:04Z</time>
      </trkpt>
      <trkpt lat="46.1962" lon="6.81379">
        <ele>1983.5504</ele>
        <time>2014-08-30T09:49:09Z</time>
      </trkpt>
      <trkpt lat="46.19618" lon="6.81384">
        <ele>1983.5504</ele>
        <time>2014-08-30T09:49:14Z</time>
      </trkpt>
      <trkpt lat="46.19618" lon="6.81382">
        <ele>1983.5504</ele>
        <time>2014-08-30T09:49:19Z</time>
      </trkpt>
      <trkpt lat="46.19621" lon="6.81379">
        <ele>1983.5504</ele>
        <time>2014-08-30T09:49:24Z</time>
      </trkpt>
      <trkpt lat="46.19622" lon="6.81378">
        <ele>1983.1414</ele>
        <time>2014-08-30T09:49:29Z</time>
      </trkpt>
      <trkpt lat="46.19623" lon="6.81378">
        <ele>1983.1414</ele>
        <time>2014-08-30T09:49:34Z</time>
      </trkpt>
      <trkpt lat="46.19621" lon="6.81382">
        <ele>1983.1414</ele>
        <time>2014-08-30T09:49:39Z</time>
      </trkpt>
      <trkpt lat="46.19619" lon="6.81388">
        <ele>1983.1414</ele>
        <time>2014-08-30T09:49:44Z</time>
      </trkpt>
      <trkpt lat="46.19613" lon="6.81393">
        <ele>1982.6353</ele>
        <time>2014-08-30T09:49:49Z</time>
      </trkpt>
      <trkpt lat="46.19606" lon="6.81397">
        <ele>1982.6353</ele>
        <time>2014-08-30T09:49:54Z</time>
      </trkpt>
      <trkpt lat="46.19601" lon="6.81405">
        <ele>1982.0261</ele>
        <time>2014-08-30T09:49:59Z</time>
      </trkpt>
      <trkpt lat="46.19598" lon="6.81413">
        <ele>1982.0261</ele>
        <time>2014-08-30T09:50:04Z</time>
      </trkpt>
      <trkpt lat="46.19598" lon="6.81419">
        <ele>1981.4525</ele>
        <time>2014-08-30T09:50:09Z</time>
      </trkpt>
      <trkpt lat="46.19601" lon="6.81426">
        <ele>1981.4525</ele>
        <time>2014-08-30T09:50:14Z</time>
      </trkpt>
      <trkpt lat="46.19601" lon="6.81431">
        <ele>1980.9275</ele>
        <time>2014-08-30T09:50:19Z</time>
      </trkpt>
      <trkpt lat="46.19601" lon="6.81436">
        <ele>1980.9275</ele>
        <time>2014-08-30T09:50:24Z</time>
      </trkpt>
      <trkpt lat="46.19599" lon="6.81439">
        <ele>1980.9275</ele>
        <time>2014-08-30T09:50:29Z</time>
      </trkpt>
      <trkpt lat="46.19597" lon="6.81445">
        <ele>1980.3191</ele>
        <time>2014-08-30T09:50:34Z</time>
      </trkpt>
      <trkpt lat="46.19596" lon="6.81449">
        <ele>1980.3191</ele>
        <time>2014-08-30T09:50:39Z</time>
      </trkpt>
      <trkpt lat="46.19594" lon="6.8145">
        <ele>1980.3191</ele>
        <time>2014-08-30T09:50:44Z</time>
      </trkpt>
      <trkpt lat="46.19591" lon="6.81455">
        <ele>1979.9807</ele>
        <time>2014-08-30T09:50:49Z</time>
      </trkpt>
      <trkpt lat="46.19588" lon="6.81463">
        <ele>1979.9807</ele>
        <time>2014-08-30T09:50:54Z</time>
      </trkpt>
      <trkpt lat="46.19588" lon="6.81471">
        <ele>1979.7922</ele>
        <time>2014-08-30T09:50:59Z</time>
      </trkpt>
      <trkpt lat="46.19585" lon="6.81479">
        <ele>1979.7922</ele>
        <time>2014-08-30T09:51:04Z</time>
      </trkpt>
      <trkpt lat="46.19579" lon="6.81486">
        <ele>1979.7141</ele>
        <time>2014-08-30T09:51:09Z</time>
      </trkpt>
      <trkpt lat="46.19579" lon="6.81491">
        <ele>1979.7141</ele>
        <time>2014-08-30T09:51:14Z</time>
      </trkpt>
      <trkpt lat="46.1958" lon="6.81494">
        <ele>1979.7141</ele>
        <time>2014-08-30T09:51:19Z</time>
      </trkpt>
      <trkpt lat="46.19576" lon="6.81498">
        <ele>1979.7236</ele>
        <time>2014-08-30T09:51:24Z</time>
      </trkpt>
      <trkpt lat="46.19573" lon="6.81502">
        <ele>1979.7236</ele>
        <time>2014-08-30T09:51:29Z</time>
      </trkpt>
      <trkpt lat="46.19571" lon="6.81507">
        <ele>1979.7236</ele>
        <time>2014-08-30T09:51:34Z</time>
      </trkpt>
      <trkpt lat="46.1957" lon="6.81512">
        <ele>1979.8141</ele>
        <time>2014-08-30T09:51:39Z</time>
      </trkpt>
      <trkpt lat="46.19568" lon="6.81514">
        <ele>1979.8141</ele>
        <time>2014-08-30T09:51:44Z</time>
      </trkpt>
      <trkpt lat="46.19566" lon="6.81518">
        <ele>1979.8141</ele>
        <time>2014-08-30T09:51:49Z</time>
      </trkpt>
      <trkpt lat="46.19563" lon="6.81518">
        <ele>1979.8141</ele>
        <time>2014-08-30T09:51:54Z</time>
      </trkpt>
      <trkpt lat="46.19562" lon="6.81519">
        <ele>1980.0079</ele>
        <time>2014-08-30T09:51:59Z</time>
      </trkpt>
      <trkpt lat="46.19561" lon="6.81524">
        <ele>1980.0079</ele>
        <time>2014-08-30T09:52:04Z</time>
      </trkpt>
      <trkpt lat="46.19561" lon="6.8153">
        <ele>1980.0079</ele>
        <time>2014-08-30T09:52:09Z</time>
      </trkpt>
      <trkpt lat="46.1956" lon="6.81535">
        <ele>1980.1523</ele>
        <time>2014-08-30T09:52:14Z</time>
      </trkpt>
      <trkpt lat="46.19558" lon="6.81538">
        <ele>1980.1523</ele>
        <time>2014-08-30T09:52:19Z</time>
      </trkpt>
      <trkpt lat="46.19557" lon="6.81544">
        <ele>1980.1523</ele>
        <time>2014-08-30T09:52:24Z</time>
      </trkpt>
      <trkpt lat="46.19556" lon="6.81549">
        <ele>1980.4088</ele>
        <time>2014-08-30T09:52:29Z</time>
      </trkpt>
      <trkpt lat="46.19557" lon="6.81555">
        <ele>1980.4088</ele>
        <time>2014-08-30T09:52:34Z</time>
      </trkpt>
      <trkpt lat="46.19557" lon="6.81559">
        <ele>1980.4088</ele>
        <time>2014-08-30T09:52:39Z</time>
      </trkpt>
      <trkpt lat="46.19557" lon="6.81565">
        <ele>1980.7394</ele>
        <time>2014-08-30T09:52:44Z</time>
      </trkpt>
      <trkpt lat="46.19556" lon="6.81571">
        <ele>1980.7394</ele>
        <time>2014-08-30T09:52:49Z</time>
      </trkpt>
      <trkpt lat="46.19556" lon="6.81575">
        <ele>1980.7394</ele>
        <time>2014-08-30T09:52:54Z</time>
      </trkpt>
      <trkpt lat="46.19555" lon="6.8158">
        <ele>1980.8635</ele>
        <time>2014-08-30T09:52:59Z</time>
      </trkpt>
      <trkpt lat="46.19554" lon="6.81584">
        <ele>1980.8635</ele>
        <time>2014-08-30T09:53:04Z</time>
      </trkpt>
      <trkpt lat="46.19553" lon="6.81593">
        <ele>1980.8965</ele>
        <time>2014-08-30T09:53:09Z</time>
      </trkpt>
      <trkpt lat="46.19551" lon="6.81599">
        <ele>1980.8965</ele>
        <time>2014-08-30T09:53:14Z</time>
      </trkpt>
      <trkpt lat="46.19551" lon="6.81605">
        <ele>1980.8965</ele>
        <time>2014-08-30T09:53:19Z</time>
      </trkpt>
      <trkpt lat="46.19551" lon="6.81611">
        <ele>1981.0321</ele>
        <time>2014-08-30T09:53:24Z</time>
      </trkpt>
      <trkpt lat="46.1955" lon="6.81617">
        <ele>1981.0321</ele>
        <time>2014-08-30T09:53:29Z</time>
      </trkpt>
      <trkpt lat="46.1955" lon="6.81626">
        <ele>1981.2764</ele>
        <time>2014-08-30T09:53:34Z</time>
      </trkpt>
      <trkpt lat="46.19549" lon="6.81629">
        <ele>1981.2764</ele>
        <time>2014-08-30T09:53:39Z</time>
      </trkpt>
      <trkpt lat="46.19548" lon="6.81636">
        <ele>1981.2764</ele>
        <time>2014-08-30T09:53:44Z</time>
      </trkpt>
      <trkpt lat="46.19545" lon="6.81644">
        <ele>1981.534</ele>
        <time>2014-08-30T09:53:49Z</time>
      </trkpt>
      <trkpt lat="46.19543" lon="6.81651">
        <ele>1981.534</ele>
        <time>2014-08-30T09:53:54Z</time>
      </trkpt>
      <trkpt lat="46.19543" lon="6.81654">
        <ele>1981.534</ele>
        <time>2014-08-30T09:53:59Z</time>
      </trkpt>
      <trkpt lat="46.19541" lon="6.81658">
        <ele>1981.7888</ele>
        <time>2014-08-30T09:54:04Z</time>
      </trkpt>
      <trkpt lat="46.19539" lon="6.81662">
        <ele>1981.7888</ele>
        <time>2014-08-30T09:54:09Z</time>
      </trkpt>
      <trkpt lat="46.19537" lon="6.81667">
        <ele>1981.7888</ele>
        <time>2014-08-30T09:54:14Z</time>
      </trkpt>
      <trkpt lat="46.19534" lon="6.81674">
        <ele>1981.91</ele>
        <time>2014-08-30T09:54:19Z</time>
      </trkpt>
      <trkpt lat="46.19531" lon="6.8168">
        <ele>1981.91</ele>
        <time>2014-08-30T09:54:24Z</time>
      </trkpt>
      <trkpt lat="46.19528" lon="6.81684">
        <ele>1981.9215</ele>
        <time>2014-08-30T09:54:29Z</time>
      </trkpt>
      <trkpt lat="46.19527" lon="6.81688">
        <ele>1981.9215</ele>
        <time>2014-08-30T09:54:34Z</time>
      </trkpt>
      <trkpt lat="46.19526" lon="6.81694">
        <ele>1981.9215</ele>
        <time>2014-08-30T09:54:39Z</time>
      </trkpt>
      <trkpt lat="46.19523" lon="6.81699">
        <ele>1981.8885</ele>
        <time>2014-08-30T09:54:44Z</time>
      </trkpt>
      <trkpt lat="46.19521" lon="6.81703">
        <ele>1981.8885</ele>
        <time>2014-08-30T09:54:49Z</time>
      </trkpt>
      <trkpt lat="46.19517" lon="6.81707">
        <ele>1981.8885</ele>
        <time>2014-08-30T09:54:54Z</time>
      </trkpt>
      <trkpt lat="46.19516" lon="6.81709">
        <ele>1982.1459</ele>
        <time>2014-08-30T09:54:59Z</time>
      </trkpt>
      <trkpt lat="46.19513" lon="6.81713">
        <ele>1982.1459</ele>
        <time>2014-08-30T09:55:04Z</time>
      </trkpt>
      <trkpt lat="46.19509" lon="6.81721">
        <ele>1982.7722</ele>
        <time>2014-08-30T09:55:09Z</time>
      </trkpt>
      <trkpt lat="46.19508" lon="6.81725">
        <ele>1982.7722</ele>
        <time>2014-08-30T09:55:14Z</time>
      </trkpt>
      <trkpt lat="46.19509" lon="6.81726">
        <ele>1982.7722</ele>
        <time>2014-08-30T09:55:19Z</time>
      </trkpt>
      <trkpt lat="46.19511" lon="6.81725">
        <ele>1982.7722</ele>
        <time>2014-08-30T09:55:24Z</time>
      </trkpt>
      <trkpt lat="46.19511" lon="6.81726">
        <ele>1982.7722</ele>
        <time>2014-08-30T09:55:29Z</time>
      </trkpt>
      <trkpt lat="46.19511" lon="6.81727">
        <ele>1982.7722</ele>
        <time>2014-08-30T09:55:34Z</time>
      </trkpt>
      <trkpt lat="46.19511" lon="6.81728">
        <ele>1982.7722</ele>
        <time>2014-08-30T09:55:39Z</time>
      </trkpt>
      <trkpt lat="46.19513" lon="6.81728">
        <ele>1983.868</ele>
        <time>2014-08-30T09:55:44Z</time>
      </trkpt>
      <trkpt lat="46.19514" lon="6.81733">
        <ele>1983.868</ele>
        <time>2014-08-30T09:55:49Z</time>
      </trkpt>
      <trkpt lat="46.19511" lon="6.81736">
        <ele>1983.868</ele>
        <time>2014-08-30T09:55:54Z</time>
      </trkpt>
      <trkpt lat="46.19508" lon="6.81742">
        <ele>1986.4912</ele>
        <time>2014-08-30T09:55:59Z</time>
      </trkpt>
      <trkpt lat="46.19504" lon="6.81747">
        <ele>1986.4912</ele>
        <time>2014-08-30T09:56:04Z</time>
      </trkpt>
      <trkpt lat="46.19504" lon="6.81746">
        <ele>1986.4912</ele>
        <time>2014-08-30T09:56:09Z</time>
      </trkpt>
      <trkpt lat="46.19505" lon="6.81748">
        <ele>1986.4912</ele>
        <time>2014-08-30T09:56:14Z</time>
      </trkpt>
      <trkpt lat="46.19505" lon="6.81752">
        <ele>1988.6051</ele>
        <time>2014-08-30T09:56:19Z</time>
      </trkpt>
      <trkpt lat="46.19503" lon="6.81756">
        <ele>1988.6051</ele>
        <time>2014-08-30T09:56:24Z</time>
      </trkpt>
      <trkpt lat="46.19501" lon="6.81761">
        <ele>1988.6051</ele>
        <time>2014-08-30T09:56:29Z</time>
      </trkpt>
      <trkpt lat="46.19498" lon="6.81765">
        <ele>1990.4862</ele>
        <time>2014-08-30T09:56:34Z</time>
      </trkpt>
      <trkpt lat="46.19495" lon="6.81768">
        <ele>1990.4862</ele>
        <time>2014-08-30T09:56:39Z</time>
      </trkpt>
      <trkpt lat="46.19489" lon="6.81771">
        <ele>1992.1465</ele>
        <time>2014-08-30T09:56:44Z</time>
      </trkpt>
      <trkpt lat="46.19486" lon="6.81773">
        <ele>1992.1465</ele>
        <time>2014-08-30T09:56:49Z</time>
      </trkpt>
      <trkpt lat="46.19477" lon="6.81779">
        <ele>1993.4822</ele>
        <time>2014-08-30T09:56:54Z</time>
      </trkpt>
      <trkpt lat="46.19473" lon="6.81782">
        <ele>1993.4822</ele>
        <time>2014-08-30T09:56:59Z</time>
      </trkpt>
      <trkpt lat="46.19472" lon="6.81783">
        <ele>1993.4822</ele>
        <time>2014-08-30T09:57:04Z</time>
      </trkpt>
      <trkpt lat="46.19468" lon="6.81785">
        <ele>1994.7443</ele>
        <time>2014-08-30T09:57:09Z</time>
      </trkpt>
      <trkpt lat="46.19466" lon="6.81788">
        <ele>1994.7443</ele>
        <time>2014-08-30T09:57:14Z</time>
      </trkpt>
      <trkpt lat="46.19464" lon="6.81791">
        <ele>1994.7443</ele>
        <time>2014-08-30T09:57:19Z</time>
      </trkpt>
      <trkpt lat="46.19463" lon="6.81793">
        <ele>1994.7443</ele>
        <time>2014-08-30T09:57:24Z</time>
      </trkpt>
      <trkpt lat="46.19462" lon="6.81795">
        <ele>1996.0789</ele>
        <time>2014-08-30T09:57:29Z</time>
      </trkpt>
      <trkpt lat="46.19461" lon="6.81796">
        <ele>1996.0789</ele>
        <time>2014-08-30T09:57:34Z</time>
      </trkpt>
      <trkpt lat="46.19459" lon="6.81796">
        <ele>1996.0789</ele>
        <time>2014-08-30T09:57:39Z</time>
      </trkpt>
      <trkpt lat="46.19457" lon="6.81798">
        <ele>1996.0789</ele>
        <time>2014-08-30T09:57:44Z</time>
      </trkpt>
      <trkpt lat="46.19454" lon="6.81802">
        <ele>1997.8087</ele>
        <time>2014-08-30T09:57:49Z</time>
      </trkpt>
      <trkpt lat="46.19453" lon="6.81807">
        <ele>1997.8087</ele>
        <time>2014-08-30T09:57:54Z</time>
      </trkpt>
      <trkpt lat="46.19452" lon="6.81812">
        <ele>1997.8087</ele>
        <time>2014-08-30T09:57:59Z</time>
      </trkpt>
      <trkpt lat="46.19451" lon="6.81815">
        <ele>1999.3528</ele>
        <time>2014-08-30T09:58:04Z</time>
      </trkpt>
      <trkpt lat="46.19448" lon="6.81817">
        <ele>1999.3528</ele>
        <time>2014-08-30T09:58:09Z</time>
      </trkpt>
      <trkpt lat="46.19444" lon="6.8182">
        <ele>1999.3528</ele>
        <time>2014-08-30T09:58:14Z</time>
      </trkpt>
      <trkpt lat="46.19438" lon="6.81823">
        <ele>2001.0236</ele>
        <time>2014-08-30T09:58:19Z</time>
      </trkpt>
      <trkpt lat="46.19437" lon="6.81823">
        <ele>2001.0236</ele>
        <time>2014-08-30T09:58:24Z</time>
      </trkpt>
      <trkpt lat="46.19438" lon="6.81823">
        <ele>2001.0236</ele>
        <time>2014-08-30T09:58:29Z</time>
      </trkpt>
      <trkpt lat="46.19438" lon="6.81826">
        <ele>2001.0236</ele>
        <time>2014-08-30T09:58:34Z</time>
      </trkpt>
      <trkpt lat="46.19435" lon="6.8183">
        <ele>2001.0236</ele>
        <time>2014-08-30T09:58:39Z</time>
      </trkpt>
      <trkpt lat="46.19429" lon="6.81835">
        <ele>2002.7357</ele>
        <time>2014-08-30T09:58:44Z</time>
      </trkpt>
      <trkpt lat="46.19428" lon="6.81835">
        <ele>2002.7357</ele>
        <time>2014-08-30T09:58:49Z</time>
      </trkpt>
      <trkpt lat="46.19425" lon="6.81838">
        <ele>2002.7357</ele>
        <time>2014-08-30T09:58:54Z</time>
      </trkpt>
      <trkpt lat="46.19424" lon="6.8184">
        <ele>2002.7357</ele>
        <time>2014-08-30T09:58:59Z</time>
      </trkpt>
      <trkpt lat="46.19424" lon="6.8184">
        <ele>2002.7357</ele>
        <time>2014-08-30T09:59:04Z</time>
      </trkpt>
      <trkpt lat="46.19425" lon="6.8184">
        <ele>2002.7357</ele>
        <time>2014-08-30T09:59:09Z</time>
      </trkpt>
      <trkpt lat="46.19426" lon="6.8184">
        <ele>2004.4532</ele>
        <time>2014-08-30T09:59:14Z</time>
      </trkpt>
      <trkpt lat="46.19425" lon="6.8184">
        <ele>2004.4532</ele>
        <time>2014-08-30T09:59:19Z</time>
      </trkpt>
      <trkpt lat="46.19423" lon="6.81839">
        <ele>2004.4532</ele>
        <time>2014-08-30T09:59:24Z</time>
      </trkpt>
      <trkpt lat="46.19422" lon="6.81838">
        <ele>2004.4532</ele>
        <time>2014-08-30T09:59:29Z</time>
      </trkpt>
      <trkpt lat="46.19417" lon="6.81843">
        <ele>2006.3881</ele>
        <time>2014-08-30T09:59:34Z</time>
      </trkpt>
      <trkpt lat="46.19415" lon="6.81847">
        <ele>2006.3881</ele>
        <time>2014-08-30T09:59:39Z</time>
      </trkpt>
      <trkpt lat="46.19414" lon="6.8185">
        <ele>2006.3881</ele>
        <time>2014-08-30T09:59:44Z</time>
      </trkpt>
      <trkpt lat="46.19412" lon="6.8185">
        <ele>2006.3881</ele>
        <time>2014-08-30T09:59:49Z</time>
      </trkpt>
      <trkpt lat="46.19409" lon="6.81855">
        <ele>2008.3755</ele>
        <time>2014-08-30T09:59:54Z</time>
      </trkpt>
      <trkpt lat="46.19407" lon="6.81857">
        <ele>2008.3755</ele>
        <time>2014-08-30T09:59:59Z</time>
      </trkpt>
      <trkpt lat="46.19406" lon="6.81861">
        <ele>2008.3755</ele>
        <time>2014-08-30T10:00:04Z</time>
      </trkpt>
      <trkpt lat="46.19405" lon="6.81862">
        <ele>2008.3755</ele>
        <time>2014-08-30T10:00:09Z</time>
      </trkpt>
      <trkpt lat="46.19402" lon="6.81863">
        <ele>2010.4794</ele>
        <time>2014-08-30T10:00:14Z</time>
      </trkpt>
      <trkpt lat="46.19399" lon="6.81864">
        <ele>2010.4794</ele>
        <time>2014-08-30T10:00:19Z</time>
      </trkpt>
      <trkpt lat="46.19396" lon="6.81865">
        <ele>2010.4794</ele>
        <time>2014-08-30T10:00:24Z</time>
      </trkpt>
      <trkpt lat="46.19393" lon="6.81866">
        <ele>2012.5425</ele>
        <time>2014-08-30T10:00:29Z</time>
      </trkpt>
      <trkpt lat="46.19392" lon="6.8187">
        <ele>2012.5425</ele>
        <time>2014-08-30T10:00:34Z</time>
      </trkpt>
      <trkpt lat="46.1939" lon="6.81872">
        <ele>2012.5425</ele>
        <time>2014-08-30T10:00:39Z</time>
      </trkpt>
      <trkpt lat="46.19387" lon="6.81876">
        <ele>2014.7793</ele>
        <time>2014-08-30T10:00:44Z</time>
      </trkpt>
      <trkpt lat="46.19385" lon="6.81879">
        <ele>2014.7793</ele>
        <time>2014-08-30T10:00:49Z</time>
      </trkpt>
      <trkpt lat="46.19382" lon="6.81879">
        <ele>2014.7793</ele>
        <time>2014-08-30T10:00:54Z</time>
      </trkpt>
      <trkpt lat="46.19379" lon="6.8188">
        <ele>2014.7793</ele>
        <time>2014-08-30T10:00:59Z</time>
      </trkpt>
      <trkpt lat="46.19377" lon="6.81882">
        <ele>2017.4175</ele>
        <time>2014-08-30T10:01:04Z</time>
      </trkpt>
      <trkpt lat="46.19374" lon="6.81885">
        <ele>2017.4175</ele>
        <time>2014-08-30T10:01:09Z</time>
      </trkpt>
      <trkpt lat="46.19371" lon="6.81887">
        <ele>2017.4175</ele>
        <time>2014-08-30T10:01:14Z</time>
      </trkpt>
      <trkpt lat="46.19369" lon="6.8189">
        <ele>2019.9894</ele>
        <time>2014-08-30T10:01:19Z</time>
      </trkpt>
      <trkpt lat="46.19366" lon="6.81891">
        <ele>2019.9894</ele>
        <time>2014-08-30T10:01:24Z</time>
      </trkpt>
      <trkpt lat="46.19363" lon="6.81892">
        <ele>2019.9894</ele>
        <time>2014-08-30T10:01:29Z</time>
      </trkpt>
      <trkpt lat="46.19362" lon="6.81895">
        <ele>2022.2206</ele>
        <time>2014-08-30T10:01:34Z</time>
      </trkpt>
      <trkpt lat="46.1936" lon="6.81898">
        <ele>2022.2206</ele>
        <time>2014-08-30T10:01:39Z</time>
      </trkpt>
      <trkpt lat="46.19361" lon="6.81904">
        <ele>2022.2206</ele>
        <time>2014-08-30T10:01:44Z</time>
      </trkpt>
      <trkpt lat="46.1936" lon="6.81906">
        <ele>2022.2206</ele>
        <time>2014-08-30T10:01:49Z</time>
      </trkpt>
      <trkpt lat="46.19359" lon="6.81906">
        <ele>2024.0454</ele>
        <time>2014-08-30T10:01:54Z</time>
      </trkpt>
      <trkpt lat="46.19356" lon="6.8191">
        <ele>2024.0454</ele>
        <time>2014-08-30T10:01:59Z</time>
      </trkpt>
      <trkpt lat="46.19353" lon="6.81914">
        <ele>2024.0454</ele>
        <time>2014-08-30T10:02:04Z</time>
      </trkpt>
      <trkpt lat="46.1935" lon="6.81916">
        <ele>2025.8076</ele>
        <time>2014-08-30T10:02:09Z</time>
      </trkpt>
      <trkpt lat="46.19346" lon="6.81918">
        <ele>2025.8076</ele>
        <time>2014-08-30T10:02:14Z</time>
      </trkpt>
      <trkpt lat="46.19341" lon="6.8192">
        <ele>2027.3219</ele>
        <time>2014-08-30T10:02:19Z</time>
      </trkpt>
      <trkpt lat="46.19341" lon="6.81922">
        <ele>2027.3219</ele>
        <time>2014-08-30T10:02:24Z</time>
      </trkpt>
      <trkpt lat="46.19338" lon="6.81926">
        <ele>2027.3219</ele>
        <time>2014-08-30T10:02:29Z</time>
      </trkpt>
      <trkpt lat="46.19337" lon="6.81928">
        <ele>2027.3219</ele>
        <time>2014-08-30T10:02:34Z</time>
      </trkpt>
      <trkpt lat="46.19336" lon="6.81929">
        <ele>2027.3219</ele>
        <time>2014-08-30T10:02:39Z</time>
      </trkpt>
      <trkpt lat="46.19335" lon="6.8193">
        <ele>2029.1232</ele>
        <time>2014-08-30T10:02:44Z</time>
      </trkpt>
      <trkpt lat="46.19333" lon="6.81931">
        <ele>2029.1232</ele>
        <time>2014-08-30T10:02:49Z</time>
      </trkpt>
      <trkpt lat="46.19332" lon="6.81934">
        <ele>2029.1232</ele>
        <time>2014-08-30T10:02:54Z</time>
      </trkpt>
      <trkpt lat="46.19331" lon="6.81937">
        <ele>2029.1232</ele>
        <time>2014-08-30T10:02:59Z</time>
      </trkpt>
      <trkpt lat="46.1933" lon="6.8194">
        <ele>2031.0149</ele>
        <time>2014-08-30T10:03:04Z</time>
      </trkpt>
      <trkpt lat="46.19329" lon="6.81945">
        <ele>2031.0149</ele>
        <time>2014-08-30T10:03:09Z</time>
      </trkpt>
      <trkpt lat="46.19331" lon="6.81948">
        <ele>2031.0149</ele>
        <time>2014-08-30T10:03:14Z</time>
      </trkpt>
      <trkpt lat="46.1933" lon="6.81949">
        <ele>2031.0149</ele>
        <time>2014-08-30T10:03:19Z</time>
      </trkpt>
      <trkpt lat="46.19327" lon="6.81951">
        <ele>2032.7286</ele>
        <time>2014-08-30T10:03:24Z</time>
      </trkpt>
      <trkpt lat="46.19324" lon="6.8195">
        <ele>2032.7286</ele>
        <time>2014-08-30T10:03:29Z</time>
      </trkpt>
      <trkpt lat="46.1932" lon="6.8195">
        <ele>2032.7286</ele>
        <time>2014-08-30T10:03:34Z</time>
      </trkpt>
      <trkpt lat="46.19319" lon="6.8195">
        <ele>2032.7286</ele>
        <time>2014-08-30T10:03:39Z</time>
      </trkpt>
      <trkpt lat="46.19318" lon="6.81951">
        <ele>2034.448</ele>
        <time>2014-08-30T10:03:44Z</time>
      </trkpt>
      <trkpt lat="46.19316" lon="6.81949">
        <ele>2034.448</ele>
        <time>2014-08-30T10:03:49Z</time>
      </trkpt>
      <trkpt lat="46.19313" lon="6.81947">
        <ele>2034.448</ele>
        <time>2014-08-30T10:03:54Z</time>
      </trkpt>
      <trkpt lat="46.19312" lon="6.81948">
        <ele>2034.448</ele>
        <time>2014-08-30T10:03:59Z</time>
      </trkpt>
      <trkpt lat="46.1931" lon="6.81954">
        <ele>2036.1566</ele>
        <time>2014-08-30T10:04:04Z</time>
      </trkpt>
      <trkpt lat="46.19311" lon="6.81956">
        <ele>2036.1566</ele>
        <time>2014-08-30T10:04:09Z</time>
      </trkpt>
      <trkpt lat="46.19311" lon="6.81956">
        <ele>2036.1566</ele>
        <time>2014-08-30T10:04:14Z</time>
      </trkpt>
      <trkpt lat="46.19311" lon="6.81957">
        <ele>2036.1566</ele>
        <time>2014-08-30T10:04:19Z</time>
      </trkpt>
      <trkpt lat="46.19311" lon="6.81958">
        <ele>2036.1566</ele>
        <time>2014-08-30T10:04:24Z</time>
      </trkpt>
      <trkpt lat="46.19311" lon="6.81959">
        <ele>2036.1566</ele>
        <time>2014-08-30T10:04:29Z</time>
      </trkpt>
      <trkpt lat="46.19311" lon="6.81957">
        <ele>2036.1566</ele>
        <time>2014-08-30T10:04:34Z</time>
      </trkpt>
      <trkpt lat="46.19309" lon="6.81961">
        <ele>2036.1566</ele>
        <time>2014-08-30T10:04:39Z</time>
      </trkpt>
      <trkpt lat="46.19308" lon="6.81964">
        <ele>2037.6947</ele>
        <time>2014-08-30T10:04:44Z</time>
      </trkpt>
      <trkpt lat="46.19305" lon="6.81967">
        <ele>2037.6947</ele>
        <time>2014-08-30T10:04:49Z</time>
      </trkpt>
      <trkpt lat="46.19302" lon="6.81968">
        <ele>2037.6947</ele>
        <time>2014-08-30T10:04:54Z</time>
      </trkpt>
      <trkpt lat="46.193" lon="6.81968">
        <ele>2037.6947</ele>
        <time>2014-08-30T10:04:59Z</time>
      </trkpt>
      <trkpt lat="46.19298" lon="6.81968">
        <ele>2039.4341</ele>
        <time>2014-08-30T10:05:04Z</time>
      </trkpt>
      <trkpt lat="46.19295" lon="6.81969">
        <ele>2039.4341</ele>
        <time>2014-08-30T10:05:09Z</time>
      </trkpt>
      <trkpt lat="46.19293" lon="6.81972">
        <ele>2039.4341</ele>
        <time>2014-08-30T10:05:14Z</time>
      </trkpt>
      <trkpt lat="46.1929" lon="6.81974">
        <ele>2039.4341</ele>
        <time>2014-08-30T10:05:19Z</time>
      </trkpt>
      <trkpt lat="46.19287" lon="6.81977">
        <ele>2041.805</ele>
        <time>2014-08-30T10:05:24Z</time>
      </trkpt>
      <trkpt lat="46.19285" lon="6.8198">
        <ele>2041.805</ele>
        <time>2014-08-30T10:05:29Z</time>
      </trkpt>
      <trkpt lat="46.19284" lon="6.81981">
        <ele>2041.805</ele>
        <time>2014-08-30T10:05:34Z</time>
      </trkpt>
      <trkpt lat="46.19283" lon="6.81984">
        <ele>2041.805</ele>
        <time>2014-08-30T10:05:39Z</time>
      </trkpt>
      <trkpt lat="46.1928" lon="6.81985">
        <ele>2041.805</ele>
        <time>2014-08-30T10:05:44Z</time>
      </trkpt>
      <trkpt lat="46.19277" lon="6.81987">
        <ele>2044.1815</ele>
        <time>2014-08-30T10:05:49Z</time>
      </trkpt>
      <trkpt lat="46.19275" lon="6.8199">
        <ele>2044.1815</ele>
        <time>2014-08-30T10:05:54Z</time>
      </trkpt>
      <trkpt lat="46.19273" lon="6.81992">
        <ele>2044.1815</ele>
        <time>2014-08-30T10:05:59Z</time>
      </trkpt>
      <trkpt lat="46.1927" lon="6.81992">
        <ele>2044.1815</ele>
        <time>2014-08-30T10:06:04Z</time>
      </trkpt>
      <trkpt lat="46.1927" lon="6.81992">
        <ele>2044.1815</ele>
        <time>2014-08-30T10:06:09Z</time>
      </trkpt>
      <trkpt lat="46.1927" lon="6.81993">
        <ele>2044.1815</ele>
        <time>2014-08-30T10:06:14Z</time>
      </trkpt>
      <trkpt lat="46.1927" lon="6.81992">
        <ele>2046.6176</ele>
        <time>2014-08-30T10:06:19Z</time>
      </trkpt>
      <trkpt lat="46.1927" lon="6.8199">
        <ele>2046.6176</ele>
        <time>2014-08-30T10:06:24Z</time>
      </trkpt>
      <trkpt lat="46.1927" lon="6.81991">
        <ele>2046.6176</ele>
        <time>2014-08-30T10:06:29Z</time>
      </trkpt>
      <trkpt lat="46.1927" lon="6.81989">
        <ele>2046.6176</ele>
        <time>2014-08-30T10:06:34Z</time>
      </trkpt>
      <trkpt lat="46.19269" lon="6.81989">
        <ele>2046.6176</ele>
        <time>2014-08-30T10:06:39Z</time>
      </trkpt>
      <trkpt lat="46.19269" lon="6.81989">
        <ele>2046.6176</ele>
        <time>2014-08-30T10:06:44Z</time>
      </trkpt>
      <trkpt lat="46.19268" lon="6.81989">
        <ele>2046.6176</ele>
        <time>2014-08-30T10:06:49Z</time>
      </trkpt>
      <trkpt lat="46.19267" lon="6.81991">
        <ele>2046.6176</ele>
        <time>2014-08-30T10:06:54Z</time>
      </trkpt>
      <trkpt lat="46.19267" lon="6.81992">
        <ele>2046.6176</ele>
        <time>2014-08-30T10:06:59Z</time>
      </trkpt>
      <trkpt lat="46.19266" lon="6.81995">
        <ele>2049.1777</ele>
        <time>2014-08-30T10:07:04Z</time>
      </trkpt>
      <trkpt lat="46.19263" lon="6.81999">
        <ele>2049.1777</ele>
        <time>2014-08-30T10:07:09Z</time>
      </trkpt>
      <trkpt lat="46.19258" lon="6.82">
        <ele>2049.1777</ele>
        <time>2014-08-30T10:07:14Z</time>
      </trkpt>
      <trkpt lat="46.19256" lon="6.82004">
        <ele>2051.6619</ele>
        <time>2014-08-30T10:07:19Z</time>
      </trkpt>
      <trkpt lat="46.19256" lon="6.82007">
        <ele>2051.6619</ele>
        <time>2014-08-30T10:07:24Z</time>
      </trkpt>
      <trkpt lat="46.19256" lon="6.82011">
        <ele>2051.6619</ele>
        <time>2014-08-30T10:07:29Z</time>
      </trkpt>
      <trkpt lat="46.19256" lon="6.82017">
        <ele>2054.0728</ele>
        <time>2014-08-30T10:07:34Z</time>
      </trkpt>
      <trkpt lat="46.19257" lon="6.82022">
        <ele>2054.0728</ele>
        <time>2014-08-30T10:07:39Z</time>
      </trkpt>
      <trkpt lat="46.19258" lon="6.82026">
        <ele>2054.0728</ele>
        <time>2014-08-30T10:07:44Z</time>
      </trkpt>
      <trkpt lat="46.19257" lon="6.82032">
        <ele>2056.384</ele>
        <time>2014-08-30T10:07:49Z</time>
      </trkpt>
      <trkpt lat="46.19257" lon="6.82035">
        <ele>2056.384</ele>
        <time>2014-08-30T10:07:54Z</time>
      </trkpt>
      <trkpt lat="46.19254" lon="6.82041">
        <ele>2056.384</ele>
        <time>2014-08-30T10:07:59Z</time>
      </trkpt>
      <trkpt lat="46.19252" lon="6.82043">
        <ele>2058.4854</ele>
        <time>2014-08-30T10:08:04Z</time>
      </trkpt>
      <trkpt lat="46.19252" lon="6.82044">
        <ele>2058.4854</ele>
        <time>2014-08-30T10:08:09Z</time>
      </trkpt>
      <trkpt lat="46.1925" lon="6.82044">
        <ele>2058.4854</ele>
        <time>2014-08-30T10:08:14Z</time>
      </trkpt>
      <trkpt lat="46.1925" lon="6.82043">
        <ele>2058.4854</ele>
        <time>2014-08-30T10:08:19Z</time>
      </trkpt>
      <trkpt lat="46.19251" lon="6.82043">
        <ele>2058.4854</ele>
        <time>2014-08-30T10:08:24Z</time>
      </trkpt>
      <trkpt lat="46.1925" lon="6.82045">
        <ele>2058.4854</ele>
        <time>2014-08-30T10:08:29Z</time>
      </trkpt>
      <trkpt lat="46.19249" lon="6.82046">
        <ele>2058.4854</ele>
        <time>2014-08-30T10:08:34Z</time>
      </trkpt>
      <trkpt lat="46.19248" lon="6.82049">
        <ele>2060.7507</ele>
        <time>2014-08-30T10:08:39Z</time>
      </trkpt>
      <trkpt lat="46.19247" lon="6.82049">
        <ele>2060.7507</ele>
        <time>2014-08-30T10:08:44Z</time>
      </trkpt>
      <trkpt lat="46.19247" lon="6.82052">
        <ele>2060.7507</ele>
        <time>2014-08-30T10:08:49Z</time>
      </trkpt>
      <trkpt lat="46.19245" lon="6.82055">
        <ele>2060.7507</ele>
        <time>2014-08-30T10:08:54Z</time>
      </trkpt>
      <trkpt lat="46.19244" lon="6.82058">
        <ele>2060.7507</ele>
        <time>2014-08-30T10:08:59Z</time>
      </trkpt>
      <trkpt lat="46.19243" lon="6.82061">
        <ele>2063.1084</ele>
        <time>2014-08-30T10:09:04Z</time>
      </trkpt>
      <trkpt lat="46.19242" lon="6.82067">
        <ele>2063.1084</ele>
        <time>2014-08-30T10:09:09Z</time>
      </trkpt>
      <trkpt lat="46.19242" lon="6.82069">
        <ele>2063.1084</ele>
        <time>2014-08-30T10:09:14Z</time>
      </trkpt>
      <trkpt lat="46.19241" lon="6.8207">
        <ele>2063.1084</ele>
        <time>2014-08-30T10:09:19Z</time>
      </trkpt>
      <trkpt lat="46.19239" lon="6.82072">
        <ele>2065.607</ele>
        <time>2014-08-30T10:09:24Z</time>
      </trkpt>
      <trkpt lat="46.19237" lon="6.82072">
        <ele>2065.607</ele>
        <time>2014-08-30T10:09:29Z</time>
      </trkpt>
      <trkpt lat="46.19236" lon="6.82071">
        <ele>2065.607</ele>
        <time>2014-08-30T10:09:34Z</time>
      </trkpt>
      <trkpt lat="46.19236" lon="6.82071">
        <ele>2065.607</ele>
        <time>2014-08-30T10:09:39Z</time>
      </trkpt>
      <trkpt lat="46.19236" lon="6.82072">
        <ele>2065.607</ele>
        <time>2014-08-30T10:09:44Z</time>
      </trkpt>
      <trkpt lat="46.19234" lon="6.82072">
        <ele>2065.607</ele>
        <time>2014-08-30T10:09:49Z</time>
      </trkpt>
      <trkpt lat="46.19233" lon="6.8207">
        <ele>2065.607</ele>
        <time>2014-08-30T10:09:54Z</time>
      </trkpt>
      <trkpt lat="46.19231" lon="6.82067">
        <ele>2068.45</ele>
        <time>2014-08-30T10:09:59Z</time>
      </trkpt>
      <trkpt lat="46.19228" lon="6.82064">
        <ele>2068.45</ele>
        <time>2014-08-30T10:10:04Z</time>
      </trkpt>
      <trkpt lat="46.19225" lon="6.82064">
        <ele>2068.45</ele>
        <time>2014-08-30T10:10:09Z</time>
      </trkpt>
      <trkpt lat="46.19223" lon="6.82068">
        <ele>2068.45</ele>
        <time>2014-08-30T10:10:14Z</time>
      </trkpt>
      <trkpt lat="46.19222" lon="6.82069">
        <ele>2071.4067</ele>
        <time>2014-08-30T10:10:19Z</time>
      </trkpt>
      <trkpt lat="46.19223" lon="6.82075">
        <ele>2071.4067</ele>
        <time>2014-08-30T10:10:24Z</time>
      </trkpt>
      <trkpt lat="46.19224" lon="6.8208">
        <ele>2071.4067</ele>
        <time>2014-08-30T10:10:29Z</time>
      </trkpt>
      <trkpt lat="46.19225" lon="6.82083">
        <ele>2074.264</ele>
        <time>2014-08-30T10:10:34Z</time>
      </trkpt>
      <trkpt lat="46.19225" lon="6.82086">
        <ele>2074.264</ele>
        <time>2014-08-30T10:10:39Z</time>
      </trkpt>
      <trkpt lat="46.19226" lon="6.82091">
        <ele>2074.264</ele>
        <time>2014-08-30T10:10:44Z</time>
      </trkpt>
      <trkpt lat="46.19226" lon="6.82095">
        <ele>2074.264</ele>
        <time>2014-08-30T10:10:49Z</time>
      </trkpt>
      <trkpt lat="46.19225" lon="6.821">
        <ele>2077.1985</ele>
        <time>2014-08-30T10:10:54Z</time>
      </trkpt>
      <trkpt lat="46.19225" lon="6.82104">
        <ele>2077.1985</ele>
        <time>2014-08-30T10:10:59Z</time>
      </trkpt>
      <trkpt lat="46.19225" lon="6.82106">
        <ele>2077.1985</ele>
        <time>2014-08-30T10:11:04Z</time>
      </trkpt>
      <trkpt lat="46.19226" lon="6.82106">
        <ele>2077.1985</ele>
        <time>2014-08-30T10:11:09Z</time>
      </trkpt>
      <trkpt lat="46.19226" lon="6.82108">
        <ele>2077.1985</ele>
        <time>2014-08-30T10:11:14Z</time>
      </trkpt>
      <trkpt lat="46.19227" lon="6.82113">
        <ele>2080.0862</ele>
        <time>2014-08-30T10:11:19Z</time>
      </trkpt>
      <trkpt lat="46.19229" lon="6.82117">
        <ele>2080.0862</ele>
        <time>2014-08-30T10:11:24Z</time>
      </trkpt>
      <trkpt lat="46.19229" lon="6.82122">
        <ele>2080.0862</ele>
        <time>2014-08-30T10:11:29Z</time>
      </trkpt>
      <trkpt lat="46.19228" lon="6.82124">
        <ele>2080.0862</ele>
        <time>2014-08-30T10:11:34Z</time>
      </trkpt>
      <trkpt lat="46.19224" lon="6.82126">
        <ele>2082.7546</ele>
        <time>2014-08-30T10:11:39Z</time>
      </trkpt>
      <trkpt lat="46.19221" lon="6.82126">
        <ele>2082.7546</ele>
        <time>2014-08-30T10:11:44Z</time>
      </trkpt>
      <trkpt lat="46.19215" lon="6.82124">
        <ele>2085.174</ele>
        <time>2014-08-30T10:11:49Z</time>
      </trkpt>
      <trkpt lat="46.19212" lon="6.82123">
        <ele>2085.174</ele>
        <time>2014-08-30T10:11:54Z</time>
      </trkpt>
      <trkpt lat="46.19208" lon="6.82121">
        <ele>2085.174</ele>
        <time>2014-08-30T10:11:59Z</time>
      </trkpt>
      <trkpt lat="46.19205" lon="6.8212">
        <ele>2087.895</ele>
        <time>2014-08-30T10:12:04Z</time>
      </trkpt>
      <trkpt lat="46.19203" lon="6.8212">
        <ele>2087.895</ele>
        <time>2014-08-30T10:12:09Z</time>
      </trkpt>
      <trkpt lat="46.19201" lon="6.82121">
        <ele>2087.895</ele>
        <time>2014-08-30T10:12:14Z</time>
      </trkpt>
      <trkpt lat="46.19198" lon="6.82121">
        <ele>2087.895</ele>
        <time>2014-08-30T10:12:19Z</time>
      </trkpt>
      <trkpt lat="46.19195" lon="6.82122">
        <ele>2090.662</ele>
        <time>2014-08-30T10:12:24Z</time>
      </trkpt>
      <trkpt lat="46.19192" lon="6.82124">
        <ele>2090.662</ele>
        <time>2014-08-30T10:12:29Z</time>
      </trkpt>
      <trkpt lat="46.19191" lon="6.82125">
        <ele>2090.662</ele>
        <time>2014-08-30T10:12:34Z</time>
      </trkpt>
      <trkpt lat="46.19191" lon="6.82125">
        <ele>2090.662</ele>
        <time>2014-08-30T10:12:39Z</time>
      </trkpt>
      <trkpt lat="46.19191" lon="6.82125">
        <ele>2090.662</ele>
        <time>2014-08-30T10:12:44Z</time>
      </trkpt>
      <trkpt lat="46.19191" lon="6.82124">
        <ele>2090.662</ele>
        <time>2014-08-30T10:12:49Z</time>
      </trkpt>
      <trkpt lat="46.1919" lon="6.82125">
        <ele>2090.662</ele>
        <time>2014-08-30T10:12:54Z</time>
      </trkpt>
      <trkpt lat="46.19188" lon="6.82128">
        <ele>2093.4268</ele>
        <time>2014-08-30T10:12:59Z</time>
      </trkpt>
      <trkpt lat="46.19188" lon="6.82127">
        <ele>2093.4268</ele>
        <time>2014-08-30T10:13:04Z</time>
      </trkpt>
      <trkpt lat="46.19188" lon="6.82127">
        <ele>2093.4268</ele>
        <time>2014-08-30T10:13:09Z</time>
      </trkpt>
      <trkpt lat="46.19188" lon="6.82126">
        <ele>2093.4268</ele>
        <time>2014-08-30T10:13:14Z</time>
      </trkpt>
      <trkpt lat="46.19189" lon="6.82126">
        <ele>2093.4268</ele>
        <time>2014-08-30T10:13:19Z</time>
      </trkpt>
      <trkpt lat="46.19191" lon="6.82127">
        <ele>2093.4268</ele>
        <time>2014-08-30T10:13:24Z</time>
      </trkpt>
      <trkpt lat="46.19193" lon="6.82128">
        <ele>2093.4268</ele>
        <time>2014-08-30T10:13:29Z</time>
      </trkpt>
      <trkpt lat="46.19193" lon="6.82129">
        <ele>2093.4268</ele>
        <time>2014-08-30T10:13:34Z</time>
      </trkpt>
      <trkpt lat="46.19193" lon="6.82128">
        <ele>2093.4268</ele>
        <time>2014-08-30T10:13:39Z</time>
      </trkpt>
      <trkpt lat="46.19193" lon="6.82127">
        <ele>2093.4268</ele>
        <time>2014-08-30T10:13:44Z</time>
      </trkpt>
      <trkpt lat="46.19193" lon="6.82126">
        <ele>2093.4268</ele>
        <time>2014-08-30T10:13:49Z</time>
      </trkpt>
      <trkpt lat="46.19193" lon="6.82126">
        <ele>2093.4268</ele>
        <time>2014-08-30T10:13:54Z</time>
      </trkpt>
      <trkpt lat="46.19193" lon="6.82126">
        <ele>2096.1003</ele>
        <time>2014-08-30T10:13:59Z</time>
      </trkpt>
      <trkpt lat="46.19193" lon="6.82126">
        <ele>2096.1003</ele>
        <time>2014-08-30T10:14:04Z</time>
      </trkpt>
      <trkpt lat="46.19193" lon="6.82126">
        <ele>2096.1003</ele>
        <time>2014-08-30T10:14:09Z</time>
      </trkpt>
      <trkpt lat="46.19193" lon="6.82127">
        <ele>2096.1003</ele>
        <time>2014-08-30T10:14:14Z</time>
      </trkpt>
      <trkpt lat="46.19193" lon="6.82128">
        <ele>2096.1003</ele>
        <time>2014-08-30T10:14:19Z</time>
      </trkpt>
      <trkpt lat="46.19193" lon="6.82127">
        <ele>2096.1003</ele>
        <time>2014-08-30T10:14:24Z</time>
      </trkpt>
      <trkpt lat="46.19194" lon="6.82127">
        <ele>2096.1003</ele>
        <time>2014-08-30T10:14:29Z</time>
      </trkpt>
      <trkpt lat="46.19194" lon="6.82127">
        <ele>2096.1003</ele>
        <time>2014-08-30T10:14:34Z</time>
      </trkpt>
      <trkpt lat="46.19194" lon="6.82128">
        <ele>2096.1003</ele>
        <time>2014-08-30T10:14:39Z</time>
      </trkpt>
      <trkpt lat="46.19193" lon="6.82127">
        <ele>2096.1003</ele>
        <time>2014-08-30T10:14:44Z</time>
      </trkpt>
      <trkpt lat="46.19193" lon="6.82127">
        <ele>2096.1003</ele>
        <time>2014-08-30T10:14:49Z</time>
      </trkpt>
      <trkpt lat="46.19194" lon="6.82128">
        <ele>2096.1003</ele>
        <time>2014-08-30T10:14:54Z</time>
      </trkpt>
      <trkpt lat="46.19194" lon="6.82128">
        <ele>2096.1003</ele>
        <time>2014-08-30T10:14:59Z</time>
      </trkpt>
      <trkpt lat="46.19194" lon="6.82129">
        <ele>2096.1003</ele>
        <time>2014-08-30T10:15:04Z</time>
      </trkpt>
      <trkpt lat="46.19193" lon="6.82129">
        <ele>2096.1003</ele>
        <time>2014-08-30T10:15:09Z</time>
      </trkpt>
      <trkpt lat="46.19193" lon="6.82129">
        <ele>2096.1003</ele>
        <time>2014-08-30T10:15:14Z</time>
      </trkpt>
      <trkpt lat="46.19193" lon="6.82128">
        <ele>2096.1003</ele>
        <time>2014-08-30T10:15:19Z</time>
      </trkpt>
      <trkpt lat="46.19193" lon="6.82128">
        <ele>2098.544</ele>
        <time>2014-08-30T10:15:24Z</time>
      </trkpt>
      <trkpt lat="46.19193" lon="6.82126">
        <ele>2098.544</ele>
        <time>2014-08-30T10:15:29Z</time>
      </trkpt>
      <trkpt lat="46.19193" lon="6.82126">
        <ele>2098.544</ele>
        <time>2014-08-30T10:15:34Z</time>
      </trkpt>
      <trkpt lat="46.19193" lon="6.82126">
        <ele>2098.544</ele>
        <time>2014-08-30T10:15:39Z</time>
      </trkpt>
      <trkpt lat="46.19194" lon="6.82126">
        <ele>2098.544</ele>
        <time>2014-08-30T10:15:44Z</time>
      </trkpt>
      <trkpt lat="46.19195" lon="6.82127">
        <ele>2098.544</ele>
        <time>2014-08-30T10:15:49Z</time>
      </trkpt>
      <trkpt lat="46.19195" lon="6.82128">
        <ele>2098.544</ele>
        <time>2014-08-30T10:15:54Z</time>
      </trkpt>
      <trkpt lat="46.19196" lon="6.82131">
        <ele>2098.544</ele>
        <time>2014-08-30T10:15:59Z</time>
      </trkpt>
      <trkpt lat="46.19197" lon="6.82132">
        <ele>2098.544</ele>
        <time>2014-08-30T10:16:04Z</time>
      </trkpt>
      <trkpt lat="46.19197" lon="6.82129">
        <ele>2098.544</ele>
        <time>2014-08-30T10:16:09Z</time>
      </trkpt>
      <trkpt lat="46.19196" lon="6.82128">
        <ele>2100.7588</ele>
        <time>2014-08-30T10:16:14Z</time>
      </trkpt>
      <trkpt lat="46.19196" lon="6.82128">
        <ele>2100.7588</ele>
        <time>2014-08-30T10:16:19Z</time>
      </trkpt>
      <trkpt lat="46.19196" lon="6.82127">
        <ele>2100.7588</ele>
        <time>2014-08-30T10:16:24Z</time>
      </trkpt>
      <trkpt lat="46.19196" lon="6.82127">
        <ele>2100.7588</ele>
        <time>2014-08-30T10:16:29Z</time>
      </trkpt>
      <trkpt lat="46.19196" lon="6.82128">
        <ele>2100.7588</ele>
        <time>2014-08-30T10:16:34Z</time>
      </trkpt>
      <trkpt lat="46.19197" lon="6.82128">
        <ele>2100.7588</ele>
        <time>2014-08-30T10:16:39Z</time>
      </trkpt>
      <trkpt lat="46.19198" lon="6.82128">
        <ele>2100.7588</ele>
        <time>2014-08-30T10:16:44Z</time>
      </trkpt>
      <trkpt lat="46.19198" lon="6.82128">
        <ele>2100.7588</ele>
        <time>2014-08-30T10:16:49Z</time>
      </trkpt>
      <trkpt lat="46.19198" lon="6.82128">
        <ele>2100.7588</ele>
        <time>2014-08-30T10:16:54Z</time>
      </trkpt>
      <trkpt lat="46.19197" lon="6.82128">
        <ele>2100.7588</ele>
        <time>2014-08-30T10:16:59Z</time>
      </trkpt>
      <trkpt lat="46.19197" lon="6.82128">
        <ele>2100.7588</ele>
        <time>2014-08-30T10:17:04Z</time>
      </trkpt>
      <trkpt lat="46.19197" lon="6.82128">
        <ele>2100.7588</ele>
        <time>2014-08-30T10:17:09Z</time>
      </trkpt>
      <trkpt lat="46.19197" lon="6.82128">
        <ele>2100.7588</ele>
        <time>2014-08-30T10:17:14Z</time>
      </trkpt>
      <trkpt lat="46.19196" lon="6.82127">
        <ele>2100.7588</ele>
        <time>2014-08-30T10:17:19Z</time>
      </trkpt>
      <trkpt lat="46.19196" lon="6.82127">
        <ele>2100.7588</ele>
        <time>2014-08-30T10:17:24Z</time>
      </trkpt>
      <trkpt lat="46.19196" lon="6.82126">
        <ele>2100.7588</ele>
        <time>2014-08-30T10:17:29Z</time>
      </trkpt>
      <trkpt lat="46.19196" lon="6.82126">
        <ele>2100.7588</ele>
        <time>2014-08-30T10:17:34Z</time>
      </trkpt>
      <trkpt lat="46.19196" lon="6.82126">
        <ele>2100.7588</ele>
        <time>2014-08-30T10:17:39Z</time>
      </trkpt>
      <trkpt lat="46.19196" lon="6.82126">
        <ele>2100.7588</ele>
        <time>2014-08-30T10:17:44Z</time>
      </trkpt>
      <trkpt lat="46.19196" lon="6.82126">
        <ele>2100.7588</ele>
        <time>2014-08-30T10:17:49Z</time>
      </trkpt>
      <trkpt lat="46.19194" lon="6.82127">
        <ele>2102.8481</ele>
        <time>2014-08-30T10:17:54Z</time>
      </trkpt>
      <trkpt lat="46.19194" lon="6.82128">
        <ele>2102.8481</ele>
        <time>2014-08-30T10:17:59Z</time>
      </trkpt>
      <trkpt lat="46.19193" lon="6.82126">
        <ele>2102.8481</ele>
        <time>2014-08-30T10:18:04Z</time>
      </trkpt>
      <trkpt lat="46.19194" lon="6.82124">
        <ele>2102.8481</ele>
        <time>2014-08-30T10:18:09Z</time>
      </trkpt>
      <trkpt lat="46.19194" lon="6.82123">
        <ele>2102.8481</ele>
        <time>2014-08-30T10:18:14Z</time>
      </trkpt>
      <trkpt lat="46.19195" lon="6.82122">
        <ele>2102.8481</ele>
        <time>2014-08-30T10:18:19Z</time>
      </trkpt>
      <trkpt lat="46.19195" lon="6.82121">
        <ele>2102.8481</ele>
        <time>2014-08-30T10:18:24Z</time>
      </trkpt>
      <trkpt lat="46.19195" lon="6.82121">
        <ele>2102.8481</ele>
        <time>2014-08-30T10:18:29Z</time>
      </trkpt>
      <trkpt lat="46.19195" lon="6.82123">
        <ele>2102.8481</ele>
        <time>2014-08-30T10:18:34Z</time>
      </trkpt>
      <trkpt lat="46.19195" lon="6.82125">
        <ele>2104.6338</ele>
        <time>2014-08-30T10:18:39Z</time>
      </trkpt>
      <trkpt lat="46.19194" lon="6.82127">
        <ele>2104.6338</ele>
        <time>2014-08-30T10:18:44Z</time>
      </trkpt>
      <trkpt lat="46.19194" lon="6.82127">
        <ele>2104.6338</ele>
        <time>2014-08-30T10:18:49Z</time>
      </trkpt>
      <trkpt lat="46.19194" lon="6.82126">
        <ele>2104.6338</ele>
        <time>2014-08-30T10:18:54Z</time>
      </trkpt>
      <trkpt lat="46.19194" lon="6.82126">
        <ele>2104.6338</ele>
        <time>2014-08-30T10:18:59Z</time>
      </trkpt>
      <trkpt lat="46.19194" lon="6.82127">
        <ele>2104.6338</ele>
        <time>2014-08-30T10:19:04Z</time>
      </trkpt>
      <trkpt lat="46.19194" lon="6.82128">
        <ele>2104.6338</ele>
        <time>2014-08-30T10:19:09Z</time>
      </trkpt>
      <trkpt lat="46.19194" lon="6.82128">
        <ele>2104.6338</ele>
        <time>2014-08-30T10:19:14Z</time>
      </trkpt>
      <trkpt lat="46.19194" lon="6.82129">
        <ele>2104.6338</ele>
        <time>2014-08-30T10:19:19Z</time>
      </trkpt>
      <trkpt lat="46.19194" lon="6.82128">
        <ele>2104.6338</ele>
        <time>2014-08-30T10:19:24Z</time>
      </trkpt>
      <trkpt lat="46.19194" lon="6.82128">
        <ele>2104.6338</ele>
        <time>2014-08-30T10:19:29Z</time>
      </trkpt>
      <trkpt lat="46.19194" lon="6.82127">
        <ele>2104.6338</ele>
        <time>2014-08-30T10:19:34Z</time>
      </trkpt>
      <trkpt lat="46.19194" lon="6.82127">
        <ele>2104.6338</ele>
        <time>2014-08-30T10:19:39Z</time>
      </trkpt>
      <trkpt lat="46.19194" lon="6.82127">
        <ele>2104.6338</ele>
        <time>2014-08-30T10:19:44Z</time>
      </trkpt>
      <trkpt lat="46.19194" lon="6.82128">
        <ele>2104.6338</ele>
        <time>2014-08-30T10:19:49Z</time>
      </trkpt>
      <trkpt lat="46.19193" lon="6.82129">
        <ele>2104.6338</ele>
        <time>2014-08-30T10:19:54Z</time>
      </trkpt>
      <trkpt lat="46.19193" lon="6.82128">
        <ele>2104.6338</ele>
        <time>2014-08-30T10:19:59Z</time>
      </trkpt>
      <trkpt lat="46.19192" lon="6.82127">
        <ele>2106.096</ele>
        <time>2014-08-30T10:20:04Z</time>
      </trkpt>
      <trkpt lat="46.19193" lon="6.82127">
        <ele>2106.096</ele>
        <time>2014-08-30T10:20:09Z</time>
      </trkpt>
      <trkpt lat="46.19194" lon="6.82127">
        <ele>2106.096</ele>
        <time>2014-08-30T10:20:14Z</time>
      </trkpt>
      <trkpt lat="46.19194" lon="6.82127">
        <ele>2106.096</ele>
        <time>2014-08-30T10:20:19Z</time>
      </trkpt>
      <trkpt lat="46.19194" lon="6.82127">
        <ele>2106.096</ele>
        <time>2014-08-30T10:20:24Z</time>
      </trkpt>
      <trkpt lat="46.19194" lon="6.82126">
        <ele>2106.096</ele>
        <time>2014-08-30T10:20:29Z</time>
      </trkpt>
      <trkpt lat="46.19194" lon="6.82127">
        <ele>2106.096</ele>
        <time>2014-08-30T10:20:34Z</time>
      </trkpt>
      <trkpt lat="46.19192" lon="6.82127">
        <ele>2106.096</ele>
        <time>2014-08-30T10:20:39Z</time>
      </trkpt>
      <trkpt lat="46.19191" lon="6.82127">
        <ele>2106.096</ele>
        <time>2014-08-30T10:20:44Z</time>
      </trkpt>
      <trkpt lat="46.19191" lon="6.82127">
        <ele>2106.096</ele>
        <time>2014-08-30T10:20:49Z</time>
      </trkpt>
      <trkpt lat="46.19191" lon="6.82126">
        <ele>2106.096</ele>
        <time>2014-08-30T10:20:54Z</time>
      </trkpt>
      <trkpt lat="46.19191" lon="6.82126">
        <ele>2106.096</ele>
        <time>2014-08-30T10:20:59Z</time>
      </trkpt>
      <trkpt lat="46.19191" lon="6.82124">
        <ele>2107.289</ele>
        <time>2014-08-30T10:21:04Z</time>
      </trkpt>
      <trkpt lat="46.19191" lon="6.82125">
        <ele>2107.289</ele>
        <time>2014-08-30T10:21:09Z</time>
      </trkpt>
      <trkpt lat="46.19191" lon="6.82126">
        <ele>2107.289</ele>
        <time>2014-08-30T10:21:14Z</time>
      </trkpt>
      <trkpt lat="46.19192" lon="6.82127">
        <ele>2107.289</ele>
        <time>2014-08-30T10:21:19Z</time>
      </trkpt>
      <trkpt lat="46.19194" lon="6.82128">
        <ele>2107.289</ele>
        <time>2014-08-30T10:21:24Z</time>
      </trkpt>
      <trkpt lat="46.19195" lon="6.82128">
        <ele>2107.289</ele>
        <time>2014-08-30T10:21:29Z</time>
      </trkpt>
      <trkpt lat="46.19196" lon="6.82128">
        <ele>2107.289</ele>
        <time>2014-08-30T10:21:34Z</time>
      </trkpt>
      <trkpt lat="46.19196" lon="6.82126">
        <ele>2107.289</ele>
        <time>2014-08-30T10:21:39Z</time>
      </trkpt>
      <trkpt lat="46.1919" lon="6.82125">
        <ele>2108.2795</ele>
        <time>2014-08-30T10:21:44Z</time>
      </trkpt>
      <trkpt lat="46.19188" lon="6.82124">
        <ele>2108.2795</ele>
        <time>2014-08-30T10:21:49Z</time>
      </trkpt>
      <trkpt lat="46.19184" lon="6.82127">
        <ele>2108.2795</ele>
        <time>2014-08-30T10:21:54Z</time>
      </trkpt>
      <trkpt lat="46.19181" lon="6.82131">
        <ele>2109.0566</ele>
        <time>2014-08-30T10:21:59Z</time>
      </trkpt>
      <trkpt lat="46.19181" lon="6.82136">
        <ele>2109.0566</ele>
        <time>2014-08-30T10:22:04Z</time>
      </trkpt>
      <trkpt lat="46.19183" lon="6.82142">
        <ele>2109.0566</ele>
        <time>2014-08-30T10:22:09Z</time>
      </trkpt>
      <trkpt lat="46.19184" lon="6.82149">
        <ele>2109.64</ele>
        <time>2014-08-30T10:22:14Z</time>
      </trkpt>
      <trkpt lat="46.19186" lon="6.82156">
        <ele>2109.64</ele>
        <time>2014-08-30T10:22:19Z</time>
      </trkpt>
      <trkpt lat="46.19189" lon="6.82165">
        <ele>2109.9912</ele>
        <time>2014-08-30T10:22:24Z</time>
      </trkpt>
      <trkpt lat="46.1919" lon="6.82169">
        <ele>2109.9912</ele>
        <time>2014-08-30T10:22:29Z</time>
      </trkpt>
      <trkpt lat="46.19189" lon="6.82175">
        <ele>2109.9912</ele>
        <time>2014-08-30T10:22:34Z</time>
      </trkpt>
      <trkpt lat="46.1919" lon="6.82183">
        <ele>2110.2188</ele>
        <time>2014-08-30T10:22:39Z</time>
      </trkpt>
      <trkpt lat="46.19191" lon="6.82193">
        <ele>2110.2188</ele>
        <time>2014-08-30T10:22:44Z</time>
      </trkpt>
      <trkpt lat="46.19192" lon="6.82196">
        <ele>2110.1506</ele>
        <time>2014-08-30T10:22:49Z</time>
      </trkpt>
      <trkpt lat="46.19192" lon="6.82202">
        <ele>2110.1506</ele>
        <time>2014-08-30T10:22:54Z</time>
      </trkpt>
      <trkpt lat="46.1919" lon="6.82208">
        <ele>2110.1506</ele>
        <time>2014-08-30T10:22:59Z</time>
      </trkpt>
      <trkpt lat="46.19192" lon="6.82216">
        <ele>2109.656</ele>
        <time>2014-08-30T10:23:04Z</time>
      </trkpt>
      <trkpt lat="46.19191" lon="6.82221">
        <ele>2109.656</ele>
        <time>2014-08-30T10:23:09Z</time>
      </trkpt>
      <trkpt lat="46.19189" lon="6.82226">
        <ele>2109.656</ele>
        <time>2014-08-30T10:23:14Z</time>
      </trkpt>
      <trkpt lat="46.19188" lon="6.82232">
        <ele>2108.7307</ele>
        <time>2014-08-30T10:23:19Z</time>
      </trkpt>
      <trkpt lat="46.19185" lon="6.8224">
        <ele>2108.7307</ele>
        <time>2014-08-30T10:23:24Z</time>
      </trkpt>
      <trkpt lat="46.19183" lon="6.82246">
        <ele>2107.4585</ele>
        <time>2014-08-30T10:23:29Z</time>
      </trkpt>
      <trkpt lat="46.1918" lon="6.82253">
        <ele>2107.4585</ele>
        <time>2014-08-30T10:23:34Z</time>
      </trkpt>
      <trkpt lat="46.19179" lon="6.82261">
        <ele>2105.9465</ele>
        <time>2014-08-30T10:23:39Z</time>
      </trkpt>
      <trkpt lat="46.19177" lon="6.82265">
        <ele>2105.9465</ele>
        <time>2014-08-30T10:23:44Z</time>
      </trkpt>
      <trkpt lat="46.19174" lon="6.82276">
        <ele>2104.2656</ele>
        <time>2014-08-30T10:23:49Z</time>
      </trkpt>
      <trkpt lat="46.19173" lon="6.82285">
        <ele>2104.2656</ele>
        <time>2014-08-30T10:23:54Z</time>
      </trkpt>
      <trkpt lat="46.19171" lon="6.82291">
        <ele>2102.3816</ele>
        <time>2014-08-30T10:23:59Z</time>
      </trkpt>
      <trkpt lat="46.19171" lon="6.82298">
        <ele>2102.3816</ele>
        <time>2014-08-30T10:24:04Z</time>
      </trkpt>
      <trkpt lat="46.1917" lon="6.82305">
        <ele>2100.4062</ele>
        <time>2014-08-30T10:24:09Z</time>
      </trkpt>
      <trkpt lat="46.19167" lon="6.82313">
        <ele>2100.4062</ele>
        <time>2014-08-30T10:24:14Z</time>
      </trkpt>
      <trkpt lat="46.19165" lon="6.82321">
        <ele>2098.1702</ele>
        <time>2014-08-30T10:24:19Z</time>
      </trkpt>
      <trkpt lat="46.19164" lon="6.82331">
        <ele>2098.1702</ele>
        <time>2014-08-30T10:24:24Z</time>
      </trkpt>
      <trkpt lat="46.19162" lon="6.8234">
        <ele>2095.7764</ele>
        <time>2014-08-30T10:24:29Z</time>
      </trkpt>
      <trkpt lat="46.1916" lon="6.82345">
        <ele>2095.7764</ele>
        <time>2014-08-30T10:24:34Z</time>
      </trkpt>
      <trkpt lat="46.19157" lon="6.82353">
        <ele>2093.2192</ele>
        <time>2014-08-30T10:24:39Z</time>
      </trkpt>
      <trkpt lat="46.19155" lon="6.82361">
        <ele>2093.2192</ele>
        <time>2014-08-30T10:24:44Z</time>
      </trkpt>
      <trkpt lat="46.19151" lon="6.82369">
        <ele>2090.537</ele>
        <time>2014-08-30T10:24:49Z</time>
      </trkpt>
      <trkpt lat="46.19148" lon="6.82376">
        <ele>2090.537</ele>
        <time>2014-08-30T10:24:54Z</time>
      </trkpt>
      <trkpt lat="46.19147" lon="6.82384">
        <ele>2087.809</ele>
        <time>2014-08-30T10:24:59Z</time>
      </trkpt>
      <trkpt lat="46.19146" lon="6.82389">
        <ele>2087.809</ele>
        <time>2014-08-30T10:25:04Z</time>
      </trkpt>
      <trkpt lat="46.19144" lon="6.82397">
        <ele>2084.9497</ele>
        <time>2014-08-30T10:25:09Z</time>
      </trkpt>
      <trkpt lat="46.19143" lon="6.82403">
        <ele>2084.9497</ele>
        <time>2014-08-30T10:25:14Z</time>
      </trkpt>
      <trkpt lat="46.19139" lon="6.82411">
        <ele>2081.8796</ele>
        <time>2014-08-30T10:25:19Z</time>
      </trkpt>
      <trkpt lat="46.19137" lon="6.82415">
        <ele>2081.8796</ele>
        <time>2014-08-30T10:25:24Z</time>
      </trkpt>
      <trkpt lat="46.19137" lon="6.82415">
        <ele>2081.8796</ele>
        <time>2014-08-30T10:25:29Z</time>
      </trkpt>
      <trkpt lat="46.19135" lon="6.82423">
        <ele>2078.7134</ele>
        <time>2014-08-30T10:25:34Z</time>
      </trkpt>
      <trkpt lat="46.19133" lon="6.82422">
        <ele>2078.7134</ele>
        <time>2014-08-30T10:25:39Z</time>
      </trkpt>
      <trkpt lat="46.19133" lon="6.82413">
        <ele>2078.7134</ele>
        <time>2014-08-30T10:25:44Z</time>
      </trkpt>
      <trkpt lat="46.19134" lon="6.82406">
        <ele>2075.1096</ele>
        <time>2014-08-30T10:25:49Z</time>
      </trkpt>
      <trkpt lat="46.19133" lon="6.82399">
        <ele>2075.1096</ele>
        <time>2014-08-30T10:25:54Z</time>
      </trkpt>
      <trkpt lat="46.19132" lon="6.82392">
        <ele>2071.316</ele>
        <time>2014-08-30T10:25:59Z</time>
      </trkpt>
      <trkpt lat="46.19131" lon="6.82382">
        <ele>2071.316</ele>
        <time>2014-08-30T10:26:04Z</time>
      </trkpt>
      <trkpt lat="46.19131" lon="6.82374">
        <ele>2067.4458</ele>
        <time>2014-08-30T10:26:09Z</time>
      </trkpt>
      <trkpt lat="46.1913" lon="6.82369">
        <ele>2067.4458</ele>
        <time>2014-08-30T10:26:14Z</time>
      </trkpt>
      <trkpt lat="46.19129" lon="6.82364">
        <ele>2067.4458</ele>
        <time>2014-08-30T10:26:19Z</time>
      </trkpt>
      <trkpt lat="46.19126" lon="6.82355">
        <ele>2063.3167</ele>
        <time>2014-08-30T10:26:24Z</time>
      </trkpt>
      <trkpt lat="46.19125" lon="6.82349">
        <ele>2063.3167</ele>
        <time>2014-08-30T10:26:29Z</time>
      </trkpt>
      <trkpt lat="46.19121" lon="6.82342">
        <ele>2059.0903</ele>
        <time>2014-08-30T10:26:34Z</time>
      </trkpt>
      <trkpt lat="46.19118" lon="6.82338">
        <ele>2059.0903</ele>
        <time>2014-08-30T10:26:39Z</time>
      </trkpt>
      <trkpt lat="46.19113" lon="6.82331">
        <ele>2054.8745</ele>
        <time>2014-08-30T10:26:44Z</time>
      </trkpt>
      <trkpt lat="46.19111" lon="6.82328">
        <ele>2054.8745</ele>
        <time>2014-08-30T10:26:49Z</time>
      </trkpt>
      <trkpt lat="46.19108" lon="6.82323">
        <ele>2054.8745</ele>
        <time>2014-08-30T10:26:54Z</time>
      </trkpt>
      <trkpt lat="46.19105" lon="6.82318">
        <ele>2050.5225</ele>
        <time>2014-08-30T10:26:59Z</time>
      </trkpt>
      <trkpt lat="46.19102" lon="6.8231">
        <ele>2050.5225</ele>
        <time>2014-08-30T10:27:04Z</time>
      </trkpt>
      <trkpt lat="46.19099" lon="6.82306">
        <ele>2046.3171</ele>
        <time>2014-08-30T10:27:09Z</time>
      </trkpt>
      <trkpt lat="46.19095" lon="6.82299">
        <ele>2046.3171</ele>
        <time>2014-08-30T10:27:14Z</time>
      </trkpt>
      <trkpt lat="46.19094" lon="6.82296">
        <ele>2046.3171</ele>
        <time>2014-08-30T10:27:19Z</time>
      </trkpt>
      <trkpt lat="46.19093" lon="6.82296">
        <ele>2042.3027</ele>
        <time>2014-08-30T10:27:24Z</time>
      </trkpt>
      <trkpt lat="46.19092" lon="6.82297">
        <ele>2042.3027</ele>
        <time>2014-08-30T10:27:29Z</time>
      </trkpt>
      <trkpt lat="46.19092" lon="6.82298">
        <ele>2042.3027</ele>
        <time>2014-08-30T10:27:34Z</time>
      </trkpt>
      <trkpt lat="46.19092" lon="6.82301">
        <ele>2042.3027</ele>
        <time>2014-08-30T10:27:39Z</time>
      </trkpt>
      <trkpt lat="46.19091" lon="6.823">
        <ele>2042.3027</ele>
        <time>2014-08-30T10:27:44Z</time>
      </trkpt>
      <trkpt lat="46.19088" lon="6.82297">
        <ele>2042.3027</ele>
        <time>2014-08-30T10:27:49Z</time>
      </trkpt>
      <trkpt lat="46.19085" lon="6.82293">
        <ele>2038.3182</ele>
        <time>2014-08-30T10:27:54Z</time>
      </trkpt>
      <trkpt lat="46.19081" lon="6.82288">
        <ele>2038.3182</ele>
        <time>2014-08-30T10:27:59Z</time>
      </trkpt>
      <trkpt lat="46.1908" lon="6.82284">
        <ele>2038.3182</ele>
        <time>2014-08-30T10:28:04Z</time>
      </trkpt>
      <trkpt lat="46.19076" lon="6.82279">
        <ele>2034.156</ele>
        <time>2014-08-30T10:28:09Z</time>
      </trkpt>
      <trkpt lat="46.19074" lon="6.8227">
        <ele>2034.156</ele>
        <time>2014-08-30T10:28:14Z</time>
      </trkpt>
      <trkpt lat="46.19075" lon="6.82259">
        <ele>2030.2435</ele>
        <time>2014-08-30T10:28:19Z</time>
      </trkpt>
      <trkpt lat="46.19076" lon="6.82252">
        <ele>2030.2435</ele>
        <time>2014-08-30T10:28:24Z</time>
      </trkpt>
      <trkpt lat="46.19077" lon="6.82253">
        <ele>2030.2435</ele>
        <time>2014-08-30T10:28:29Z</time>
      </trkpt>
      <trkpt lat="46.19077" lon="6.82251">
        <ele>2030.2435</ele>
        <time>2014-08-30T10:28:34Z</time>
      </trkpt>
      <trkpt lat="46.1908" lon="6.8224">
        <ele>2026.4855</ele>
        <time>2014-08-30T10:28:39Z</time>
      </trkpt>
      <trkpt lat="46.19082" lon="6.82235">
        <ele>2026.4855</ele>
        <time>2014-08-30T10:28:44Z</time>
      </trkpt>
      <trkpt lat="46.19082" lon="6.8223">
        <ele>2026.4855</ele>
        <time>2014-08-30T10:28:49Z</time>
      </trkpt>
      <trkpt lat="46.19082" lon="6.82223">
        <ele>2023.0382</ele>
        <time>2014-08-30T10:28:54Z</time>
      </trkpt>
      <trkpt lat="46.19081" lon="6.82215">
        <ele>2023.0382</ele>
        <time>2014-08-30T10:28:59Z</time>
      </trkpt>
      <trkpt lat="46.19079" lon="6.82208">
        <ele>2019.7998</ele>
        <time>2014-08-30T10:29:04Z</time>
      </trkpt>
      <trkpt lat="46.19076" lon="6.82205">
        <ele>2019.7998</ele>
        <time>2014-08-30T10:29:09Z</time>
      </trkpt>
      <trkpt lat="46.19072" lon="6.82198">
        <ele>2016.6606</ele>
        <time>2014-08-30T10:29:14Z</time>
      </trkpt>
      <trkpt lat="46.1907" lon="6.82191">
        <ele>2016.6606</ele>
        <time>2014-08-30T10:29:19Z</time>
      </trkpt>
      <trkpt lat="46.19065" lon="6.82188">
        <ele>2013.9655</ele>
        <time>2014-08-30T10:29:24Z</time>
      </trkpt>
      <trkpt lat="46.19061" lon="6.82185">
        <ele>2013.9655</ele>
        <time>2014-08-30T10:29:29Z</time>
      </trkpt>
      <trkpt lat="46.19058" lon="6.82182">
        <ele>2011.4263</ele>
        <time>2014-08-30T10:29:34Z</time>
      </trkpt>
      <trkpt lat="46.19052" lon="6.82174">
        <ele>2011.4263</ele>
        <time>2014-08-30T10:29:39Z</time>
      </trkpt>
      <trkpt lat="46.19047" lon="6.82169">
        <ele>2008.9631</ele>
        <time>2014-08-30T10:29:44Z</time>
      </trkpt>
      <trkpt lat="46.19042" lon="6.82165">
        <ele>2008.9631</ele>
        <time>2014-08-30T10:29:49Z</time>
      </trkpt>
      <trkpt lat="46.19039" lon="6.82162">
        <ele>2006.905</ele>
        <time>2014-08-30T10:29:54Z</time>
      </trkpt>
      <trkpt lat="46.19036" lon="6.82158">
        <ele>2006.905</ele>
        <time>2014-08-30T10:29:59Z</time>
      </trkpt>
      <trkpt lat="46.19032" lon="6.82157">
        <ele>2006.905</ele>
        <time>2014-08-30T10:30:04Z</time>
      </trkpt>
      <trkpt lat="46.19029" lon="6.82152">
        <ele>2005.2235</ele>
        <time>2014-08-30T10:30:09Z</time>
      </trkpt>
      <trkpt lat="46.19024" lon="6.82149">
        <ele>2005.2235</ele>
        <time>2014-08-30T10:30:14Z</time>
      </trkpt>
      <trkpt lat="46.19019" lon="6.82144">
        <ele>2003.7036</ele>
        <time>2014-08-30T10:30:19Z</time>
      </trkpt>
      <trkpt lat="46.19016" lon="6.82144">
        <ele>2003.7036</ele>
        <time>2014-08-30T10:30:24Z</time>
      </trkpt>
      <trkpt lat="46.19013" lon="6.82142">
        <ele>2003.7036</ele>
        <time>2014-08-30T10:30:29Z</time>
      </trkpt>
      <trkpt lat="46.19008" lon="6.82144">
        <ele>2002.1746</ele>
        <time>2014-08-30T10:30:34Z</time>
      </trkpt>
      <trkpt lat="46.19004" lon="6.82142">
        <ele>2002.1746</ele>
        <time>2014-08-30T10:30:39Z</time>
      </trkpt>
      <trkpt lat="46.19001" lon="6.8214">
        <ele>2002.1746</ele>
        <time>2014-08-30T10:30:44Z</time>
      </trkpt>
      <trkpt lat="46.18995" lon="6.82135">
        <ele>2000.5494</ele>
        <time>2014-08-30T10:30:49Z</time>
      </trkpt>
      <trkpt lat="46.1899" lon="6.82131">
        <ele>2000.5494</ele>
        <time>2014-08-30T10:30:54Z</time>
      </trkpt>
      <trkpt lat="46.18984" lon="6.82127">
        <ele>1999.094</ele>
        <time>2014-08-30T10:30:59Z</time>
      </trkpt>
      <trkpt lat="46.18978" lon="6.82126">
        <ele>1999.094</ele>
        <time>2014-08-30T10:31:04Z</time>
      </trkpt>
      <trkpt lat="46.18972" lon="6.82124">
        <ele>1997.8374</ele>
        <time>2014-08-30T10:31:09Z</time>
      </trkpt>
      <trkpt lat="46.18968" lon="6.82123">
        <ele>1997.8374</ele>
        <time>2014-08-30T10:31:14Z</time>
      </trkpt>
      <trkpt lat="46.18967" lon="6.82121">
        <ele>1997.8374</ele>
        <time>2014-08-30T10:31:19Z</time>
      </trkpt>
      <trkpt lat="46.18965" lon="6.82119">
        <ele>1997.8374</ele>
        <time>2014-08-30T10:31:24Z</time>
      </trkpt>
      <trkpt lat="46.18961" lon="6.82116">
        <ele>1996.59</ele>
        <time>2014-08-30T10:31:29Z</time>
      </trkpt>
      <trkpt lat="46.18954" lon="6.82111">
        <ele>1996.59</ele>
        <time>2014-08-30T10:31:34Z</time>
      </trkpt>
      <trkpt lat="46.18949" lon="6.82109">
        <ele>1995.4492</ele>
        <time>2014-08-30T10:31:39Z</time>
      </trkpt>
      <trkpt lat="46.18941" lon="6.8211">
        <ele>1995.4492</ele>
        <time>2014-08-30T10:31:44Z</time>
      </trkpt>
      <trkpt lat="46.18935" lon="6.82109">
        <ele>1994.4044</ele>
        <time>2014-08-30T10:31:49Z</time>
      </trkpt>
      <trkpt lat="46.1893" lon="6.82106">
        <ele>1994.4044</ele>
        <time>2014-08-30T10:31:54Z</time>
      </trkpt>
      <trkpt lat="46.18926" lon="6.82105">
        <ele>1993.4884</ele>
        <time>2014-08-30T10:31:59Z</time>
      </trkpt>
      <trkpt lat="46.18924" lon="6.82103">
        <ele>1993.4884</ele>
        <time>2014-08-30T10:32:04Z</time>
      </trkpt>
      <trkpt lat="46.1892" lon="6.82102">
        <ele>1993.4884</ele>
        <time>2014-08-30T10:32:09Z</time>
      </trkpt>
      <trkpt lat="46.18916" lon="6.82102">
        <ele>1992.5728</ele>
        <time>2014-08-30T10:32:14Z</time>
      </trkpt>
      <trkpt lat="46.18911" lon="6.821">
        <ele>1992.5728</ele>
        <time>2014-08-30T10:32:19Z</time>
      </trkpt>
      <trkpt lat="46.18909" lon="6.82098">
        <ele>1992.5728</ele>
        <time>2014-08-30T10:32:24Z</time>
      </trkpt>
      <trkpt lat="46.18904" lon="6.82095">
        <ele>1991.5813</ele>
        <time>2014-08-30T10:32:29Z</time>
      </trkpt>
      <trkpt lat="46.18898" lon="6.82095">
        <ele>1991.5813</ele>
        <time>2014-08-30T10:32:34Z</time>
      </trkpt>
      <trkpt lat="46.18893" lon="6.82095">
        <ele>1990.8185</ele>
        <time>2014-08-30T10:32:39Z</time>
      </trkpt>
      <trkpt lat="46.18887" lon="6.82097">
        <ele>1990.8185</ele>
        <time>2014-08-30T10:32:44Z</time>
      </trkpt>
      <trkpt lat="46.18882" lon="6.82099">
        <ele>1990.2197</ele>
        <time>2014-08-30T10:32:49Z</time>
      </trkpt>
      <trkpt lat="46.18879" lon="6.821">
        <ele>1990.2197</ele>
        <time>2014-08-30T10:32:54Z</time>
      </trkpt>
      <trkpt lat="46.18874" lon="6.82101">
        <ele>1990.2197</ele>
        <time>2014-08-30T10:32:59Z</time>
      </trkpt>
      <trkpt lat="46.18868" lon="6.82103">
        <ele>1989.797</ele>
        <time>2014-08-30T10:33:04Z</time>
      </trkpt>
      <trkpt lat="46.18864" lon="6.82102">
        <ele>1989.797</ele>
        <time>2014-08-30T10:33:09Z</time>
      </trkpt>
      <trkpt lat="46.18861" lon="6.821">
        <ele>1989.797</ele>
        <time>2014-08-30T10:33:14Z</time>
      </trkpt>
      <trkpt lat="46.18856" lon="6.821">
        <ele>1989.4164</ele>
        <time>2014-08-30T10:33:19Z</time>
      </trkpt>
      <trkpt lat="46.18852" lon="6.82099">
        <ele>1989.4164</ele>
        <time>2014-08-30T10:33:24Z</time>
      </trkpt>
      <trkpt lat="46.18847" lon="6.82099">
        <ele>1989.0981</ele>
        <time>2014-08-30T10:33:29Z</time>
      </trkpt>
      <trkpt lat="46.18842" lon="6.82101">
        <ele>1989.0981</ele>
        <time>2014-08-30T10:33:34Z</time>
      </trkpt>
      <trkpt lat="46.1884" lon="6.82099">
        <ele>1989.0981</ele>
        <time>2014-08-30T10:33:39Z</time>
      </trkpt>
      <trkpt lat="46.18838" lon="6.82097">
        <ele>1988.6733</ele>
        <time>2014-08-30T10:33:44Z</time>
      </trkpt>
      <trkpt lat="46.18833" lon="6.82096">
        <ele>1988.6733</ele>
        <time>2014-08-30T10:33:49Z</time>
      </trkpt>
      <trkpt lat="46.18827" lon="6.82095">
        <ele>1988.2596</ele>
        <time>2014-08-30T10:33:54Z</time>
      </trkpt>
      <trkpt lat="46.18821" lon="6.82096">
        <ele>1988.2596</ele>
        <time>2014-08-30T10:33:59Z</time>
      </trkpt>
      <trkpt lat="46.18815" lon="6.82095">
        <ele>1987.6202</ele>
        <time>2014-08-30T10:34:04Z</time>
      </trkpt>
      <trkpt lat="46.18809" lon="6.82094">
        <ele>1987.6202</ele>
        <time>2014-08-30T10:34:09Z</time>
      </trkpt>
      <trkpt lat="46.18804" lon="6.82096">
        <ele>1986.983</ele>
        <time>2014-08-30T10:34:14Z</time>
      </trkpt>
      <trkpt lat="46.18797" lon="6.82096">
        <ele>1986.983</ele>
        <time>2014-08-30T10:34:19Z</time>
      </trkpt>
      <trkpt lat="46.1879" lon="6.82094">
        <ele>1986.3577</ele>
        <time>2014-08-30T10:34:24Z</time>
      </trkpt>
      <trkpt lat="46.18784" lon="6.82094">
        <ele>1986.3577</ele>
        <time>2014-08-30T10:34:29Z</time>
      </trkpt>
      <trkpt lat="46.18779" lon="6.82093">
        <ele>1985.7964</ele>
        <time>2014-08-30T10:34:34Z</time>
      </trkpt>
      <trkpt lat="46.18772" lon="6.82091">
        <ele>1985.7964</ele>
        <time>2014-08-30T10:34:39Z</time>
      </trkpt>
      <trkpt lat="46.18767" lon="6.82091">
        <ele>1985.376</ele>
        <time>2014-08-30T10:34:44Z</time>
      </trkpt>
      <trkpt lat="46.18761" lon="6.8209">
        <ele>1985.376</ele>
        <time>2014-08-30T10:34:49Z</time>
      </trkpt>
      <trkpt lat="46.18757" lon="6.82091">
        <ele>1984.9082</ele>
        <time>2014-08-30T10:34:54Z</time>
      </trkpt>
      <trkpt lat="46.1875" lon="6.82091">
        <ele>1984.9082</ele>
        <time>2014-08-30T10:34:59Z</time>
      </trkpt>
      <trkpt lat="46.18743" lon="6.82088">
        <ele>1984.4493</ele>
        <time>2014-08-30T10:35:04Z</time>
      </trkpt>
      <trkpt lat="46.18738" lon="6.82085">
        <ele>1984.4493</ele>
        <time>2014-08-30T10:35:09Z</time>
      </trkpt>
      <trkpt lat="46.18732" lon="6.82083">
        <ele>1984.095</ele>
        <time>2014-08-30T10:35:14Z</time>
      </trkpt>
      <trkpt lat="46.18728" lon="6.82082">
        <ele>1984.095</ele>
        <time>2014-08-30T10:35:19Z</time>
      </trkpt>
      <trkpt lat="46.1872" lon="6.82082">
        <ele>1983.8613</ele>
        <time>2014-08-30T10:35:24Z</time>
      </trkpt>
      <trkpt lat="46.18717" lon="6.82082">
        <ele>1983.8613</ele>
        <time>2014-08-30T10:35:29Z</time>
      </trkpt>
      <trkpt lat="46.18711" lon="6.82085">
        <ele>1983.5615</ele>
        <time>2014-08-30T10:35:34Z</time>
      </trkpt>
      <trkpt lat="46.18708" lon="6.82085">
        <ele>1983.5615</ele>
        <time>2014-08-30T10:35:39Z</time>
      </trkpt>
      <trkpt lat="46.18706" lon="6.82088">
        <ele>1983.5615</ele>
        <time>2014-08-30T10:35:44Z</time>
      </trkpt>
      <trkpt lat="46.18702" lon="6.8209">
        <ele>1983.1666</ele>
        <time>2014-08-30T10:35:49Z</time>
      </trkpt>
      <trkpt lat="46.18697" lon="6.82093">
        <ele>1983.1666</ele>
        <time>2014-08-30T10:35:54Z</time>
      </trkpt>
      <trkpt lat="46.18692" lon="6.82096">
        <ele>1982.6793</ele>
        <time>2014-08-30T10:35:59Z</time>
      </trkpt>
      <trkpt lat="46.18688" lon="6.82097">
        <ele>1982.6793</ele>
        <time>2014-08-30T10:36:04Z</time>
      </trkpt>
      <trkpt lat="46.18684" lon="6.821">
        <ele>1982.6793</ele>
        <time>2014-08-30T10:36:09Z</time>
      </trkpt>
      <trkpt lat="46.18678" lon="6.82106">
        <ele>1982.0736</ele>
        <time>2014-08-30T10:36:14Z</time>
      </trkpt>
      <trkpt lat="46.18675" lon="6.82111">
        <ele>1982.0736</ele>
        <time>2014-08-30T10:36:19Z</time>
      </trkpt>
      <trkpt lat="46.18671" lon="6.82118">
        <ele>1981.513</ele>
        <time>2014-08-30T10:36:24Z</time>
      </trkpt>
      <trkpt lat="46.18668" lon="6.82125">
        <ele>1981.513</ele>
        <time>2014-08-30T10:36:29Z</time>
      </trkpt>
      <trkpt lat="46.18667" lon="6.82134">
        <ele>1981.0051</ele>
        <time>2014-08-30T10:36:34Z</time>
      </trkpt>
      <trkpt lat="46.18666" lon="6.82141">
        <ele>1981.0051</ele>
        <time>2014-08-30T10:36:39Z</time>
      </trkpt>
      <trkpt lat="46.18664" lon="6.82152">
        <ele>1980.4706</ele>
        <time>2014-08-30T10:36:44Z</time>
      </trkpt>
      <trkpt lat="46.18663" lon="6.82158">
        <ele>1980.4706</ele>
        <time>2014-08-30T10:36:49Z</time>
      </trkpt>
      <trkpt lat="46.18663" lon="6.82165">
        <ele>1979.8357</ele>
        <time>2014-08-30T10:36:54Z</time>
      </trkpt>
      <trkpt lat="46.18663" lon="6.82172">
        <ele>1979.8357</ele>
        <time>2014-08-30T10:36:59Z</time>
      </trkpt>
      <trkpt lat="46.18664" lon="6.82179">
        <ele>1979.062</ele>
        <time>2014-08-30T10:37:04Z</time>
      </trkpt>
      <trkpt lat="46.18665" lon="6.82185">
        <ele>1979.062</ele>
        <time>2014-08-30T10:37:09Z</time>
      </trkpt>
      <trkpt lat="46.18663" lon="6.82191">
        <ele>1979.062</ele>
        <time>2014-08-30T10:37:14Z</time>
      </trkpt>
      <trkpt lat="46.18662" lon="6.82194">
        <ele>1978.2147</ele>
        <time>2014-08-30T10:37:19Z</time>
      </trkpt>
      <trkpt lat="46.1866" lon="6.82203">
        <ele>1978.2147</ele>
        <time>2014-08-30T10:37:24Z</time>
      </trkpt>
      <trkpt lat="46.18658" lon="6.8221">
        <ele>1977.1963</ele>
        <time>2014-08-30T10:37:29Z</time>
      </trkpt>
      <trkpt lat="46.18655" lon="6.82215">
        <ele>1977.1963</ele>
        <time>2014-08-30T10:37:34Z</time>
      </trkpt>
      <trkpt lat="46.18652" lon="6.82219">
        <ele>1976.1765</ele>
        <time>2014-08-30T10:37:39Z</time>
      </trkpt>
      <trkpt lat="46.18649" lon="6.82224">
        <ele>1976.1765</ele>
        <time>2014-08-30T10:37:44Z</time>
      </trkpt>
      <trkpt lat="46.18645" lon="6.8223">
        <ele>1975.0531</ele>
        <time>2014-08-30T10:37:49Z</time>
      </trkpt>
      <trkpt lat="46.18642" lon="6.82233">
        <ele>1975.0531</ele>
        <time>2014-08-30T10:37:54Z</time>
      </trkpt>
      <trkpt lat="46.1864" lon="6.82239">
        <ele>1975.0531</ele>
        <time>2014-08-30T10:37:59Z</time>
      </trkpt>
      <trkpt lat="46.18635" lon="6.82245">
        <ele>1973.7898</ele>
        <time>2014-08-30T10:38:04Z</time>
      </trkpt>
      <trkpt lat="46.18631" lon="6.82249">
        <ele>1973.7898</ele>
        <time>2014-08-30T10:38:09Z</time>
      </trkpt>
      <trkpt lat="46.18628" lon="6.82248">
        <ele>1973.7898</ele>
        <time>2014-08-30T10:38:14Z</time>
      </trkpt>
      <trkpt lat="46.18624" lon="6.82247">
        <ele>1972.4105</ele>
        <time>2014-08-30T10:38:19Z</time>
      </trkpt>
      <trkpt lat="46.18619" lon="6.82244">
        <ele>1972.4105</ele>
        <time>2014-08-30T10:38:24Z</time>
      </trkpt>
      <trkpt lat="46.18616" lon="6.82241">
        <ele>1971.0249</ele>
        <time>2014-08-30T10:38:29Z</time>
      </trkpt>
      <trkpt lat="46.1861" lon="6.82238">
        <ele>1971.0249</ele>
        <time>2014-08-30T10:38:34Z</time>
      </trkpt>
      <trkpt lat="46.18606" lon="6.82236">
        <ele>1969.5038</ele>
        <time>2014-08-30T10:38:39Z</time>
      </trkpt>
      <trkpt lat="46.18603" lon="6.82237">
        <ele>1969.5038</ele>
        <time>2014-08-30T10:38:44Z</time>
      </trkpt>
      <trkpt lat="46.18602" lon="6.82237">
        <ele>1969.5038</ele>
        <time>2014-08-30T10:38:49Z</time>
      </trkpt>
      <trkpt lat="46.18602" lon="6.82236">
        <ele>1969.5038</ele>
        <time>2014-08-30T10:38:54Z</time>
      </trkpt>
      <trkpt lat="46.18602" lon="6.82236">
        <ele>1969.5038</ele>
        <time>2014-08-30T10:38:59Z</time>
      </trkpt>
      <trkpt lat="46.18601" lon="6.82236">
        <ele>1969.5038</ele>
        <time>2014-08-30T10:39:04Z</time>
      </trkpt>
      <trkpt lat="46.18599" lon="6.82237">
        <ele>1969.5038</ele>
        <time>2014-08-30T10:39:09Z</time>
      </trkpt>
      <trkpt lat="46.18598" lon="6.82237">
        <ele>1969.5038</ele>
        <time>2014-08-30T10:39:14Z</time>
      </trkpt>
      <trkpt lat="46.18594" lon="6.82236">
        <ele>1967.5983</ele>
        <time>2014-08-30T10:39:19Z</time>
      </trkpt>
      <trkpt lat="46.1859" lon="6.82235">
        <ele>1967.5983</ele>
        <time>2014-08-30T10:39:24Z</time>
      </trkpt>
      <trkpt lat="46.18585" lon="6.82234">
        <ele>1967.5983</ele>
        <time>2014-08-30T10:39:29Z</time>
      </trkpt>
      <trkpt lat="46.18581" lon="6.82234">
        <ele>1965.6123</ele>
        <time>2014-08-30T10:39:34Z</time>
      </trkpt>
      <trkpt lat="46.18577" lon="6.82229">
        <ele>1965.6123</ele>
        <time>2014-08-30T10:39:39Z</time>
      </trkpt>
      <trkpt lat="46.18572" lon="6.82229">
        <ele>1963.568</ele>
        <time>2014-08-30T10:39:44Z</time>
      </trkpt>
      <trkpt lat="46.18566" lon="6.82225">
        <ele>1963.568</ele>
        <time>2014-08-30T10:39:49Z</time>
      </trkpt>
      <trkpt lat="46.18562" lon="6.82221">
        <ele>1961.429</ele>
        <time>2014-08-30T10:39:54Z</time>
      </trkpt>
      <trkpt lat="46.18559" lon="6.82218">
        <ele>1961.429</ele>
        <time>2014-08-30T10:39:59Z</time>
      </trkpt>
      <trkpt lat="46.18556" lon="6.82215">
        <ele>1961.429</ele>
        <time>2014-08-30T10:40:04Z</time>
      </trkpt>
      <trkpt lat="46.18552" lon="6.82208">
        <ele>1959.0747</ele>
        <time>2014-08-30T10:40:09Z</time>
      </trkpt>
      <trkpt lat="46.18548" lon="6.82201">
        <ele>1959.0747</ele>
        <time>2014-08-30T10:40:14Z</time>
      </trkpt>
      <trkpt lat="46.18545" lon="6.82199">
        <ele>1956.6831</ele>
        <time>2014-08-30T10:40:19Z</time>
      </trkpt>
      <trkpt lat="46.18543" lon="6.82198">
        <ele>1956.6831</ele>
        <time>2014-08-30T10:40:24Z</time>
      </trkpt>
      <trkpt lat="46.18539" lon="6.82193">
        <ele>1956.6831</ele>
        <time>2014-08-30T10:40:29Z</time>
      </trkpt>
      <trkpt lat="46.18536" lon="6.82192">
        <ele>1954.3898</ele>
        <time>2014-08-30T10:40:34Z</time>
      </trkpt>
      <trkpt lat="46.18532" lon="6.82186">
        <ele>1954.3898</ele>
        <time>2014-08-30T10:40:39Z</time>
      </trkpt>
      <trkpt lat="46.18529" lon="6.82183">
        <ele>1952.2914</ele>
        <time>2014-08-30T10:40:44Z</time>
      </trkpt>
      <trkpt lat="46.18526" lon="6.82181">
        <ele>1952.2914</ele>
        <time>2014-08-30T10:40:49Z</time>
      </trkpt>
      <trkpt lat="46.18523" lon="6.82178">
        <ele>1952.2914</ele>
        <time>2014-08-30T10:40:54Z</time>
      </trkpt>
      <trkpt lat="46.18518" lon="6.82177">
        <ele>1950.1458</ele>
        <time>2014-08-30T10:40:59Z</time>
      </trkpt>
      <trkpt lat="46.18516" lon="6.82176">
        <ele>1950.1458</ele>
        <time>2014-08-30T10:41:04Z</time>
      </trkpt>
      <trkpt lat="46.18513" lon="6.82174">
        <ele>1950.1458</ele>
        <time>2014-08-30T10:41:09Z</time>
      </trkpt>
      <trkpt lat="46.18509" lon="6.82174">
        <ele>1947.5841</ele>
        <time>2014-08-30T10:41:14Z</time>
      </trkpt>
      <trkpt lat="46.18504" lon="6.82173">
        <ele>1947.5841</ele>
        <time>2014-08-30T10:41:19Z</time>
      </trkpt>
      <trkpt lat="46.18501" lon="6.82173">
        <ele>1947.5841</ele>
        <time>2014-08-30T10:41:24Z</time>
      </trkpt>
      <trkpt lat="46.18496" lon="6.82174">
        <ele>1944.7131</ele>
        <time>2014-08-30T10:41:29Z</time>
      </trkpt>
      <trkpt lat="46.18492" lon="6.82173">
        <ele>1944.7131</ele>
        <time>2014-08-30T10:41:34Z</time>
      </trkpt>
      <trkpt lat="46.18486" lon="6.8217">
        <ele>1941.7761</ele>
        <time>2014-08-30T10:41:39Z</time>
      </trkpt>
      <trkpt lat="46.18479" lon="6.82169">
        <ele>1941.7761</ele>
        <time>2014-08-30T10:41:44Z</time>
      </trkpt>
      <trkpt lat="46.18474" lon="6.8217">
        <ele>1938.826</ele>
        <time>2014-08-30T10:41:49Z</time>
      </trkpt>
      <trkpt lat="46.18471" lon="6.8217">
        <ele>1938.826</ele>
        <time>2014-08-30T10:41:54Z</time>
      </trkpt>
      <trkpt lat="46.18469" lon="6.82171">
        <ele>1938.826</ele>
        <time>2014-08-30T10:41:59Z</time>
      </trkpt>
      <trkpt lat="46.18466" lon="6.82171">
        <ele>1938.826</ele>
        <time>2014-08-30T10:42:04Z</time>
      </trkpt>
      <trkpt lat="46.18464" lon="6.8217">
        <ele>1935.8542</ele>
        <time>2014-08-30T10:42:09Z</time>
      </trkpt>
      <trkpt lat="46.18463" lon="6.8217">
        <ele>1935.8542</ele>
        <time>2014-08-30T10:42:14Z</time>
      </trkpt>
      <trkpt lat="46.18462" lon="6.82171">
        <ele>1935.8542</ele>
        <time>2014-08-30T10:42:19Z</time>
      </trkpt>
      <trkpt lat="46.18459" lon="6.82174">
        <ele>1935.8542</ele>
        <time>2014-08-30T10:42:29Z</time>
      </trkpt>
      <trkpt lat="46.18458" lon="6.82174">
        <ele>1935.8542</ele>
        <time>2014-08-30T10:42:34Z</time>
      </trkpt>
      <trkpt lat="46.18457" lon="6.82173">
        <ele>1935.8542</ele>
        <time>2014-08-30T10:42:39Z</time>
      </trkpt>
      <trkpt lat="46.18452" lon="6.82175">
        <ele>1932.233</ele>
        <time>2014-08-30T10:42:44Z</time>
      </trkpt>
      <trkpt lat="46.18452" lon="6.82175">
        <ele>1932.233</ele>
        <time>2014-08-30T10:42:49Z</time>
      </trkpt>
      <trkpt lat="46.18449" lon="6.82176">
        <ele>1932.233</ele>
        <time>2014-08-30T10:42:54Z</time>
      </trkpt>
      <trkpt lat="46.18445" lon="6.82175">
        <ele>1932.233</ele>
        <time>2014-08-30T10:42:59Z</time>
      </trkpt>
      <trkpt lat="46.18438" lon="6.82177">
        <ele>1928.2904</ele>
        <time>2014-08-30T10:43:04Z</time>
      </trkpt>
      <trkpt lat="46.18432" lon="6.82181">
        <ele>1928.2904</ele>
        <time>2014-08-30T10:43:09Z</time>
      </trkpt>
      <trkpt lat="46.18427" lon="6.82184">
        <ele>1924.4032</ele>
        <time>2014-08-30T10:43:14Z</time>
      </trkpt>
      <trkpt lat="46.18422" lon="6.82187">
        <ele>1924.4032</ele>
        <time>2014-08-30T10:43:19Z</time>
      </trkpt>
      <trkpt lat="46.18417" lon="6.82189">
        <ele>1920.6466</ele>
        <time>2014-08-30T10:43:24Z</time>
      </trkpt>
      <trkpt lat="46.18412" lon="6.82191">
        <ele>1920.6466</ele>
        <time>2014-08-30T10:43:29Z</time>
      </trkpt>
      <trkpt lat="46.18409" lon="6.82192">
        <ele>1920.6466</ele>
        <time>2014-08-30T10:43:34Z</time>
      </trkpt>
      <trkpt lat="46.18405" lon="6.82193">
        <ele>1916.8446</ele>
        <time>2014-08-30T10:43:39Z</time>
      </trkpt>
      <trkpt lat="46.18401" lon="6.82192">
        <ele>1916.8446</ele>
        <time>2014-08-30T10:43:44Z</time>
      </trkpt>
      <trkpt lat="46.18397" lon="6.82192">
        <ele>1916.8446</ele>
        <time>2014-08-30T10:43:49Z</time>
      </trkpt>
      <trkpt lat="46.18392" lon="6.82192">
        <ele>1913.0071</ele>
        <time>2014-08-30T10:43:54Z</time>
      </trkpt>
      <trkpt lat="46.18387" lon="6.82195">
        <ele>1913.0071</ele>
        <time>2014-08-30T10:43:59Z</time>
      </trkpt>
      <trkpt lat="46.18382" lon="6.822">
        <ele>1909.3163</ele>
        <time>2014-08-30T10:44:04Z</time>
      </trkpt>
      <trkpt lat="46.18379" lon="6.82203">
        <ele>1909.3163</ele>
        <time>2014-08-30T10:44:09Z</time>
      </trkpt>
      <trkpt lat="46.18376" lon="6.82204">
        <ele>1909.3163</ele>
        <time>2014-08-30T10:44:14Z</time>
      </trkpt>
      <trkpt lat="46.18371" lon="6.82206">
        <ele>1905.5513</ele>
        <time>2014-08-30T10:44:19Z</time>
      </trkpt>
      <trkpt lat="46.18364" lon="6.82206">
        <ele>1905.5513</ele>
        <time>2014-08-30T10:44:24Z</time>
      </trkpt>
      <trkpt lat="46.18359" lon="6.82206">
        <ele>1901.9254</ele>
        <time>2014-08-30T10:44:29Z</time>
      </trkpt>
      <trkpt lat="46.18353" lon="6.82208">
        <ele>1901.9254</ele>
        <time>2014-08-30T10:44:34Z</time>
      </trkpt>
      <trkpt lat="46.1835" lon="6.82211">
        <ele>1898.405</ele>
        <time>2014-08-30T10:44:39Z</time>
      </trkpt>
      <trkpt lat="46.18347" lon="6.82212">
        <ele>1898.405</ele>
        <time>2014-08-30T10:44:44Z</time>
      </trkpt>
      <trkpt lat="46.1834" lon="6.82213">
        <ele>1894.9587</ele>
        <time>2014-08-30T10:44:49Z</time>
      </trkpt>
      <trkpt lat="46.18333" lon="6.82213">
        <ele>1894.9587</ele>
        <time>2014-08-30T10:44:54Z</time>
      </trkpt>
      <trkpt lat="46.18327" lon="6.82215">
        <ele>1891.6577</ele>
        <time>2014-08-30T10:44:59Z</time>
      </trkpt>
      <trkpt lat="46.18322" lon="6.82217">
        <ele>1891.6577</ele>
        <time>2014-08-30T10:45:04Z</time>
      </trkpt>
      <trkpt lat="46.18317" lon="6.82219">
        <ele>1888.6254</ele>
        <time>2014-08-30T10:45:09Z</time>
      </trkpt>
      <trkpt lat="46.18313" lon="6.8222">
        <ele>1888.6254</ele>
        <time>2014-08-30T10:45:14Z</time>
      </trkpt>
      <trkpt lat="46.18308" lon="6.8222">
        <ele>1885.6865</ele>
        <time>2014-08-30T10:45:19Z</time>
      </trkpt>
      <trkpt lat="46.18305" lon="6.8222">
        <ele>1885.6865</ele>
        <time>2014-08-30T10:45:24Z</time>
      </trkpt>
      <trkpt lat="46.18302" lon="6.82223">
        <ele>1885.6865</ele>
        <time>2014-08-30T10:45:29Z</time>
      </trkpt>
      <trkpt lat="46.18298" lon="6.82226">
        <ele>1882.8226</ele>
        <time>2014-08-30T10:45:34Z</time>
      </trkpt>
      <trkpt lat="46.18295" lon="6.82229">
        <ele>1882.8226</ele>
        <time>2014-08-30T10:45:39Z</time>
      </trkpt>
      <trkpt lat="46.1829" lon="6.82231">
        <ele>1882.8226</ele>
        <time>2014-08-30T10:45:44Z</time>
      </trkpt>
      <trkpt lat="46.18286" lon="6.82233">
        <ele>1879.9297</ele>
        <time>2014-08-30T10:45:49Z</time>
      </trkpt>
      <trkpt lat="46.18282" lon="6.82236">
        <ele>1879.9297</ele>
        <time>2014-08-30T10:45:54Z</time>
      </trkpt>
      <trkpt lat="46.1828" lon="6.82238">
        <ele>1879.9297</ele>
        <time>2014-08-30T10:45:59Z</time>
      </trkpt>
      <trkpt lat="46.18277" lon="6.82241">
        <ele>1876.9259</ele>
        <time>2014-08-30T10:46:04Z</time>
      </trkpt>
      <trkpt lat="46.18274" lon="6.82243">
        <ele>1876.9259</ele>
        <time>2014-08-30T10:46:09Z</time>
      </trkpt>
      <trkpt lat="46.1827" lon="6.82246">
        <ele>1876.9259</ele>
        <time>2014-08-30T10:46:14Z</time>
      </trkpt>
      <trkpt lat="46.18266" lon="6.82247">
        <ele>1873.7786</ele>
        <time>2014-08-30T10:46:19Z</time>
      </trkpt>
      <trkpt lat="46.18262" lon="6.82251">
        <ele>1873.7786</ele>
        <time>2014-08-30T10:46:24Z</time>
      </trkpt>
      <trkpt lat="46.1826" lon="6.82254">
        <ele>1873.7786</ele>
        <time>2014-08-30T10:46:29Z</time>
      </trkpt>
      <trkpt lat="46.18259" lon="6.82253">
        <ele>1873.7786</ele>
        <time>2014-08-30T10:46:34Z</time>
      </trkpt>
      <trkpt lat="46.18256" lon="6.82258">
        <ele>1870.7314</ele>
        <time>2014-08-30T10:46:39Z</time>
      </trkpt>
      <trkpt lat="46.18252" lon="6.82263">
        <ele>1870.7314</ele>
        <time>2014-08-30T10:46:44Z</time>
      </trkpt>
      <trkpt lat="46.18252" lon="6.82262">
        <ele>1870.7314</ele>
        <time>2014-08-30T10:46:49Z</time>
      </trkpt>
      <trkpt lat="46.18255" lon="6.82273">
        <ele>1867.895</ele>
        <time>2014-08-30T10:46:54Z</time>
      </trkpt>
      <trkpt lat="46.1826" lon="6.82281">
        <ele>1867.895</ele>
        <time>2014-08-30T10:46:59Z</time>
      </trkpt>
      <trkpt lat="46.18264" lon="6.82285">
        <ele>1865.1687</ele>
        <time>2014-08-30T10:47:04Z</time>
      </trkpt>
      <trkpt lat="46.18268" lon="6.82289">
        <ele>1865.1687</ele>
        <time>2014-08-30T10:47:09Z</time>
      </trkpt>
      <trkpt lat="46.18272" lon="6.82294">
        <ele>1862.5458</ele>
        <time>2014-08-30T10:47:14Z</time>
      </trkpt>
      <trkpt lat="46.18279" lon="6.82298">
        <ele>1862.5458</ele>
        <time>2014-08-30T10:47:19Z</time>
      </trkpt>
      <trkpt lat="46.18285" lon="6.823">
        <ele>1860.0337</ele>
        <time>2014-08-30T10:47:24Z</time>
      </trkpt>
      <trkpt lat="46.18288" lon="6.82303">
        <ele>1860.0337</ele>
        <time>2014-08-30T10:47:29Z</time>
      </trkpt>
      <trkpt lat="46.18292" lon="6.82308">
        <ele>1860.0337</ele>
        <time>2014-08-30T10:47:34Z</time>
      </trkpt>
      <trkpt lat="46.18295" lon="6.82312">
        <ele>1857.6534</ele>
        <time>2014-08-30T10:47:39Z</time>
      </trkpt>
      <trkpt lat="46.18297" lon="6.8232">
        <ele>1857.6534</ele>
        <time>2014-08-30T10:47:44Z</time>
      </trkpt>
      <trkpt lat="46.18299" lon="6.82328">
        <ele>1855.4961</ele>
        <time>2014-08-30T10:47:49Z</time>
      </trkpt>
      <trkpt lat="46.18303" lon="6.82335">
        <ele>1855.4961</ele>
        <time>2014-08-30T10:47:54Z</time>
      </trkpt>
      <trkpt lat="46.18306" lon="6.82341">
        <ele>1853.5442</ele>
        <time>2014-08-30T10:47:59Z</time>
      </trkpt>
      <trkpt lat="46.18309" lon="6.82348">
        <ele>1853.5442</ele>
        <time>2014-08-30T10:48:04Z</time>
      </trkpt>
      <trkpt lat="46.1831" lon="6.82352">
        <ele>1853.5442</ele>
        <time>2014-08-30T10:48:09Z</time>
      </trkpt>
      <trkpt lat="46.18312" lon="6.82356">
        <ele>1851.594</ele>
        <time>2014-08-30T10:48:14Z</time>
      </trkpt>
      <trkpt lat="46.18313" lon="6.82363">
        <ele>1851.594</ele>
        <time>2014-08-30T10:48:19Z</time>
      </trkpt>
      <trkpt lat="46.18313" lon="6.82369">
        <ele>1851.594</ele>
        <time>2014-08-30T10:48:24Z</time>
      </trkpt>
      <trkpt lat="46.18313" lon="6.82373">
        <ele>1849.6293</ele>
        <time>2014-08-30T10:48:29Z</time>
      </trkpt>
      <trkpt lat="46.18312" lon="6.82382">
        <ele>1849.6293</ele>
        <time>2014-08-30T10:48:34Z</time>
      </trkpt>
      <trkpt lat="46.18312" lon="6.82387">
        <ele>1847.6925</ele>
        <time>2014-08-30T10:48:39Z</time>
      </trkpt>
      <trkpt lat="46.18313" lon="6.82395">
        <ele>1847.6925</ele>
        <time>2014-08-30T10:48:44Z</time>
      </trkpt>
      <trkpt lat="46.18314" lon="6.82398">
        <ele>1847.6925</ele>
        <time>2014-08-30T10:48:49Z</time>
      </trkpt>
      <trkpt lat="46.18313" lon="6.82397">
        <ele>1847.6925</ele>
        <time>2014-08-30T10:48:54Z</time>
      </trkpt>
      <trkpt lat="46.18314" lon="6.824">
        <ele>1845.7079</ele>
        <time>2014-08-30T10:48:59Z</time>
      </trkpt>
      <trkpt lat="46.18317" lon="6.82403">
        <ele>1845.7079</ele>
        <time>2014-08-30T10:49:04Z</time>
      </trkpt>
      <trkpt lat="46.18316" lon="6.82406">
        <ele>1845.7079</ele>
        <time>2014-08-30T10:49:09Z</time>
      </trkpt>
      <trkpt lat="46.18313" lon="6.82404">
        <ele>1843.9509</ele>
        <time>2014-08-30T10:49:14Z</time>
      </trkpt>
      <trkpt lat="46.1831" lon="6.82403">
        <ele>1843.9509</ele>
        <time>2014-08-30T10:49:19Z</time>
      </trkpt>
      <trkpt lat="46.1831" lon="6.82401">
        <ele>1843.9509</ele>
        <time>2014-08-30T10:49:24Z</time>
      </trkpt>
      <trkpt lat="46.18311" lon="6.82403">
        <ele>1843.9509</ele>
        <time>2014-08-30T10:49:29Z</time>
      </trkpt>
      <trkpt lat="46.18311" lon="6.82406">
        <ele>1843.9509</ele>
        <time>2014-08-30T10:49:34Z</time>
      </trkpt>
      <trkpt lat="46.18311" lon="6.82407">
        <ele>1842.5322</ele>
        <time>2014-08-30T10:49:39Z</time>
      </trkpt>
      <trkpt lat="46.18311" lon="6.82408">
        <ele>1842.5322</ele>
        <time>2014-08-30T10:49:44Z</time>
      </trkpt>
      <trkpt lat="46.18312" lon="6.82409">
        <ele>1842.5322</ele>
        <time>2014-08-30T10:49:49Z</time>
      </trkpt>
      <trkpt lat="46.18312" lon="6.82409">
        <ele>1842.5322</ele>
        <time>2014-08-30T10:49:54Z</time>
      </trkpt>
      <trkpt lat="46.18312" lon="6.82409">
        <ele>1842.5322</ele>
        <time>2014-08-30T10:49:59Z</time>
      </trkpt>
      <trkpt lat="46.1831" lon="6.82406">
        <ele>1842.5322</ele>
        <time>2014-08-30T10:51:09Z</time>
      </trkpt>
      <trkpt lat="46.18306" lon="6.824">
        <ele>1840.9768</ele>
        <time>2014-08-30T10:51:14Z</time>
      </trkpt>
      <trkpt lat="46.18306" lon="6.824">
        <ele>1840.9768</ele>
        <time>2014-08-30T10:51:19Z</time>
      </trkpt>
      <trkpt lat="46.18306" lon="6.82401">
        <ele>1840.9768</ele>
        <time>2014-08-30T10:51:24Z</time>
      </trkpt>
      <trkpt lat="46.18308" lon="6.82401">
        <ele>1840.9768</ele>
        <time>2014-08-30T10:51:29Z</time>
      </trkpt>
      <trkpt lat="46.18309" lon="6.82399">
        <ele>1840.9768</ele>
        <time>2014-08-30T10:51:34Z</time>
      </trkpt>
      <trkpt lat="46.18304" lon="6.82397">
        <ele>1840.9768</ele>
        <time>2014-08-30T10:51:39Z</time>
      </trkpt>
      <trkpt lat="46.18296" lon="6.82396">
        <ele>1839.6376</ele>
        <time>2014-08-30T10:51:44Z</time>
      </trkpt>
      <trkpt lat="46.18291" lon="6.82393">
        <ele>1839.6376</ele>
        <time>2014-08-30T10:51:49Z</time>
      </trkpt>
      <trkpt lat="46.18286" lon="6.8239">
        <ele>1838.3796</ele>
        <time>2014-08-30T10:51:54Z</time>
      </trkpt>
      <trkpt lat="46.18282" lon="6.82387">
        <ele>1838.3796</ele>
        <time>2014-08-30T10:51:59Z</time>
      </trkpt>
      <trkpt lat="46.18278" lon="6.82384">
        <ele>1837.323</ele>
        <time>2014-08-30T10:52:04Z</time>
      </trkpt>
      <trkpt lat="46.18273" lon="6.8238">
        <ele>1837.323</ele>
        <time>2014-08-30T10:52:09Z</time>
      </trkpt>
      <trkpt lat="46.18269" lon="6.82379">
        <ele>1836.4196</ele>
        <time>2014-08-30T10:52:14Z</time>
      </trkpt>
      <trkpt lat="46.18263" lon="6.82378">
        <ele>1836.4196</ele>
        <time>2014-08-30T10:52:19Z</time>
      </trkpt>
      <trkpt lat="46.1826" lon="6.82377">
        <ele>1835.7975</ele>
        <time>2014-08-30T10:52:24Z</time>
      </trkpt>
      <trkpt lat="46.18257" lon="6.82374">
        <ele>1835.7975</ele>
        <time>2014-08-30T10:52:29Z</time>
      </trkpt>
      <trkpt lat="46.18251" lon="6.82373">
        <ele>1835.3872</ele>
        <time>2014-08-30T10:52:34Z</time>
      </trkpt>
      <trkpt lat="46.18246" lon="6.8237">
        <ele>1835.3872</ele>
        <time>2014-08-30T10:52:39Z</time>
      </trkpt>
      <trkpt lat="46.18242" lon="6.82365">
        <ele>1835.1094</ele>
        <time>2014-08-30T10:52:44Z</time>
      </trkpt>
      <trkpt lat="46.1824" lon="6.82362">
        <ele>1835.1094</ele>
        <time>2014-08-30T10:52:49Z</time>
      </trkpt>
      <trkpt lat="46.18237" lon="6.82356">
        <ele>1835.1094</ele>
        <time>2014-08-30T10:52:54Z</time>
      </trkpt>
      <trkpt lat="46.18234" lon="6.82349">
        <ele>1834.6742</ele>
        <time>2014-08-30T10:52:59Z</time>
      </trkpt>
      <trkpt lat="46.18232" lon="6.82342">
        <ele>1834.6742</ele>
        <time>2014-08-30T10:53:04Z</time>
      </trkpt>
      <trkpt lat="46.18227" lon="6.82336">
        <ele>1834.3035</ele>
        <time>2014-08-30T10:53:09Z</time>
      </trkpt>
      <trkpt lat="46.18223" lon="6.8233">
        <ele>1834.3035</ele>
        <time>2014-08-30T10:53:14Z</time>
      </trkpt>
      <trkpt lat="46.18219" lon="6.82326">
        <ele>1834.1018</ele>
        <time>2014-08-30T10:53:19Z</time>
      </trkpt>
      <trkpt lat="46.18214" lon="6.82322">
        <ele>1834.1018</ele>
        <time>2014-08-30T10:53:24Z</time>
      </trkpt>
      <trkpt lat="46.1821" lon="6.8232">
        <ele>1834.036</ele>
        <time>2014-08-30T10:53:29Z</time>
      </trkpt>
      <trkpt lat="46.18201" lon="6.82322">
        <ele>1834.036</ele>
        <time>2014-08-30T10:53:34Z</time>
      </trkpt>
      <trkpt lat="46.18195" lon="6.82327">
        <ele>1834.2192</ele>
        <time>2014-08-30T10:53:39Z</time>
      </trkpt>
      <trkpt lat="46.18191" lon="6.82332">
        <ele>1834.2192</ele>
        <time>2014-08-30T10:53:44Z</time>
      </trkpt>
      <trkpt lat="46.18188" lon="6.82338">
        <ele>1834.5684</ele>
        <time>2014-08-30T10:53:49Z</time>
      </trkpt>
      <trkpt lat="46.18186" lon="6.82347">
        <ele>1834.5684</ele>
        <time>2014-08-30T10:53:54Z</time>
      </trkpt>
      <trkpt lat="46.18185" lon="6.82349">
        <ele>1834.5684</ele>
        <time>2014-08-30T10:53:59Z</time>
      </trkpt>
      <trkpt lat="46.18181" lon="6.82355">
        <ele>1835.0205</ele>
        <time>2014-08-30T10:54:04Z</time>
      </trkpt>
      <trkpt lat="46.18177" lon="6.82361">
        <ele>1835.0205</ele>
        <time>2014-08-30T10:54:09Z</time>
      </trkpt>
      <trkpt lat="46.18172" lon="6.82365">
        <ele>1835.4309</ele>
        <time>2014-08-30T10:54:14Z</time>
      </trkpt>
      <trkpt lat="46.18167" lon="6.82369">
        <ele>1835.4309</ele>
        <time>2014-08-30T10:54:19Z</time>
      </trkpt>
      <trkpt lat="46.18162" lon="6.82375">
        <ele>1835.8959</ele>
        <time>2014-08-30T10:54:24Z</time>
      </trkpt>
      <trkpt lat="46.18158" lon="6.82379">
        <ele>1835.8959</ele>
        <time>2014-08-30T10:54:29Z</time>
      </trkpt>
      <trkpt lat="46.18158" lon="6.82381">
        <ele>1835.8959</ele>
        <time>2014-08-30T10:54:34Z</time>
      </trkpt>
      <trkpt lat="46.18155" lon="6.82388">
        <ele>1836.4187</ele>
        <time>2014-08-30T10:54:39Z</time>
      </trkpt>
      <trkpt lat="46.18152" lon="6.82396">
        <ele>1836.4187</ele>
        <time>2014-08-30T10:54:44Z</time>
      </trkpt>
      <trkpt lat="46.18149" lon="6.82406">
        <ele>1836.8436</ele>
        <time>2014-08-30T10:54:49Z</time>
      </trkpt>
      <trkpt lat="46.18148" lon="6.82413">
        <ele>1836.8436</ele>
        <time>2014-08-30T10:54:54Z</time>
      </trkpt>
      <trkpt lat="46.18145" lon="6.82418">
        <ele>1837.1854</ele>
        <time>2014-08-30T10:54:59Z</time>
      </trkpt>
      <trkpt lat="46.18141" lon="6.82422">
        <ele>1837.1854</ele>
        <time>2014-08-30T10:55:04Z</time>
      </trkpt>
      <trkpt lat="46.18138" lon="6.82422">
        <ele>1837.1854</ele>
        <time>2014-08-30T10:55:09Z</time>
      </trkpt>
      <trkpt lat="46.18138" lon="6.82423">
        <ele>1837.1854</ele>
        <time>2014-08-30T10:55:14Z</time>
      </trkpt>
      <trkpt lat="46.18139" lon="6.82425">
        <ele>1837.3285</ele>
        <time>2014-08-30T10:55:19Z</time>
      </trkpt>
      <trkpt lat="46.18138" lon="6.82425">
        <ele>1837.3285</ele>
        <time>2014-08-30T10:55:24Z</time>
      </trkpt>
      <trkpt lat="46.18138" lon="6.82424">
        <ele>1837.3285</ele>
        <time>2014-08-30T10:55:29Z</time>
      </trkpt>
      <trkpt lat="46.18138" lon="6.82423">
        <ele>1837.3285</ele>
        <time>2014-08-30T10:55:34Z</time>
      </trkpt>
      <trkpt lat="46.18139" lon="6.82424">
        <ele>1837.3285</ele>
        <time>2014-08-30T10:55:39Z</time>
      </trkpt>
      <trkpt lat="46.18138" lon="6.82424">
        <ele>1837.3285</ele>
        <time>2014-08-30T10:55:44Z</time>
      </trkpt>
      <trkpt lat="46.18139" lon="6.82424">
        <ele>1837.3285</ele>
        <time>2014-08-30T10:55:49Z</time>
      </trkpt>
      <trkpt lat="46.18138" lon="6.82423">
        <ele>1837.3285</ele>
        <time>2014-08-30T10:55:54Z</time>
      </trkpt>
      <trkpt lat="46.18138" lon="6.82423">
        <ele>1837.3285</ele>
        <time>2014-08-30T10:55:59Z</time>
      </trkpt>
      <trkpt lat="46.18138" lon="6.82424">
        <ele>1837.3285</ele>
        <time>2014-08-30T10:56:04Z</time>
      </trkpt>
      <trkpt lat="46.18138" lon="6.82424">
        <ele>1837.3285</ele>
        <time>2014-08-30T10:56:09Z</time>
      </trkpt>
      <trkpt lat="46.18138" lon="6.82423">
        <ele>1837.3285</ele>
        <time>2014-08-30T10:56:14Z</time>
      </trkpt>
      <trkpt lat="46.18139" lon="6.82423">
        <ele>1837.3285</ele>
        <time>2014-08-30T10:56:19Z</time>
      </trkpt>
      <trkpt lat="46.18139" lon="6.82423">
        <ele>1837.3285</ele>
        <time>2014-08-30T10:56:24Z</time>
      </trkpt>
      <trkpt lat="46.18139" lon="6.82423">
        <ele>1837.3285</ele>
        <time>2014-08-30T10:56:29Z</time>
      </trkpt>
      <trkpt lat="46.18139" lon="6.82423">
        <ele>1837.3285</ele>
        <time>2014-08-30T10:56:34Z</time>
      </trkpt>
      <trkpt lat="46.18139" lon="6.82424">
        <ele>1837.3285</ele>
        <time>2014-08-30T10:56:39Z</time>
      </trkpt>
      <trkpt lat="46.18139" lon="6.82424">
        <ele>1837.4692</ele>
        <time>2014-08-30T10:56:44Z</time>
      </trkpt>
      <trkpt lat="46.18136" lon="6.82426">
        <ele>1837.4692</ele>
        <time>2014-08-30T10:56:49Z</time>
      </trkpt>
      <trkpt lat="46.18128" lon="6.82428">
        <ele>1837.5157</ele>
        <time>2014-08-30T10:56:54Z</time>
      </trkpt>
      <trkpt lat="46.18122" lon="6.82431">
        <ele>1837.5157</ele>
        <time>2014-08-30T10:56:59Z</time>
      </trkpt>
      <trkpt lat="46.18116" lon="6.82432">
        <ele>1837.5132</ele>
        <time>2014-08-30T10:57:04Z</time>
      </trkpt>
      <trkpt lat="46.18109" lon="6.82433">
        <ele>1837.5132</ele>
        <time>2014-08-30T10:57:09Z</time>
      </trkpt>
      <trkpt lat="46.18106" lon="6.82431">
        <ele>1837.5903</ele>
        <time>2014-08-30T10:57:14Z</time>
      </trkpt>
      <trkpt lat="46.181" lon="6.82431">
        <ele>1837.5903</ele>
        <time>2014-08-30T10:57:19Z</time>
      </trkpt>
      <trkpt lat="46.18096" lon="6.82431">
        <ele>1837.6646</ele>
        <time>2014-08-30T10:57:24Z</time>
      </trkpt>
      <trkpt lat="46.18093" lon="6.82432">
        <ele>1837.6646</ele>
        <time>2014-08-30T10:57:29Z</time>
      </trkpt>
      <trkpt lat="46.18087" lon="6.82435">
        <ele>1837.6453</ele>
        <time>2014-08-30T10:57:34Z</time>
      </trkpt>
      <trkpt lat="46.18083" lon="6.82439">
        <ele>1837.6453</ele>
        <time>2014-08-30T10:57:39Z</time>
      </trkpt>
      <trkpt lat="46.18079" lon="6.82445">
        <ele>1837.4918</ele>
        <time>2014-08-30T10:57:44Z</time>
      </trkpt>
      <trkpt lat="46.18074" lon="6.82447">
        <ele>1837.4918</ele>
        <time>2014-08-30T10:57:49Z</time>
      </trkpt>
      <trkpt lat="46.18069" lon="6.82448">
        <ele>1837.2109</ele>
        <time>2014-08-30T10:57:54Z</time>
      </trkpt>
      <trkpt lat="46.18064" lon="6.8245">
        <ele>1837.2109</ele>
        <time>2014-08-30T10:57:59Z</time>
      </trkpt>
      <trkpt lat="46.18057" lon="6.82452">
        <ele>1836.78</ele>
        <time>2014-08-30T10:58:04Z</time>
      </trkpt>
      <trkpt lat="46.18054" lon="6.82453">
        <ele>1836.78</ele>
        <time>2014-08-30T10:58:09Z</time>
      </trkpt>
      <trkpt lat="46.18049" lon="6.82453">
        <ele>1836.78</ele>
        <time>2014-08-30T10:58:14Z</time>
      </trkpt>
      <trkpt lat="46.18041" lon="6.82455">
        <ele>1836.1504</ele>
        <time>2014-08-30T10:58:19Z</time>
      </trkpt>
      <trkpt lat="46.18036" lon="6.82456">
        <ele>1836.1504</ele>
        <time>2014-08-30T10:58:24Z</time>
      </trkpt>
      <trkpt lat="46.18033" lon="6.82459">
        <ele>1836.1504</ele>
        <time>2014-08-30T10:58:29Z</time>
      </trkpt>
      <trkpt lat="46.18029" lon="6.8246">
        <ele>1835.3782</ele>
        <time>2014-08-30T10:58:34Z</time>
      </trkpt>
      <trkpt lat="46.18025" lon="6.82463">
        <ele>1835.3782</ele>
        <time>2014-08-30T10:58:39Z</time>
      </trkpt>
      <trkpt lat="46.1802" lon="6.82467">
        <ele>1834.6028</ele>
        <time>2014-08-30T10:58:44Z</time>
      </trkpt>
      <trkpt lat="46.18016" lon="6.82469">
        <ele>1834.6028</ele>
        <time>2014-08-30T10:58:49Z</time>
      </trkpt>
      <trkpt lat="46.18011" lon="6.82472">
        <ele>1833.8666</ele>
        <time>2014-08-30T10:58:54Z</time>
      </trkpt>
      <trkpt lat="46.18007" lon="6.82477">
        <ele>1833.8666</ele>
        <time>2014-08-30T10:58:59Z</time>
      </trkpt>
      <trkpt lat="46.18003" lon="6.8248">
        <ele>1833.1517</ele>
        <time>2014-08-30T10:59:04Z</time>
      </trkpt>
      <trkpt lat="46.17999" lon="6.82483">
        <ele>1833.1517</ele>
        <time>2014-08-30T10:59:09Z</time>
      </trkpt>
      <trkpt lat="46.17993" lon="6.82485">
        <ele>1832.4705</ele>
        <time>2014-08-30T10:59:14Z</time>
      </trkpt>
      <trkpt lat="46.17989" lon="6.82488">
        <ele>1832.4705</ele>
        <time>2014-08-30T10:59:19Z</time>
      </trkpt>
      <trkpt lat="46.17984" lon="6.8249">
        <ele>1831.8339</ele>
        <time>2014-08-30T10:59:24Z</time>
      </trkpt>
      <trkpt lat="46.17977" lon="6.82494">
        <ele>1831.8339</ele>
        <time>2014-08-30T10:59:29Z</time>
      </trkpt>
      <trkpt lat="46.17973" lon="6.82498">
        <ele>1831.2812</ele>
        <time>2014-08-30T10:59:34Z</time>
      </trkpt>
      <trkpt lat="46.17967" lon="6.82506">
        <ele>1831.2812</ele>
        <time>2014-08-30T10:59:39Z</time>
      </trkpt>
      <trkpt lat="46.17964" lon="6.82513">
        <ele>1830.8058</ele>
        <time>2014-08-30T10:59:44Z</time>
      </trkpt>
      <trkpt lat="46.17963" lon="6.82519">
        <ele>1830.8058</ele>
        <time>2014-08-30T10:59:49Z</time>
      </trkpt>
      <trkpt lat="46.17961" lon="6.82528">
        <ele>1830.4874</ele>
        <time>2014-08-30T10:59:54Z</time>
      </trkpt>
      <trkpt lat="46.1796" lon="6.82533">
        <ele>1830.4874</ele>
        <time>2014-08-30T10:59:59Z</time>
      </trkpt>
      <trkpt lat="46.17956" lon="6.82539">
        <ele>1830.2413</ele>
        <time>2014-08-30T11:00:04Z</time>
      </trkpt>
      <trkpt lat="46.1795" lon="6.82545">
        <ele>1830.2413</ele>
        <time>2014-08-30T11:00:09Z</time>
      </trkpt>
      <trkpt lat="46.17945" lon="6.82548">
        <ele>1830.0176</ele>
        <time>2014-08-30T11:00:14Z</time>
      </trkpt>
      <trkpt lat="46.17941" lon="6.82553">
        <ele>1830.0176</ele>
        <time>2014-08-30T11:00:19Z</time>
      </trkpt>
      <trkpt lat="46.17938" lon="6.82557">
        <ele>1829.8566</ele>
        <time>2014-08-30T11:00:24Z</time>
      </trkpt>
      <trkpt lat="46.17935" lon="6.8256">
        <ele>1829.8566</ele>
        <time>2014-08-30T11:00:29Z</time>
      </trkpt>
      <trkpt lat="46.17929" lon="6.82565">
        <ele>1829.7667</ele>
        <time>2014-08-30T11:00:34Z</time>
      </trkpt>
      <trkpt lat="46.17926" lon="6.82568">
        <ele>1829.7667</ele>
        <time>2014-08-30T11:00:39Z</time>
      </trkpt>
      <trkpt lat="46.17925" lon="6.82571">
        <ele>1829.7667</ele>
        <time>2014-08-30T11:00:44Z</time>
      </trkpt>
      <trkpt lat="46.17925" lon="6.82574">
        <ele>1829.7667</ele>
        <time>2014-08-30T11:00:49Z</time>
      </trkpt>
      <trkpt lat="46.17924" lon="6.82576">
        <ele>1829.7268</ele>
        <time>2014-08-30T11:00:54Z</time>
      </trkpt>
      <trkpt lat="46.17923" lon="6.82577">
        <ele>1829.7268</ele>
        <time>2014-08-30T11:00:59Z</time>
      </trkpt>
      <trkpt lat="46.17923" lon="6.82577">
        <ele>1829.7268</ele>
        <time>2014-08-30T11:01:04Z</time>
      </trkpt>
      <trkpt lat="46.17922" lon="6.82571">
        <ele>1829.7268</ele>
        <time>2014-08-30T11:01:09Z</time>
      </trkpt>
      <trkpt lat="46.17919" lon="6.82566">
        <ele>1829.7319</ele>
        <time>2014-08-30T11:01:14Z</time>
      </trkpt>
      <trkpt lat="46.17916" lon="6.82557">
        <ele>1829.7319</ele>
        <time>2014-08-30T11:01:19Z</time>
      </trkpt>
      <trkpt lat="46.17915" lon="6.8255">
        <ele>1829.6184</ele>
        <time>2014-08-30T11:01:24Z</time>
      </trkpt>
      <trkpt lat="46.17912" lon="6.82545">
        <ele>1829.6184</ele>
        <time>2014-08-30T11:01:29Z</time>
      </trkpt>
      <trkpt lat="46.1791" lon="6.82541">
        <ele>1829.6184</ele>
        <time>2014-08-30T11:01:34Z</time>
      </trkpt>
      <trkpt lat="46.17906" lon="6.82537">
        <ele>1829.4948</ele>
        <time>2014-08-30T11:01:39Z</time>
      </trkpt>
      <trkpt lat="46.17902" lon="6.82531">
        <ele>1829.4948</ele>
        <time>2014-08-30T11:01:44Z</time>
      </trkpt>
      <trkpt lat="46.17899" lon="6.82524">
        <ele>1829.4761</ele>
        <time>2014-08-30T11:01:49Z</time>
      </trkpt>
      <trkpt lat="46.17898" lon="6.82519">
        <ele>1829.4761</ele>
        <time>2014-08-30T11:01:54Z</time>
      </trkpt>
      <trkpt lat="46.17897" lon="6.82512">
        <ele>1829.5966</ele>
        <time>2014-08-30T11:01:59Z</time>
      </trkpt>
      <trkpt lat="46.17896" lon="6.82505">
        <ele>1829.5966</ele>
        <time>2014-08-30T11:02:04Z</time>
      </trkpt>
      <trkpt lat="46.17896" lon="6.82495">
        <ele>1829.8588</ele>
        <time>2014-08-30T11:02:09Z</time>
      </trkpt>
      <trkpt lat="46.17896" lon="6.8249">
        <ele>1829.8588</ele>
        <time>2014-08-30T11:02:14Z</time>
      </trkpt>
      <trkpt lat="46.17896" lon="6.82484">
        <ele>1829.8588</ele>
        <time>2014-08-30T11:02:19Z</time>
      </trkpt>
      <trkpt lat="46.17897" lon="6.82476">
        <ele>1830.3657</ele>
        <time>2014-08-30T11:02:24Z</time>
      </trkpt>
      <trkpt lat="46.17898" lon="6.82468">
        <ele>1830.3657</ele>
        <time>2014-08-30T11:02:29Z</time>
      </trkpt>
      <trkpt lat="46.17897" lon="6.82461">
        <ele>1831.0538</ele>
        <time>2014-08-30T11:02:34Z</time>
      </trkpt>
      <trkpt lat="46.17896" lon="6.82456">
        <ele>1831.0538</ele>
        <time>2014-08-30T11:02:39Z</time>
      </trkpt>
      <trkpt lat="46.17895" lon="6.82449">
        <ele>1831.0538</ele>
        <time>2014-08-30T11:02:44Z</time>
      </trkpt>
      <trkpt lat="46.17894" lon="6.82442">
        <ele>1831.8634</ele>
        <time>2014-08-30T11:02:49Z</time>
      </trkpt>
      <trkpt lat="46.17892" lon="6.82436">
        <ele>1831.8634</ele>
        <time>2014-08-30T11:02:54Z</time>
      </trkpt>
      <trkpt lat="46.1789" lon="6.82428">
        <ele>1832.7104</ele>
        <time>2014-08-30T11:02:59Z</time>
      </trkpt>
      <trkpt lat="46.17889" lon="6.82423">
        <ele>1832.7104</ele>
        <time>2014-08-30T11:03:04Z</time>
      </trkpt>
      <trkpt lat="46.17887" lon="6.82417">
        <ele>1832.7104</ele>
        <time>2014-08-30T11:03:09Z</time>
      </trkpt>
      <trkpt lat="46.17887" lon="6.82413">
        <ele>1833.5458</ele>
        <time>2014-08-30T11:03:14Z</time>
      </trkpt>
      <trkpt lat="46.17886" lon="6.82405">
        <ele>1833.5458</ele>
        <time>2014-08-30T11:03:19Z</time>
      </trkpt>
      <trkpt lat="46.17885" lon="6.82398">
        <ele>1834.3525</ele>
        <time>2014-08-30T11:03:24Z</time>
      </trkpt>
      <trkpt lat="46.17885" lon="6.82392">
        <ele>1834.3525</ele>
        <time>2014-08-30T11:03:29Z</time>
      </trkpt>
      <trkpt lat="46.17885" lon="6.82386">
        <ele>1834.3525</ele>
        <time>2014-08-30T11:03:34Z</time>
      </trkpt>
      <trkpt lat="46.17885" lon="6.8238">
        <ele>1835.2886</ele>
        <time>2014-08-30T11:03:39Z</time>
      </trkpt>
      <trkpt lat="46.17883" lon="6.82374">
        <ele>1835.2886</ele>
        <time>2014-08-30T11:03:44Z</time>
      </trkpt>
      <trkpt lat="46.17883" lon="6.8237">
        <ele>1835.2886</ele>
        <time>2014-08-30T11:03:49Z</time>
      </trkpt>
      <trkpt lat="46.17881" lon="6.82361">
        <ele>1836.1394</ele>
        <time>2014-08-30T11:03:54Z</time>
      </trkpt>
      <trkpt lat="46.1788" lon="6.82355">
        <ele>1836.1394</ele>
        <time>2014-08-30T11:03:59Z</time>
      </trkpt>
      <trkpt lat="46.17881" lon="6.82351">
        <ele>1836.1394</ele>
        <time>2014-08-30T11:04:04Z</time>
      </trkpt>
      <trkpt lat="46.17883" lon="6.82344">
        <ele>1837.0094</ele>
        <time>2014-08-30T11:04:09Z</time>
      </trkpt>
      <trkpt lat="46.17883" lon="6.82337">
        <ele>1837.0094</ele>
        <time>2014-08-30T11:04:14Z</time>
      </trkpt>
      <trkpt lat="46.17884" lon="6.82329">
        <ele>1837.7932</ele>
        <time>2014-08-30T11:04:19Z</time>
      </trkpt>
      <trkpt lat="46.17884" lon="6.82322">
        <ele>1837.7932</ele>
        <time>2014-08-30T11:04:24Z</time>
      </trkpt>
      <trkpt lat="46.17885" lon="6.82316">
        <ele>1838.6678</ele>
        <time>2014-08-30T11:04:29Z</time>
      </trkpt>
      <trkpt lat="46.17883" lon="6.82309">
        <ele>1838.6678</ele>
        <time>2014-08-30T11:04:34Z</time>
      </trkpt>
      <trkpt lat="46.17882" lon="6.82302">
        <ele>1839.6095</ele>
        <time>2014-08-30T11:04:39Z</time>
      </trkpt>
      <trkpt lat="46.17879" lon="6.82293">
        <ele>1839.6095</ele>
        <time>2014-08-30T11:04:44Z</time>
      </trkpt>
      <trkpt lat="46.17877" lon="6.82288">
        <ele>1840.5527</ele>
        <time>2014-08-30T11:04:49Z</time>
      </trkpt>
      <trkpt lat="46.17875" lon="6.82283">
        <ele>1840.5527</ele>
        <time>2014-08-30T11:04:54Z</time>
      </trkpt>
      <trkpt lat="46.17873" lon="6.82276">
        <ele>1841.5094</ele>
        <time>2014-08-30T11:04:59Z</time>
      </trkpt>
      <trkpt lat="46.17871" lon="6.82271">
        <ele>1841.5094</ele>
        <time>2014-08-30T11:05:04Z</time>
      </trkpt>
      <trkpt lat="46.1787" lon="6.82266">
        <ele>1841.5094</ele>
        <time>2014-08-30T11:05:09Z</time>
      </trkpt>
      <trkpt lat="46.17868" lon="6.8226">
        <ele>1842.4038</ele>
        <time>2014-08-30T11:05:14Z</time>
      </trkpt>
      <trkpt lat="46.17867" lon="6.82255">
        <ele>1842.4038</ele>
        <time>2014-08-30T11:05:19Z</time>
      </trkpt>
      <trkpt lat="46.17863" lon="6.82248">
        <ele>1843.1805</ele>
        <time>2014-08-30T11:05:24Z</time>
      </trkpt>
      <trkpt lat="46.17861" lon="6.82241">
        <ele>1843.1805</ele>
        <time>2014-08-30T11:05:29Z</time>
      </trkpt>
      <trkpt lat="46.17861" lon="6.82233">
        <ele>1843.8608</ele>
        <time>2014-08-30T11:05:34Z</time>
      </trkpt>
      <trkpt lat="46.17859" lon="6.82228">
        <ele>1843.8608</ele>
        <time>2014-08-30T11:05:39Z</time>
      </trkpt>
      <trkpt lat="46.17858" lon="6.8222">
        <ele>1844.5222</ele>
        <time>2014-08-30T11:05:44Z</time>
      </trkpt>
      <trkpt lat="46.17858" lon="6.82213">
        <ele>1844.5222</ele>
        <time>2014-08-30T11:05:49Z</time>
      </trkpt>
      <trkpt lat="46.17858" lon="6.82207">
        <ele>1845.1792</ele>
        <time>2014-08-30T11:05:54Z</time>
      </trkpt>
      <trkpt lat="46.17856" lon="6.82201">
        <ele>1845.1792</ele>
        <time>2014-08-30T11:05:59Z</time>
      </trkpt>
      <trkpt lat="46.17855" lon="6.82192">
        <ele>1845.802</ele>
        <time>2014-08-30T11:06:04Z</time>
      </trkpt>
      <trkpt lat="46.17856" lon="6.82184">
        <ele>1845.802</ele>
        <time>2014-08-30T11:06:09Z</time>
      </trkpt>
      <trkpt lat="46.17853" lon="6.82177">
        <ele>1846.4353</ele>
        <time>2014-08-30T11:06:14Z</time>
      </trkpt>
      <trkpt lat="46.1785" lon="6.8217">
        <ele>1846.4353</ele>
        <time>2014-08-30T11:06:19Z</time>
      </trkpt>
      <trkpt lat="46.17848" lon="6.82164">
        <ele>1846.9908</ele>
        <time>2014-08-30T11:06:24Z</time>
      </trkpt>
      <trkpt lat="46.17846" lon="6.82158">
        <ele>1846.9908</ele>
        <time>2014-08-30T11:06:29Z</time>
      </trkpt>
      <trkpt lat="46.17843" lon="6.82151">
        <ele>1847.5167</ele>
        <time>2014-08-30T11:06:34Z</time>
      </trkpt>
      <trkpt lat="46.17839" lon="6.82144">
        <ele>1847.5167</ele>
        <time>2014-08-30T11:06:39Z</time>
      </trkpt>
      <trkpt lat="46.17836" lon="6.82139">
        <ele>1848.0292</ele>
        <time>2014-08-30T11:06:44Z</time>
      </trkpt>
      <trkpt lat="46.17836" lon="6.82138">
        <ele>1848.0292</ele>
        <time>2014-08-30T11:06:49Z</time>
      </trkpt>
      <trkpt lat="46.17835" lon="6.82138">
        <ele>1848.0292</ele>
        <time>2014-08-30T11:06:54Z</time>
      </trkpt>
      <trkpt lat="46.17834" lon="6.82138">
        <ele>1848.0292</ele>
        <time>2014-08-30T11:06:59Z</time>
      </trkpt>
      <trkpt lat="46.17834" lon="6.82139">
        <ele>1848.0292</ele>
        <time>2014-08-30T11:07:04Z</time>
      </trkpt>
      <trkpt lat="46.17834" lon="6.82139">
        <ele>1848.0292</ele>
        <time>2014-08-30T11:07:09Z</time>
      </trkpt>
      <trkpt lat="46.17833" lon="6.82136">
        <ele>1848.0292</ele>
        <time>2014-08-30T11:07:14Z</time>
      </trkpt>
      <trkpt lat="46.17834" lon="6.82137">
        <ele>1848.0292</ele>
        <time>2014-08-30T11:07:19Z</time>
      </trkpt>
      <trkpt lat="46.17834" lon="6.82136">
        <ele>1848.0292</ele>
        <time>2014-08-30T11:07:24Z</time>
      </trkpt>
      <trkpt lat="46.17831" lon="6.8213">
        <ele>1848.7303</ele>
        <time>2014-08-30T11:07:29Z</time>
      </trkpt>
      <trkpt lat="46.17827" lon="6.82122">
        <ele>1848.7303</ele>
        <time>2014-08-30T11:07:34Z</time>
      </trkpt>
      <trkpt lat="46.17825" lon="6.82118">
        <ele>1849.4325</ele>
        <time>2014-08-30T11:07:39Z</time>
      </trkpt>
      <trkpt lat="46.17823" lon="6.82112">
        <ele>1849.4325</ele>
        <time>2014-08-30T11:07:44Z</time>
      </trkpt>
      <trkpt lat="46.17819" lon="6.82106">
        <ele>1850.1204</ele>
        <time>2014-08-30T11:07:49Z</time>
      </trkpt>
      <trkpt lat="46.17816" lon="6.82098">
        <ele>1850.1204</ele>
        <time>2014-08-30T11:07:54Z</time>
      </trkpt>
      <trkpt lat="46.17813" lon="6.82093">
        <ele>1850.7222</ele>
        <time>2014-08-30T11:07:59Z</time>
      </trkpt>
      <trkpt lat="46.17809" lon="6.82088">
        <ele>1850.7222</ele>
        <time>2014-08-30T11:08:04Z</time>
      </trkpt>
      <trkpt lat="46.17807" lon="6.82084">
        <ele>1850.7222</ele>
        <time>2014-08-30T11:08:09Z</time>
      </trkpt>
      <trkpt lat="46.17802" lon="6.82076">
        <ele>1851.3158</ele>
        <time>2014-08-30T11:08:14Z</time>
      </trkpt>
      <trkpt lat="46.17799" lon="6.82068">
        <ele>1851.3158</ele>
        <time>2014-08-30T11:08:19Z</time>
      </trkpt>
      <trkpt lat="46.17796" lon="6.82061">
        <ele>1851.772</ele>
        <time>2014-08-30T11:08:24Z</time>
      </trkpt>
      <trkpt lat="46.17796" lon="6.82055">
        <ele>1851.772</ele>
        <time>2014-08-30T11:08:29Z</time>
      </trkpt>
      <trkpt lat="46.17796" lon="6.82044">
        <ele>1852.3312</ele>
        <time>2014-08-30T11:08:34Z</time>
      </trkpt>
      <trkpt lat="46.17796" lon="6.82036">
        <ele>1852.3312</ele>
        <time>2014-08-30T11:08:39Z</time>
      </trkpt>
      <trkpt lat="46.17799" lon="6.82026">
        <ele>1852.8706</ele>
        <time>2014-08-30T11:08:44Z</time>
      </trkpt>
      <trkpt lat="46.17801" lon="6.82019">
        <ele>1852.8706</ele>
        <time>2014-08-30T11:08:49Z</time>
      </trkpt>
      <trkpt lat="46.17801" lon="6.82012">
        <ele>1853.2617</ele>
        <time>2014-08-30T11:08:54Z</time>
      </trkpt>
      <trkpt lat="46.178" lon="6.82007">
        <ele>1853.2617</ele>
        <time>2014-08-30T11:08:59Z</time>
      </trkpt>
      <trkpt lat="46.178" lon="6.81999">
        <ele>1853.2617</ele>
        <time>2014-08-30T11:09:04Z</time>
      </trkpt>
      <trkpt lat="46.17798" lon="6.81987">
        <ele>1853.5305</ele>
        <time>2014-08-30T11:09:09Z</time>
      </trkpt>
      <trkpt lat="46.17796" lon="6.81982">
        <ele>1853.5305</ele>
        <time>2014-08-30T11:09:14Z</time>
      </trkpt>
      <trkpt lat="46.17793" lon="6.81977">
        <ele>1853.5305</ele>
        <time>2014-08-30T11:09:19Z</time>
      </trkpt>
      <trkpt lat="46.17791" lon="6.81969">
        <ele>1853.6577</ele>
        <time>2014-08-30T11:09:24Z</time>
      </trkpt>
      <trkpt lat="46.17789" lon="6.81961">
        <ele>1853.6577</ele>
        <time>2014-08-30T11:09:29Z</time>
      </trkpt>
      <trkpt lat="46.17786" lon="6.81954">
        <ele>1853.7559</ele>
        <time>2014-08-30T11:09:34Z</time>
      </trkpt>
      <trkpt lat="46.17783" lon="6.81947">
        <ele>1853.7559</ele>
        <time>2014-08-30T11:09:39Z</time>
      </trkpt>
      <trkpt lat="46.17781" lon="6.81939">
        <ele>1853.7563</ele>
        <time>2014-08-30T11:09:44Z</time>
      </trkpt>
      <trkpt lat="46.17781" lon="6.81928">
        <ele>1853.7563</ele>
        <time>2014-08-30T11:09:49Z</time>
      </trkpt>
      <trkpt lat="46.17783" lon="6.81922">
        <ele>1853.6824</ele>
        <time>2014-08-30T11:09:54Z</time>
      </trkpt>
      <trkpt lat="46.17785" lon="6.81914">
        <ele>1853.6824</ele>
        <time>2014-08-30T11:09:59Z</time>
      </trkpt>
      <trkpt lat="46.17787" lon="6.81905">
        <ele>1853.6565</ele>
        <time>2014-08-30T11:10:04Z</time>
      </trkpt>
      <trkpt lat="46.17789" lon="6.81896">
        <ele>1853.6565</ele>
        <time>2014-08-30T11:10:09Z</time>
      </trkpt>
      <trkpt lat="46.17789" lon="6.81888">
        <ele>1853.5472</ele>
        <time>2014-08-30T11:10:14Z</time>
      </trkpt>
      <trkpt lat="46.17789" lon="6.8188">
        <ele>1853.5472</ele>
        <time>2014-08-30T11:10:19Z</time>
      </trkpt>
      <trkpt lat="46.17788" lon="6.81871">
        <ele>1853.4059</ele>
        <time>2014-08-30T11:10:24Z</time>
      </trkpt>
      <trkpt lat="46.17786" lon="6.81863">
        <ele>1853.4059</ele>
        <time>2014-08-30T11:10:29Z</time>
      </trkpt>
      <trkpt lat="46.17785" lon="6.81856">
        <ele>1853.2513</ele>
        <time>2014-08-30T11:10:34Z</time>
      </trkpt>
      <trkpt lat="46.17782" lon="6.81849">
        <ele>1853.2513</ele>
        <time>2014-08-30T11:10:39Z</time>
      </trkpt>
      <trkpt lat="46.1778" lon="6.81841">
        <ele>1853</ele>
        <time>2014-08-30T11:10:44Z</time>
      </trkpt>
      <trkpt lat="46.1778" lon="6.81833">
        <ele>1853</ele>
        <time>2014-08-30T11:10:49Z</time>
      </trkpt>
      <trkpt lat="46.1778" lon="6.81826">
        <ele>1852.7045</ele>
        <time>2014-08-30T11:10:54Z</time>
      </trkpt>
      <trkpt lat="46.17783" lon="6.81818">
        <ele>1852.7045</ele>
        <time>2014-08-30T11:10:59Z</time>
      </trkpt>
      <trkpt lat="46.17786" lon="6.81812">
        <ele>1852.313</ele>
        <time>2014-08-30T11:11:04Z</time>
      </trkpt>
      <trkpt lat="46.17787" lon="6.81803">
        <ele>1852.313</ele>
        <time>2014-08-30T11:11:09Z</time>
      </trkpt>
      <trkpt lat="46.17789" lon="6.81797">
        <ele>1851.792</ele>
        <time>2014-08-30T11:11:14Z</time>
      </trkpt>
      <trkpt lat="46.17789" lon="6.81788">
        <ele>1851.792</ele>
        <time>2014-08-30T11:11:19Z</time>
      </trkpt>
      <trkpt lat="46.17787" lon="6.81778">
        <ele>1851.2836</ele>
        <time>2014-08-30T11:11:24Z</time>
      </trkpt>
      <trkpt lat="46.17786" lon="6.81771">
        <ele>1851.2836</ele>
        <time>2014-08-30T11:11:29Z</time>
      </trkpt>
      <trkpt lat="46.17785" lon="6.81765">
        <ele>1850.8041</ele>
        <time>2014-08-30T11:11:34Z</time>
      </trkpt>
      <trkpt lat="46.1778" lon="6.81758">
        <ele>1850.8041</ele>
        <time>2014-08-30T11:11:39Z</time>
      </trkpt>
      <trkpt lat="46.17777" lon="6.81753">
        <ele>1850.3688</ele>
        <time>2014-08-30T11:11:44Z</time>
      </trkpt>
      <trkpt lat="46.17775" lon="6.81747">
        <ele>1850.3688</ele>
        <time>2014-08-30T11:11:49Z</time>
      </trkpt>
      <trkpt lat="46.17772" lon="6.81739">
        <ele>1849.8328</ele>
        <time>2014-08-30T11:11:54Z</time>
      </trkpt>
      <trkpt lat="46.1777" lon="6.81732">
        <ele>1849.8328</ele>
        <time>2014-08-30T11:11:59Z</time>
      </trkpt>
      <trkpt lat="46.17765" lon="6.81726">
        <ele>1849.3649</ele>
        <time>2014-08-30T11:12:04Z</time>
      </trkpt>
      <trkpt lat="46.17759" lon="6.81719">
        <ele>1849.3649</ele>
        <time>2014-08-30T11:12:09Z</time>
      </trkpt>
      <trkpt lat="46.17756" lon="6.81714">
        <ele>1849.0204</ele>
        <time>2014-08-30T11:12:14Z</time>
      </trkpt>
      <trkpt lat="46.17752" lon="6.81709">
        <ele>1849.0204</ele>
        <time>2014-08-30T11:12:19Z</time>
      </trkpt>
      <trkpt lat="46.1775" lon="6.81705">
        <ele>1849.0204</ele>
        <time>2014-08-30T11:12:24Z</time>
      </trkpt>
      <trkpt lat="46.17746" lon="6.81699">
        <ele>1848.7347</ele>
        <time>2014-08-30T11:12:29Z</time>
      </trkpt>
      <trkpt lat="46.17743" lon="6.81692">
        <ele>1848.7347</ele>
        <time>2014-08-30T11:12:34Z</time>
      </trkpt>
      <trkpt lat="46.17743" lon="6.81684">
        <ele>1848.6064</ele>
        <time>2014-08-30T11:12:39Z</time>
      </trkpt>
      <trkpt lat="46.17739" lon="6.81678">
        <ele>1848.6064</ele>
        <time>2014-08-30T11:12:44Z</time>
      </trkpt>
      <trkpt lat="46.17737" lon="6.81674">
        <ele>1848.51</ele>
        <time>2014-08-30T11:12:49Z</time>
      </trkpt>
      <trkpt lat="46.17734" lon="6.81666">
        <ele>1848.51</ele>
        <time>2014-08-30T11:12:54Z</time>
      </trkpt>
      <trkpt lat="46.17732" lon="6.81658">
        <ele>1848.4012</ele>
        <time>2014-08-30T11:12:59Z</time>
      </trkpt>
      <trkpt lat="46.1773" lon="6.81651">
        <ele>1848.4012</ele>
        <time>2014-08-30T11:13:04Z</time>
      </trkpt>
      <trkpt lat="46.17729" lon="6.81642">
        <ele>1848.1383</ele>
        <time>2014-08-30T11:13:09Z</time>
      </trkpt>
      <trkpt lat="46.17728" lon="6.81632">
        <ele>1848.1383</ele>
        <time>2014-08-30T11:13:14Z</time>
      </trkpt>
      <trkpt lat="46.17727" lon="6.81625">
        <ele>1847.7917</ele>
        <time>2014-08-30T11:13:19Z</time>
      </trkpt>
      <trkpt lat="46.1773" lon="6.81618">
        <ele>1847.7917</ele>
        <time>2014-08-30T11:13:24Z</time>
      </trkpt>
      <trkpt lat="46.17735" lon="6.8161">
        <ele>1847.1532</ele>
        <time>2014-08-30T11:13:29Z</time>
      </trkpt>
      <trkpt lat="46.17738" lon="6.81602">
        <ele>1847.1532</ele>
        <time>2014-08-30T11:13:34Z</time>
      </trkpt>
      <trkpt lat="46.17741" lon="6.81595">
        <ele>1846.2325</ele>
        <time>2014-08-30T11:13:39Z</time>
      </trkpt>
      <trkpt lat="46.17742" lon="6.81588">
        <ele>1846.2325</ele>
        <time>2014-08-30T11:13:44Z</time>
      </trkpt>
      <trkpt lat="46.17742" lon="6.81581">
        <ele>1845.2264</ele>
        <time>2014-08-30T11:13:49Z</time>
      </trkpt>
      <trkpt lat="46.17743" lon="6.81572">
        <ele>1845.2264</ele>
        <time>2014-08-30T11:13:54Z</time>
      </trkpt>
      <trkpt lat="46.17742" lon="6.81563">
        <ele>1844.1593</ele>
        <time>2014-08-30T11:13:59Z</time>
      </trkpt>
      <trkpt lat="46.17743" lon="6.81555">
        <ele>1844.1593</ele>
        <time>2014-08-30T11:14:04Z</time>
      </trkpt>
      <trkpt lat="46.17746" lon="6.81547">
        <ele>1842.8949</ele>
        <time>2014-08-30T11:14:09Z</time>
      </trkpt>
      <trkpt lat="46.17749" lon="6.8154">
        <ele>1842.8949</ele>
        <time>2014-08-30T11:14:14Z</time>
      </trkpt>
      <trkpt lat="46.1775" lon="6.81532">
        <ele>1841.4949</ele>
        <time>2014-08-30T11:14:19Z</time>
      </trkpt>
      <trkpt lat="46.17753" lon="6.81525">
        <ele>1841.4949</ele>
        <time>2014-08-30T11:14:24Z</time>
      </trkpt>
      <trkpt lat="46.17756" lon="6.81518">
        <ele>1839.9738</ele>
        <time>2014-08-30T11:14:29Z</time>
      </trkpt>
      <trkpt lat="46.17758" lon="6.81512">
        <ele>1839.9738</ele>
        <time>2014-08-30T11:14:34Z</time>
      </trkpt>
      <trkpt lat="46.17758" lon="6.8151">
        <ele>1839.9738</ele>
        <time>2014-08-30T11:14:39Z</time>
      </trkpt>
      <trkpt lat="46.17758" lon="6.8151">
        <ele>1839.9738</ele>
        <time>2014-08-30T11:14:44Z</time>
      </trkpt>
      <trkpt lat="46.1776" lon="6.81506">
        <ele>1838.6907</ele>
        <time>2014-08-30T11:14:49Z</time>
      </trkpt>
      <trkpt lat="46.17758" lon="6.81496">
        <ele>1838.6907</ele>
        <time>2014-08-30T11:14:54Z</time>
      </trkpt>
      <trkpt lat="46.17757" lon="6.81486">
        <ele>1837.4447</ele>
        <time>2014-08-30T11:14:59Z</time>
      </trkpt>
      <trkpt lat="46.17757" lon="6.81477">
        <ele>1837.4447</ele>
        <time>2014-08-30T11:15:04Z</time>
      </trkpt>
      <trkpt lat="46.17758" lon="6.8147">
        <ele>1836.3231</ele>
        <time>2014-08-30T11:15:09Z</time>
      </trkpt>
      <trkpt lat="46.17758" lon="6.81464">
        <ele>1836.3231</ele>
        <time>2014-08-30T11:15:14Z</time>
      </trkpt>
      <trkpt lat="46.17757" lon="6.81457">
        <ele>1835.2191</ele>
        <time>2014-08-30T11:15:19Z</time>
      </trkpt>
      <trkpt lat="46.17756" lon="6.8145">
        <ele>1835.2191</ele>
        <time>2014-08-30T11:15:24Z</time>
      </trkpt>
      <trkpt lat="46.17756" lon="6.8145">
        <ele>1835.2191</ele>
        <time>2014-08-30T11:15:29Z</time>
      </trkpt>
      <trkpt lat="46.17754" lon="6.81446">
        <ele>1835.2191</ele>
        <time>2014-08-30T11:15:39Z</time>
      </trkpt>
      <trkpt lat="46.17753" lon="6.81444">
        <ele>1834.3359</ele>
        <time>2014-08-30T11:15:44Z</time>
      </trkpt>
      <trkpt lat="46.17751" lon="6.81438">
        <ele>1834.3359</ele>
        <time>2014-08-30T11:15:49Z</time>
      </trkpt>
      <trkpt lat="46.17747" lon="6.8143">
        <ele>1833.7175</ele>
        <time>2014-08-30T11:15:54Z</time>
      </trkpt>
      <trkpt lat="46.17743" lon="6.81423">
        <ele>1833.7175</ele>
        <time>2014-08-30T11:15:59Z</time>
      </trkpt>
      <trkpt lat="46.17741" lon="6.81417">
        <ele>1833.288</ele>
        <time>2014-08-30T11:16:04Z</time>
      </trkpt>
      <trkpt lat="46.17739" lon="6.81413">
        <ele>1833.288</ele>
        <time>2014-08-30T11:16:09Z</time>
      </trkpt>
      <trkpt lat="46.17736" lon="6.81409">
        <ele>1833.288</ele>
        <time>2014-08-30T11:16:14Z</time>
      </trkpt>
      <trkpt lat="46.17732" lon="6.81404">
        <ele>1832.8901</ele>
        <time>2014-08-30T11:16:19Z</time>
      </trkpt>
      <trkpt lat="46.17724" lon="6.814">
        <ele>1832.8901</ele>
        <time>2014-08-30T11:16:24Z</time>
      </trkpt>
      <trkpt lat="46.17719" lon="6.81396">
        <ele>1832.7673</ele>
        <time>2014-08-30T11:16:29Z</time>
      </trkpt>
      <trkpt lat="46.17713" lon="6.81396">
        <ele>1832.7673</ele>
        <time>2014-08-30T11:16:34Z</time>
      </trkpt>
      <trkpt lat="46.17708" lon="6.81393">
        <ele>1832.8125</ele>
        <time>2014-08-30T11:16:39Z</time>
      </trkpt>
      <trkpt lat="46.17703" lon="6.81391">
        <ele>1832.8125</ele>
        <time>2014-08-30T11:16:44Z</time>
      </trkpt>
      <trkpt lat="46.17697" lon="6.81391">
        <ele>1833.0269</ele>
        <time>2014-08-30T11:16:49Z</time>
      </trkpt>
      <trkpt lat="46.17691" lon="6.81389">
        <ele>1833.0269</ele>
        <time>2014-08-30T11:16:54Z</time>
      </trkpt>
      <trkpt lat="46.17685" lon="6.81385">
        <ele>1833.3823</ele>
        <time>2014-08-30T11:16:59Z</time>
      </trkpt>
      <trkpt lat="46.17681" lon="6.81383">
        <ele>1833.3823</ele>
        <time>2014-08-30T11:17:04Z</time>
      </trkpt>
      <trkpt lat="46.17676" lon="6.81377">
        <ele>1833.7081</ele>
        <time>2014-08-30T11:17:09Z</time>
      </trkpt>
      <trkpt lat="46.17674" lon="6.81376">
        <ele>1833.7081</ele>
        <time>2014-08-30T11:17:14Z</time>
      </trkpt>
      <trkpt lat="46.17671" lon="6.81372">
        <ele>1833.7081</ele>
        <time>2014-08-30T11:17:19Z</time>
      </trkpt>
      <trkpt lat="46.17667" lon="6.81368">
        <ele>1834.0477</ele>
        <time>2014-08-30T11:17:24Z</time>
      </trkpt>
      <trkpt lat="46.17663" lon="6.81365">
        <ele>1834.0477</ele>
        <time>2014-08-30T11:17:29Z</time>
      </trkpt>
      <trkpt lat="46.17656" lon="6.8136">
        <ele>1834.4128</ele>
        <time>2014-08-30T11:17:34Z</time>
      </trkpt>
      <trkpt lat="46.17652" lon="6.81357">
        <ele>1834.4128</ele>
        <time>2014-08-30T11:17:39Z</time>
      </trkpt>
      <trkpt lat="46.17646" lon="6.81353">
        <ele>1834.7417</ele>
        <time>2014-08-30T11:17:44Z</time>
      </trkpt>
      <trkpt lat="46.17642" lon="6.81351">
        <ele>1834.7417</ele>
        <time>2014-08-30T11:17:49Z</time>
      </trkpt>
      <trkpt lat="46.17637" lon="6.81345">
        <ele>1835.1217</ele>
        <time>2014-08-30T11:17:54Z</time>
      </trkpt>
      <trkpt lat="46.17632" lon="6.81342">
        <ele>1835.1217</ele>
        <time>2014-08-30T11:17:59Z</time>
      </trkpt>
      <trkpt lat="46.17632" lon="6.81342">
        <ele>1835.1217</ele>
        <time>2014-08-30T11:18:04Z</time>
      </trkpt>
      <trkpt lat="46.17629" lon="6.8134">
        <ele>1835.1217</ele>
        <time>2014-08-30T11:18:39Z</time>
      </trkpt>
      <trkpt lat="46.17626" lon="6.81334">
        <ele>1836.0225</ele>
        <time>2014-08-30T11:18:44Z</time>
      </trkpt>
      <trkpt lat="46.17622" lon="6.81327">
        <ele>1836.0225</ele>
        <time>2014-08-30T11:18:49Z</time>
      </trkpt>
      <trkpt lat="46.17618" lon="6.81322">
        <ele>1836.8833</ele>
        <time>2014-08-30T11:18:54Z</time>
      </trkpt>
      <trkpt lat="46.17611" lon="6.81319">
        <ele>1836.8833</ele>
        <time>2014-08-30T11:18:59Z</time>
      </trkpt>
      <trkpt lat="46.17605" lon="6.81314">
        <ele>1837.6895</ele>
        <time>2014-08-30T11:19:04Z</time>
      </trkpt>
      <trkpt lat="46.176" lon="6.81312">
        <ele>1837.6895</ele>
        <time>2014-08-30T11:19:09Z</time>
      </trkpt>
      <trkpt lat="46.17594" lon="6.81308">
        <ele>1838.4126</ele>
        <time>2014-08-30T11:19:14Z</time>
      </trkpt>
      <trkpt lat="46.1759" lon="6.81305">
        <ele>1838.4126</ele>
        <time>2014-08-30T11:19:19Z</time>
      </trkpt>
      <trkpt lat="46.17585" lon="6.81303">
        <ele>1839.0272</ele>
        <time>2014-08-30T11:19:24Z</time>
      </trkpt>
      <trkpt lat="46.17581" lon="6.81302">
        <ele>1839.0272</ele>
        <time>2014-08-30T11:19:29Z</time>
      </trkpt>
      <trkpt lat="46.17578" lon="6.81299">
        <ele>1839.0272</ele>
        <time>2014-08-30T11:19:34Z</time>
      </trkpt>
      <trkpt lat="46.17578" lon="6.81299">
        <ele>1839.0272</ele>
        <time>2014-08-30T11:19:39Z</time>
      </trkpt>
      <trkpt lat="46.17578" lon="6.813">
        <ele>1839.0272</ele>
        <time>2014-08-30T11:19:49Z</time>
      </trkpt>
      <trkpt lat="46.17573" lon="6.813">
        <ele>1839.452</ele>
        <time>2014-08-30T11:19:54Z</time>
      </trkpt>
      <trkpt lat="46.17567" lon="6.81298">
        <ele>1839.452</ele>
        <time>2014-08-30T11:19:59Z</time>
      </trkpt>
      <trkpt lat="46.17562" lon="6.81295">
        <ele>1839.9005</ele>
        <time>2014-08-30T11:20:04Z</time>
      </trkpt>
      <trkpt lat="46.17558" lon="6.81292">
        <ele>1839.9005</ele>
        <time>2014-08-30T11:20:09Z</time>
      </trkpt>
      <trkpt lat="46.17552" lon="6.81289">
        <ele>1840.4408</ele>
        <time>2014-08-30T11:20:14Z</time>
      </trkpt>
      <trkpt lat="46.17546" lon="6.81286">
        <ele>1840.4408</ele>
        <time>2014-08-30T11:20:19Z</time>
      </trkpt>
      <trkpt lat="46.17539" lon="6.81286">
        <ele>1841.1215</ele>
        <time>2014-08-30T11:20:24Z</time>
      </trkpt>
      <trkpt lat="46.17534" lon="6.81286">
        <ele>1841.1215</ele>
        <time>2014-08-30T11:20:29Z</time>
      </trkpt>
      <trkpt lat="46.17528" lon="6.81288">
        <ele>1841.915</ele>
        <time>2014-08-30T11:20:34Z</time>
      </trkpt>
      <trkpt lat="46.1752" lon="6.8129">
        <ele>1841.915</ele>
        <time>2014-08-30T11:20:39Z</time>
      </trkpt>
      <trkpt lat="46.17513" lon="6.81293">
        <ele>1842.8823</ele>
        <time>2014-08-30T11:20:44Z</time>
      </trkpt>
      <trkpt lat="46.17508" lon="6.81297">
        <ele>1842.8823</ele>
        <time>2014-08-30T11:20:49Z</time>
      </trkpt>
      <trkpt lat="46.17502" lon="6.813">
        <ele>1843.8917</ele>
        <time>2014-08-30T11:20:54Z</time>
      </trkpt>
      <trkpt lat="46.17498" lon="6.81304">
        <ele>1843.8917</ele>
        <time>2014-08-30T11:20:59Z</time>
      </trkpt>
      <trkpt lat="46.17491" lon="6.81313">
        <ele>1844.8215</ele>
        <time>2014-08-30T11:21:04Z</time>
      </trkpt>
      <trkpt lat="46.17481" lon="6.81324">
        <ele>1845.6598</ele>
        <time>2014-08-30T11:21:09Z</time>
      </trkpt>
      <trkpt lat="46.17479" lon="6.81327">
        <ele>1845.6598</ele>
        <time>2014-08-30T11:21:14Z</time>
      </trkpt>
      <trkpt lat="46.17477" lon="6.81328">
        <ele>1845.6598</ele>
        <time>2014-08-30T11:21:19Z</time>
      </trkpt>
      <trkpt lat="46.17473" lon="6.81333">
        <ele>1846.3961</ele>
        <time>2014-08-30T11:21:24Z</time>
      </trkpt>
      <trkpt lat="46.1747" lon="6.81341">
        <ele>1846.3961</ele>
        <time>2014-08-30T11:21:29Z</time>
      </trkpt>
      <trkpt lat="46.17468" lon="6.81344">
        <ele>1846.9921</ele>
        <time>2014-08-30T11:21:34Z</time>
      </trkpt>
      <trkpt lat="46.17463" lon="6.81348">
        <ele>1846.9921</ele>
        <time>2014-08-30T11:21:39Z</time>
      </trkpt>
      <trkpt lat="46.17458" lon="6.81354">
        <ele>1847.456</ele>
        <time>2014-08-30T11:21:44Z</time>
      </trkpt>
      <trkpt lat="46.17454" lon="6.81359">
        <ele>1847.456</ele>
        <time>2014-08-30T11:21:49Z</time>
      </trkpt>
      <trkpt lat="46.17452" lon="6.81361">
        <ele>1847.456</ele>
        <time>2014-08-30T11:21:54Z</time>
      </trkpt>
      <trkpt lat="46.17451" lon="6.81365">
        <ele>1847.4791</ele>
        <time>2014-08-30T11:21:59Z</time>
      </trkpt>
      <trkpt lat="46.17451" lon="6.81365">
        <ele>1847.4791</ele>
        <time>2014-08-30T11:22:04Z</time>
      </trkpt>
      <trkpt lat="46.17451" lon="6.81367">
        <ele>1847.4791</ele>
        <time>2014-08-30T11:22:09Z</time>
      </trkpt>
      <trkpt lat="46.17451" lon="6.81367">
        <ele>1847.4791</ele>
        <time>2014-08-30T11:22:14Z</time>
      </trkpt>
      <trkpt lat="46.1745" lon="6.81368">
        <ele>1847.4791</ele>
        <time>2014-08-30T11:22:19Z</time>
      </trkpt>
      <trkpt lat="46.1745" lon="6.8137">
        <ele>1847.4791</ele>
        <time>2014-08-30T11:22:24Z</time>
      </trkpt>
      <trkpt lat="46.17449" lon="6.81368">
        <ele>1847.4791</ele>
        <time>2014-08-30T11:22:29Z</time>
      </trkpt>
      <trkpt lat="46.17448" lon="6.81368">
        <ele>1847.4791</ele>
        <time>2014-08-30T11:22:34Z</time>
      </trkpt>
      <trkpt lat="46.17442" lon="6.8137">
        <ele>1847.3239</ele>
        <time>2014-08-30T11:22:39Z</time>
      </trkpt>
      <trkpt lat="46.17438" lon="6.81374">
        <ele>1847.3239</ele>
        <time>2014-08-30T11:22:44Z</time>
      </trkpt>
      <trkpt lat="46.1744" lon="6.81374">
        <ele>1847.3239</ele>
        <time>2014-08-30T11:22:49Z</time>
      </trkpt>
      <trkpt lat="46.17443" lon="6.81375">
        <ele>1847.047</ele>
        <time>2014-08-30T11:22:54Z</time>
      </trkpt>
      <trkpt lat="46.17445" lon="6.81374">
        <ele>1847.047</ele>
        <time>2014-08-30T11:22:59Z</time>
      </trkpt>
      <trkpt lat="46.17446" lon="6.81374">
        <ele>1847.047</ele>
        <time>2014-08-30T11:23:04Z</time>
      </trkpt>
      <trkpt lat="46.17446" lon="6.81374">
        <ele>1847.047</ele>
        <time>2014-08-30T11:23:09Z</time>
      </trkpt>
      <trkpt lat="46.17447" lon="6.81374">
        <ele>1847.047</ele>
        <time>2014-08-30T11:23:14Z</time>
      </trkpt>
      <trkpt lat="46.17443" lon="6.81378">
        <ele>1847.047</ele>
        <time>2014-08-30T11:24:09Z</time>
      </trkpt>
      <trkpt lat="46.17435" lon="6.81387">
        <ele>1846.7878</ele>
        <time>2014-08-30T11:24:14Z</time>
      </trkpt>
      <trkpt lat="46.17431" lon="6.81394">
        <ele>1846.7878</ele>
        <time>2014-08-30T11:24:19Z</time>
      </trkpt>
      <trkpt lat="46.17427" lon="6.81401">
        <ele>1846.5312</ele>
        <time>2014-08-30T11:24:24Z</time>
      </trkpt>
      <trkpt lat="46.17424" lon="6.81407">
        <ele>1846.5312</ele>
        <time>2014-08-30T11:24:29Z</time>
      </trkpt>
      <trkpt lat="46.17423" lon="6.81411">
        <ele>1846.5312</ele>
        <time>2014-08-30T11:24:34Z</time>
      </trkpt>
      <trkpt lat="46.17421" lon="6.81413">
        <ele>1846.3932</ele>
        <time>2014-08-30T11:24:39Z</time>
      </trkpt>
      <trkpt lat="46.17421" lon="6.81413">
        <ele>1846.3932</ele>
        <time>2014-08-30T11:24:44Z</time>
      </trkpt>
      <trkpt lat="46.17421" lon="6.81411">
        <ele>1846.3932</ele>
        <time>2014-08-30T11:25:34Z</time>
      </trkpt>
      <trkpt lat="46.1742" lon="6.81412">
        <ele>1846.3932</ele>
        <time>2014-08-30T11:25:39Z</time>
      </trkpt>
      <trkpt lat="46.1742" lon="6.81412">
        <ele>1846.3932</ele>
        <time>2014-08-30T11:25:44Z</time>
      </trkpt>
      <trkpt lat="46.17421" lon="6.81416">
        <ele>1846.3932</ele>
        <time>2014-08-30T11:26:54Z</time>
      </trkpt>
      <trkpt lat="46.1742" lon="6.81419">
        <ele>1846.3932</ele>
        <time>2014-08-30T11:26:59Z</time>
      </trkpt>
      <trkpt lat="46.17418" lon="6.81427">
        <ele>1846.351</ele>
        <time>2014-08-30T11:27:04Z</time>
      </trkpt>
      <trkpt lat="46.17414" lon="6.81435">
        <ele>1846.351</ele>
        <time>2014-08-30T11:27:09Z</time>
      </trkpt>
      <trkpt lat="46.17411" lon="6.81442">
        <ele>1846.369</ele>
        <time>2014-08-30T11:27:14Z</time>
      </trkpt>
      <trkpt lat="46.17407" lon="6.81449">
        <ele>1846.369</ele>
        <time>2014-08-30T11:27:19Z</time>
      </trkpt>
      <trkpt lat="46.17406" lon="6.81454">
        <ele>1846.2843</ele>
        <time>2014-08-30T11:27:24Z</time>
      </trkpt>
      <trkpt lat="46.17402" lon="6.81461">
        <ele>1846.2843</ele>
        <time>2014-08-30T11:27:29Z</time>
      </trkpt>
      <trkpt lat="46.17398" lon="6.81465">
        <ele>1846.105</ele>
        <time>2014-08-30T11:27:34Z</time>
      </trkpt>
      <trkpt lat="46.17393" lon="6.81467">
        <ele>1846.105</ele>
        <time>2014-08-30T11:27:39Z</time>
      </trkpt>
      <trkpt lat="46.17388" lon="6.81472">
        <ele>1845.9539</ele>
        <time>2014-08-30T11:27:44Z</time>
      </trkpt>
      <trkpt lat="46.17384" lon="6.81477">
        <ele>1845.9539</ele>
        <time>2014-08-30T11:27:49Z</time>
      </trkpt>
      <trkpt lat="46.17381" lon="6.8148">
        <ele>1845.5847</ele>
        <time>2014-08-30T11:27:54Z</time>
      </trkpt>
      <trkpt lat="46.17378" lon="6.81482">
        <ele>1845.5847</ele>
        <time>2014-08-30T11:27:59Z</time>
      </trkpt>
      <trkpt lat="46.17372" lon="6.81487">
        <ele>1845.0002</ele>
        <time>2014-08-30T11:28:04Z</time>
      </trkpt>
      <trkpt lat="46.17368" lon="6.81491">
        <ele>1845.0002</ele>
        <time>2014-08-30T11:28:09Z</time>
      </trkpt>
      <trkpt lat="46.17364" lon="6.81492">
        <ele>1845.0002</ele>
        <time>2014-08-30T11:28:14Z</time>
      </trkpt>
      <trkpt lat="46.17358" lon="6.81498">
        <ele>1844.0021</ele>
        <time>2014-08-30T11:28:19Z</time>
      </trkpt>
      <trkpt lat="46.17354" lon="6.81501">
        <ele>1844.0021</ele>
        <time>2014-08-30T11:28:24Z</time>
      </trkpt>
      <trkpt lat="46.17347" lon="6.81509">
        <ele>1842.8256</ele>
        <time>2014-08-30T11:28:29Z</time>
      </trkpt>
      <trkpt lat="46.17344" lon="6.81514">
        <ele>1842.8256</ele>
        <time>2014-08-30T11:28:34Z</time>
      </trkpt>
      <trkpt lat="46.17341" lon="6.81522">
        <ele>1841.5016</ele>
        <time>2014-08-30T11:28:39Z</time>
      </trkpt>
      <trkpt lat="46.17336" lon="6.81527">
        <ele>1841.5016</ele>
        <time>2014-08-30T11:28:44Z</time>
      </trkpt>
      <trkpt lat="46.17333" lon="6.81529">
        <ele>1840.074</ele>
        <time>2014-08-30T11:28:49Z</time>
      </trkpt>
      <trkpt lat="46.17331" lon="6.81532">
        <ele>1840.074</ele>
        <time>2014-08-30T11:28:54Z</time>
      </trkpt>
      <trkpt lat="46.17326" lon="6.81538">
        <ele>1838.6697</ele>
        <time>2014-08-30T11:28:59Z</time>
      </trkpt>
      <trkpt lat="46.17322" lon="6.81546">
        <ele>1838.6697</ele>
        <time>2014-08-30T11:29:04Z</time>
      </trkpt>
      <trkpt lat="46.17319" lon="6.81554">
        <ele>1837.248</ele>
        <time>2014-08-30T11:29:09Z</time>
      </trkpt>
      <trkpt lat="46.17319" lon="6.8156">
        <ele>1837.248</ele>
        <time>2014-08-30T11:29:14Z</time>
      </trkpt>
      <trkpt lat="46.17316" lon="6.8157">
        <ele>1835.7855</ele>
        <time>2014-08-30T11:29:19Z</time>
      </trkpt>
      <trkpt lat="46.17313" lon="6.81577">
        <ele>1835.7855</ele>
        <time>2014-08-30T11:29:24Z</time>
      </trkpt>
      <trkpt lat="46.17309" lon="6.81583">
        <ele>1834.376</ele>
        <time>2014-08-30T11:29:29Z</time>
      </trkpt>
      <trkpt lat="46.17302" lon="6.81588">
        <ele>1834.376</ele>
        <time>2014-08-30T11:29:34Z</time>
      </trkpt>
      <trkpt lat="46.17297" lon="6.8159">
        <ele>1833.1636</ele>
        <time>2014-08-30T11:29:39Z</time>
      </trkpt>
      <trkpt lat="46.17291" lon="6.81592">
        <ele>1833.1636</ele>
        <time>2014-08-30T11:29:44Z</time>
      </trkpt>
      <trkpt lat="46.17285" lon="6.81591">
        <ele>1832.0219</ele>
        <time>2014-08-30T11:29:49Z</time>
      </trkpt>
      <trkpt lat="46.17281" lon="6.8159">
        <ele>1832.0219</ele>
        <time>2014-08-30T11:29:54Z</time>
      </trkpt>
      <trkpt lat="46.17278" lon="6.81587">
        <ele>1832.0219</ele>
        <time>2014-08-30T11:29:59Z</time>
      </trkpt>
      <trkpt lat="46.17272" lon="6.81583">
        <ele>1830.7614</ele>
        <time>2014-08-30T11:30:04Z</time>
      </trkpt>
      <trkpt lat="46.17267" lon="6.81581">
        <ele>1830.7614</ele>
        <time>2014-08-30T11:30:09Z</time>
      </trkpt>
      <trkpt lat="46.17262" lon="6.81581">
        <ele>1829.5096</ele>
        <time>2014-08-30T11:30:14Z</time>
      </trkpt>
      <trkpt lat="46.17255" lon="6.81585">
        <ele>1829.5096</ele>
        <time>2014-08-30T11:30:19Z</time>
      </trkpt>
      <trkpt lat="46.17247" lon="6.81588">
        <ele>1828.2404</ele>
        <time>2014-08-30T11:30:24Z</time>
      </trkpt>
      <trkpt lat="46.17242" lon="6.81589">
        <ele>1828.2404</ele>
        <time>2014-08-30T11:30:29Z</time>
      </trkpt>
      <trkpt lat="46.17237" lon="6.81589">
        <ele>1826.9868</ele>
        <time>2014-08-30T11:30:34Z</time>
      </trkpt>
      <trkpt lat="46.1723" lon="6.81587">
        <ele>1826.9868</ele>
        <time>2014-08-30T11:30:39Z</time>
      </trkpt>
      <trkpt lat="46.17222" lon="6.81583">
        <ele>1825.8663</ele>
        <time>2014-08-30T11:30:44Z</time>
      </trkpt>
      <trkpt lat="46.17217" lon="6.81583">
        <ele>1825.8663</ele>
        <time>2014-08-30T11:30:49Z</time>
      </trkpt>
      <trkpt lat="46.1721" lon="6.81583">
        <ele>1824.7852</ele>
        <time>2014-08-30T11:30:54Z</time>
      </trkpt>
      <trkpt lat="46.17204" lon="6.81585">
        <ele>1824.7852</ele>
        <time>2014-08-30T11:30:59Z</time>
      </trkpt>
      <trkpt lat="46.17199" lon="6.81582">
        <ele>1823.9304</ele>
        <time>2014-08-30T11:31:04Z</time>
      </trkpt>
      <trkpt lat="46.17194" lon="6.81582">
        <ele>1823.9304</ele>
        <time>2014-08-30T11:31:09Z</time>
      </trkpt>
      <trkpt lat="46.17189" lon="6.81581">
        <ele>1823.3446</ele>
        <time>2014-08-30T11:31:14Z</time>
      </trkpt>
      <trkpt lat="46.17184" lon="6.81581">
        <ele>1823.3446</ele>
        <time>2014-08-30T11:31:19Z</time>
      </trkpt>
      <trkpt lat="46.17178" lon="6.81578">
        <ele>1822.908</ele>
        <time>2014-08-30T11:31:24Z</time>
      </trkpt>
      <trkpt lat="46.17175" lon="6.81576">
        <ele>1822.908</ele>
        <time>2014-08-30T11:31:29Z</time>
      </trkpt>
      <trkpt lat="46.1717" lon="6.81574">
        <ele>1822.908</ele>
        <time>2014-08-30T11:31:34Z</time>
      </trkpt>
      <trkpt lat="46.17166" lon="6.81576">
        <ele>1822.581</ele>
        <time>2014-08-30T11:31:39Z</time>
      </trkpt>
      <trkpt lat="46.17161" lon="6.81582">
        <ele>1822.581</ele>
        <time>2014-08-30T11:31:44Z</time>
      </trkpt>
      <trkpt lat="46.17158" lon="6.81591">
        <ele>1822.1974</ele>
        <time>2014-08-30T11:31:49Z</time>
      </trkpt>
      <trkpt lat="46.17157" lon="6.81602">
        <ele>1822.1974</ele>
        <time>2014-08-30T11:31:54Z</time>
      </trkpt>
      <trkpt lat="46.17156" lon="6.81611">
        <ele>1821.7899</ele>
        <time>2014-08-30T11:31:59Z</time>
      </trkpt>
      <trkpt lat="46.17155" lon="6.81617">
        <ele>1821.7899</ele>
        <time>2014-08-30T11:32:04Z</time>
      </trkpt>
      <trkpt lat="46.17154" lon="6.8162">
        <ele>1821.7899</ele>
        <time>2014-08-30T11:32:09Z</time>
      </trkpt>
      <trkpt lat="46.17152" lon="6.81628">
        <ele>1821.6487</ele>
        <time>2014-08-30T11:32:14Z</time>
      </trkpt>
      <trkpt lat="46.17149" lon="6.81632">
        <ele>1821.6487</ele>
        <time>2014-08-30T11:32:19Z</time>
      </trkpt>
      <trkpt lat="46.17142" lon="6.81636">
        <ele>1821.5082</ele>
        <time>2014-08-30T11:32:24Z</time>
      </trkpt>
      <trkpt lat="46.17138" lon="6.81638">
        <ele>1821.5082</ele>
        <time>2014-08-30T11:32:29Z</time>
      </trkpt>
      <trkpt lat="46.17132" lon="6.81643">
        <ele>1821.3102</ele>
        <time>2014-08-30T11:32:34Z</time>
      </trkpt>
      <trkpt lat="46.17128" lon="6.81643">
        <ele>1821.3102</ele>
        <time>2014-08-30T11:32:39Z</time>
      </trkpt>
      <trkpt lat="46.17122" lon="6.81646">
        <ele>1821.0724</ele>
        <time>2014-08-30T11:32:44Z</time>
      </trkpt>
      <trkpt lat="46.17116" lon="6.81649">
        <ele>1821.0724</ele>
        <time>2014-08-30T11:32:49Z</time>
      </trkpt>
      <trkpt lat="46.17111" lon="6.8165">
        <ele>1820.999</ele>
        <time>2014-08-30T11:32:54Z</time>
      </trkpt>
      <trkpt lat="46.17104" lon="6.81651">
        <ele>1820.999</ele>
        <time>2014-08-30T11:32:59Z</time>
      </trkpt>
      <trkpt lat="46.17099" lon="6.81653">
        <ele>1820.9901</ele>
        <time>2014-08-30T11:33:04Z</time>
      </trkpt>
      <trkpt lat="46.17094" lon="6.81657">
        <ele>1820.9901</ele>
        <time>2014-08-30T11:33:09Z</time>
      </trkpt>
      <trkpt lat="46.17088" lon="6.81661">
        <ele>1821.0399</ele>
        <time>2014-08-30T11:33:14Z</time>
      </trkpt>
      <trkpt lat="46.17083" lon="6.81662">
        <ele>1821.0399</ele>
        <time>2014-08-30T11:33:19Z</time>
      </trkpt>
      <trkpt lat="46.17077" lon="6.81664">
        <ele>1821.1422</ele>
        <time>2014-08-30T11:33:24Z</time>
      </trkpt>
      <trkpt lat="46.1707" lon="6.81666">
        <ele>1821.1422</ele>
        <time>2014-08-30T11:33:29Z</time>
      </trkpt>
      <trkpt lat="46.17066" lon="6.81666">
        <ele>1821.2485</ele>
        <time>2014-08-30T11:33:34Z</time>
      </trkpt>
      <trkpt lat="46.17061" lon="6.81667">
        <ele>1821.2485</ele>
        <time>2014-08-30T11:33:39Z</time>
      </trkpt>
      <trkpt lat="46.17055" lon="6.81668">
        <ele>1821.2845</ele>
        <time>2014-08-30T11:33:44Z</time>
      </trkpt>
      <trkpt lat="46.17049" lon="6.81669">
        <ele>1821.2845</ele>
        <time>2014-08-30T11:33:49Z</time>
      </trkpt>
      <trkpt lat="46.17044" lon="6.8167">
        <ele>1821.3403</ele>
        <time>2014-08-30T11:33:54Z</time>
      </trkpt>
      <trkpt lat="46.17037" lon="6.81673">
        <ele>1821.3403</ele>
        <time>2014-08-30T11:33:59Z</time>
      </trkpt>
      <trkpt lat="46.17031" lon="6.81674">
        <ele>1821.4707</ele>
        <time>2014-08-30T11:34:04Z</time>
      </trkpt>
      <trkpt lat="46.17024" lon="6.81673">
        <ele>1821.4707</ele>
        <time>2014-08-30T11:34:09Z</time>
      </trkpt>
      <trkpt lat="46.17018" lon="6.81672">
        <ele>1821.6537</ele>
        <time>2014-08-30T11:34:14Z</time>
      </trkpt>
      <trkpt lat="46.17013" lon="6.81669">
        <ele>1821.6537</ele>
        <time>2014-08-30T11:34:19Z</time>
      </trkpt>
      <trkpt lat="46.17013" lon="6.81669">
        <ele>1821.6537</ele>
        <time>2014-08-30T11:34:24Z</time>
      </trkpt>
      <trkpt lat="46.17013" lon="6.81669">
        <ele>1821.6537</ele>
        <time>2014-08-30T11:34:29Z</time>
      </trkpt>
      <trkpt lat="46.1701" lon="6.81666">
        <ele>1822.0277</ele>
        <time>2014-08-30T11:34:34Z</time>
      </trkpt>
      <trkpt lat="46.17007" lon="6.81662">
        <ele>1822.0277</ele>
        <time>2014-08-30T11:34:39Z</time>
      </trkpt>
      <trkpt lat="46.17005" lon="6.81656">
        <ele>1822.0277</ele>
        <time>2014-08-30T11:34:44Z</time>
      </trkpt>
      <trkpt lat="46.17002" lon="6.8165">
        <ele>1822.3458</ele>
        <time>2014-08-30T11:34:49Z</time>
      </trkpt>
      <trkpt lat="46.16998" lon="6.81642">
        <ele>1822.3458</ele>
        <time>2014-08-30T11:34:54Z</time>
      </trkpt>
      <trkpt lat="46.16993" lon="6.81634">
        <ele>1822.6384</ele>
        <time>2014-08-30T11:34:59Z</time>
      </trkpt>
      <trkpt lat="46.16989" lon="6.81627">
        <ele>1822.6384</ele>
        <time>2014-08-30T11:35:04Z</time>
      </trkpt>
      <trkpt lat="46.16985" lon="6.81622">
        <ele>1822.9341</ele>
        <time>2014-08-30T11:35:09Z</time>
      </trkpt>
      <trkpt lat="46.16982" lon="6.81617">
        <ele>1822.9341</ele>
        <time>2014-08-30T11:35:14Z</time>
      </trkpt>
      <trkpt lat="46.16978" lon="6.81608">
        <ele>1823.1729</ele>
        <time>2014-08-30T11:35:19Z</time>
      </trkpt>
      <trkpt lat="46.16974" lon="6.81602">
        <ele>1823.1729</ele>
        <time>2014-08-30T11:35:24Z</time>
      </trkpt>
      <trkpt lat="46.16971" lon="6.81596">
        <ele>1823.3712</ele>
        <time>2014-08-30T11:35:29Z</time>
      </trkpt>
      <trkpt lat="46.16966" lon="6.8159">
        <ele>1823.3712</ele>
        <time>2014-08-30T11:35:34Z</time>
      </trkpt>
      <trkpt lat="46.16963" lon="6.8158">
        <ele>1823.588</ele>
        <time>2014-08-30T11:35:39Z</time>
      </trkpt>
      <trkpt lat="46.16963" lon="6.81573">
        <ele>1823.588</ele>
        <time>2014-08-30T11:35:44Z</time>
      </trkpt>
      <trkpt lat="46.16962" lon="6.81568">
        <ele>1823.588</ele>
        <time>2014-08-30T11:35:49Z</time>
      </trkpt>
      <trkpt lat="46.16962" lon="6.81568">
        <ele>1823.588</ele>
        <time>2014-08-30T11:35:54Z</time>
      </trkpt>
      <trkpt lat="46.16962" lon="6.81569">
        <ele>1823.7048</ele>
        <time>2014-08-30T11:35:59Z</time>
      </trkpt>
      <trkpt lat="46.16962" lon="6.81569">
        <ele>1823.7048</ele>
        <time>2014-08-30T11:36:04Z</time>
      </trkpt>
      <trkpt lat="46.16963" lon="6.81572">
        <ele>1823.7048</ele>
        <time>2014-08-30T11:36:09Z</time>
      </trkpt>
      <trkpt lat="46.16963" lon="6.81572">
        <ele>1823.7048</ele>
        <time>2014-08-30T11:36:14Z</time>
      </trkpt>
      <trkpt lat="46.16963" lon="6.81573">
        <ele>1823.7048</ele>
        <time>2014-08-30T11:36:19Z</time>
      </trkpt>
      <trkpt lat="46.16963" lon="6.81573">
        <ele>1823.7048</ele>
        <time>2014-08-30T11:36:24Z</time>
      </trkpt>
      <trkpt lat="46.16963" lon="6.81569">
        <ele>1823.7048</ele>
        <time>2014-08-30T11:36:29Z</time>
      </trkpt>
      <trkpt lat="46.16966" lon="6.81554">
        <ele>1823.6409</ele>
        <time>2014-08-30T11:36:34Z</time>
      </trkpt>
      <trkpt lat="46.16967" lon="6.81545">
        <ele>1823.6409</ele>
        <time>2014-08-30T11:36:39Z</time>
      </trkpt>
      <trkpt lat="46.16968" lon="6.81536">
        <ele>1823.2933</ele>
        <time>2014-08-30T11:36:44Z</time>
      </trkpt>
      <trkpt lat="46.16968" lon="6.81526">
        <ele>1823.2933</ele>
        <time>2014-08-30T11:36:49Z</time>
      </trkpt>
      <trkpt lat="46.16967" lon="6.81516">
        <ele>1822.8269</ele>
        <time>2014-08-30T11:36:54Z</time>
      </trkpt>
      <trkpt lat="46.16966" lon="6.81506">
        <ele>1822.8269</ele>
        <time>2014-08-30T11:36:59Z</time>
      </trkpt>
      <trkpt lat="46.16964" lon="6.81496">
        <ele>1822.2218</ele>
        <time>2014-08-30T11:37:04Z</time>
      </trkpt>
      <trkpt lat="46.16961" lon="6.81489">
        <ele>1822.2218</ele>
        <time>2014-08-30T11:37:09Z</time>
      </trkpt>
      <trkpt lat="46.16957" lon="6.81481">
        <ele>1821.5609</ele>
        <time>2014-08-30T11:37:14Z</time>
      </trkpt>
      <trkpt lat="46.16954" lon="6.81478">
        <ele>1821.5609</ele>
        <time>2014-08-30T11:37:19Z</time>
      </trkpt>
      <trkpt lat="46.16949" lon="6.81471">
        <ele>1820.9213</ele>
        <time>2014-08-30T11:37:24Z</time>
      </trkpt>
      <trkpt lat="46.16945" lon="6.81466">
        <ele>1820.9213</ele>
        <time>2014-08-30T11:37:29Z</time>
      </trkpt>
      <trkpt lat="46.16941" lon="6.81458">
        <ele>1820.2733</ele>
        <time>2014-08-30T11:37:34Z</time>
      </trkpt>
      <trkpt lat="46.16937" lon="6.81452">
        <ele>1820.2733</ele>
        <time>2014-08-30T11:37:39Z</time>
      </trkpt>
      <trkpt lat="46.16933" lon="6.81445">
        <ele>1819.7194</ele>
        <time>2014-08-30T11:37:44Z</time>
      </trkpt>
      <trkpt lat="46.16928" lon="6.81437">
        <ele>1819.7194</ele>
        <time>2014-08-30T11:37:49Z</time>
      </trkpt>
      <trkpt lat="46.16926" lon="6.81431">
        <ele>1819.2389</ele>
        <time>2014-08-30T11:37:54Z</time>
      </trkpt>
      <trkpt lat="46.16922" lon="6.81426">
        <ele>1819.2389</ele>
        <time>2014-08-30T11:37:59Z</time>
      </trkpt>
      <trkpt lat="46.16916" lon="6.8142">
        <ele>1818.7834</ele>
        <time>2014-08-30T11:38:04Z</time>
      </trkpt>
      <trkpt lat="46.16913" lon="6.81414">
        <ele>1818.7834</ele>
        <time>2014-08-30T11:38:09Z</time>
      </trkpt>
      <trkpt lat="46.16908" lon="6.81407">
        <ele>1818.2509</ele>
        <time>2014-08-30T11:38:14Z</time>
      </trkpt>
      <trkpt lat="46.16905" lon="6.81402">
        <ele>1818.2509</ele>
        <time>2014-08-30T11:38:19Z</time>
      </trkpt>
      <trkpt lat="46.169" lon="6.81395">
        <ele>1817.7051</ele>
        <time>2014-08-30T11:38:24Z</time>
      </trkpt>
      <trkpt lat="46.16895" lon="6.8139">
        <ele>1817.7051</ele>
        <time>2014-08-30T11:38:29Z</time>
      </trkpt>
      <trkpt lat="46.16891" lon="6.81382">
        <ele>1817.1764</ele>
        <time>2014-08-30T11:38:34Z</time>
      </trkpt>
      <trkpt lat="46.16889" lon="6.81374">
        <ele>1817.1764</ele>
        <time>2014-08-30T11:38:39Z</time>
      </trkpt>
      <trkpt lat="46.16887" lon="6.81367">
        <ele>1816.5779</ele>
        <time>2014-08-30T11:38:44Z</time>
      </trkpt>
      <trkpt lat="46.16884" lon="6.81357">
        <ele>1816.5779</ele>
        <time>2014-08-30T11:38:49Z</time>
      </trkpt>
      <trkpt lat="46.16883" lon="6.81349">
        <ele>1815.9153</ele>
        <time>2014-08-30T11:38:54Z</time>
      </trkpt>
      <trkpt lat="46.16879" lon="6.81344">
        <ele>1815.9153</ele>
        <time>2014-08-30T11:38:59Z</time>
      </trkpt>
      <trkpt lat="46.16874" lon="6.81337">
        <ele>1815.2377</ele>
        <time>2014-08-30T11:39:04Z</time>
      </trkpt>
      <trkpt lat="46.1687" lon="6.81332">
        <ele>1815.2377</ele>
        <time>2014-08-30T11:39:09Z</time>
      </trkpt>
      <trkpt lat="46.16864" lon="6.81326">
        <ele>1814.5328</ele>
        <time>2014-08-30T11:39:14Z</time>
      </trkpt>
      <trkpt lat="46.16858" lon="6.81318">
        <ele>1814.5328</ele>
        <time>2014-08-30T11:39:19Z</time>
      </trkpt>
      <trkpt lat="46.16854" lon="6.81311">
        <ele>1813.9045</ele>
        <time>2014-08-30T11:39:24Z</time>
      </trkpt>
      <trkpt lat="46.16852" lon="6.81305">
        <ele>1813.9045</ele>
        <time>2014-08-30T11:39:29Z</time>
      </trkpt>
      <trkpt lat="46.16848" lon="6.81298">
        <ele>1813.3049</ele>
        <time>2014-08-30T11:39:34Z</time>
      </trkpt>
      <trkpt lat="46.16844" lon="6.81291">
        <ele>1813.3049</ele>
        <time>2014-08-30T11:39:39Z</time>
      </trkpt>
      <trkpt lat="46.16842" lon="6.81284">
        <ele>1812.6749</ele>
        <time>2014-08-30T11:39:44Z</time>
      </trkpt>
      <trkpt lat="46.16839" lon="6.81277">
        <ele>1812.6749</ele>
        <time>2014-08-30T11:39:49Z</time>
      </trkpt>
      <trkpt lat="46.16836" lon="6.81271">
        <ele>1811.9746</ele>
        <time>2014-08-30T11:39:54Z</time>
      </trkpt>
      <trkpt lat="46.16833" lon="6.81263">
        <ele>1811.9746</ele>
        <time>2014-08-30T11:39:59Z</time>
      </trkpt>
      <trkpt lat="46.1683" lon="6.81253">
        <ele>1811.1235</ele>
        <time>2014-08-30T11:40:04Z</time>
      </trkpt>
      <trkpt lat="46.16829" lon="6.81244">
        <ele>1811.1235</ele>
        <time>2014-08-30T11:40:09Z</time>
      </trkpt>
      <trkpt lat="46.16825" lon="6.81238">
        <ele>1810.0767</ele>
        <time>2014-08-30T11:40:14Z</time>
      </trkpt>
      <trkpt lat="46.1682" lon="6.81232">
        <ele>1810.0767</ele>
        <time>2014-08-30T11:40:19Z</time>
      </trkpt>
      <trkpt lat="46.16814" lon="6.81228">
        <ele>1809.0376</ele>
        <time>2014-08-30T11:40:24Z</time>
      </trkpt>
      <trkpt lat="46.16807" lon="6.81228">
        <ele>1809.0376</ele>
        <time>2014-08-30T11:40:29Z</time>
      </trkpt>
      <trkpt lat="46.16801" lon="6.8123">
        <ele>1808.0222</ele>
        <time>2014-08-30T11:40:34Z</time>
      </trkpt>
      <trkpt lat="46.16795" lon="6.81229">
        <ele>1808.0222</ele>
        <time>2014-08-30T11:40:39Z</time>
      </trkpt>
      <trkpt lat="46.1679" lon="6.81226">
        <ele>1807.0305</ele>
        <time>2014-08-30T11:40:44Z</time>
      </trkpt>
      <trkpt lat="46.16784" lon="6.81221">
        <ele>1807.0305</ele>
        <time>2014-08-30T11:40:49Z</time>
      </trkpt>
      <trkpt lat="46.1678" lon="6.81212">
        <ele>1806.178</ele>
        <time>2014-08-30T11:40:54Z</time>
      </trkpt>
      <trkpt lat="46.16778" lon="6.81208">
        <ele>1806.178</ele>
        <time>2014-08-30T11:40:59Z</time>
      </trkpt>
      <trkpt lat="46.16777" lon="6.812">
        <ele>1805.3114</ele>
        <time>2014-08-30T11:41:04Z</time>
      </trkpt>
      <trkpt lat="46.16772" lon="6.81195">
        <ele>1805.3114</ele>
        <time>2014-08-30T11:41:09Z</time>
      </trkpt>
      <trkpt lat="46.16766" lon="6.81192">
        <ele>1804.4187</ele>
        <time>2014-08-30T11:41:14Z</time>
      </trkpt>
      <trkpt lat="46.16759" lon="6.81189">
        <ele>1804.4187</ele>
        <time>2014-08-30T11:41:19Z</time>
      </trkpt>
      <trkpt lat="46.16752" lon="6.81186">
        <ele>1803.5898</ele>
        <time>2014-08-30T11:41:24Z</time>
      </trkpt>
      <trkpt lat="46.16747" lon="6.81183">
        <ele>1803.5898</ele>
        <time>2014-08-30T11:41:29Z</time>
      </trkpt>
      <trkpt lat="46.16743" lon="6.81177">
        <ele>1802.9075</ele>
        <time>2014-08-30T11:41:34Z</time>
      </trkpt>
      <trkpt lat="46.16739" lon="6.81173">
        <ele>1802.9075</ele>
        <time>2014-08-30T11:41:39Z</time>
      </trkpt>
      <trkpt lat="46.16734" lon="6.81171">
        <ele>1802.2753</ele>
        <time>2014-08-30T11:41:44Z</time>
      </trkpt>
      <trkpt lat="46.16729" lon="6.81169">
        <ele>1802.2753</ele>
        <time>2014-08-30T11:41:49Z</time>
      </trkpt>
      <trkpt lat="46.16724" lon="6.81164">
        <ele>1801.5747</ele>
        <time>2014-08-30T11:41:54Z</time>
      </trkpt>
      <trkpt lat="46.16719" lon="6.81158">
        <ele>1801.5747</ele>
        <time>2014-08-30T11:41:59Z</time>
      </trkpt>
      <trkpt lat="46.16716" lon="6.81153">
        <ele>1800.898</ele>
        <time>2014-08-30T11:42:04Z</time>
      </trkpt>
      <trkpt lat="46.16711" lon="6.81148">
        <ele>1800.898</ele>
        <time>2014-08-30T11:42:09Z</time>
      </trkpt>
      <trkpt lat="46.16708" lon="6.81143">
        <ele>1800.215</ele>
        <time>2014-08-30T11:42:14Z</time>
      </trkpt>
      <trkpt lat="46.16705" lon="6.81134">
        <ele>1800.215</ele>
        <time>2014-08-30T11:42:19Z</time>
      </trkpt>
      <trkpt lat="46.16703" lon="6.81127">
        <ele>1799.5123</ele>
        <time>2014-08-30T11:42:24Z</time>
      </trkpt>
      <trkpt lat="46.16701" lon="6.81119">
        <ele>1799.5123</ele>
        <time>2014-08-30T11:42:29Z</time>
      </trkpt>
      <trkpt lat="46.16699" lon="6.81111">
        <ele>1798.7344</ele>
        <time>2014-08-30T11:42:34Z</time>
      </trkpt>
      <trkpt lat="46.16696" lon="6.811">
        <ele>1798.7344</ele>
        <time>2014-08-30T11:42:39Z</time>
      </trkpt>
      <trkpt lat="46.16693" lon="6.81094">
        <ele>1797.8732</ele>
        <time>2014-08-30T11:42:44Z</time>
      </trkpt>
      <trkpt lat="46.16689" lon="6.81087">
        <ele>1797.8732</ele>
        <time>2014-08-30T11:42:49Z</time>
      </trkpt>
      <trkpt lat="46.16686" lon="6.81079">
        <ele>1796.9645</ele>
        <time>2014-08-30T11:42:54Z</time>
      </trkpt>
      <trkpt lat="46.16681" lon="6.81074">
        <ele>1796.9645</ele>
        <time>2014-08-30T11:42:59Z</time>
      </trkpt>
      <trkpt lat="46.16676" lon="6.8107">
        <ele>1796.0272</ele>
        <time>2014-08-30T11:43:04Z</time>
      </trkpt>
      <trkpt lat="46.16672" lon="6.81066">
        <ele>1796.0272</ele>
        <time>2014-08-30T11:43:09Z</time>
      </trkpt>
      <trkpt lat="46.16668" lon="6.81061">
        <ele>1795.0502</ele>
        <time>2014-08-30T11:43:14Z</time>
      </trkpt>
      <trkpt lat="46.16663" lon="6.81059">
        <ele>1795.0502</ele>
        <time>2014-08-30T11:43:19Z</time>
      </trkpt>
      <trkpt lat="46.16657" lon="6.81055">
        <ele>1794.0663</ele>
        <time>2014-08-30T11:43:24Z</time>
      </trkpt>
      <trkpt lat="46.16652" lon="6.81049">
        <ele>1794.0663</ele>
        <time>2014-08-30T11:43:29Z</time>
      </trkpt>
      <trkpt lat="46.16649" lon="6.81044">
        <ele>1793.1493</ele>
        <time>2014-08-30T11:43:34Z</time>
      </trkpt>
      <trkpt lat="46.16645" lon="6.8104">
        <ele>1793.1493</ele>
        <time>2014-08-30T11:43:39Z</time>
      </trkpt>
      <trkpt lat="46.16641" lon="6.81034">
        <ele>1792.2665</ele>
        <time>2014-08-30T11:43:44Z</time>
      </trkpt>
      <trkpt lat="46.16639" lon="6.81028">
        <ele>1792.2665</ele>
        <time>2014-08-30T11:43:49Z</time>
      </trkpt>
      <trkpt lat="46.16636" lon="6.81024">
        <ele>1792.2665</ele>
        <time>2014-08-30T11:43:54Z</time>
      </trkpt>
      <trkpt lat="46.16636" lon="6.81023">
        <ele>1791.5024</ele>
        <time>2014-08-30T11:43:59Z</time>
      </trkpt>
      <trkpt lat="46.16636" lon="6.81023">
        <ele>1791.5024</ele>
        <time>2014-08-30T11:44:04Z</time>
      </trkpt>
      <trkpt lat="46.16634" lon="6.81021">
        <ele>1791.5024</ele>
        <time>2014-08-30T11:44:09Z</time>
      </trkpt>
      <trkpt lat="46.16633" lon="6.8102">
        <ele>1791.5024</ele>
        <time>2014-08-30T11:44:14Z</time>
      </trkpt>
      <trkpt lat="46.16632" lon="6.81021">
        <ele>1791.5024</ele>
        <time>2014-08-30T11:44:19Z</time>
      </trkpt>
      <trkpt lat="46.16631" lon="6.8102">
        <ele>1791.5024</ele>
        <time>2014-08-30T11:44:24Z</time>
      </trkpt>
      <trkpt lat="46.1663" lon="6.81019">
        <ele>1791.5024</ele>
        <time>2014-08-30T11:44:29Z</time>
      </trkpt>
      <trkpt lat="46.16631" lon="6.81017">
        <ele>1790.748</ele>
        <time>2014-08-30T11:44:34Z</time>
      </trkpt>
      <trkpt lat="46.16628" lon="6.81012">
        <ele>1790.748</ele>
        <time>2014-08-30T11:44:39Z</time>
      </trkpt>
      <trkpt lat="46.16623" lon="6.81013">
        <ele>1790.1615</ele>
        <time>2014-08-30T11:44:44Z</time>
      </trkpt>
      <trkpt lat="46.16622" lon="6.81013">
        <ele>1790.1615</ele>
        <time>2014-08-30T11:44:49Z</time>
      </trkpt>
      <trkpt lat="46.16623" lon="6.81013">
        <ele>1790.1615</ele>
        <time>2014-08-30T11:44:54Z</time>
      </trkpt>
      <trkpt lat="46.16624" lon="6.81013">
        <ele>1790.1615</ele>
        <time>2014-08-30T11:44:59Z</time>
      </trkpt>
      <trkpt lat="46.16624" lon="6.81013">
        <ele>1790.1615</ele>
        <time>2014-08-30T11:45:04Z</time>
      </trkpt>
      <trkpt lat="46.16623" lon="6.81013">
        <ele>1790.1615</ele>
        <time>2014-08-30T11:45:09Z</time>
      </trkpt>
      <trkpt lat="46.16619" lon="6.81011">
        <ele>1790.1615</ele>
        <time>2014-08-30T11:45:14Z</time>
      </trkpt>
      <trkpt lat="46.16615" lon="6.81008">
        <ele>1789.7448</ele>
        <time>2014-08-30T11:45:19Z</time>
      </trkpt>
      <trkpt lat="46.16612" lon="6.81004">
        <ele>1789.7448</ele>
        <time>2014-08-30T11:45:24Z</time>
      </trkpt>
      <trkpt lat="46.16611" lon="6.81002">
        <ele>1789.7448</ele>
        <time>2014-08-30T11:45:29Z</time>
      </trkpt>
      <trkpt lat="46.1661" lon="6.81003">
        <ele>1789.7448</ele>
        <time>2014-08-30T11:45:34Z</time>
      </trkpt>
      <trkpt lat="46.16611" lon="6.81004">
        <ele>1789.7448</ele>
        <time>2014-08-30T11:45:39Z</time>
      </trkpt>
      <trkpt lat="46.16611" lon="6.81005">
        <ele>1789.4415</ele>
        <time>2014-08-30T11:45:44Z</time>
      </trkpt>
      <trkpt lat="46.1661" lon="6.81006">
        <ele>1789.4415</ele>
        <time>2014-08-30T11:45:49Z</time>
      </trkpt>
      <trkpt lat="46.16608" lon="6.81006">
        <ele>1789.4415</ele>
        <time>2014-08-30T11:45:54Z</time>
      </trkpt>
      <trkpt lat="46.16606" lon="6.81004">
        <ele>1789.4415</ele>
        <time>2014-08-30T11:45:59Z</time>
      </trkpt>
      <trkpt lat="46.16607" lon="6.81003">
        <ele>1789.4415</ele>
        <time>2014-08-30T11:46:04Z</time>
      </trkpt>
      <trkpt lat="46.16607" lon="6.81003">
        <ele>1789.4415</ele>
        <time>2014-08-30T11:46:09Z</time>
      </trkpt>
      <trkpt lat="46.16602" lon="6.81">
        <ele>1789.055</ele>
        <time>2014-08-30T11:46:14Z</time>
      </trkpt>
      <trkpt lat="46.16598" lon="6.80996">
        <ele>1789.055</ele>
        <time>2014-08-30T11:46:19Z</time>
      </trkpt>
      <trkpt lat="46.16596" lon="6.80987">
        <ele>1788.7349</ele>
        <time>2014-08-30T11:46:24Z</time>
      </trkpt>
      <trkpt lat="46.16595" lon="6.80981">
        <ele>1788.7349</ele>
        <time>2014-08-30T11:46:29Z</time>
      </trkpt>
      <trkpt lat="46.16594" lon="6.80973">
        <ele>1788.3887</ele>
        <time>2014-08-30T11:46:34Z</time>
      </trkpt>
      <trkpt lat="46.16593" lon="6.80973">
        <ele>1788.3887</ele>
        <time>2014-08-30T11:46:39Z</time>
      </trkpt>
      <trkpt lat="46.16592" lon="6.80968">
        <ele>1788.3887</ele>
        <time>2014-08-30T11:46:44Z</time>
      </trkpt>
      <trkpt lat="46.16594" lon="6.80962">
        <ele>1788.3887</ele>
        <time>2014-08-30T11:46:49Z</time>
      </trkpt>
      <trkpt lat="46.16598" lon="6.80952">
        <ele>1787.9453</ele>
        <time>2014-08-30T11:46:54Z</time>
      </trkpt>
      <trkpt lat="46.16601" lon="6.80945">
        <ele>1787.9453</ele>
        <time>2014-08-30T11:46:59Z</time>
      </trkpt>
      <trkpt lat="46.16603" lon="6.80935">
        <ele>1787.3682</ele>
        <time>2014-08-30T11:47:04Z</time>
      </trkpt>
      <trkpt lat="46.16606" lon="6.80927">
        <ele>1787.3682</ele>
        <time>2014-08-30T11:47:09Z</time>
      </trkpt>
      <trkpt lat="46.16607" lon="6.80916">
        <ele>1786.6091</ele>
        <time>2014-08-30T11:47:14Z</time>
      </trkpt>
      <trkpt lat="46.16608" lon="6.80909">
        <ele>1786.6091</ele>
        <time>2014-08-30T11:47:19Z</time>
      </trkpt>
      <trkpt lat="46.16608" lon="6.80906">
        <ele>1786.6091</ele>
        <time>2014-08-30T11:47:24Z</time>
      </trkpt>
      <trkpt lat="46.1661" lon="6.80895">
        <ele>1785.5952</ele>
        <time>2014-08-30T11:47:29Z</time>
      </trkpt>
      <trkpt lat="46.16612" lon="6.80886">
        <ele>1785.5952</ele>
        <time>2014-08-30T11:47:34Z</time>
      </trkpt>
      <trkpt lat="46.16614" lon="6.80878">
        <ele>1784.4758</ele>
        <time>2014-08-30T11:47:39Z</time>
      </trkpt>
      <trkpt lat="46.16615" lon="6.80876">
        <ele>1784.4758</ele>
        <time>2014-08-30T11:47:44Z</time>
      </trkpt>
      <trkpt lat="46.16616" lon="6.80874">
        <ele>1784.4758</ele>
        <time>2014-08-30T11:47:49Z</time>
      </trkpt>
      <trkpt lat="46.16616" lon="6.80872">
        <ele>1784.4758</ele>
        <time>2014-08-30T11:47:54Z</time>
      </trkpt>
      <trkpt lat="46.16616" lon="6.80866">
        <ele>1784.4758</ele>
        <time>2014-08-30T11:47:59Z</time>
      </trkpt>
      <trkpt lat="46.16611" lon="6.80863">
        <ele>1783.2024</ele>
        <time>2014-08-30T11:48:04Z</time>
      </trkpt>
      <trkpt lat="46.16608" lon="6.80863">
        <ele>1783.2024</ele>
        <time>2014-08-30T11:48:09Z</time>
      </trkpt>
      <trkpt lat="46.16602" lon="6.80865">
        <ele>1781.9463</ele>
        <time>2014-08-30T11:48:14Z</time>
      </trkpt>
      <trkpt lat="46.16598" lon="6.80863">
        <ele>1781.9463</ele>
        <time>2014-08-30T11:48:19Z</time>
      </trkpt>
      <trkpt lat="46.16593" lon="6.80859">
        <ele>1780.8519</ele>
        <time>2014-08-30T11:48:24Z</time>
      </trkpt>
      <trkpt lat="46.16588" lon="6.80855">
        <ele>1780.8519</ele>
        <time>2014-08-30T11:48:29Z</time>
      </trkpt>
      <trkpt lat="46.16585" lon="6.80848">
        <ele>1779.8364</ele>
        <time>2014-08-30T11:48:34Z</time>
      </trkpt>
      <trkpt lat="46.16584" lon="6.80841">
        <ele>1779.8364</ele>
        <time>2014-08-30T11:48:39Z</time>
      </trkpt>
      <trkpt lat="46.16582" lon="6.80839">
        <ele>1779.8364</ele>
        <time>2014-08-30T11:48:44Z</time>
      </trkpt>
      <trkpt lat="46.16578" lon="6.80835">
        <ele>1778.7798</ele>
        <time>2014-08-30T11:48:49Z</time>
      </trkpt>
      <trkpt lat="46.16575" lon="6.80828">
        <ele>1778.7798</ele>
        <time>2014-08-30T11:48:54Z</time>
      </trkpt>
      <trkpt lat="46.16573" lon="6.80823">
        <ele>1777.7145</ele>
        <time>2014-08-30T11:48:59Z</time>
      </trkpt>
      <trkpt lat="46.16572" lon="6.8082">
        <ele>1777.7145</ele>
        <time>2014-08-30T11:49:04Z</time>
      </trkpt>
      <trkpt lat="46.16568" lon="6.80816">
        <ele>1777.7145</ele>
        <time>2014-08-30T11:49:09Z</time>
      </trkpt>
      <trkpt lat="46.16564" lon="6.80815">
        <ele>1776.4263</ele>
        <time>2014-08-30T11:49:14Z</time>
      </trkpt>
      <trkpt lat="46.16559" lon="6.80818">
        <ele>1776.4263</ele>
        <time>2014-08-30T11:49:19Z</time>
      </trkpt>
      <trkpt lat="46.16558" lon="6.80823">
        <ele>1776.4263</ele>
        <time>2014-08-30T11:49:24Z</time>
      </trkpt>
      <trkpt lat="46.16556" lon="6.80823">
        <ele>1774.9906</ele>
        <time>2014-08-30T11:49:29Z</time>
      </trkpt>
      <trkpt lat="46.16553" lon="6.80819">
        <ele>1774.9906</ele>
        <time>2014-08-30T11:49:34Z</time>
      </trkpt>
      <trkpt lat="46.16552" lon="6.80817">
        <ele>1774.9906</ele>
        <time>2014-08-30T11:49:39Z</time>
      </trkpt>
      <trkpt lat="46.1655" lon="6.8081">
        <ele>1773.2616</ele>
        <time>2014-08-30T11:49:44Z</time>
      </trkpt>
      <trkpt lat="46.16548" lon="6.808">
        <ele>1773.2616</ele>
        <time>2014-08-30T11:49:49Z</time>
      </trkpt>
      <trkpt lat="46.16548" lon="6.80786">
        <ele>1771.5231</ele>
        <time>2014-08-30T11:49:54Z</time>
      </trkpt>
      <trkpt lat="46.16547" lon="6.80779">
        <ele>1771.5231</ele>
        <time>2014-08-30T11:49:59Z</time>
      </trkpt>
      <trkpt lat="46.16545" lon="6.80774">
        <ele>1769.7352</ele>
        <time>2014-08-30T11:50:04Z</time>
      </trkpt>
      <trkpt lat="46.16542" lon="6.80767">
        <ele>1769.7352</ele>
        <time>2014-08-30T11:50:09Z</time>
      </trkpt>
      <trkpt lat="46.16538" lon="6.80761">
        <ele>1767.8757</ele>
        <time>2014-08-30T11:50:14Z</time>
      </trkpt>
      <trkpt lat="46.16535" lon="6.80757">
        <ele>1767.8757</ele>
        <time>2014-08-30T11:50:19Z</time>
      </trkpt>
      <trkpt lat="46.16531" lon="6.80753">
        <ele>1766.1112</ele>
        <time>2014-08-30T11:50:24Z</time>
      </trkpt>
      <trkpt lat="46.16528" lon="6.80748">
        <ele>1766.1112</ele>
        <time>2014-08-30T11:50:29Z</time>
      </trkpt>
      <trkpt lat="46.16527" lon="6.80742">
        <ele>1764.351</ele>
        <time>2014-08-30T11:50:34Z</time>
      </trkpt>
      <trkpt lat="46.16525" lon="6.80736">
        <ele>1764.351</ele>
        <time>2014-08-30T11:50:39Z</time>
      </trkpt>
      <trkpt lat="46.16524" lon="6.80727">
        <ele>1762.482</ele>
        <time>2014-08-30T11:50:44Z</time>
      </trkpt>
      <trkpt lat="46.16523" lon="6.80722">
        <ele>1762.482</ele>
        <time>2014-08-30T11:50:49Z</time>
      </trkpt>
      <trkpt lat="46.16524" lon="6.80717">
        <ele>1762.482</ele>
        <time>2014-08-30T11:50:54Z</time>
      </trkpt>
      <trkpt lat="46.16522" lon="6.80712">
        <ele>1760.443</ele>
        <time>2014-08-30T11:50:59Z</time>
      </trkpt>
      <trkpt lat="46.16526" lon="6.80706">
        <ele>1760.443</ele>
        <time>2014-08-30T11:51:04Z</time>
      </trkpt>
      <trkpt lat="46.16527" lon="6.80702">
        <ele>1760.443</ele>
        <time>2014-08-30T11:51:09Z</time>
      </trkpt>
      <trkpt lat="46.16528" lon="6.80702">
        <ele>1758.4083</ele>
        <time>2014-08-30T11:51:14Z</time>
      </trkpt>
      <trkpt lat="46.16529" lon="6.80702">
        <ele>1758.4083</ele>
        <time>2014-08-30T11:51:19Z</time>
      </trkpt>
      <trkpt lat="46.16528" lon="6.80704">
        <ele>1758.4083</ele>
        <time>2014-08-30T11:51:24Z</time>
      </trkpt>
      <trkpt lat="46.16528" lon="6.80703">
        <ele>1758.4083</ele>
        <time>2014-08-30T11:51:29Z</time>
      </trkpt>
      <trkpt lat="46.16524" lon="6.80699">
        <ele>1758.4083</ele>
        <time>2014-08-30T11:51:34Z</time>
      </trkpt>
      <trkpt lat="46.16523" lon="6.8069">
        <ele>1756.1213</ele>
        <time>2014-08-30T11:51:39Z</time>
      </trkpt>
      <trkpt lat="46.16521" lon="6.80682">
        <ele>1756.1213</ele>
        <time>2014-08-30T11:51:44Z</time>
      </trkpt>
      <trkpt lat="46.1652" lon="6.80673">
        <ele>1753.8494</ele>
        <time>2014-08-30T11:51:49Z</time>
      </trkpt>
      <trkpt lat="46.16517" lon="6.80665">
        <ele>1753.8494</ele>
        <time>2014-08-30T11:51:54Z</time>
      </trkpt>
      <trkpt lat="46.16516" lon="6.8066">
        <ele>1751.7246</ele>
        <time>2014-08-30T11:51:59Z</time>
      </trkpt>
      <trkpt lat="46.16516" lon="6.8065">
        <ele>1751.7246</ele>
        <time>2014-08-30T11:52:04Z</time>
      </trkpt>
      <trkpt lat="46.16515" lon="6.80643">
        <ele>1749.682</ele>
        <time>2014-08-30T11:52:09Z</time>
      </trkpt>
      <trkpt lat="46.16514" lon="6.8064">
        <ele>1749.682</ele>
        <time>2014-08-30T11:52:14Z</time>
      </trkpt>
      <trkpt lat="46.16511" lon="6.80634">
        <ele>1749.682</ele>
        <time>2014-08-30T11:52:19Z</time>
      </trkpt>
      <trkpt lat="46.1651" lon="6.80626">
        <ele>1747.4877</ele>
        <time>2014-08-30T11:52:24Z</time>
      </trkpt>
      <trkpt lat="46.16509" lon="6.80618">
        <ele>1747.4877</ele>
        <time>2014-08-30T11:52:29Z</time>
      </trkpt>
      <trkpt lat="46.16508" lon="6.8061">
        <ele>1745.4297</ele>
        <time>2014-08-30T11:52:34Z</time>
      </trkpt>
      <trkpt lat="46.16506" lon="6.80605">
        <ele>1745.4297</ele>
        <time>2014-08-30T11:52:39Z</time>
      </trkpt>
      <trkpt lat="46.16504" lon="6.80598">
        <ele>1745.4297</ele>
        <time>2014-08-30T11:52:44Z</time>
      </trkpt>
      <trkpt lat="46.16504" lon="6.80591">
        <ele>1743.2991</ele>
        <time>2014-08-30T11:52:49Z</time>
      </trkpt>
      <trkpt lat="46.16507" lon="6.80579">
        <ele>1741.277</ele>
        <time>2014-08-30T11:52:54Z</time>
      </trkpt>
      <trkpt lat="46.16506" lon="6.80575">
        <ele>1741.277</ele>
        <time>2014-08-30T11:52:59Z</time>
      </trkpt>
      <trkpt lat="46.16506" lon="6.80573">
        <ele>1741.277</ele>
        <time>2014-08-30T11:53:04Z</time>
      </trkpt>
      <trkpt lat="46.16506" lon="6.80574">
        <ele>1741.277</ele>
        <time>2014-08-30T11:53:09Z</time>
      </trkpt>
      <trkpt lat="46.16508" lon="6.80568">
        <ele>1741.277</ele>
        <time>2014-08-30T11:53:14Z</time>
      </trkpt>
      <trkpt lat="46.1651" lon="6.80559">
        <ele>1739.2426</ele>
        <time>2014-08-30T11:53:19Z</time>
      </trkpt>
      <trkpt lat="46.16508" lon="6.80547">
        <ele>1739.2426</ele>
        <time>2014-08-30T11:53:24Z</time>
      </trkpt>
      <trkpt lat="46.16505" lon="6.80544">
        <ele>1737.2279</ele>
        <time>2014-08-30T11:53:29Z</time>
      </trkpt>
      <trkpt lat="46.16501" lon="6.80538">
        <ele>1737.2279</ele>
        <time>2014-08-30T11:53:34Z</time>
      </trkpt>
      <trkpt lat="46.16497" lon="6.80533">
        <ele>1735.1473</ele>
        <time>2014-08-30T11:53:39Z</time>
      </trkpt>
      <trkpt lat="46.16495" lon="6.80528">
        <ele>1735.1473</ele>
        <time>2014-08-30T11:53:44Z</time>
      </trkpt>
      <trkpt lat="46.16492" lon="6.80525">
        <ele>1735.1473</ele>
        <time>2014-08-30T11:53:49Z</time>
      </trkpt>
      <trkpt lat="46.16489" lon="6.80519">
        <ele>1732.763</ele>
        <time>2014-08-30T11:53:54Z</time>
      </trkpt>
      <trkpt lat="46.16486" lon="6.80513">
        <ele>1732.763</ele>
        <time>2014-08-30T11:53:59Z</time>
      </trkpt>
      <trkpt lat="46.16485" lon="6.80505">
        <ele>1730.5182</ele>
        <time>2014-08-30T11:54:04Z</time>
      </trkpt>
      <trkpt lat="46.16485" lon="6.805">
        <ele>1730.5182</ele>
        <time>2014-08-30T11:54:09Z</time>
      </trkpt>
      <trkpt lat="46.16486" lon="6.8049">
        <ele>1728.2467</ele>
        <time>2014-08-30T11:54:14Z</time>
      </trkpt>
      <trkpt lat="46.16487" lon="6.80482">
        <ele>1728.2467</ele>
        <time>2014-08-30T11:54:19Z</time>
      </trkpt>
      <trkpt lat="46.16484" lon="6.80475">
        <ele>1725.9963</ele>
        <time>2014-08-30T11:54:24Z</time>
      </trkpt>
      <trkpt lat="46.16481" lon="6.80475">
        <ele>1725.9963</ele>
        <time>2014-08-30T11:54:29Z</time>
      </trkpt>
      <trkpt lat="46.16475" lon="6.8048">
        <ele>1723.912</ele>
        <time>2014-08-30T11:54:34Z</time>
      </trkpt>
      <trkpt lat="46.16468" lon="6.80485">
        <ele>1723.912</ele>
        <time>2014-08-30T11:54:39Z</time>
      </trkpt>
      <trkpt lat="46.16461" lon="6.80488">
        <ele>1721.9978</ele>
        <time>2014-08-30T11:54:44Z</time>
      </trkpt>
      <trkpt lat="46.16455" lon="6.80488">
        <ele>1721.9978</ele>
        <time>2014-08-30T11:54:49Z</time>
      </trkpt>
      <trkpt lat="46.16448" lon="6.80491">
        <ele>1720.2714</ele>
        <time>2014-08-30T11:54:54Z</time>
      </trkpt>
      <trkpt lat="46.16442" lon="6.80491">
        <ele>1720.2714</ele>
        <time>2014-08-30T11:54:59Z</time>
      </trkpt>
      <trkpt lat="46.16438" lon="6.80493">
        <ele>1718.6473</ele>
        <time>2014-08-30T11:55:04Z</time>
      </trkpt>
      <trkpt lat="46.16437" lon="6.80494">
        <ele>1718.6473</ele>
        <time>2014-08-30T11:55:09Z</time>
      </trkpt>
      <trkpt lat="46.16435" lon="6.80495">
        <ele>1718.6473</ele>
        <time>2014-08-30T11:55:14Z</time>
      </trkpt>
      <trkpt lat="46.16432" lon="6.805">
        <ele>1718.6473</ele>
        <time>2014-08-30T11:55:19Z</time>
      </trkpt>
      <trkpt lat="46.16432" lon="6.80507">
        <ele>1716.8594</ele>
        <time>2014-08-30T11:55:24Z</time>
      </trkpt>
      <trkpt lat="46.16433" lon="6.80514">
        <ele>1716.8594</ele>
        <time>2014-08-30T11:55:29Z</time>
      </trkpt>
      <trkpt lat="46.16434" lon="6.80519">
        <ele>1716.8594</ele>
        <time>2014-08-30T11:55:34Z</time>
      </trkpt>
      <trkpt lat="46.16436" lon="6.80525">
        <ele>1714.891</ele>
        <time>2014-08-30T11:55:39Z</time>
      </trkpt>
      <trkpt lat="46.16437" lon="6.80531">
        <ele>1714.891</ele>
        <time>2014-08-30T11:55:44Z</time>
      </trkpt>
      <trkpt lat="46.16437" lon="6.80536">
        <ele>1714.891</ele>
        <time>2014-08-30T11:55:49Z</time>
      </trkpt>
      <trkpt lat="46.16437" lon="6.80544">
        <ele>1712.8434</ele>
        <time>2014-08-30T11:55:54Z</time>
      </trkpt>
      <trkpt lat="46.16436" lon="6.80553">
        <ele>1712.8434</ele>
        <time>2014-08-30T11:55:59Z</time>
      </trkpt>
      <trkpt lat="46.16436" lon="6.80557">
        <ele>1710.9395</ele>
        <time>2014-08-30T11:56:04Z</time>
      </trkpt>
      <trkpt lat="46.16433" lon="6.80563">
        <ele>1710.9395</ele>
        <time>2014-08-30T11:56:09Z</time>
      </trkpt>
      <trkpt lat="46.16429" lon="6.80565">
        <ele>1709.1118</ele>
        <time>2014-08-30T11:56:14Z</time>
      </trkpt>
      <trkpt lat="46.16423" lon="6.80561">
        <ele>1709.1118</ele>
        <time>2014-08-30T11:56:19Z</time>
      </trkpt>
      <trkpt lat="46.16419" lon="6.80556">
        <ele>1707.3411</ele>
        <time>2014-08-30T11:56:24Z</time>
      </trkpt>
      <trkpt lat="46.16417" lon="6.8055">
        <ele>1707.3411</ele>
        <time>2014-08-30T11:56:29Z</time>
      </trkpt>
      <trkpt lat="46.16416" lon="6.8054">
        <ele>1705.5367</ele>
        <time>2014-08-30T11:56:34Z</time>
      </trkpt>
      <trkpt lat="46.16414" lon="6.80535">
        <ele>1705.5367</ele>
        <time>2014-08-30T11:56:39Z</time>
      </trkpt>
      <trkpt lat="46.1641" lon="6.80529">
        <ele>1703.5431</ele>
        <time>2014-08-30T11:56:44Z</time>
      </trkpt>
      <trkpt lat="46.16407" lon="6.8052">
        <ele>1703.5431</ele>
        <time>2014-08-30T11:56:49Z</time>
      </trkpt>
      <trkpt lat="46.16405" lon="6.80516">
        <ele>1701.5476</ele>
        <time>2014-08-30T11:56:54Z</time>
      </trkpt>
      <trkpt lat="46.16402" lon="6.80507">
        <ele>1701.5476</ele>
        <time>2014-08-30T11:56:59Z</time>
      </trkpt>
      <trkpt lat="46.16399" lon="6.80499">
        <ele>1699.508</ele>
        <time>2014-08-30T11:57:04Z</time>
      </trkpt>
      <trkpt lat="46.16397" lon="6.80491">
        <ele>1699.508</ele>
        <time>2014-08-30T11:57:09Z</time>
      </trkpt>
      <trkpt lat="46.16395" lon="6.80484">
        <ele>1697.4572</ele>
        <time>2014-08-30T11:57:14Z</time>
      </trkpt>
      <trkpt lat="46.16392" lon="6.80477">
        <ele>1697.4572</ele>
        <time>2014-08-30T11:57:19Z</time>
      </trkpt>
      <trkpt lat="46.16389" lon="6.80472">
        <ele>1695.2668</ele>
        <time>2014-08-30T11:57:24Z</time>
      </trkpt>
      <trkpt lat="46.16387" lon="6.80469">
        <ele>1695.2668</ele>
        <time>2014-08-30T11:57:29Z</time>
      </trkpt>
      <trkpt lat="46.16382" lon="6.80462">
        <ele>1692.9196</ele>
        <time>2014-08-30T11:57:34Z</time>
      </trkpt>
      <trkpt lat="46.16379" lon="6.80451">
        <ele>1692.9196</ele>
        <time>2014-08-30T11:57:39Z</time>
      </trkpt>
      <trkpt lat="46.16377" lon="6.80448">
        <ele>1690.5437</ele>
        <time>2014-08-30T11:57:44Z</time>
      </trkpt>
      <trkpt lat="46.16373" lon="6.80443">
        <ele>1690.5437</ele>
        <time>2014-08-30T11:57:49Z</time>
      </trkpt>
      <trkpt lat="46.16372" lon="6.80442">
        <ele>1690.5437</ele>
        <time>2014-08-30T11:57:54Z</time>
      </trkpt>
      <trkpt lat="46.16373" lon="6.80437">
        <ele>1688.0565</ele>
        <time>2014-08-30T11:57:59Z</time>
      </trkpt>
      <trkpt lat="46.16372" lon="6.80433">
        <ele>1688.0565</ele>
        <time>2014-08-30T11:58:04Z</time>
      </trkpt>
      <trkpt lat="46.16369" lon="6.80433">
        <ele>1688.0565</ele>
        <time>2014-08-30T11:58:09Z</time>
      </trkpt>
      <trkpt lat="46.16363" lon="6.80431">
        <ele>1685.6407</ele>
        <time>2014-08-30T11:58:14Z</time>
      </trkpt>
      <trkpt lat="46.16356" lon="6.80426">
        <ele>1685.6407</ele>
        <time>2014-08-30T11:58:19Z</time>
      </trkpt>
      <trkpt lat="46.1635" lon="6.80421">
        <ele>1683.4224</ele>
        <time>2014-08-30T11:58:24Z</time>
      </trkpt>
      <trkpt lat="46.16348" lon="6.80421">
        <ele>1683.4224</ele>
        <time>2014-08-30T11:58:29Z</time>
      </trkpt>
      <trkpt lat="46.16348" lon="6.80421">
        <ele>1683.4224</ele>
        <time>2014-08-30T11:58:34Z</time>
      </trkpt>
      <trkpt lat="46.16346" lon="6.80419">
        <ele>1683.4224</ele>
        <time>2014-08-30T11:58:49Z</time>
      </trkpt>
      <trkpt lat="46.16342" lon="6.80419">
        <ele>1683.4224</ele>
        <time>2014-08-30T11:58:54Z</time>
      </trkpt>
      <trkpt lat="46.16338" lon="6.80416">
        <ele>1681.2437</ele>
        <time>2014-08-30T11:58:59Z</time>
      </trkpt>
      <trkpt lat="46.16335" lon="6.80408">
        <ele>1681.2437</ele>
        <time>2014-08-30T11:59:04Z</time>
      </trkpt>
      <trkpt lat="46.16333" lon="6.804">
        <ele>1679.0305</ele>
        <time>2014-08-30T11:59:09Z</time>
      </trkpt>
      <trkpt lat="46.16329" lon="6.80391">
        <ele>1679.0305</ele>
        <time>2014-08-30T11:59:14Z</time>
      </trkpt>
      <trkpt lat="46.16326" lon="6.80385">
        <ele>1676.8007</ele>
        <time>2014-08-30T11:59:19Z</time>
      </trkpt>
      <trkpt lat="46.16324" lon="6.8038">
        <ele>1676.8007</ele>
        <time>2014-08-30T11:59:24Z</time>
      </trkpt>
      <trkpt lat="46.16322" lon="6.80375">
        <ele>1676.8007</ele>
        <time>2014-08-30T11:59:29Z</time>
      </trkpt>
      <trkpt lat="46.1632" lon="6.8037">
        <ele>1674.6571</ele>
        <time>2014-08-30T11:59:34Z</time>
      </trkpt>
      <trkpt lat="46.16316" lon="6.80365">
        <ele>1674.6571</ele>
        <time>2014-08-30T11:59:39Z</time>
      </trkpt>
      <trkpt lat="46.16312" lon="6.80362">
        <ele>1672.7379</ele>
        <time>2014-08-30T11:59:44Z</time>
      </trkpt>
      <trkpt lat="46.16309" lon="6.80358">
        <ele>1672.7379</ele>
        <time>2014-08-30T11:59:49Z</time>
      </trkpt>
      <trkpt lat="46.16305" lon="6.80355">
        <ele>1672.7379</ele>
        <time>2014-08-30T11:59:54Z</time>
      </trkpt>
      <trkpt lat="46.16301" lon="6.80353">
        <ele>1671.1417</ele>
        <time>2014-08-30T11:59:59Z</time>
      </trkpt>
      <trkpt lat="46.16297" lon="6.8035">
        <ele>1671.1417</ele>
        <time>2014-08-30T12:00:04Z</time>
      </trkpt>
      <trkpt lat="46.16291" lon="6.80346">
        <ele>1669.8296</ele>
        <time>2014-08-30T12:00:09Z</time>
      </trkpt>
      <trkpt lat="46.16287" lon="6.80341">
        <ele>1669.8296</ele>
        <time>2014-08-30T12:00:14Z</time>
      </trkpt>
      <trkpt lat="46.16284" lon="6.80337">
        <ele>1668.7928</ele>
        <time>2014-08-30T12:00:19Z</time>
      </trkpt>
      <trkpt lat="46.16281" lon="6.80333">
        <ele>1668.7928</ele>
        <time>2014-08-30T12:00:24Z</time>
      </trkpt>
      <trkpt lat="46.16279" lon="6.80326">
        <ele>1668.7928</ele>
        <time>2014-08-30T12:00:29Z</time>
      </trkpt>
      <trkpt lat="46.16276" lon="6.8032">
        <ele>1667.9943</ele>
        <time>2014-08-30T12:00:34Z</time>
      </trkpt>
      <trkpt lat="46.16273" lon="6.80314">
        <ele>1667.9943</ele>
        <time>2014-08-30T12:00:39Z</time>
      </trkpt>
      <trkpt lat="46.16269" lon="6.80308">
        <ele>1667.1967</ele>
        <time>2014-08-30T12:00:44Z</time>
      </trkpt>
      <trkpt lat="46.16265" lon="6.80301">
        <ele>1667.1967</ele>
        <time>2014-08-30T12:00:49Z</time>
      </trkpt>
      <trkpt lat="46.16262" lon="6.80296">
        <ele>1666.4832</ele>
        <time>2014-08-30T12:00:54Z</time>
      </trkpt>
      <trkpt lat="46.16258" lon="6.80289">
        <ele>1666.4832</ele>
        <time>2014-08-30T12:00:59Z</time>
      </trkpt>
      <trkpt lat="46.16257" lon="6.80288">
        <ele>1666.4832</ele>
        <time>2014-08-30T12:01:04Z</time>
      </trkpt>
      <trkpt lat="46.16255" lon="6.80285">
        <ele>1665.9447</ele>
        <time>2014-08-30T12:01:09Z</time>
      </trkpt>
      <trkpt lat="46.16251" lon="6.80279">
        <ele>1665.9447</ele>
        <time>2014-08-30T12:01:14Z</time>
      </trkpt>
      <trkpt lat="46.16249" lon="6.80273">
        <ele>1665.5786</ele>
        <time>2014-08-30T12:01:19Z</time>
      </trkpt>
      <trkpt lat="46.16247" lon="6.80263">
        <ele>1665.5786</ele>
        <time>2014-08-30T12:01:24Z</time>
      </trkpt>
      <trkpt lat="46.16243" lon="6.80258">
        <ele>1665.2814</ele>
        <time>2014-08-30T12:01:29Z</time>
      </trkpt>
      <trkpt lat="46.16238" lon="6.80253">
        <ele>1665.2814</ele>
        <time>2014-08-30T12:01:34Z</time>
      </trkpt>
      <trkpt lat="46.16232" lon="6.80248">
        <ele>1664.9135</ele>
        <time>2014-08-30T12:01:39Z</time>
      </trkpt>
      <trkpt lat="46.16226" lon="6.80248">
        <ele>1664.9135</ele>
        <time>2014-08-30T12:01:44Z</time>
      </trkpt>
      <trkpt lat="46.16222" lon="6.80245">
        <ele>1664.7638</ele>
        <time>2014-08-30T12:01:49Z</time>
      </trkpt>
      <trkpt lat="46.16215" lon="6.80245">
        <ele>1664.7638</ele>
        <time>2014-08-30T12:01:54Z</time>
      </trkpt>
      <trkpt lat="46.1621" lon="6.80241">
        <ele>1664.8545</ele>
        <time>2014-08-30T12:01:59Z</time>
      </trkpt>
      <trkpt lat="46.16208" lon="6.8024">
        <ele>1664.8545</ele>
        <time>2014-08-30T12:02:04Z</time>
      </trkpt>
      <trkpt lat="46.16205" lon="6.80235">
        <ele>1664.8545</ele>
        <time>2014-08-30T12:02:09Z</time>
      </trkpt>
      <trkpt lat="46.16199" lon="6.80231">
        <ele>1665.4792</ele>
        <time>2014-08-30T12:02:14Z</time>
      </trkpt>
      <trkpt lat="46.16195" lon="6.80227">
        <ele>1665.4792</ele>
        <time>2014-08-30T12:02:19Z</time>
      </trkpt>
      <trkpt lat="46.16191" lon="6.80224">
        <ele>1666.3469</ele>
        <time>2014-08-30T12:02:24Z</time>
      </trkpt>
      <trkpt lat="46.16186" lon="6.80218">
        <ele>1666.3469</ele>
        <time>2014-08-30T12:02:29Z</time>
      </trkpt>
      <trkpt lat="46.16182" lon="6.80211">
        <ele>1667.1294</ele>
        <time>2014-08-30T12:02:34Z</time>
      </trkpt>
      <trkpt lat="46.16177" lon="6.80201">
        <ele>1667.1294</ele>
        <time>2014-08-30T12:02:39Z</time>
      </trkpt>
      <trkpt lat="46.16172" lon="6.80195">
        <ele>1667.7535</ele>
        <time>2014-08-30T12:02:44Z</time>
      </trkpt>
      <trkpt lat="46.16168" lon="6.8019">
        <ele>1667.7535</ele>
        <time>2014-08-30T12:02:49Z</time>
      </trkpt>
      <trkpt lat="46.16164" lon="6.80188">
        <ele>1668.3827</ele>
        <time>2014-08-30T12:02:54Z</time>
      </trkpt>
      <trkpt lat="46.16159" lon="6.80187">
        <ele>1668.3827</ele>
        <time>2014-08-30T12:02:59Z</time>
      </trkpt>
      <trkpt lat="46.16156" lon="6.80184">
        <ele>1668.3827</ele>
        <time>2014-08-30T12:03:04Z</time>
      </trkpt>
      <trkpt lat="46.1615" lon="6.80181">
        <ele>1669.0677</ele>
        <time>2014-08-30T12:03:09Z</time>
      </trkpt>
      <trkpt lat="46.16144" lon="6.80182">
        <ele>1669.0677</ele>
        <time>2014-08-30T12:03:14Z</time>
      </trkpt>
      <trkpt lat="46.16138" lon="6.80183">
        <ele>1669.7114</ele>
        <time>2014-08-30T12:03:19Z</time>
      </trkpt>
      <trkpt lat="46.16132" lon="6.80182">
        <ele>1669.7114</ele>
        <time>2014-08-30T12:03:24Z</time>
      </trkpt>
      <trkpt lat="46.16126" lon="6.80183">
        <ele>1670.2817</ele>
        <time>2014-08-30T12:03:29Z</time>
      </trkpt>
      <trkpt lat="46.16119" lon="6.80182">
        <ele>1670.2817</ele>
        <time>2014-08-30T12:03:34Z</time>
      </trkpt>
      <trkpt lat="46.16115" lon="6.80182">
        <ele>1670.8066</ele>
        <time>2014-08-30T12:03:39Z</time>
      </trkpt>
      <trkpt lat="46.16109" lon="6.80183">
        <ele>1670.8066</ele>
        <time>2014-08-30T12:03:44Z</time>
      </trkpt>
      <trkpt lat="46.16103" lon="6.80184">
        <ele>1671.3418</ele>
        <time>2014-08-30T12:03:49Z</time>
      </trkpt>
      <trkpt lat="46.16097" lon="6.80188">
        <ele>1671.3418</ele>
        <time>2014-08-30T12:03:54Z</time>
      </trkpt>
      <trkpt lat="46.16097" lon="6.80188">
        <ele>1671.3418</ele>
        <time>2014-08-30T12:03:59Z</time>
      </trkpt>
      <trkpt lat="46.16097" lon="6.80186">
        <ele>1671.3418</ele>
        <time>2014-08-30T12:04:04Z</time>
      </trkpt>
      <trkpt lat="46.16092" lon="6.80188">
        <ele>1671.6934</ele>
        <time>2014-08-30T12:04:09Z</time>
      </trkpt>
      <trkpt lat="46.16085" lon="6.80189">
        <ele>1671.6934</ele>
        <time>2014-08-30T12:04:14Z</time>
      </trkpt>
      <trkpt lat="46.16079" lon="6.80194">
        <ele>1671.971</ele>
        <time>2014-08-30T12:04:19Z</time>
      </trkpt>
      <trkpt lat="46.16073" lon="6.80198">
        <ele>1671.971</ele>
        <time>2014-08-30T12:04:24Z</time>
      </trkpt>
      <trkpt lat="46.16069" lon="6.80201">
        <ele>1672.3196</ele>
        <time>2014-08-30T12:04:29Z</time>
      </trkpt>
      <trkpt lat="46.16063" lon="6.80205">
        <ele>1672.3196</ele>
        <time>2014-08-30T12:04:34Z</time>
      </trkpt>
      <trkpt lat="46.16057" lon="6.80209">
        <ele>1672.7009</ele>
        <time>2014-08-30T12:04:39Z</time>
      </trkpt>
      <trkpt lat="46.16052" lon="6.80215">
        <ele>1672.7009</ele>
        <time>2014-08-30T12:04:44Z</time>
      </trkpt>
      <trkpt lat="46.16048" lon="6.80218">
        <ele>1673.108</ele>
        <time>2014-08-30T12:04:49Z</time>
      </trkpt>
      <trkpt lat="46.16044" lon="6.80223">
        <ele>1673.108</ele>
        <time>2014-08-30T12:04:54Z</time>
      </trkpt>
      <trkpt lat="46.1604" lon="6.80227">
        <ele>1673.5059</ele>
        <time>2014-08-30T12:04:59Z</time>
      </trkpt>
      <trkpt lat="46.16035" lon="6.80232">
        <ele>1673.5059</ele>
        <time>2014-08-30T12:05:04Z</time>
      </trkpt>
      <trkpt lat="46.1603" lon="6.80237">
        <ele>1673.848</ele>
        <time>2014-08-30T12:05:09Z</time>
      </trkpt>
      <trkpt lat="46.16026" lon="6.80242">
        <ele>1673.848</ele>
        <time>2014-08-30T12:05:14Z</time>
      </trkpt>
      <trkpt lat="46.16021" lon="6.80248">
        <ele>1674.1346</ele>
        <time>2014-08-30T12:05:19Z</time>
      </trkpt>
      <trkpt lat="46.16016" lon="6.8025">
        <ele>1674.1346</ele>
        <time>2014-08-30T12:05:24Z</time>
      </trkpt>
      <trkpt lat="46.16013" lon="6.80249">
        <ele>1674.1346</ele>
        <time>2014-08-30T12:05:29Z</time>
      </trkpt>
      <trkpt lat="46.16009" lon="6.80245">
        <ele>1674.1648</ele>
        <time>2014-08-30T12:05:34Z</time>
      </trkpt>
      <trkpt lat="46.16006" lon="6.8024">
        <ele>1674.1648</ele>
        <time>2014-08-30T12:05:39Z</time>
      </trkpt>
      <trkpt lat="46.16006" lon="6.8024">
        <ele>1674.1648</ele>
        <time>2014-08-30T12:05:44Z</time>
      </trkpt>
      <trkpt lat="46.16006" lon="6.8024">
        <ele>1674.1648</ele>
        <time>2014-08-30T12:05:49Z</time>
      </trkpt>
      <trkpt lat="46.16007" lon="6.80239">
        <ele>1674.1648</ele>
        <time>2014-08-30T12:05:54Z</time>
      </trkpt>
      <trkpt lat="46.16005" lon="6.80238">
        <ele>1674.1648</ele>
        <time>2014-08-30T12:05:59Z</time>
      </trkpt>
      <trkpt lat="46.16" lon="6.80235">
        <ele>1673.7096</ele>
        <time>2014-08-30T12:06:04Z</time>
      </trkpt>
      <trkpt lat="46.15994" lon="6.80234">
        <ele>1673.7096</ele>
        <time>2014-08-30T12:06:09Z</time>
      </trkpt>
      <trkpt lat="46.15989" lon="6.80235">
        <ele>1673.0056</ele>
        <time>2014-08-30T12:06:14Z</time>
      </trkpt>
      <trkpt lat="46.15983" lon="6.80234">
        <ele>1673.0056</ele>
        <time>2014-08-30T12:06:19Z</time>
      </trkpt>
      <trkpt lat="46.15978" lon="6.80232">
        <ele>1671.9269</ele>
        <time>2014-08-30T12:06:24Z</time>
      </trkpt>
      <trkpt lat="46.15977" lon="6.80232">
        <ele>1671.9269</ele>
        <time>2014-08-30T12:06:29Z</time>
      </trkpt>
      <trkpt lat="46.15977" lon="6.80232">
        <ele>1671.9269</ele>
        <time>2014-08-30T12:06:34Z</time>
      </trkpt>
      <trkpt lat="46.15971" lon="6.8023">
        <ele>1671.9269</ele>
        <time>2014-08-30T12:06:44Z</time>
      </trkpt>
      <trkpt lat="46.15967" lon="6.80228">
        <ele>1670.8044</ele>
        <time>2014-08-30T12:06:49Z</time>
      </trkpt>
      <trkpt lat="46.15962" lon="6.80226">
        <ele>1670.8044</ele>
        <time>2014-08-30T12:06:54Z</time>
      </trkpt>
      <trkpt lat="46.15956" lon="6.80221">
        <ele>1669.5133</ele>
        <time>2014-08-30T12:06:59Z</time>
      </trkpt>
      <trkpt lat="46.15951" lon="6.80218">
        <ele>1669.5133</ele>
        <time>2014-08-30T12:07:04Z</time>
      </trkpt>
      <trkpt lat="46.15946" lon="6.80215">
        <ele>1668.1107</ele>
        <time>2014-08-30T12:07:09Z</time>
      </trkpt>
      <trkpt lat="46.1594" lon="6.80215">
        <ele>1668.1107</ele>
        <time>2014-08-30T12:07:14Z</time>
      </trkpt>
      <trkpt lat="46.15934" lon="6.80216">
        <ele>1666.6362</ele>
        <time>2014-08-30T12:07:19Z</time>
      </trkpt>
      <trkpt lat="46.15927" lon="6.80215">
        <ele>1666.6362</ele>
        <time>2014-08-30T12:07:24Z</time>
      </trkpt>
      <trkpt lat="46.15922" lon="6.80216">
        <ele>1665.1841</ele>
        <time>2014-08-30T12:07:29Z</time>
      </trkpt>
      <trkpt lat="46.15916" lon="6.80216">
        <ele>1665.1841</ele>
        <time>2014-08-30T12:07:34Z</time>
      </trkpt>
      <trkpt lat="46.15911" lon="6.80218">
        <ele>1663.8129</ele>
        <time>2014-08-30T12:07:39Z</time>
      </trkpt>
      <trkpt lat="46.15905" lon="6.8022">
        <ele>1663.8129</ele>
        <time>2014-08-30T12:07:44Z</time>
      </trkpt>
      <trkpt lat="46.15901" lon="6.80222">
        <ele>1662.447</ele>
        <time>2014-08-30T12:07:49Z</time>
      </trkpt>
      <trkpt lat="46.15901" lon="6.80225">
        <ele>1662.447</ele>
        <time>2014-08-30T12:07:54Z</time>
      </trkpt>
      <trkpt lat="46.15903" lon="6.80229">
        <ele>1662.447</ele>
        <time>2014-08-30T12:07:59Z</time>
      </trkpt>
      <trkpt lat="46.15904" lon="6.80238">
        <ele>1661.2039</ele>
        <time>2014-08-30T12:08:04Z</time>
      </trkpt>
      <trkpt lat="46.15904" lon="6.80245">
        <ele>1661.2039</ele>
        <time>2014-08-30T12:08:09Z</time>
      </trkpt>
      <trkpt lat="46.15904" lon="6.8025">
        <ele>1661.2039</ele>
        <time>2014-08-30T12:08:14Z</time>
      </trkpt>
      <trkpt lat="46.15905" lon="6.80253">
        <ele>1660.1342</ele>
        <time>2014-08-30T12:08:19Z</time>
      </trkpt>
      <trkpt lat="46.15905" lon="6.80254">
        <ele>1660.1342</ele>
        <time>2014-08-30T12:08:24Z</time>
      </trkpt>
      <trkpt lat="46.15904" lon="6.80254">
        <ele>1660.1342</ele>
        <time>2014-08-30T12:08:29Z</time>
      </trkpt>
      <trkpt lat="46.15905" lon="6.80252">
        <ele>1660.1342</ele>
        <time>2014-08-30T12:08:34Z</time>
      </trkpt>
      <trkpt lat="46.15905" lon="6.80253">
        <ele>1660.1342</ele>
        <time>2014-08-30T12:08:39Z</time>
      </trkpt>
      <trkpt lat="46.15905" lon="6.80254">
        <ele>1660.1342</ele>
        <time>2014-08-30T12:08:44Z</time>
      </trkpt>
      <trkpt lat="46.15905" lon="6.80255">
        <ele>1660.1342</ele>
        <time>2014-08-30T12:08:49Z</time>
      </trkpt>
      <trkpt lat="46.15905" lon="6.80255">
        <ele>1660.1342</ele>
        <time>2014-08-30T12:08:54Z</time>
      </trkpt>
      <trkpt lat="46.15906" lon="6.80255">
        <ele>1660.1342</ele>
        <time>2014-08-30T12:08:59Z</time>
      </trkpt>
      <trkpt lat="46.15906" lon="6.80254">
        <ele>1660.1342</ele>
        <time>2014-08-30T12:09:04Z</time>
      </trkpt>
      <trkpt lat="46.15905" lon="6.80253">
        <ele>1660.1342</ele>
        <time>2014-08-30T12:09:09Z</time>
      </trkpt>
      <trkpt lat="46.15905" lon="6.80253">
        <ele>1660.1342</ele>
        <time>2014-08-30T12:09:14Z</time>
      </trkpt>
      <trkpt lat="46.15903" lon="6.80252">
        <ele>1658.9387</ele>
        <time>2014-08-30T12:09:19Z</time>
      </trkpt>
      <trkpt lat="46.15903" lon="6.80252">
        <ele>1658.9387</ele>
        <time>2014-08-30T12:09:24Z</time>
      </trkpt>
      <trkpt lat="46.15902" lon="6.80251">
        <ele>1658.9387</ele>
        <time>2014-08-30T12:09:29Z</time>
      </trkpt>
      <trkpt lat="46.15902" lon="6.80242">
        <ele>1658.9387</ele>
        <time>2014-08-30T12:09:34Z</time>
      </trkpt>
      <trkpt lat="46.15902" lon="6.80232">
        <ele>1657.9747</ele>
        <time>2014-08-30T12:09:39Z</time>
      </trkpt>
      <trkpt lat="46.15904" lon="6.80226">
        <ele>1657.9747</ele>
        <time>2014-08-30T12:09:44Z</time>
      </trkpt>
      <trkpt lat="46.15906" lon="6.80224">
        <ele>1657.9747</ele>
        <time>2014-08-30T12:09:49Z</time>
      </trkpt>
      <trkpt lat="46.15906" lon="6.80224">
        <ele>1657.9747</ele>
        <time>2014-08-30T12:09:54Z</time>
      </trkpt>
      <trkpt lat="46.15907" lon="6.80224">
        <ele>1657.9747</ele>
        <time>2014-08-30T12:09:59Z</time>
      </trkpt>
      <trkpt lat="46.15907" lon="6.80224">
        <ele>1657.9747</ele>
        <time>2014-08-30T12:10:04Z</time>
      </trkpt>
      <trkpt lat="46.15904" lon="6.80223">
        <ele>1657.169</ele>
        <time>2014-08-30T12:10:09Z</time>
      </trkpt>
      <trkpt lat="46.15898" lon="6.80218">
        <ele>1657.169</ele>
        <time>2014-08-30T12:10:14Z</time>
      </trkpt>
      <trkpt lat="46.15893" lon="6.80213">
        <ele>1656.3378</ele>
        <time>2014-08-30T12:10:19Z</time>
      </trkpt>
      <trkpt lat="46.15889" lon="6.80205">
        <ele>1656.3378</ele>
        <time>2014-08-30T12:10:24Z</time>
      </trkpt>
      <trkpt lat="46.15885" lon="6.80196">
        <ele>1655.4265</ele>
        <time>2014-08-30T12:10:29Z</time>
      </trkpt>
      <trkpt lat="46.15882" lon="6.8019">
        <ele>1655.4265</ele>
        <time>2014-08-30T12:10:34Z</time>
      </trkpt>
      <trkpt lat="46.1588" lon="6.80181">
        <ele>1654.572</ele>
        <time>2014-08-30T12:10:39Z</time>
      </trkpt>
      <trkpt lat="46.15877" lon="6.80173">
        <ele>1654.572</ele>
        <time>2014-08-30T12:10:44Z</time>
      </trkpt>
      <trkpt lat="46.15873" lon="6.80166">
        <ele>1653.7426</ele>
        <time>2014-08-30T12:10:49Z</time>
      </trkpt>
      <trkpt lat="46.15869" lon="6.8016">
        <ele>1653.7426</ele>
        <time>2014-08-30T12:10:54Z</time>
      </trkpt>
      <trkpt lat="46.15866" lon="6.80153">
        <ele>1652.8795</ele>
        <time>2014-08-30T12:10:59Z</time>
      </trkpt>
      <trkpt lat="46.15863" lon="6.8015">
        <ele>1652.8795</ele>
        <time>2014-08-30T12:11:04Z</time>
      </trkpt>
      <trkpt lat="46.15858" lon="6.80144">
        <ele>1652.0731</ele>
        <time>2014-08-30T12:11:09Z</time>
      </trkpt>
      <trkpt lat="46.15855" lon="6.8014">
        <ele>1652.0731</ele>
        <time>2014-08-30T12:11:14Z</time>
      </trkpt>
      <trkpt lat="46.15852" lon="6.80134">
        <ele>1651.1904</ele>
        <time>2014-08-30T12:11:19Z</time>
      </trkpt>
      <trkpt lat="46.15847" lon="6.80127">
        <ele>1651.1904</ele>
        <time>2014-08-30T12:11:24Z</time>
      </trkpt>
      <trkpt lat="46.15842" lon="6.80123">
        <ele>1650.2815</ele>
        <time>2014-08-30T12:11:29Z</time>
      </trkpt>
      <trkpt lat="46.15836" lon="6.80117">
        <ele>1650.2815</ele>
        <time>2014-08-30T12:11:34Z</time>
      </trkpt>
      <trkpt lat="46.15831" lon="6.8011">
        <ele>1649.2772</ele>
        <time>2014-08-30T12:11:39Z</time>
      </trkpt>
      <trkpt lat="46.15827" lon="6.80103">
        <ele>1649.2772</ele>
        <time>2014-08-30T12:11:44Z</time>
      </trkpt>
      <trkpt lat="46.15823" lon="6.80099">
        <ele>1648.3448</ele>
        <time>2014-08-30T12:11:49Z</time>
      </trkpt>
      <trkpt lat="46.15818" lon="6.80094">
        <ele>1648.3448</ele>
        <time>2014-08-30T12:11:54Z</time>
      </trkpt>
      <trkpt lat="46.15814" lon="6.80091">
        <ele>1647.4514</ele>
        <time>2014-08-30T12:11:59Z</time>
      </trkpt>
      <trkpt lat="46.15809" lon="6.8009">
        <ele>1647.4514</ele>
        <time>2014-08-30T12:12:04Z</time>
      </trkpt>
      <trkpt lat="46.15807" lon="6.80089">
        <ele>1647.4514</ele>
        <time>2014-08-30T12:12:09Z</time>
      </trkpt>
      <trkpt lat="46.15807" lon="6.80089">
        <ele>1647.4514</ele>
        <time>2014-08-30T12:12:14Z</time>
      </trkpt>
      <trkpt lat="46.15806" lon="6.80087">
        <ele>1647.4514</ele>
        <time>2014-08-30T12:12:44Z</time>
      </trkpt>
      <trkpt lat="46.15806" lon="6.80085">
        <ele>1646.4799</ele>
        <time>2014-08-30T12:12:49Z</time>
      </trkpt>
      <trkpt lat="46.15805" lon="6.80079">
        <ele>1646.4799</ele>
        <time>2014-08-30T12:12:54Z</time>
      </trkpt>
      <trkpt lat="46.15805" lon="6.80078">
        <ele>1646.4799</ele>
        <time>2014-08-30T12:12:59Z</time>
      </trkpt>
      <trkpt lat="46.15805" lon="6.80078">
        <ele>1646.4799</ele>
        <time>2014-08-30T12:13:04Z</time>
      </trkpt>
      <trkpt lat="46.15805" lon="6.80071">
        <ele>1645.4805</ele>
        <time>2014-08-30T12:13:09Z</time>
      </trkpt>
      <trkpt lat="46.15805" lon="6.80065">
        <ele>1645.4805</ele>
        <time>2014-08-30T12:13:14Z</time>
      </trkpt>
      <trkpt lat="46.15801" lon="6.80056">
        <ele>1644.7161</ele>
        <time>2014-08-30T12:13:19Z</time>
      </trkpt>
      <trkpt lat="46.15799" lon="6.80052">
        <ele>1644.7161</ele>
        <time>2014-08-30T12:13:24Z</time>
      </trkpt>
      <trkpt lat="46.15798" lon="6.80045">
        <ele>1644.7161</ele>
        <time>2014-08-30T12:13:29Z</time>
      </trkpt>
      <trkpt lat="46.15797" lon="6.80042">
        <ele>1644.1989</ele>
        <time>2014-08-30T12:13:34Z</time>
      </trkpt>
      <trkpt lat="46.15795" lon="6.8004">
        <ele>1644.1989</ele>
        <time>2014-08-30T12:13:39Z</time>
      </trkpt>
      <trkpt lat="46.15793" lon="6.80034">
        <ele>1644.1989</ele>
        <time>2014-08-30T12:13:44Z</time>
      </trkpt>
      <trkpt lat="46.15791" lon="6.80029">
        <ele>1643.8962</ele>
        <time>2014-08-30T12:13:49Z</time>
      </trkpt>
      <trkpt lat="46.15788" lon="6.80026">
        <ele>1643.8962</ele>
        <time>2014-08-30T12:13:54Z</time>
      </trkpt>
      <trkpt lat="46.15787" lon="6.80021">
        <ele>1643.8962</ele>
        <time>2014-08-30T12:13:59Z</time>
      </trkpt>
      <trkpt lat="46.15786" lon="6.80019">
        <ele>1643.8962</ele>
        <time>2014-08-30T12:14:04Z</time>
      </trkpt>
      <trkpt lat="46.15785" lon="6.80017">
        <ele>1643.835</ele>
        <time>2014-08-30T12:14:09Z</time>
      </trkpt>
      <trkpt lat="46.15781" lon="6.80012">
        <ele>1643.835</ele>
        <time>2014-08-30T12:14:14Z</time>
      </trkpt>
      <trkpt lat="46.15779" lon="6.80008">
        <ele>1643.835</ele>
        <time>2014-08-30T12:14:19Z</time>
      </trkpt>
      <trkpt lat="46.15778" lon="6.80006">
        <ele>1643.8951</ele>
        <time>2014-08-30T12:14:24Z</time>
      </trkpt>
      <trkpt lat="46.15777" lon="6.80004">
        <ele>1643.8951</ele>
        <time>2014-08-30T12:14:29Z</time>
      </trkpt>
      <trkpt lat="46.15775" lon="6.80001">
        <ele>1643.8951</ele>
        <time>2014-08-30T12:14:34Z</time>
      </trkpt>
      <trkpt lat="46.15768" lon="6.79994">
        <ele>1644.0084</ele>
        <time>2014-08-30T12:14:39Z</time>
      </trkpt>
      <trkpt lat="46.15767" lon="6.79991">
        <ele>1644.0084</ele>
        <time>2014-08-30T12:14:44Z</time>
      </trkpt>
      <trkpt lat="46.15765" lon="6.79989">
        <ele>1644.0084</ele>
        <time>2014-08-30T12:14:49Z</time>
      </trkpt>
      <trkpt lat="46.15761" lon="6.79986">
        <ele>1644.4285</ele>
        <time>2014-08-30T12:14:54Z</time>
      </trkpt>
      <trkpt lat="46.15757" lon="6.79984">
        <ele>1644.4285</ele>
        <time>2014-08-30T12:14:59Z</time>
      </trkpt>
      <trkpt lat="46.15753" lon="6.79981">
        <ele>1644.4285</ele>
        <time>2014-08-30T12:15:04Z</time>
      </trkpt>
      <trkpt lat="46.15747" lon="6.7998">
        <ele>1645.1154</ele>
        <time>2014-08-30T12:15:09Z</time>
      </trkpt>
      <trkpt lat="46.15744" lon="6.79979">
        <ele>1645.1154</ele>
        <time>2014-08-30T12:15:14Z</time>
      </trkpt>
      <trkpt lat="46.15741" lon="6.79978">
        <ele>1645.1154</ele>
        <time>2014-08-30T12:15:19Z</time>
      </trkpt>
      <trkpt lat="46.15739" lon="6.79976">
        <ele>1645.1154</ele>
        <time>2014-08-30T12:15:24Z</time>
      </trkpt>
      <trkpt lat="46.15738" lon="6.79974">
        <ele>1646.003</ele>
        <time>2014-08-30T12:15:29Z</time>
      </trkpt>
      <trkpt lat="46.15738" lon="6.79971">
        <ele>1646.003</ele>
        <time>2014-08-30T12:15:34Z</time>
      </trkpt>
      <trkpt lat="46.15734" lon="6.79964">
        <ele>1646.003</ele>
        <time>2014-08-30T12:15:39Z</time>
      </trkpt>
      <trkpt lat="46.15733" lon="6.79961">
        <ele>1647.1157</ele>
        <time>2014-08-30T12:15:44Z</time>
      </trkpt>
      <trkpt lat="46.15731" lon="6.79959">
        <ele>1647.1157</ele>
        <time>2014-08-30T12:15:49Z</time>
      </trkpt>
      <trkpt lat="46.15728" lon="6.79957">
        <ele>1647.1157</ele>
        <time>2014-08-30T12:15:54Z</time>
      </trkpt>
      <trkpt lat="46.15725" lon="6.79954">
        <ele>1648.4612</ele>
        <time>2014-08-30T12:15:59Z</time>
      </trkpt>
      <trkpt lat="46.15723" lon="6.79952">
        <ele>1648.4612</ele>
        <time>2014-08-30T12:16:04Z</time>
      </trkpt>
      <trkpt lat="46.1572" lon="6.79951">
        <ele>1648.4612</ele>
        <time>2014-08-30T12:16:09Z</time>
      </trkpt>
      <trkpt lat="46.15718" lon="6.79951">
        <ele>1648.4612</ele>
        <time>2014-08-30T12:16:14Z</time>
      </trkpt>
      <trkpt lat="46.15716" lon="6.79949">
        <ele>1650.0603</ele>
        <time>2014-08-30T12:16:19Z</time>
      </trkpt>
      <trkpt lat="46.15716" lon="6.79946">
        <ele>1650.0603</ele>
        <time>2014-08-30T12:16:24Z</time>
      </trkpt>
      <trkpt lat="46.15713" lon="6.79945">
        <ele>1650.0603</ele>
        <time>2014-08-30T12:16:29Z</time>
      </trkpt>
      <trkpt lat="46.15713" lon="6.79944">
        <ele>1650.0603</ele>
        <time>2014-08-30T12:16:34Z</time>
      </trkpt>
      <trkpt lat="46.1571" lon="6.79941">
        <ele>1650.0603</ele>
        <time>2014-08-30T12:16:39Z</time>
      </trkpt>
      <trkpt lat="46.15706" lon="6.79936">
        <ele>1651.4993</ele>
        <time>2014-08-30T12:16:44Z</time>
      </trkpt>
      <trkpt lat="46.15704" lon="6.79935">
        <ele>1651.4993</ele>
        <time>2014-08-30T12:16:49Z</time>
      </trkpt>
      <trkpt lat="46.15701" lon="6.79935">
        <ele>1651.4993</ele>
        <time>2014-08-30T12:16:54Z</time>
      </trkpt>
      <trkpt lat="46.15701" lon="6.79935">
        <ele>1651.4993</ele>
        <time>2014-08-30T12:16:59Z</time>
      </trkpt>
      <trkpt lat="46.157" lon="6.79935">
        <ele>1651.4993</ele>
        <time>2014-08-30T12:17:04Z</time>
      </trkpt>
      <trkpt lat="46.15699" lon="6.79934">
        <ele>1651.4993</ele>
        <time>2014-08-30T12:17:09Z</time>
      </trkpt>
      <trkpt lat="46.15695" lon="6.79934">
        <ele>1653.3035</ele>
        <time>2014-08-30T12:17:14Z</time>
      </trkpt>
      <trkpt lat="46.15695" lon="6.79932">
        <ele>1653.3035</ele>
        <time>2014-08-30T12:17:19Z</time>
      </trkpt>
      <trkpt lat="46.15691" lon="6.79933">
        <ele>1653.3035</ele>
        <time>2014-08-30T12:17:24Z</time>
      </trkpt>
      <trkpt lat="46.15687" lon="6.79932">
        <ele>1654.9927</ele>
        <time>2014-08-30T12:17:29Z</time>
      </trkpt>
      <trkpt lat="46.15686" lon="6.79931">
        <ele>1654.9927</ele>
        <time>2014-08-30T12:17:34Z</time>
      </trkpt>
      <trkpt lat="46.15683" lon="6.79928">
        <ele>1654.9927</ele>
        <time>2014-08-30T12:17:39Z</time>
      </trkpt>
      <trkpt lat="46.15682" lon="6.79929">
        <ele>1654.9927</ele>
        <time>2014-08-30T12:17:44Z</time>
      </trkpt>
      <trkpt lat="46.15682" lon="6.79928">
        <ele>1654.9927</ele>
        <time>2014-08-30T12:17:49Z</time>
      </trkpt>
      <trkpt lat="46.15678" lon="6.79925">
        <ele>1656.7427</ele>
        <time>2014-08-30T12:17:54Z</time>
      </trkpt>
      <trkpt lat="46.15675" lon="6.79927">
        <ele>1656.7427</ele>
        <time>2014-08-30T12:17:59Z</time>
      </trkpt>
      <trkpt lat="46.15674" lon="6.7993">
        <ele>1656.7427</ele>
        <time>2014-08-30T12:18:04Z</time>
      </trkpt>
      <trkpt lat="46.15672" lon="6.79931">
        <ele>1656.7427</ele>
        <time>2014-08-30T12:18:09Z</time>
      </trkpt>
      <trkpt lat="46.15672" lon="6.79929">
        <ele>1656.7427</ele>
        <time>2014-08-30T12:18:14Z</time>
      </trkpt>
      <trkpt lat="46.15674" lon="6.79924">
        <ele>1658.4706</ele>
        <time>2014-08-30T12:18:19Z</time>
      </trkpt>
      <trkpt lat="46.15675" lon="6.79922">
        <ele>1658.4706</ele>
        <time>2014-08-30T12:18:24Z</time>
      </trkpt>
      <trkpt lat="46.15676" lon="6.79921">
        <ele>1658.4706</ele>
        <time>2014-08-30T12:18:29Z</time>
      </trkpt>
      <trkpt lat="46.15675" lon="6.79922">
        <ele>1658.4706</ele>
        <time>2014-08-30T12:18:34Z</time>
      </trkpt>
      <trkpt lat="46.15675" lon="6.79923">
        <ele>1658.4706</ele>
        <time>2014-08-30T12:18:39Z</time>
      </trkpt>
      <trkpt lat="46.15673" lon="6.79924">
        <ele>1658.4706</ele>
        <time>2014-08-30T12:18:44Z</time>
      </trkpt>
      <trkpt lat="46.15672" lon="6.79924">
        <ele>1658.4706</ele>
        <time>2014-08-30T12:18:49Z</time>
      </trkpt>
      <trkpt lat="46.15673" lon="6.79926">
        <ele>1658.4706</ele>
        <time>2014-08-30T12:18:54Z</time>
      </trkpt>
      <trkpt lat="46.15672" lon="6.79927">
        <ele>1660.2157</ele>
        <time>2014-08-30T12:18:59Z</time>
      </trkpt>
      <trkpt lat="46.15669" lon="6.79932">
        <ele>1660.2157</ele>
        <time>2014-08-30T12:19:04Z</time>
      </trkpt>
      <trkpt lat="46.15669" lon="6.79933">
        <ele>1660.2157</ele>
        <time>2014-08-30T12:19:09Z</time>
      </trkpt>
      <trkpt lat="46.15669" lon="6.79936">
        <ele>1660.2157</ele>
        <time>2014-08-30T12:19:14Z</time>
      </trkpt>
      <trkpt lat="46.15669" lon="6.79941">
        <ele>1662.1725</ele>
        <time>2014-08-30T12:19:19Z</time>
      </trkpt>
      <trkpt lat="46.15668" lon="6.79945">
        <ele>1662.1725</ele>
        <time>2014-08-30T12:19:24Z</time>
      </trkpt>
      <trkpt lat="46.15667" lon="6.79951">
        <ele>1662.1725</ele>
        <time>2014-08-30T12:19:29Z</time>
      </trkpt>
      <trkpt lat="46.15666" lon="6.79958">
        <ele>1664.2041</ele>
        <time>2014-08-30T12:19:34Z</time>
      </trkpt>
      <trkpt lat="46.15663" lon="6.79967">
        <ele>1664.2041</ele>
        <time>2014-08-30T12:19:39Z</time>
      </trkpt>
      <trkpt lat="46.1566" lon="6.79971">
        <ele>1666.2986</ele>
        <time>2014-08-30T12:19:44Z</time>
      </trkpt>
      <trkpt lat="46.15658" lon="6.79971">
        <ele>1666.2986</ele>
        <time>2014-08-30T12:19:49Z</time>
      </trkpt>
      <trkpt lat="46.15656" lon="6.79971">
        <ele>1666.2986</ele>
        <time>2014-08-30T12:19:54Z</time>
      </trkpt>
      <trkpt lat="46.15653" lon="6.79972">
        <ele>1666.2986</ele>
        <time>2014-08-30T12:19:59Z</time>
      </trkpt>
      <trkpt lat="46.15651" lon="6.79972">
        <ele>1666.2986</ele>
        <time>2014-08-30T12:20:04Z</time>
      </trkpt>
      <trkpt lat="46.15649" lon="6.79974">
        <ele>1668.6467</ele>
        <time>2014-08-30T12:20:09Z</time>
      </trkpt>
      <trkpt lat="46.15645" lon="6.79977">
        <ele>1668.6467</ele>
        <time>2014-08-30T12:20:14Z</time>
      </trkpt>
      <trkpt lat="46.15642" lon="6.79977">
        <ele>1668.6467</ele>
        <time>2014-08-30T12:20:19Z</time>
      </trkpt>
      <trkpt lat="46.15641" lon="6.79976">
        <ele>1668.6467</ele>
        <time>2014-08-30T12:20:24Z</time>
      </trkpt>
      <trkpt lat="46.15641" lon="6.79976">
        <ele>1668.6467</ele>
        <time>2014-08-30T12:20:29Z</time>
      </trkpt>
      <trkpt lat="46.1564" lon="6.79974">
        <ele>1670.9926</ele>
        <time>2014-08-30T12:20:34Z</time>
      </trkpt>
      <trkpt lat="46.15635" lon="6.79975">
        <ele>1670.9926</ele>
        <time>2014-08-30T12:20:39Z</time>
      </trkpt>
      <trkpt lat="46.15631" lon="6.79974">
        <ele>1670.9926</ele>
        <time>2014-08-30T12:20:44Z</time>
      </trkpt>
      <trkpt lat="46.15627" lon="6.79973">
        <ele>1673.0123</ele>
        <time>2014-08-30T12:20:49Z</time>
      </trkpt>
      <trkpt lat="46.15624" lon="6.79973">
        <ele>1673.0123</ele>
        <time>2014-08-30T12:20:54Z</time>
      </trkpt>
      <trkpt lat="46.15622" lon="6.79971">
        <ele>1673.0123</ele>
        <time>2014-08-30T12:20:59Z</time>
      </trkpt>
      <trkpt lat="46.15619" lon="6.79971">
        <ele>1673.0123</ele>
        <time>2014-08-30T12:21:04Z</time>
      </trkpt>
      <trkpt lat="46.15616" lon="6.79972">
        <ele>1675.1569</ele>
        <time>2014-08-30T12:21:09Z</time>
      </trkpt>
      <trkpt lat="46.15615" lon="6.79971">
        <ele>1675.1569</ele>
        <time>2014-08-30T12:21:14Z</time>
      </trkpt>
      <trkpt lat="46.15614" lon="6.7997">
        <ele>1675.1569</ele>
        <time>2014-08-30T12:21:19Z</time>
      </trkpt>
      <trkpt lat="46.15612" lon="6.7997">
        <ele>1675.1569</ele>
        <time>2014-08-30T12:21:24Z</time>
      </trkpt>
      <trkpt lat="46.15613" lon="6.79969">
        <ele>1675.1569</ele>
        <time>2014-08-30T12:21:29Z</time>
      </trkpt>
      <trkpt lat="46.15613" lon="6.7997">
        <ele>1675.1569</ele>
        <time>2014-08-30T12:21:34Z</time>
      </trkpt>
      <trkpt lat="46.15612" lon="6.79968">
        <ele>1675.1569</ele>
        <time>2014-08-30T12:21:39Z</time>
      </trkpt>
      <trkpt lat="46.15612" lon="6.79964">
        <ele>1677.5408</ele>
        <time>2014-08-30T12:21:44Z</time>
      </trkpt>
      <trkpt lat="46.15612" lon="6.79961">
        <ele>1677.5408</ele>
        <time>2014-08-30T12:21:49Z</time>
      </trkpt>
      <trkpt lat="46.15612" lon="6.79959">
        <ele>1677.5408</ele>
        <time>2014-08-30T12:21:54Z</time>
      </trkpt>
      <trkpt lat="46.15611" lon="6.79958">
        <ele>1677.5408</ele>
        <time>2014-08-30T12:21:59Z</time>
      </trkpt>
      <trkpt lat="46.15611" lon="6.79958">
        <ele>1677.5408</ele>
        <time>2014-08-30T12:22:04Z</time>
      </trkpt>
      <trkpt lat="46.15611" lon="6.79957">
        <ele>1677.5408</ele>
        <time>2014-08-30T12:22:09Z</time>
      </trkpt>
      <trkpt lat="46.1561" lon="6.79956">
        <ele>1677.5408</ele>
        <time>2014-08-30T12:22:14Z</time>
      </trkpt>
      <trkpt lat="46.1561" lon="6.79953">
        <ele>1677.5408</ele>
        <time>2014-08-30T12:22:19Z</time>
      </trkpt>
      <trkpt lat="46.15609" lon="6.7995">
        <ele>1679.8951</ele>
        <time>2014-08-30T12:22:24Z</time>
      </trkpt>
      <trkpt lat="46.15609" lon="6.7995">
        <ele>1679.8951</ele>
        <time>2014-08-30T12:22:29Z</time>
      </trkpt>
      <trkpt lat="46.15609" lon="6.79953">
        <ele>1679.8951</ele>
        <time>2014-08-30T12:22:34Z</time>
      </trkpt>
      <trkpt lat="46.15609" lon="6.79955">
        <ele>1679.8951</ele>
        <time>2014-08-30T12:22:39Z</time>
      </trkpt>
      <trkpt lat="46.15609" lon="6.79957">
        <ele>1679.8951</ele>
        <time>2014-08-30T12:22:44Z</time>
      </trkpt>
      <trkpt lat="46.15609" lon="6.79959">
        <ele>1679.8951</ele>
        <time>2014-08-30T12:22:49Z</time>
      </trkpt>
      <trkpt lat="46.15609" lon="6.79959">
        <ele>1679.8951</ele>
        <time>2014-08-30T12:22:54Z</time>
      </trkpt>
      <trkpt lat="46.15609" lon="6.79958">
        <ele>1679.8951</ele>
        <time>2014-08-30T12:22:59Z</time>
      </trkpt>
      <trkpt lat="46.15611" lon="6.79956">
        <ele>1682.1152</ele>
        <time>2014-08-30T12:23:04Z</time>
      </trkpt>
      <trkpt lat="46.15614" lon="6.79955">
        <ele>1682.1152</ele>
        <time>2014-08-30T12:23:09Z</time>
      </trkpt>
      <trkpt lat="46.15617" lon="6.79955">
        <ele>1682.1152</ele>
        <time>2014-08-30T12:23:14Z</time>
      </trkpt>
      <trkpt lat="46.15619" lon="6.79953">
        <ele>1682.1152</ele>
        <time>2014-08-30T12:23:19Z</time>
      </trkpt>
      <trkpt lat="46.1562" lon="6.79949">
        <ele>1684.3928</ele>
        <time>2014-08-30T12:23:24Z</time>
      </trkpt>
      <trkpt lat="46.1562" lon="6.79947">
        <ele>1684.3928</ele>
        <time>2014-08-30T12:23:29Z</time>
      </trkpt>
      <trkpt lat="46.1562" lon="6.79946">
        <ele>1684.3928</ele>
        <time>2014-08-30T12:23:34Z</time>
      </trkpt>
      <trkpt lat="46.15619" lon="6.79942">
        <ele>1684.3928</ele>
        <time>2014-08-30T12:23:39Z</time>
      </trkpt>
      <trkpt lat="46.15619" lon="6.79937">
        <ele>1684.3928</ele>
        <time>2014-08-30T12:23:44Z</time>
      </trkpt>
      <trkpt lat="46.15618" lon="6.79936">
        <ele>1686.3436</ele>
        <time>2014-08-30T12:23:49Z</time>
      </trkpt>
      <trkpt lat="46.15618" lon="6.79935">
        <ele>1686.3436</ele>
        <time>2014-08-30T12:23:54Z</time>
      </trkpt>
      <trkpt lat="46.15614" lon="6.79931">
        <ele>1686.3436</ele>
        <time>2014-08-30T12:23:59Z</time>
      </trkpt>
      <trkpt lat="46.15613" lon="6.7993">
        <ele>1686.3436</ele>
        <time>2014-08-30T12:24:04Z</time>
      </trkpt>
      <trkpt lat="46.15612" lon="6.79926">
        <ele>1688.5492</ele>
        <time>2014-08-30T12:24:09Z</time>
      </trkpt>
      <trkpt lat="46.15611" lon="6.79921">
        <ele>1688.5492</ele>
        <time>2014-08-30T12:24:14Z</time>
      </trkpt>
      <trkpt lat="46.15611" lon="6.79915">
        <ele>1688.5492</ele>
        <time>2014-08-30T12:24:19Z</time>
      </trkpt>
      <trkpt lat="46.15613" lon="6.79912">
        <ele>1690.7411</ele>
        <time>2014-08-30T12:24:24Z</time>
      </trkpt>
      <trkpt lat="46.15614" lon="6.79907">
        <ele>1690.7411</ele>
        <time>2014-08-30T12:24:29Z</time>
      </trkpt>
      <trkpt lat="46.15616" lon="6.79904">
        <ele>1690.7411</ele>
        <time>2014-08-30T12:24:34Z</time>
      </trkpt>
      <trkpt lat="46.15615" lon="6.79901">
        <ele>1690.7411</ele>
        <time>2014-08-30T12:24:39Z</time>
      </trkpt>
      <trkpt lat="46.15614" lon="6.79896">
        <ele>1693.0453</ele>
        <time>2014-08-30T12:24:44Z</time>
      </trkpt>
      <trkpt lat="46.15613" lon="6.79891">
        <ele>1693.0453</ele>
        <time>2014-08-30T12:24:49Z</time>
      </trkpt>
      <trkpt lat="46.15612" lon="6.79887">
        <ele>1693.0453</ele>
        <time>2014-08-30T12:24:54Z</time>
      </trkpt>
      <trkpt lat="46.15611" lon="6.79885">
        <ele>1693.0453</ele>
        <time>2014-08-30T12:24:59Z</time>
      </trkpt>
      <trkpt lat="46.15609" lon="6.79882">
        <ele>1695.7083</ele>
        <time>2014-08-30T12:25:04Z</time>
      </trkpt>
      <trkpt lat="46.15607" lon="6.79882">
        <ele>1695.7083</ele>
        <time>2014-08-30T12:25:09Z</time>
      </trkpt>
      <trkpt lat="46.15605" lon="6.7988">
        <ele>1695.7083</ele>
        <time>2014-08-30T12:25:14Z</time>
      </trkpt>
      <trkpt lat="46.15602" lon="6.79878">
        <ele>1695.7083</ele>
        <time>2014-08-30T12:25:19Z</time>
      </trkpt>
      <trkpt lat="46.15601" lon="6.79877">
        <ele>1695.7083</ele>
        <time>2014-08-30T12:25:24Z</time>
      </trkpt>
      <trkpt lat="46.156" lon="6.79876">
        <ele>1698.7412</ele>
        <time>2014-08-30T12:25:29Z</time>
      </trkpt>
      <trkpt lat="46.15596" lon="6.79876">
        <ele>1698.7412</ele>
        <time>2014-08-30T12:25:34Z</time>
      </trkpt>
      <trkpt lat="46.15593" lon="6.79874">
        <ele>1698.7412</ele>
        <time>2014-08-30T12:25:39Z</time>
      </trkpt>
      <trkpt lat="46.1559" lon="6.79871">
        <ele>1701.6929</ele>
        <time>2014-08-30T12:25:44Z</time>
      </trkpt>
      <trkpt lat="46.15587" lon="6.79871">
        <ele>1701.6929</ele>
        <time>2014-08-30T12:25:49Z</time>
      </trkpt>
      <trkpt lat="46.15586" lon="6.7987">
        <ele>1701.6929</ele>
        <time>2014-08-30T12:25:54Z</time>
      </trkpt>
      <trkpt lat="46.15585" lon="6.7987">
        <ele>1701.6929</ele>
        <time>2014-08-30T12:25:59Z</time>
      </trkpt>
      <trkpt lat="46.15582" lon="6.79867">
        <ele>1701.6929</ele>
        <time>2014-08-30T12:26:04Z</time>
      </trkpt>
      <trkpt lat="46.15581" lon="6.79864">
        <ele>1704.5198</ele>
        <time>2014-08-30T12:26:09Z</time>
      </trkpt>
      <trkpt lat="46.1558" lon="6.79863">
        <ele>1704.5198</ele>
        <time>2014-08-30T12:26:14Z</time>
      </trkpt>
      <trkpt lat="46.15578" lon="6.79862">
        <ele>1704.5198</ele>
        <time>2014-08-30T12:26:19Z</time>
      </trkpt>
      <trkpt lat="46.15575" lon="6.7986">
        <ele>1704.5198</ele>
        <time>2014-08-30T12:26:24Z</time>
      </trkpt>
      <trkpt lat="46.15573" lon="6.79857">
        <ele>1707.0961</ele>
        <time>2014-08-30T12:26:29Z</time>
      </trkpt>
      <trkpt lat="46.1557" lon="6.79854">
        <ele>1707.0961</ele>
        <time>2014-08-30T12:26:34Z</time>
      </trkpt>
      <trkpt lat="46.15569" lon="6.79849">
        <ele>1707.0961</ele>
        <time>2014-08-30T12:26:39Z</time>
      </trkpt>
      <trkpt lat="46.15569" lon="6.79847">
        <ele>1707.0961</ele>
        <time>2014-08-30T12:26:44Z</time>
      </trkpt>
      <trkpt lat="46.15569" lon="6.79845">
        <ele>1709.7382</ele>
        <time>2014-08-30T12:26:49Z</time>
      </trkpt>
      <trkpt lat="46.15569" lon="6.79844">
        <ele>1709.7382</ele>
        <time>2014-08-30T12:26:54Z</time>
      </trkpt>
      <trkpt lat="46.1557" lon="6.79843">
        <ele>1709.7382</ele>
        <time>2014-08-30T12:26:59Z</time>
      </trkpt>
      <trkpt lat="46.1557" lon="6.79839">
        <ele>1709.7382</ele>
        <time>2014-08-30T12:27:04Z</time>
      </trkpt>
      <trkpt lat="46.15571" lon="6.79835">
        <ele>1709.7382</ele>
        <time>2014-08-30T12:27:09Z</time>
      </trkpt>
      <trkpt lat="46.1557" lon="6.79834">
        <ele>1709.7382</ele>
        <time>2014-08-30T12:27:14Z</time>
      </trkpt>
      <trkpt lat="46.15569" lon="6.79833">
        <ele>1712.797</ele>
        <time>2014-08-30T12:27:19Z</time>
      </trkpt>
      <trkpt lat="46.15568" lon="6.79831">
        <ele>1712.797</ele>
        <time>2014-08-30T12:27:24Z</time>
      </trkpt>
      <trkpt lat="46.15568" lon="6.79827">
        <ele>1712.797</ele>
        <time>2014-08-30T12:27:29Z</time>
      </trkpt>
      <trkpt lat="46.15567" lon="6.79825">
        <ele>1712.797</ele>
        <time>2014-08-30T12:27:34Z</time>
      </trkpt>
      <trkpt lat="46.15567" lon="6.7982">
        <ele>1715.8763</ele>
        <time>2014-08-30T12:27:39Z</time>
      </trkpt>
      <trkpt lat="46.15565" lon="6.7982">
        <ele>1715.8763</ele>
        <time>2014-08-30T12:27:44Z</time>
      </trkpt>
      <trkpt lat="46.15563" lon="6.79816">
        <ele>1715.8763</ele>
        <time>2014-08-30T12:27:49Z</time>
      </trkpt>
      <trkpt lat="46.15561" lon="6.79815">
        <ele>1715.8763</ele>
        <time>2014-08-30T12:27:54Z</time>
      </trkpt>
      <trkpt lat="46.15559" lon="6.79814">
        <ele>1718.8684</ele>
        <time>2014-08-30T12:27:59Z</time>
      </trkpt>
      <trkpt lat="46.15558" lon="6.79811">
        <ele>1718.8684</ele>
        <time>2014-08-30T12:28:04Z</time>
      </trkpt>
      <trkpt lat="46.15556" lon="6.79808">
        <ele>1718.8684</ele>
        <time>2014-08-30T12:28:09Z</time>
      </trkpt>
      <trkpt lat="46.15556" lon="6.79805">
        <ele>1718.8684</ele>
        <time>2014-08-30T12:28:14Z</time>
      </trkpt>
      <trkpt lat="46.15556" lon="6.79804">
        <ele>1718.8684</ele>
        <time>2014-08-30T12:28:19Z</time>
      </trkpt>
      <trkpt lat="46.15556" lon="6.79803">
        <ele>1721.9764</ele>
        <time>2014-08-30T12:28:24Z</time>
      </trkpt>
      <trkpt lat="46.15556" lon="6.79799">
        <ele>1721.9764</ele>
        <time>2014-08-30T12:28:29Z</time>
      </trkpt>
      <trkpt lat="46.15556" lon="6.79797">
        <ele>1721.9764</ele>
        <time>2014-08-30T12:28:34Z</time>
      </trkpt>
      <trkpt lat="46.15555" lon="6.79796">
        <ele>1721.9764</ele>
        <time>2014-08-30T12:28:39Z</time>
      </trkpt>
      <trkpt lat="46.15553" lon="6.79796">
        <ele>1721.9764</ele>
        <time>2014-08-30T12:28:44Z</time>
      </trkpt>
      <trkpt lat="46.15551" lon="6.79793">
        <ele>1725.1003</ele>
        <time>2014-08-30T12:28:49Z</time>
      </trkpt>
      <trkpt lat="46.15548" lon="6.79793">
        <ele>1725.1003</ele>
        <time>2014-08-30T12:28:54Z</time>
      </trkpt>
      <trkpt lat="46.15548" lon="6.79789">
        <ele>1725.1003</ele>
        <time>2014-08-30T12:28:59Z</time>
      </trkpt>
      <trkpt lat="46.15547" lon="6.79786">
        <ele>1725.1003</ele>
        <time>2014-08-30T12:29:04Z</time>
      </trkpt>
      <trkpt lat="46.15545" lon="6.79783">
        <ele>1728.0757</ele>
        <time>2014-08-30T12:29:09Z</time>
      </trkpt>
      <trkpt lat="46.15543" lon="6.79783">
        <ele>1728.0757</ele>
        <time>2014-08-30T12:29:14Z</time>
      </trkpt>
      <trkpt lat="46.15541" lon="6.79779">
        <ele>1728.0757</ele>
        <time>2014-08-30T12:29:19Z</time>
      </trkpt>
      <trkpt lat="46.1554" lon="6.79776">
        <ele>1728.0757</ele>
        <time>2014-08-30T12:29:24Z</time>
      </trkpt>
      <trkpt lat="46.1554" lon="6.79774">
        <ele>1728.0757</ele>
        <time>2014-08-30T12:29:29Z</time>
      </trkpt>
      <trkpt lat="46.15537" lon="6.79769">
        <ele>1731.111</ele>
        <time>2014-08-30T12:29:34Z</time>
      </trkpt>
      <trkpt lat="46.15534" lon="6.79766">
        <ele>1731.111</ele>
        <time>2014-08-30T12:29:39Z</time>
      </trkpt>
      <trkpt lat="46.15531" lon="6.79763">
        <ele>1731.111</ele>
        <time>2014-08-30T12:29:44Z</time>
      </trkpt>
      <trkpt lat="46.15528" lon="6.7976">
        <ele>1733.9668</ele>
        <time>2014-08-30T12:29:49Z</time>
      </trkpt>
      <trkpt lat="46.15527" lon="6.79757">
        <ele>1733.9668</ele>
        <time>2014-08-30T12:29:54Z</time>
      </trkpt>
      <trkpt lat="46.15525" lon="6.79755">
        <ele>1733.9668</ele>
        <time>2014-08-30T12:29:59Z</time>
      </trkpt>
      <trkpt lat="46.15523" lon="6.79753">
        <ele>1733.9668</ele>
        <time>2014-08-30T12:30:04Z</time>
      </trkpt>
      <trkpt lat="46.15521" lon="6.79752">
        <ele>1736.8402</ele>
        <time>2014-08-30T12:30:09Z</time>
      </trkpt>
      <trkpt lat="46.15519" lon="6.79748">
        <ele>1736.8402</ele>
        <time>2014-08-30T12:30:14Z</time>
      </trkpt>
      <trkpt lat="46.15514" lon="6.79745">
        <ele>1736.8402</ele>
        <time>2014-08-30T12:30:19Z</time>
      </trkpt>
      <trkpt lat="46.15512" lon="6.79743">
        <ele>1739.6691</ele>
        <time>2014-08-30T12:30:24Z</time>
      </trkpt>
      <trkpt lat="46.15508" lon="6.79741">
        <ele>1739.6691</ele>
        <time>2014-08-30T12:30:29Z</time>
      </trkpt>
      <trkpt lat="46.15502" lon="6.79743">
        <ele>1742.3093</ele>
        <time>2014-08-30T12:30:34Z</time>
      </trkpt>
      <trkpt lat="46.15498" lon="6.79745">
        <ele>1742.3093</ele>
        <time>2014-08-30T12:30:39Z</time>
      </trkpt>
      <trkpt lat="46.15496" lon="6.79745">
        <ele>1742.3093</ele>
        <time>2014-08-30T12:30:44Z</time>
      </trkpt>
      <trkpt lat="46.15492" lon="6.79742">
        <ele>1744.9742</ele>
        <time>2014-08-30T12:30:49Z</time>
      </trkpt>
      <trkpt lat="46.15491" lon="6.79741">
        <ele>1744.9742</ele>
        <time>2014-08-30T12:30:54Z</time>
      </trkpt>
      <trkpt lat="46.15489" lon="6.79742">
        <ele>1744.9742</ele>
        <time>2014-08-30T12:30:59Z</time>
      </trkpt>
      <trkpt lat="46.15486" lon="6.79744">
        <ele>1744.9742</ele>
        <time>2014-08-30T12:31:04Z</time>
      </trkpt>
      <trkpt lat="46.15483" lon="6.79743">
        <ele>1747.4147</ele>
        <time>2014-08-30T12:31:09Z</time>
      </trkpt>
      <trkpt lat="46.15481" lon="6.79742">
        <ele>1747.4147</ele>
        <time>2014-08-30T12:31:14Z</time>
      </trkpt>
      <trkpt lat="46.15478" lon="6.79743">
        <ele>1747.4147</ele>
        <time>2014-08-30T12:31:19Z</time>
      </trkpt>
      <trkpt lat="46.15475" lon="6.79742">
        <ele>1747.4147</ele>
        <time>2014-08-30T12:31:24Z</time>
      </trkpt>
      <trkpt lat="46.15473" lon="6.79743">
        <ele>1749.7468</ele>
        <time>2014-08-30T12:31:29Z</time>
      </trkpt>
      <trkpt lat="46.1547" lon="6.79743">
        <ele>1749.7468</ele>
        <time>2014-08-30T12:31:34Z</time>
      </trkpt>
      <trkpt lat="46.15469" lon="6.79743">
        <ele>1749.7468</ele>
        <time>2014-08-30T12:31:39Z</time>
      </trkpt>
      <trkpt lat="46.15462" lon="6.79741">
        <ele>1751.7467</ele>
        <time>2014-08-30T12:31:44Z</time>
      </trkpt>
      <trkpt lat="46.15459" lon="6.79741">
        <ele>1751.7467</ele>
        <time>2014-08-30T12:31:49Z</time>
      </trkpt>
      <trkpt lat="46.15454" lon="6.79738">
        <ele>1753.5399</ele>
        <time>2014-08-30T12:31:54Z</time>
      </trkpt>
      <trkpt lat="46.15448" lon="6.79736">
        <ele>1753.5399</ele>
        <time>2014-08-30T12:31:59Z</time>
      </trkpt>
      <trkpt lat="46.15446" lon="6.79736">
        <ele>1753.5399</ele>
        <time>2014-08-30T12:32:04Z</time>
      </trkpt>
      <trkpt lat="46.15443" lon="6.79737">
        <ele>1755.4739</ele>
        <time>2014-08-30T12:32:09Z</time>
      </trkpt>
      <trkpt lat="46.15439" lon="6.79739">
        <ele>1755.4739</ele>
        <time>2014-08-30T12:32:14Z</time>
      </trkpt>
      <trkpt lat="46.15435" lon="6.7974">
        <ele>1755.4739</ele>
        <time>2014-08-30T12:32:19Z</time>
      </trkpt>
      <trkpt lat="46.15431" lon="6.7974">
        <ele>1757.3514</ele>
        <time>2014-08-30T12:32:24Z</time>
      </trkpt>
      <trkpt lat="46.15428" lon="6.79742">
        <ele>1757.3514</ele>
        <time>2014-08-30T12:32:29Z</time>
      </trkpt>
      <trkpt lat="46.15426" lon="6.79741">
        <ele>1757.3514</ele>
        <time>2014-08-30T12:32:34Z</time>
      </trkpt>
      <trkpt lat="46.15422" lon="6.79738">
        <ele>1759.019</ele>
        <time>2014-08-30T12:32:39Z</time>
      </trkpt>
      <trkpt lat="46.15419" lon="6.79736">
        <ele>1759.019</ele>
        <time>2014-08-30T12:32:44Z</time>
      </trkpt>
      <trkpt lat="46.15414" lon="6.79733">
        <ele>1759.019</ele>
        <time>2014-08-30T12:32:49Z</time>
      </trkpt>
      <trkpt lat="46.15411" lon="6.79733">
        <ele>1760.6664</ele>
        <time>2014-08-30T12:32:54Z</time>
      </trkpt>
      <trkpt lat="46.15407" lon="6.79731">
        <ele>1760.6664</ele>
        <time>2014-08-30T12:32:59Z</time>
      </trkpt>
      <trkpt lat="46.15402" lon="6.7973">
        <ele>1762.1671</ele>
        <time>2014-08-30T12:33:04Z</time>
      </trkpt>
      <trkpt lat="46.154" lon="6.79731">
        <ele>1762.1671</ele>
        <time>2014-08-30T12:33:09Z</time>
      </trkpt>
      <trkpt lat="46.15398" lon="6.79729">
        <ele>1762.1671</ele>
        <time>2014-08-30T12:33:14Z</time>
      </trkpt>
      <trkpt lat="46.15396" lon="6.79729">
        <ele>1762.1671</ele>
        <time>2014-08-30T12:33:19Z</time>
      </trkpt>
      <trkpt lat="46.1539" lon="6.79727">
        <ele>1763.5629</ele>
        <time>2014-08-30T12:33:24Z</time>
      </trkpt>
      <trkpt lat="46.15389" lon="6.79727">
        <ele>1763.5629</ele>
        <time>2014-08-30T12:33:29Z</time>
      </trkpt>
      <trkpt lat="46.15386" lon="6.79725">
        <ele>1763.5629</ele>
        <time>2014-08-30T12:33:34Z</time>
      </trkpt>
      <trkpt lat="46.15382" lon="6.79722">
        <ele>1763.5629</ele>
        <time>2014-08-30T12:33:39Z</time>
      </trkpt>
      <trkpt lat="46.15379" lon="6.79719">
        <ele>1764.7917</ele>
        <time>2014-08-30T12:33:44Z</time>
      </trkpt>
      <trkpt lat="46.15377" lon="6.79715">
        <ele>1764.7917</ele>
        <time>2014-08-30T12:33:49Z</time>
      </trkpt>
      <trkpt lat="46.15373" lon="6.79713">
        <ele>1764.7917</ele>
        <time>2014-08-30T12:33:54Z</time>
      </trkpt>
      <trkpt lat="46.15369" lon="6.7971">
        <ele>1765.7251</ele>
        <time>2014-08-30T12:33:59Z</time>
      </trkpt>
      <trkpt lat="46.15365" lon="6.79708">
        <ele>1765.7251</ele>
        <time>2014-08-30T12:34:04Z</time>
      </trkpt>
      <trkpt lat="46.15359" lon="6.79704">
        <ele>1766.5323</ele>
        <time>2014-08-30T12:34:09Z</time>
      </trkpt>
      <trkpt lat="46.15355" lon="6.79704">
        <ele>1766.5323</ele>
        <time>2014-08-30T12:34:14Z</time>
      </trkpt>
      <trkpt lat="46.15353" lon="6.79702">
        <ele>1766.5323</ele>
        <time>2014-08-30T12:34:19Z</time>
      </trkpt>
      <trkpt lat="46.15351" lon="6.79699">
        <ele>1767.112</ele>
        <time>2014-08-30T12:34:24Z</time>
      </trkpt>
      <trkpt lat="46.15349" lon="6.79696">
        <ele>1767.112</ele>
        <time>2014-08-30T12:34:29Z</time>
      </trkpt>
      <trkpt lat="46.15343" lon="6.79695">
        <ele>1767.4424</ele>
        <time>2014-08-30T12:34:34Z</time>
      </trkpt>
      <trkpt lat="46.15339" lon="6.79698">
        <ele>1767.4424</ele>
        <time>2014-08-30T12:34:39Z</time>
      </trkpt>
      <trkpt lat="46.15337" lon="6.79703">
        <ele>1767.4424</ele>
        <time>2014-08-30T12:34:44Z</time>
      </trkpt>
      <trkpt lat="46.15337" lon="6.79706">
        <ele>1767.5474</ele>
        <time>2014-08-30T12:34:49Z</time>
      </trkpt>
      <trkpt lat="46.15335" lon="6.79711">
        <ele>1767.5474</ele>
        <time>2014-08-30T12:34:54Z</time>
      </trkpt>
      <trkpt lat="46.15333" lon="6.79715">
        <ele>1767.5474</ele>
        <time>2014-08-30T12:34:59Z</time>
      </trkpt>
      <trkpt lat="46.15331" lon="6.7972">
        <ele>1767.5505</ele>
        <time>2014-08-30T12:35:04Z</time>
      </trkpt>
      <trkpt lat="46.1533" lon="6.79722">
        <ele>1767.5505</ele>
        <time>2014-08-30T12:35:09Z</time>
      </trkpt>
      <trkpt lat="46.15329" lon="6.79725">
        <ele>1767.5505</ele>
        <time>2014-08-30T12:35:14Z</time>
      </trkpt>
      <trkpt lat="46.15328" lon="6.79726">
        <ele>1767.5505</ele>
        <time>2014-08-30T12:35:19Z</time>
      </trkpt>
      <trkpt lat="46.15327" lon="6.7973">
        <ele>1767.5505</ele>
        <time>2014-08-30T12:35:24Z</time>
      </trkpt>
      <trkpt lat="46.15325" lon="6.79735">
        <ele>1767.639</ele>
        <time>2014-08-30T12:35:29Z</time>
      </trkpt>
      <trkpt lat="46.15324" lon="6.79738">
        <ele>1767.639</ele>
        <time>2014-08-30T12:35:34Z</time>
      </trkpt>
      <trkpt lat="46.15323" lon="6.79742">
        <ele>1767.639</ele>
        <time>2014-08-30T12:35:39Z</time>
      </trkpt>
      <trkpt lat="46.15324" lon="6.79744">
        <ele>1767.639</ele>
        <time>2014-08-30T12:35:44Z</time>
      </trkpt>
      <trkpt lat="46.15322" lon="6.79748">
        <ele>1767.8269</ele>
        <time>2014-08-30T12:35:49Z</time>
      </trkpt>
      <trkpt lat="46.15318" lon="6.7975">
        <ele>1767.8269</ele>
        <time>2014-08-30T12:35:54Z</time>
      </trkpt>
      <trkpt lat="46.15315" lon="6.7975">
        <ele>1767.8269</ele>
        <time>2014-08-30T12:35:59Z</time>
      </trkpt>
      <trkpt lat="46.15312" lon="6.79747">
        <ele>1768.1704</ele>
        <time>2014-08-30T12:36:04Z</time>
      </trkpt>
      <trkpt lat="46.1531" lon="6.79745">
        <ele>1768.1704</ele>
        <time>2014-08-30T12:36:09Z</time>
      </trkpt>
      <trkpt lat="46.1531" lon="6.79743">
        <ele>1768.1704</ele>
        <time>2014-08-30T12:36:14Z</time>
      </trkpt>
      <trkpt lat="46.1531" lon="6.79741">
        <ele>1768.1704</ele>
        <time>2014-08-30T12:36:19Z</time>
      </trkpt>
      <trkpt lat="46.1531" lon="6.79733">
        <ele>1768.5769</ele>
        <time>2014-08-30T12:36:24Z</time>
      </trkpt>
      <trkpt lat="46.1531" lon="6.79726">
        <ele>1768.5769</ele>
        <time>2014-08-30T12:36:29Z</time>
      </trkpt>
      <trkpt lat="46.1531" lon="6.79722">
        <ele>1768.5769</ele>
        <time>2014-08-30T12:36:34Z</time>
      </trkpt>
      <trkpt lat="46.1531" lon="6.79717">
        <ele>1769.3496</ele>
        <time>2014-08-30T12:36:39Z</time>
      </trkpt>
      <trkpt lat="46.15309" lon="6.79715">
        <ele>1769.3496</ele>
        <time>2014-08-30T12:36:44Z</time>
      </trkpt>
      <trkpt lat="46.15308" lon="6.79712">
        <ele>1769.3496</ele>
        <time>2014-08-30T12:36:49Z</time>
      </trkpt>
      <trkpt lat="46.15307" lon="6.7971">
        <ele>1769.3496</ele>
        <time>2014-08-30T12:36:54Z</time>
      </trkpt>
      <trkpt lat="46.15305" lon="6.79706">
        <ele>1769.8745</ele>
        <time>2014-08-30T12:36:59Z</time>
      </trkpt>
      <trkpt lat="46.15304" lon="6.79702">
        <ele>1769.8745</ele>
        <time>2014-08-30T12:37:04Z</time>
      </trkpt>
      <trkpt lat="46.15303" lon="6.79703">
        <ele>1769.8745</ele>
        <time>2014-08-30T12:37:09Z</time>
      </trkpt>
      <trkpt lat="46.15301" lon="6.79705">
        <ele>1769.8745</ele>
        <time>2014-08-30T12:37:14Z</time>
      </trkpt>
      <trkpt lat="46.15299" lon="6.79707">
        <ele>1769.8745</ele>
        <time>2014-08-30T12:37:19Z</time>
      </trkpt>
      <trkpt lat="46.15298" lon="6.79711">
        <ele>1770.7654</ele>
        <time>2014-08-30T12:37:24Z</time>
      </trkpt>
      <trkpt lat="46.15296" lon="6.79713">
        <ele>1770.7654</ele>
        <time>2014-08-30T12:37:29Z</time>
      </trkpt>
      <trkpt lat="46.15295" lon="6.79716">
        <ele>1770.7654</ele>
        <time>2014-08-30T12:37:34Z</time>
      </trkpt>
      <trkpt lat="46.15293" lon="6.79719">
        <ele>1770.7654</ele>
        <time>2014-08-30T12:37:39Z</time>
      </trkpt>
      <trkpt lat="46.15291" lon="6.79722">
        <ele>1771.8398</ele>
        <time>2014-08-30T12:37:44Z</time>
      </trkpt>
      <trkpt lat="46.15289" lon="6.79725">
        <ele>1771.8398</ele>
        <time>2014-08-30T12:37:49Z</time>
      </trkpt>
      <trkpt lat="46.15288" lon="6.79726">
        <ele>1771.8398</ele>
        <time>2014-08-30T12:37:54Z</time>
      </trkpt>
      <trkpt lat="46.15285" lon="6.79727">
        <ele>1771.8398</ele>
        <time>2014-08-30T12:37:59Z</time>
      </trkpt>
      <trkpt lat="46.15282" lon="6.79725">
        <ele>1773.0587</ele>
        <time>2014-08-30T12:38:04Z</time>
      </trkpt>
      <trkpt lat="46.15281" lon="6.79722">
        <ele>1773.0587</ele>
        <time>2014-08-30T12:38:09Z</time>
      </trkpt>
      <trkpt lat="46.15282" lon="6.79719">
        <ele>1773.0587</ele>
        <time>2014-08-30T12:38:14Z</time>
      </trkpt>
      <trkpt lat="46.15283" lon="6.79715">
        <ele>1773.0587</ele>
        <time>2014-08-30T12:38:19Z</time>
      </trkpt>
      <trkpt lat="46.15285" lon="6.79713">
        <ele>1774.4999</ele>
        <time>2014-08-30T12:38:24Z</time>
      </trkpt>
      <trkpt lat="46.15286" lon="6.7971">
        <ele>1774.4999</ele>
        <time>2014-08-30T12:38:29Z</time>
      </trkpt>
      <trkpt lat="46.15287" lon="6.79702">
        <ele>1774.4999</ele>
        <time>2014-08-30T12:38:34Z</time>
      </trkpt>
      <trkpt lat="46.15287" lon="6.79698">
        <ele>1776.1917</ele>
        <time>2014-08-30T12:38:39Z</time>
      </trkpt>
      <trkpt lat="46.15286" lon="6.79694">
        <ele>1776.1917</ele>
        <time>2014-08-30T12:38:44Z</time>
      </trkpt>
      <trkpt lat="46.15287" lon="6.79692">
        <ele>1776.1917</ele>
        <time>2014-08-30T12:38:49Z</time>
      </trkpt>
      <trkpt lat="46.15287" lon="6.79688">
        <ele>1776.1917</ele>
        <time>2014-08-30T12:38:54Z</time>
      </trkpt>
      <trkpt lat="46.15286" lon="6.79687">
        <ele>1776.1917</ele>
        <time>2014-08-30T12:38:59Z</time>
      </trkpt>
      <trkpt lat="46.15286" lon="6.79686">
        <ele>1776.1917</ele>
        <time>2014-08-30T12:39:04Z</time>
      </trkpt>
      <trkpt lat="46.15286" lon="6.79684">
        <ele>1778.4768</ele>
        <time>2014-08-30T12:39:09Z</time>
      </trkpt>
      <trkpt lat="46.15286" lon="6.79682">
        <ele>1778.4768</ele>
        <time>2014-08-30T12:39:14Z</time>
      </trkpt>
      <trkpt lat="46.15286" lon="6.79678">
        <ele>1778.4768</ele>
        <time>2014-08-30T12:39:19Z</time>
      </trkpt>
      <trkpt lat="46.15285" lon="6.79676">
        <ele>1778.4768</ele>
        <time>2014-08-30T12:39:24Z</time>
      </trkpt>
      <trkpt lat="46.15284" lon="6.7967">
        <ele>1780.4027</ele>
        <time>2014-08-30T12:39:29Z</time>
      </trkpt>
      <trkpt lat="46.15283" lon="6.7967">
        <ele>1780.4027</ele>
        <time>2014-08-30T12:39:34Z</time>
      </trkpt>
      <trkpt lat="46.15282" lon="6.79671">
        <ele>1780.4027</ele>
        <time>2014-08-30T12:39:39Z</time>
      </trkpt>
      <trkpt lat="46.15281" lon="6.79671">
        <ele>1780.4027</ele>
        <time>2014-08-30T12:39:44Z</time>
      </trkpt>
      <trkpt lat="46.1528" lon="6.79672">
        <ele>1780.4027</ele>
        <time>2014-08-30T12:39:49Z</time>
      </trkpt>
      <trkpt lat="46.1528" lon="6.79675">
        <ele>1780.4027</ele>
        <time>2014-08-30T12:39:54Z</time>
      </trkpt>
      <trkpt lat="46.15278" lon="6.7968">
        <ele>1782.9034</ele>
        <time>2014-08-30T12:39:59Z</time>
      </trkpt>
      <trkpt lat="46.15275" lon="6.79686">
        <ele>1782.9034</ele>
        <time>2014-08-30T12:40:04Z</time>
      </trkpt>
      <trkpt lat="46.15269" lon="6.79688">
        <ele>1785.3441</ele>
        <time>2014-08-30T12:40:09Z</time>
      </trkpt>
      <trkpt lat="46.15266" lon="6.79688">
        <ele>1785.3441</ele>
        <time>2014-08-30T12:40:14Z</time>
      </trkpt>
      <trkpt lat="46.15265" lon="6.79687">
        <ele>1785.3441</ele>
        <time>2014-08-30T12:40:19Z</time>
      </trkpt>
      <trkpt lat="46.15264" lon="6.79682">
        <ele>1785.3441</ele>
        <time>2014-08-30T12:40:24Z</time>
      </trkpt>
      <trkpt lat="46.15265" lon="6.79679">
        <ele>1787.9725</ele>
        <time>2014-08-30T12:40:29Z</time>
      </trkpt>
      <trkpt lat="46.15265" lon="6.79676">
        <ele>1787.9725</ele>
        <time>2014-08-30T12:40:34Z</time>
      </trkpt>
      <trkpt lat="46.15263" lon="6.79674">
        <ele>1787.9725</ele>
        <time>2014-08-30T12:40:39Z</time>
      </trkpt>
      <trkpt lat="46.15262" lon="6.79668">
        <ele>1787.9725</ele>
        <time>2014-08-30T12:40:44Z</time>
      </trkpt>
      <trkpt lat="46.15261" lon="6.79663">
        <ele>1790.5562</ele>
        <time>2014-08-30T12:40:49Z</time>
      </trkpt>
      <trkpt lat="46.15259" lon="6.79658">
        <ele>1790.5562</ele>
        <time>2014-08-30T12:40:54Z</time>
      </trkpt>
      <trkpt lat="46.15257" lon="6.79655">
        <ele>1790.5562</ele>
        <time>2014-08-30T12:40:59Z</time>
      </trkpt>
      <trkpt lat="46.15256" lon="6.79652">
        <ele>1792.7935</ele>
        <time>2014-08-30T12:41:04Z</time>
      </trkpt>
      <trkpt lat="46.15254" lon="6.79649">
        <ele>1792.7935</ele>
        <time>2014-08-30T12:41:09Z</time>
      </trkpt>
      <trkpt lat="46.15252" lon="6.79646">
        <ele>1792.7935</ele>
        <time>2014-08-30T12:41:14Z</time>
      </trkpt>
      <trkpt lat="46.1525" lon="6.79643">
        <ele>1792.7935</ele>
        <time>2014-08-30T12:41:19Z</time>
      </trkpt>
      <trkpt lat="46.15248" lon="6.7964">
        <ele>1794.9105</ele>
        <time>2014-08-30T12:41:24Z</time>
      </trkpt>
      <trkpt lat="46.15247" lon="6.79638">
        <ele>1794.9105</ele>
        <time>2014-08-30T12:41:29Z</time>
      </trkpt>
      <trkpt lat="46.15245" lon="6.79637">
        <ele>1794.9105</ele>
        <time>2014-08-30T12:41:34Z</time>
      </trkpt>
      <trkpt lat="46.15242" lon="6.79635">
        <ele>1794.9105</ele>
        <time>2014-08-30T12:41:39Z</time>
      </trkpt>
      <trkpt lat="46.15239" lon="6.79636">
        <ele>1796.9004</ele>
        <time>2014-08-30T12:41:44Z</time>
      </trkpt>
      <trkpt lat="46.15238" lon="6.79637">
        <ele>1796.9004</ele>
        <time>2014-08-30T12:41:49Z</time>
      </trkpt>
      <trkpt lat="46.15237" lon="6.79637">
        <ele>1796.9004</ele>
        <time>2014-08-30T12:41:54Z</time>
      </trkpt>
      <trkpt lat="46.15236" lon="6.79643">
        <ele>1796.9004</ele>
        <time>2014-08-30T12:41:59Z</time>
      </trkpt>
      <trkpt lat="46.15235" lon="6.79646">
        <ele>1796.9004</ele>
        <time>2014-08-30T12:42:04Z</time>
      </trkpt>
      <trkpt lat="46.15233" lon="6.79652">
        <ele>1799.3197</ele>
        <time>2014-08-30T12:42:09Z</time>
      </trkpt>
      <trkpt lat="46.1523" lon="6.79656">
        <ele>1799.3197</ele>
        <time>2014-08-30T12:42:14Z</time>
      </trkpt>
      <trkpt lat="46.15226" lon="6.7966">
        <ele>1799.3197</ele>
        <time>2014-08-30T12:42:19Z</time>
      </trkpt>
      <trkpt lat="46.15223" lon="6.7966">
        <ele>1801.9042</ele>
        <time>2014-08-30T12:42:24Z</time>
      </trkpt>
      <trkpt lat="46.1522" lon="6.79658">
        <ele>1801.9042</ele>
        <time>2014-08-30T12:42:29Z</time>
      </trkpt>
      <trkpt lat="46.15218" lon="6.79655">
        <ele>1801.9042</ele>
        <time>2014-08-30T12:42:34Z</time>
      </trkpt>
      <trkpt lat="46.15217" lon="6.79652">
        <ele>1801.9042</ele>
        <time>2014-08-30T12:42:39Z</time>
      </trkpt>
      <trkpt lat="46.15216" lon="6.79648">
        <ele>1804.7404</ele>
        <time>2014-08-30T12:42:44Z</time>
      </trkpt>
      <trkpt lat="46.15215" lon="6.79647">
        <ele>1804.7404</ele>
        <time>2014-08-30T12:42:49Z</time>
      </trkpt>
      <trkpt lat="46.15212" lon="6.79646">
        <ele>1804.7404</ele>
        <time>2014-08-30T12:42:54Z</time>
      </trkpt>
      <trkpt lat="46.15209" lon="6.79645">
        <ele>1804.7404</ele>
        <time>2014-08-30T12:42:59Z</time>
      </trkpt>
      <trkpt lat="46.15207" lon="6.79644">
        <ele>1807.3597</ele>
        <time>2014-08-30T12:43:04Z</time>
      </trkpt>
      <trkpt lat="46.15206" lon="6.79643">
        <ele>1807.3597</ele>
        <time>2014-08-30T12:43:09Z</time>
      </trkpt>
      <trkpt lat="46.15203" lon="6.79645">
        <ele>1807.3597</ele>
        <time>2014-08-30T12:43:14Z</time>
      </trkpt>
      <trkpt lat="46.15199" lon="6.79646">
        <ele>1807.3597</ele>
        <time>2014-08-30T12:43:19Z</time>
      </trkpt>
      <trkpt lat="46.15196" lon="6.79649">
        <ele>1809.9633</ele>
        <time>2014-08-30T12:43:24Z</time>
      </trkpt>
      <trkpt lat="46.15194" lon="6.79653">
        <ele>1809.9633</ele>
        <time>2014-08-30T12:43:29Z</time>
      </trkpt>
      <trkpt lat="46.15191" lon="6.79658">
        <ele>1809.9633</ele>
        <time>2014-08-30T12:43:34Z</time>
      </trkpt>
      <trkpt lat="46.15189" lon="6.79661">
        <ele>1812.4486</ele>
        <time>2014-08-30T12:43:39Z</time>
      </trkpt>
      <trkpt lat="46.15187" lon="6.79662">
        <ele>1812.4486</ele>
        <time>2014-08-30T12:43:44Z</time>
      </trkpt>
      <trkpt lat="46.15186" lon="6.79663">
        <ele>1812.4486</ele>
        <time>2014-08-30T12:43:49Z</time>
      </trkpt>
      <trkpt lat="46.15184" lon="6.79662">
        <ele>1812.4486</ele>
        <time>2014-08-30T12:43:54Z</time>
      </trkpt>
      <trkpt lat="46.15183" lon="6.7966">
        <ele>1812.4486</ele>
        <time>2014-08-30T12:43:59Z</time>
      </trkpt>
      <trkpt lat="46.15182" lon="6.79658">
        <ele>1814.9955</ele>
        <time>2014-08-30T12:44:04Z</time>
      </trkpt>
      <trkpt lat="46.15179" lon="6.79656">
        <ele>1814.9955</ele>
        <time>2014-08-30T12:44:09Z</time>
      </trkpt>
      <trkpt lat="46.15176" lon="6.79653">
        <ele>1814.9955</ele>
        <time>2014-08-30T12:44:14Z</time>
      </trkpt>
      <trkpt lat="46.1517" lon="6.79651">
        <ele>1817.5106</ele>
        <time>2014-08-30T12:44:19Z</time>
      </trkpt>
      <trkpt lat="46.15166" lon="6.7965">
        <ele>1817.5106</ele>
        <time>2014-08-30T12:44:24Z</time>
      </trkpt>
      <trkpt lat="46.15164" lon="6.79652">
        <ele>1817.5106</ele>
        <time>2014-08-30T12:44:29Z</time>
      </trkpt>
      <trkpt lat="46.15161" lon="6.79655">
        <ele>1819.7925</ele>
        <time>2014-08-30T12:44:34Z</time>
      </trkpt>
      <trkpt lat="46.15157" lon="6.79658">
        <ele>1819.7925</ele>
        <time>2014-08-30T12:44:39Z</time>
      </trkpt>
      <trkpt lat="46.15155" lon="6.7966">
        <ele>1819.7925</ele>
        <time>2014-08-30T12:44:44Z</time>
      </trkpt>
      <trkpt lat="46.15152" lon="6.79662">
        <ele>1822.0153</ele>
        <time>2014-08-30T12:44:49Z</time>
      </trkpt>
      <trkpt lat="46.1515" lon="6.79664">
        <ele>1822.0153</ele>
        <time>2014-08-30T12:44:54Z</time>
      </trkpt>
      <trkpt lat="46.15147" lon="6.79666">
        <ele>1822.0153</ele>
        <time>2014-08-30T12:44:59Z</time>
      </trkpt>
      <trkpt lat="46.15146" lon="6.79671">
        <ele>1824.254</ele>
        <time>2014-08-30T12:45:04Z</time>
      </trkpt>
      <trkpt lat="46.15146" lon="6.79675">
        <ele>1824.254</ele>
        <time>2014-08-30T12:45:09Z</time>
      </trkpt>
      <trkpt lat="46.15145" lon="6.79679">
        <ele>1824.254</ele>
        <time>2014-08-30T12:45:14Z</time>
      </trkpt>
      <trkpt lat="46.15144" lon="6.79684">
        <ele>1826.449</ele>
        <time>2014-08-30T12:45:19Z</time>
      </trkpt>
      <trkpt lat="46.15143" lon="6.7969">
        <ele>1826.449</ele>
        <time>2014-08-30T12:45:24Z</time>
      </trkpt>
      <trkpt lat="46.15141" lon="6.79695">
        <ele>1826.449</ele>
        <time>2014-08-30T12:45:29Z</time>
      </trkpt>
      <trkpt lat="46.15138" lon="6.79698">
        <ele>1828.6453</ele>
        <time>2014-08-30T12:45:34Z</time>
      </trkpt>
      <trkpt lat="46.15136" lon="6.79699">
        <ele>1828.6453</ele>
        <time>2014-08-30T12:45:39Z</time>
      </trkpt>
      <trkpt lat="46.15133" lon="6.797">
        <ele>1828.6453</ele>
        <time>2014-08-30T12:45:44Z</time>
      </trkpt>
      <trkpt lat="46.15131" lon="6.797">
        <ele>1828.6453</ele>
        <time>2014-08-30T12:45:49Z</time>
      </trkpt>
      <trkpt lat="46.15129" lon="6.79698">
        <ele>1830.9283</ele>
        <time>2014-08-30T12:45:54Z</time>
      </trkpt>
      <trkpt lat="46.15126" lon="6.79696">
        <ele>1830.9283</ele>
        <time>2014-08-30T12:45:59Z</time>
      </trkpt>
      <trkpt lat="46.15124" lon="6.79694">
        <ele>1830.9283</ele>
        <time>2014-08-30T12:46:04Z</time>
      </trkpt>
      <trkpt lat="46.15121" lon="6.79691">
        <ele>1833.2761</ele>
        <time>2014-08-30T12:46:09Z</time>
      </trkpt>
      <trkpt lat="46.15119" lon="6.79689">
        <ele>1833.2761</ele>
        <time>2014-08-30T12:46:14Z</time>
      </trkpt>
      <trkpt lat="46.15117" lon="6.79685">
        <ele>1833.2761</ele>
        <time>2014-08-30T12:46:19Z</time>
      </trkpt>
      <trkpt lat="46.15116" lon="6.79683">
        <ele>1833.2761</ele>
        <time>2014-08-30T12:46:24Z</time>
      </trkpt>
      <trkpt lat="46.15115" lon="6.79681">
        <ele>1835.4087</ele>
        <time>2014-08-30T12:46:29Z</time>
      </trkpt>
      <trkpt lat="46.15112" lon="6.7968">
        <ele>1835.4087</ele>
        <time>2014-08-30T12:46:34Z</time>
      </trkpt>
      <trkpt lat="46.15109" lon="6.79678">
        <ele>1835.4087</ele>
        <time>2014-08-30T12:46:39Z</time>
      </trkpt>
      <trkpt lat="46.15107" lon="6.79675">
        <ele>1837.4562</ele>
        <time>2014-08-30T12:46:44Z</time>
      </trkpt>
      <trkpt lat="46.15105" lon="6.79668">
        <ele>1837.4562</ele>
        <time>2014-08-30T12:46:49Z</time>
      </trkpt>
      <trkpt lat="46.15105" lon="6.79666">
        <ele>1837.4562</ele>
        <time>2014-08-30T12:46:54Z</time>
      </trkpt>
      <trkpt lat="46.15102" lon="6.79663">
        <ele>1839.6265</ele>
        <time>2014-08-30T12:46:59Z</time>
      </trkpt>
      <trkpt lat="46.15099" lon="6.79662">
        <ele>1839.6265</ele>
        <time>2014-08-30T12:47:04Z</time>
      </trkpt>
      <trkpt lat="46.15095" lon="6.7966">
        <ele>1839.6265</ele>
        <time>2014-08-30T12:47:09Z</time>
      </trkpt>
      <trkpt lat="46.15095" lon="6.79659">
        <ele>1839.6265</ele>
        <time>2014-08-30T12:47:14Z</time>
      </trkpt>
      <trkpt lat="46.15095" lon="6.79659">
        <ele>1839.6265</ele>
        <time>2014-08-30T12:47:19Z</time>
      </trkpt>
      <trkpt lat="46.15097" lon="6.79653">
        <ele>1842.1832</ele>
        <time>2014-08-30T12:47:29Z</time>
      </trkpt>
      <trkpt lat="46.15098" lon="6.79649">
        <ele>1842.1832</ele>
        <time>2014-08-30T12:47:34Z</time>
      </trkpt>
      <trkpt lat="46.15098" lon="6.7964">
        <ele>1842.1832</ele>
        <time>2014-08-30T12:47:39Z</time>
      </trkpt>
      <trkpt lat="46.15097" lon="6.79632">
        <ele>1844.8802</ele>
        <time>2014-08-30T12:47:44Z</time>
      </trkpt>
      <trkpt lat="46.15097" lon="6.79628">
        <ele>1844.8802</ele>
        <time>2014-08-30T12:47:49Z</time>
      </trkpt>
      <trkpt lat="46.15097" lon="6.79625">
        <ele>1844.8802</ele>
        <time>2014-08-30T12:47:54Z</time>
      </trkpt>
      <trkpt lat="46.15095" lon="6.79619">
        <ele>1847.5753</ele>
        <time>2014-08-30T12:47:59Z</time>
      </trkpt>
      <trkpt lat="46.15093" lon="6.79611">
        <ele>1847.5753</ele>
        <time>2014-08-30T12:48:04Z</time>
      </trkpt>
      <trkpt lat="46.15091" lon="6.79609">
        <ele>1847.5753</ele>
        <time>2014-08-30T12:48:09Z</time>
      </trkpt>
      <trkpt lat="46.15089" lon="6.79604">
        <ele>1850.2087</ele>
        <time>2014-08-30T12:48:14Z</time>
      </trkpt>
      <trkpt lat="46.15085" lon="6.79601">
        <ele>1850.2087</ele>
        <time>2014-08-30T12:48:19Z</time>
      </trkpt>
      <trkpt lat="46.15079" lon="6.79599">
        <ele>1852.4662</ele>
        <time>2014-08-30T12:48:24Z</time>
      </trkpt>
      <trkpt lat="46.15078" lon="6.79599">
        <ele>1852.4662</ele>
        <time>2014-08-30T12:48:29Z</time>
      </trkpt>
      <trkpt lat="46.15074" lon="6.796">
        <ele>1852.4662</ele>
        <time>2014-08-30T12:48:34Z</time>
      </trkpt>
      <trkpt lat="46.15068" lon="6.79598">
        <ele>1854.2736</ele>
        <time>2014-08-30T12:48:39Z</time>
      </trkpt>
      <trkpt lat="46.15064" lon="6.79594">
        <ele>1854.2736</ele>
        <time>2014-08-30T12:48:44Z</time>
      </trkpt>
      <trkpt lat="46.15062" lon="6.79591">
        <ele>1854.2736</ele>
        <time>2014-08-30T12:48:49Z</time>
      </trkpt>
      <trkpt lat="46.1506" lon="6.79587">
        <ele>1856.0103</ele>
        <time>2014-08-30T12:48:54Z</time>
      </trkpt>
      <trkpt lat="46.15058" lon="6.79583">
        <ele>1856.0103</ele>
        <time>2014-08-30T12:48:59Z</time>
      </trkpt>
      <trkpt lat="46.15057" lon="6.79578">
        <ele>1856.0103</ele>
        <time>2014-08-30T12:49:04Z</time>
      </trkpt>
      <trkpt lat="46.15055" lon="6.79574">
        <ele>1857.711</ele>
        <time>2014-08-30T12:49:09Z</time>
      </trkpt>
      <trkpt lat="46.15052" lon="6.79573">
        <ele>1857.711</ele>
        <time>2014-08-30T12:49:14Z</time>
      </trkpt>
      <trkpt lat="46.1505" lon="6.79573">
        <ele>1857.711</ele>
        <time>2014-08-30T12:49:19Z</time>
      </trkpt>
      <trkpt lat="46.15046" lon="6.79577">
        <ele>1859.2064</ele>
        <time>2014-08-30T12:49:24Z</time>
      </trkpt>
      <trkpt lat="46.15042" lon="6.7958">
        <ele>1859.2064</ele>
        <time>2014-08-30T12:49:29Z</time>
      </trkpt>
      <trkpt lat="46.15037" lon="6.79584">
        <ele>1860.5995</ele>
        <time>2014-08-30T12:49:34Z</time>
      </trkpt>
      <trkpt lat="46.15034" lon="6.79585">
        <ele>1860.5995</ele>
        <time>2014-08-30T12:49:39Z</time>
      </trkpt>
      <trkpt lat="46.1503" lon="6.79584">
        <ele>1860.5995</ele>
        <time>2014-08-30T12:49:44Z</time>
      </trkpt>
      <trkpt lat="46.15026" lon="6.79583">
        <ele>1861.986</ele>
        <time>2014-08-30T12:49:49Z</time>
      </trkpt>
      <trkpt lat="46.15023" lon="6.79579">
        <ele>1861.986</ele>
        <time>2014-08-30T12:49:54Z</time>
      </trkpt>
      <trkpt lat="46.15021" lon="6.79574">
        <ele>1861.986</ele>
        <time>2014-08-30T12:49:59Z</time>
      </trkpt>
      <trkpt lat="46.1502" lon="6.7957">
        <ele>1863.325</ele>
        <time>2014-08-30T12:50:04Z</time>
      </trkpt>
      <trkpt lat="46.15019" lon="6.79562">
        <ele>1863.325</ele>
        <time>2014-08-30T12:50:09Z</time>
      </trkpt>
      <trkpt lat="46.15018" lon="6.79555">
        <ele>1864.5642</ele>
        <time>2014-08-30T12:50:14Z</time>
      </trkpt>
      <trkpt lat="46.15015" lon="6.79552">
        <ele>1864.5642</ele>
        <time>2014-08-30T12:50:19Z</time>
      </trkpt>
      <trkpt lat="46.15012" lon="6.7955">
        <ele>1864.5642</ele>
        <time>2014-08-30T12:50:24Z</time>
      </trkpt>
      <trkpt lat="46.15008" lon="6.79547">
        <ele>1865.7711</ele>
        <time>2014-08-30T12:50:29Z</time>
      </trkpt>
      <trkpt lat="46.15002" lon="6.79546">
        <ele>1865.7711</ele>
        <time>2014-08-30T12:50:34Z</time>
      </trkpt>
      <trkpt lat="46.14997" lon="6.79544">
        <ele>1866.7916</ele>
        <time>2014-08-30T12:50:39Z</time>
      </trkpt>
      <trkpt lat="46.14993" lon="6.79542">
        <ele>1866.7916</ele>
        <time>2014-08-30T12:50:44Z</time>
      </trkpt>
      <trkpt lat="46.14997" lon="6.79536">
        <ele>1867.7434</ele>
        <time>2014-08-30T12:50:49Z</time>
      </trkpt>
      <trkpt lat="46.15" lon="6.79534">
        <ele>1867.7434</ele>
        <time>2014-08-30T12:50:54Z</time>
      </trkpt>
      <trkpt lat="46.15003" lon="6.79531">
        <ele>1867.7434</ele>
        <time>2014-08-30T12:50:59Z</time>
      </trkpt>
      <trkpt lat="46.15007" lon="6.79526">
        <ele>1868.519</ele>
        <time>2014-08-30T12:51:04Z</time>
      </trkpt>
      <trkpt lat="46.15009" lon="6.7952">
        <ele>1868.519</ele>
        <time>2014-08-30T12:51:09Z</time>
      </trkpt>
      <trkpt lat="46.1501" lon="6.79514">
        <ele>1868.519</ele>
        <time>2014-08-30T12:51:14Z</time>
      </trkpt>
      <trkpt lat="46.1501" lon="6.79509">
        <ele>1869.3368</ele>
        <time>2014-08-30T12:51:19Z</time>
      </trkpt>
      <trkpt lat="46.1501" lon="6.79504">
        <ele>1869.3368</ele>
        <time>2014-08-30T12:51:24Z</time>
      </trkpt>
      <trkpt lat="46.15012" lon="6.79501">
        <ele>1869.3368</ele>
        <time>2014-08-30T12:51:29Z</time>
      </trkpt>
      <trkpt lat="46.15012" lon="6.79497">
        <ele>1869.3368</ele>
        <time>2014-08-30T12:51:34Z</time>
      </trkpt>
      <trkpt lat="46.15012" lon="6.79491">
        <ele>1870.3555</ele>
        <time>2014-08-30T12:51:39Z</time>
      </trkpt>
      <trkpt lat="46.15012" lon="6.79487">
        <ele>1870.3555</ele>
        <time>2014-08-30T12:51:44Z</time>
      </trkpt>
      <trkpt lat="46.15012" lon="6.79487">
        <ele>1870.3555</ele>
        <time>2014-08-30T12:51:49Z</time>
      </trkpt>
      <trkpt lat="46.15013" lon="6.79487">
        <ele>1870.3555</ele>
        <time>2014-08-30T12:51:54Z</time>
      </trkpt>
      <trkpt lat="46.15013" lon="6.79487">
        <ele>1870.3555</ele>
        <time>2014-08-30T12:51:59Z</time>
      </trkpt>
      <trkpt lat="46.15014" lon="6.79488">
        <ele>1870.3555</ele>
        <time>2014-08-30T12:52:04Z</time>
      </trkpt>
      <trkpt lat="46.15013" lon="6.79482">
        <ele>1870.3555</ele>
        <time>2014-08-30T12:52:09Z</time>
      </trkpt>
      <trkpt lat="46.15012" lon="6.79478">
        <ele>1871.6926</ele>
        <time>2014-08-30T12:52:14Z</time>
      </trkpt>
      <trkpt lat="46.15009" lon="6.79475">
        <ele>1871.6926</ele>
        <time>2014-08-30T12:52:19Z</time>
      </trkpt>
      <trkpt lat="46.15006" lon="6.79472">
        <ele>1871.6926</ele>
        <time>2014-08-30T12:52:24Z</time>
      </trkpt>
      <trkpt lat="46.15002" lon="6.7947">
        <ele>1873.0096</ele>
        <time>2014-08-30T12:52:29Z</time>
      </trkpt>
      <trkpt lat="46.14999" lon="6.79471">
        <ele>1873.0096</ele>
        <time>2014-08-30T12:52:34Z</time>
      </trkpt>
      <trkpt lat="46.14996" lon="6.79472">
        <ele>1873.0096</ele>
        <time>2014-08-30T12:52:39Z</time>
      </trkpt>
      <trkpt lat="46.14993" lon="6.79477">
        <ele>1874.2667</ele>
        <time>2014-08-30T12:52:44Z</time>
      </trkpt>
      <trkpt lat="46.1499" lon="6.79479">
        <ele>1874.2667</ele>
        <time>2014-08-30T12:52:49Z</time>
      </trkpt>
      <trkpt lat="46.14988" lon="6.7948">
        <ele>1874.2667</ele>
        <time>2014-08-30T12:52:54Z</time>
      </trkpt>
      <trkpt lat="46.14986" lon="6.79483">
        <ele>1874.2667</ele>
        <time>2014-08-30T12:52:59Z</time>
      </trkpt>
      <trkpt lat="46.14983" lon="6.79486">
        <ele>1875.7007</ele>
        <time>2014-08-30T12:53:04Z</time>
      </trkpt>
      <trkpt lat="46.14979" lon="6.79489">
        <ele>1875.7007</ele>
        <time>2014-08-30T12:53:09Z</time>
      </trkpt>
      <trkpt lat="46.14975" lon="6.79493">
        <ele>1877.1124</ele>
        <time>2014-08-30T12:53:14Z</time>
      </trkpt>
      <trkpt lat="46.14972" lon="6.79494">
        <ele>1877.1124</ele>
        <time>2014-08-30T12:53:19Z</time>
      </trkpt>
      <trkpt lat="46.1497" lon="6.79497">
        <ele>1877.1124</ele>
        <time>2014-08-30T12:53:24Z</time>
      </trkpt>
      <trkpt lat="46.14966" lon="6.79499">
        <ele>1878.4331</ele>
        <time>2014-08-30T12:53:29Z</time>
      </trkpt>
      <trkpt lat="46.14963" lon="6.79502">
        <ele>1878.4331</ele>
        <time>2014-08-30T12:53:34Z</time>
      </trkpt>
      <trkpt lat="46.14961" lon="6.79503">
        <ele>1878.4331</ele>
        <time>2014-08-30T12:53:39Z</time>
      </trkpt>
      <trkpt lat="46.14957" lon="6.79504">
        <ele>1879.6565</ele>
        <time>2014-08-30T12:53:44Z</time>
      </trkpt>
      <trkpt lat="46.14955" lon="6.79502">
        <ele>1879.6565</ele>
        <time>2014-08-30T12:53:49Z</time>
      </trkpt>
      <trkpt lat="46.14953" lon="6.79499">
        <ele>1879.6565</ele>
        <time>2014-08-30T12:53:54Z</time>
      </trkpt>
      <trkpt lat="46.14953" lon="6.79497">
        <ele>1879.6565</ele>
        <time>2014-08-30T12:53:59Z</time>
      </trkpt>
      <trkpt lat="46.14954" lon="6.79494">
        <ele>1881.1661</ele>
        <time>2014-08-30T12:54:04Z</time>
      </trkpt>
      <trkpt lat="46.14956" lon="6.79491">
        <ele>1881.1661</ele>
        <time>2014-08-30T12:54:09Z</time>
      </trkpt>
      <trkpt lat="46.14957" lon="6.79488">
        <ele>1881.1661</ele>
        <time>2014-08-30T12:54:14Z</time>
      </trkpt>
      <trkpt lat="46.14957" lon="6.79484">
        <ele>1881.1661</ele>
        <time>2014-08-30T12:54:19Z</time>
      </trkpt>
      <trkpt lat="46.14956" lon="6.7948">
        <ele>1883.0142</ele>
        <time>2014-08-30T12:54:24Z</time>
      </trkpt>
      <trkpt lat="46.14955" lon="6.79477">
        <ele>1883.0142</ele>
        <time>2014-08-30T12:54:29Z</time>
      </trkpt>
      <trkpt lat="46.14954" lon="6.79474">
        <ele>1883.0142</ele>
        <time>2014-08-30T12:54:34Z</time>
      </trkpt>
      <trkpt lat="46.14952" lon="6.79471">
        <ele>1883.0142</ele>
        <time>2014-08-30T12:54:39Z</time>
      </trkpt>
      <trkpt lat="46.1495" lon="6.7946">
        <ele>1884.9739</ele>
        <time>2014-08-30T12:54:44Z</time>
      </trkpt>
      <trkpt lat="46.14948" lon="6.79452">
        <ele>1884.9739</ele>
        <time>2014-08-30T12:54:49Z</time>
      </trkpt>
      <trkpt lat="46.14947" lon="6.79445">
        <ele>1886.8494</ele>
        <time>2014-08-30T12:54:54Z</time>
      </trkpt>
      <trkpt lat="46.14947" lon="6.79441">
        <ele>1886.8494</ele>
        <time>2014-08-30T12:54:59Z</time>
      </trkpt>
      <trkpt lat="46.14946" lon="6.79434">
        <ele>1886.8494</ele>
        <time>2014-08-30T12:55:04Z</time>
      </trkpt>
      <trkpt lat="46.14946" lon="6.79429">
        <ele>1888.8625</ele>
        <time>2014-08-30T12:55:09Z</time>
      </trkpt>
      <trkpt lat="46.14946" lon="6.79424">
        <ele>1888.8625</ele>
        <time>2014-08-30T12:55:14Z</time>
      </trkpt>
      <trkpt lat="46.14946" lon="6.79421">
        <ele>1888.8625</ele>
        <time>2014-08-30T12:55:19Z</time>
      </trkpt>
      <trkpt lat="46.14946" lon="6.79418">
        <ele>1888.8625</ele>
        <time>2014-08-30T12:55:24Z</time>
      </trkpt>
      <trkpt lat="46.14946" lon="6.79412">
        <ele>1890.9597</ele>
        <time>2014-08-30T12:55:29Z</time>
      </trkpt>
      <trkpt lat="46.14945" lon="6.79407">
        <ele>1890.9597</ele>
        <time>2014-08-30T12:55:34Z</time>
      </trkpt>
      <trkpt lat="46.14944" lon="6.79403">
        <ele>1890.9597</ele>
        <time>2014-08-30T12:55:39Z</time>
      </trkpt>
      <trkpt lat="46.14944" lon="6.79397">
        <ele>1893.0758</ele>
        <time>2014-08-30T12:55:44Z</time>
      </trkpt>
      <trkpt lat="46.14945" lon="6.79392">
        <ele>1893.0758</ele>
        <time>2014-08-30T12:55:49Z</time>
      </trkpt>
      <trkpt lat="46.14946" lon="6.79388">
        <ele>1893.0758</ele>
        <time>2014-08-30T12:55:54Z</time>
      </trkpt>
      <trkpt lat="46.14946" lon="6.79384">
        <ele>1895.1367</ele>
        <time>2014-08-30T12:55:59Z</time>
      </trkpt>
      <trkpt lat="46.14948" lon="6.79379">
        <ele>1895.1367</ele>
        <time>2014-08-30T12:56:04Z</time>
      </trkpt>
      <trkpt lat="46.1495" lon="6.79376">
        <ele>1895.1367</ele>
        <time>2014-08-30T12:56:09Z</time>
      </trkpt>
      <trkpt lat="46.14953" lon="6.79373">
        <ele>1897.1598</ele>
        <time>2014-08-30T12:56:14Z</time>
      </trkpt>
      <trkpt lat="46.14955" lon="6.7937">
        <ele>1897.1598</ele>
        <time>2014-08-30T12:56:19Z</time>
      </trkpt>
      <trkpt lat="46.14957" lon="6.79366">
        <ele>1897.1598</ele>
        <time>2014-08-30T12:56:24Z</time>
      </trkpt>
      <trkpt lat="46.14959" lon="6.7936">
        <ele>1899.0895</ele>
        <time>2014-08-30T12:56:29Z</time>
      </trkpt>
      <trkpt lat="46.14962" lon="6.79357">
        <ele>1899.0895</ele>
        <time>2014-08-30T12:56:34Z</time>
      </trkpt>
      <trkpt lat="46.14966" lon="6.79354">
        <ele>1899.0895</ele>
        <time>2014-08-30T12:56:39Z</time>
      </trkpt>
      <trkpt lat="46.14966" lon="6.79353">
        <ele>1899.0895</ele>
        <time>2014-08-30T12:56:44Z</time>
      </trkpt>
      <trkpt lat="46.14971" lon="6.79348">
        <ele>1900.9609</ele>
        <time>2014-08-30T12:56:49Z</time>
      </trkpt>
      <trkpt lat="46.14975" lon="6.79343">
        <ele>1900.9609</ele>
        <time>2014-08-30T12:56:54Z</time>
      </trkpt>
      <trkpt lat="46.14977" lon="6.79339">
        <ele>1902.7924</ele>
        <time>2014-08-30T12:56:59Z</time>
      </trkpt>
      <trkpt lat="46.1498" lon="6.79336">
        <ele>1902.7924</ele>
        <time>2014-08-30T12:57:04Z</time>
      </trkpt>
      <trkpt lat="46.14983" lon="6.79332">
        <ele>1902.7924</ele>
        <time>2014-08-30T12:57:09Z</time>
      </trkpt>
      <trkpt lat="46.14987" lon="6.7933">
        <ele>1904.5576</ele>
        <time>2014-08-30T12:57:14Z</time>
      </trkpt>
      <trkpt lat="46.1499" lon="6.79329">
        <ele>1904.5576</ele>
        <time>2014-08-30T12:57:19Z</time>
      </trkpt>
      <trkpt lat="46.14994" lon="6.79328">
        <ele>1904.5576</ele>
        <time>2014-08-30T12:57:24Z</time>
      </trkpt>
      <trkpt lat="46.14996" lon="6.79324">
        <ele>1906.3624</ele>
        <time>2014-08-30T12:57:29Z</time>
      </trkpt>
      <trkpt lat="46.14999" lon="6.79319">
        <ele>1906.3624</ele>
        <time>2014-08-30T12:57:34Z</time>
      </trkpt>
      <trkpt lat="46.15002" lon="6.79317">
        <ele>1906.3624</ele>
        <time>2014-08-30T12:57:39Z</time>
      </trkpt>
      <trkpt lat="46.15006" lon="6.79314">
        <ele>1908.1027</ele>
        <time>2014-08-30T12:57:44Z</time>
      </trkpt>
      <trkpt lat="46.1501" lon="6.79311">
        <ele>1908.1027</ele>
        <time>2014-08-30T12:57:49Z</time>
      </trkpt>
      <trkpt lat="46.15012" lon="6.79307">
        <ele>1908.1027</ele>
        <time>2014-08-30T12:57:54Z</time>
      </trkpt>
      <trkpt lat="46.15015" lon="6.79302">
        <ele>1909.6965</ele>
        <time>2014-08-30T12:57:59Z</time>
      </trkpt>
      <trkpt lat="46.15015" lon="6.79298">
        <ele>1909.6965</ele>
        <time>2014-08-30T12:58:04Z</time>
      </trkpt>
      <trkpt lat="46.15017" lon="6.79293">
        <ele>1909.6965</ele>
        <time>2014-08-30T12:58:09Z</time>
      </trkpt>
      <trkpt lat="46.1502" lon="6.79288">
        <ele>1911.357</ele>
        <time>2014-08-30T12:58:14Z</time>
      </trkpt>
      <trkpt lat="46.15021" lon="6.79286">
        <ele>1911.357</ele>
        <time>2014-08-30T12:58:19Z</time>
      </trkpt>
      <trkpt lat="46.15019" lon="6.79284">
        <ele>1911.357</ele>
        <time>2014-08-30T12:58:24Z</time>
      </trkpt>
      <trkpt lat="46.15016" lon="6.79284">
        <ele>1911.357</ele>
        <time>2014-08-30T12:58:29Z</time>
      </trkpt>
      <trkpt lat="46.15012" lon="6.79287">
        <ele>1913.2666</ele>
        <time>2014-08-30T12:58:34Z</time>
      </trkpt>
      <trkpt lat="46.1501" lon="6.7929">
        <ele>1913.2666</ele>
        <time>2014-08-30T12:58:39Z</time>
      </trkpt>
      <trkpt lat="46.15009" lon="6.7929">
        <ele>1913.2666</ele>
        <time>2014-08-30T12:58:44Z</time>
      </trkpt>
      <trkpt lat="46.15007" lon="6.79291">
        <ele>1913.2666</ele>
        <time>2014-08-30T12:58:49Z</time>
      </trkpt>
      <trkpt lat="46.15002" lon="6.79292">
        <ele>1915.0317</ele>
        <time>2014-08-30T12:58:54Z</time>
      </trkpt>
      <trkpt lat="46.14999" lon="6.79294">
        <ele>1915.0317</ele>
        <time>2014-08-30T12:58:59Z</time>
      </trkpt>
      <trkpt lat="46.14998" lon="6.79297">
        <ele>1915.0317</ele>
        <time>2014-08-30T12:59:04Z</time>
      </trkpt>
      <trkpt lat="46.14998" lon="6.79298">
        <ele>1915.0317</ele>
        <time>2014-08-30T12:59:09Z</time>
      </trkpt>
      <trkpt lat="46.14997" lon="6.79299">
        <ele>1915.0317</ele>
        <time>2014-08-30T12:59:14Z</time>
      </trkpt>
      <trkpt lat="46.14998" lon="6.793">
        <ele>1915.0317</ele>
        <time>2014-08-30T12:59:19Z</time>
      </trkpt>
      <trkpt lat="46.14998" lon="6.79301">
        <ele>1916.879</ele>
        <time>2014-08-30T12:59:24Z</time>
      </trkpt>
      <trkpt lat="46.14998" lon="6.79302">
        <ele>1916.879</ele>
        <time>2014-08-30T12:59:29Z</time>
      </trkpt>
      <trkpt lat="46.14998" lon="6.79303">
        <ele>1916.879</ele>
        <time>2014-08-30T12:59:34Z</time>
      </trkpt>
      <trkpt lat="46.14998" lon="6.79303">
        <ele>1916.879</ele>
        <time>2014-08-30T12:59:39Z</time>
      </trkpt>
      <trkpt lat="46.14999" lon="6.79303">
        <ele>1916.879</ele>
        <time>2014-08-30T12:59:44Z</time>
      </trkpt>
      <trkpt lat="46.15" lon="6.79302">
        <ele>1916.879</ele>
        <time>2014-08-30T12:59:49Z</time>
      </trkpt>
      <trkpt lat="46.15" lon="6.793">
        <ele>1916.879</ele>
        <time>2014-08-30T12:59:54Z</time>
      </trkpt>
      <trkpt lat="46.15001" lon="6.79299">
        <ele>1916.879</ele>
        <time>2014-08-30T12:59:59Z</time>
      </trkpt>
      <trkpt lat="46.15001" lon="6.79299">
        <ele>1916.879</ele>
        <time>2014-08-30T13:00:04Z</time>
      </trkpt>
      <trkpt lat="46.15" lon="6.79299">
        <ele>1916.879</ele>
        <time>2014-08-30T13:00:09Z</time>
      </trkpt>
      <trkpt lat="46.15" lon="6.79299">
        <ele>1916.879</ele>
        <time>2014-08-30T13:00:14Z</time>
      </trkpt>
      <trkpt lat="46.14999" lon="6.793">
        <ele>1916.879</ele>
        <time>2014-08-30T13:00:19Z</time>
      </trkpt>
      <trkpt lat="46.14998" lon="6.79301">
        <ele>1918.9607</ele>
        <time>2014-08-30T13:00:24Z</time>
      </trkpt>
      <trkpt lat="46.14998" lon="6.79301">
        <ele>1918.9607</ele>
        <time>2014-08-30T13:00:29Z</time>
      </trkpt>
      <trkpt lat="46.14999" lon="6.79302">
        <ele>1918.9607</ele>
        <time>2014-08-30T13:00:34Z</time>
      </trkpt>
      <trkpt lat="46.15" lon="6.79302">
        <ele>1918.9607</ele>
        <time>2014-08-30T13:00:39Z</time>
      </trkpt>
      <trkpt lat="46.15002" lon="6.79302">
        <ele>1918.9607</ele>
        <time>2014-08-30T13:00:44Z</time>
      </trkpt>
      <trkpt lat="46.15004" lon="6.79303">
        <ele>1918.9607</ele>
        <time>2014-08-30T13:00:49Z</time>
      </trkpt>
      <trkpt lat="46.15005" lon="6.79304">
        <ele>1918.9607</ele>
        <time>2014-08-30T13:00:54Z</time>
      </trkpt>
      <trkpt lat="46.15006" lon="6.79304">
        <ele>1918.9607</ele>
        <time>2014-08-30T13:00:59Z</time>
      </trkpt>
      <trkpt lat="46.15006" lon="6.79305">
        <ele>1918.9607</ele>
        <time>2014-08-30T13:01:04Z</time>
      </trkpt>
      <trkpt lat="46.15006" lon="6.79306">
        <ele>1921.0134</ele>
        <time>2014-08-30T13:01:09Z</time>
      </trkpt>
      <trkpt lat="46.15006" lon="6.79308">
        <ele>1921.0134</ele>
        <time>2014-08-30T13:01:14Z</time>
      </trkpt>
      <trkpt lat="46.15005" lon="6.79308">
        <ele>1921.0134</ele>
        <time>2014-08-30T13:01:19Z</time>
      </trkpt>
      <trkpt lat="46.15003" lon="6.79307">
        <ele>1921.0134</ele>
        <time>2014-08-30T13:01:24Z</time>
      </trkpt>
      <trkpt lat="46.15002" lon="6.79306">
        <ele>1921.0134</ele>
        <time>2014-08-30T13:01:29Z</time>
      </trkpt>
      <trkpt lat="46.15" lon="6.79304">
        <ele>1921.0134</ele>
        <time>2014-08-30T13:01:34Z</time>
      </trkpt>
      <trkpt lat="46.15" lon="6.79304">
        <ele>1921.0134</ele>
        <time>2014-08-30T13:01:39Z</time>
      </trkpt>
      <trkpt lat="46.14999" lon="6.79302">
        <ele>1922.8367</ele>
        <time>2014-08-30T13:01:44Z</time>
      </trkpt>
      <trkpt lat="46.14999" lon="6.79302">
        <ele>1922.8367</ele>
        <time>2014-08-30T13:01:49Z</time>
      </trkpt>
      <trkpt lat="46.14999" lon="6.79302">
        <ele>1922.8367</ele>
        <time>2014-08-30T13:01:54Z</time>
      </trkpt>
      <trkpt lat="46.14999" lon="6.79302">
        <ele>1922.8367</ele>
        <time>2014-08-30T13:01:59Z</time>
      </trkpt>
      <trkpt lat="46.14999" lon="6.79301">
        <ele>1922.8367</ele>
        <time>2014-08-30T13:02:04Z</time>
      </trkpt>
      <trkpt lat="46.15" lon="6.79299">
        <ele>1922.8367</ele>
        <time>2014-08-30T13:02:09Z</time>
      </trkpt>
      <trkpt lat="46.15" lon="6.79298">
        <ele>1922.8367</ele>
        <time>2014-08-30T13:02:14Z</time>
      </trkpt>
      <trkpt lat="46.14999" lon="6.79298">
        <ele>1922.8367</ele>
        <time>2014-08-30T13:02:19Z</time>
      </trkpt>
      <trkpt lat="46.14999" lon="6.79297">
        <ele>1922.8367</ele>
        <time>2014-08-30T13:02:24Z</time>
      </trkpt>
      <trkpt lat="46.14998" lon="6.79298">
        <ele>1922.8367</ele>
        <time>2014-08-30T13:02:29Z</time>
      </trkpt>
      <trkpt lat="46.14998" lon="6.79297">
        <ele>1922.8367</ele>
        <time>2014-08-30T13:02:34Z</time>
      </trkpt>
      <trkpt lat="46.14997" lon="6.79299">
        <ele>1922.8367</ele>
        <time>2014-08-30T13:02:39Z</time>
      </trkpt>
      <trkpt lat="46.14997" lon="6.79301">
        <ele>1924.5188</ele>
        <time>2014-08-30T13:02:44Z</time>
      </trkpt>
      <trkpt lat="46.14998" lon="6.79301">
        <ele>1924.5188</ele>
        <time>2014-08-30T13:02:49Z</time>
      </trkpt>
      <trkpt lat="46.14998" lon="6.793">
        <ele>1924.5188</ele>
        <time>2014-08-30T13:02:54Z</time>
      </trkpt>
      <trkpt lat="46.14997" lon="6.793">
        <ele>1924.5188</ele>
        <time>2014-08-30T13:02:59Z</time>
      </trkpt>
      <trkpt lat="46.14998" lon="6.79301">
        <ele>1924.5188</ele>
        <time>2014-08-30T13:03:04Z</time>
      </trkpt>
      <trkpt lat="46.14998" lon="6.79303">
        <ele>1924.5188</ele>
        <time>2014-08-30T13:03:09Z</time>
      </trkpt>
      <trkpt lat="46.14998" lon="6.79303">
        <ele>1924.5188</ele>
        <time>2014-08-30T13:03:14Z</time>
      </trkpt>
      <trkpt lat="46.14997" lon="6.79301">
        <ele>1924.5188</ele>
        <time>2014-08-30T13:03:19Z</time>
      </trkpt>
      <trkpt lat="46.14995" lon="6.79301">
        <ele>1924.5188</ele>
        <time>2014-08-30T13:03:24Z</time>
      </trkpt>
      <trkpt lat="46.14995" lon="6.793">
        <ele>1924.5188</ele>
        <time>2014-08-30T13:03:29Z</time>
      </trkpt>
      <trkpt lat="46.14995" lon="6.79299">
        <ele>1924.5188</ele>
        <time>2014-08-30T13:03:34Z</time>
      </trkpt>
      <trkpt lat="46.14995" lon="6.79298">
        <ele>1926.085</ele>
        <time>2014-08-30T13:03:39Z</time>
      </trkpt>
      <trkpt lat="46.14995" lon="6.79298">
        <ele>1926.085</ele>
        <time>2014-08-30T13:03:44Z</time>
      </trkpt>
      <trkpt lat="46.14995" lon="6.79298">
        <ele>1926.085</ele>
        <time>2014-08-30T13:03:49Z</time>
      </trkpt>
      <trkpt lat="46.14995" lon="6.79299">
        <ele>1926.085</ele>
        <time>2014-08-30T13:03:54Z</time>
      </trkpt>
      <trkpt lat="46.14996" lon="6.79299">
        <ele>1926.085</ele>
        <time>2014-08-30T13:03:59Z</time>
      </trkpt>
      <trkpt lat="46.14996" lon="6.79301">
        <ele>1926.085</ele>
        <time>2014-08-30T13:37:32Z</time>
      </trkpt>
      <trkpt lat="46.15001" lon="6.79299">
        <ele>1926.085</ele>
        <time>2014-08-30T13:37:47Z</time>
      </trkpt>
      <trkpt lat="46.14999" lon="6.793">
        <ele>1927.9042</ele>
        <time>2014-08-30T13:38:02Z</time>
      </trkpt>
      <trkpt lat="46.15" lon="6.793">
        <ele>1927.9042</ele>
        <time>2014-08-30T13:38:07Z</time>
      </trkpt>
      <trkpt lat="46.15004" lon="6.79298">
        <ele>1927.9042</ele>
        <time>2014-08-30T13:38:12Z</time>
      </trkpt>
      <trkpt lat="46.15009" lon="6.79295">
        <ele>1929.2516</ele>
        <time>2014-08-30T13:38:17Z</time>
      </trkpt>
      <trkpt lat="46.15013" lon="6.79292">
        <ele>1929.2516</ele>
        <time>2014-08-30T13:38:22Z</time>
      </trkpt>
      <trkpt lat="46.15015" lon="6.79289">
        <ele>1929.2516</ele>
        <time>2014-08-30T13:38:27Z</time>
      </trkpt>
      <trkpt lat="46.15017" lon="6.79288">
        <ele>1930.1483</ele>
        <time>2014-08-30T13:38:32Z</time>
      </trkpt>
      <trkpt lat="46.1502" lon="6.79286">
        <ele>1930.1483</ele>
        <time>2014-08-30T13:38:37Z</time>
      </trkpt>
      <trkpt lat="46.1502" lon="6.79283">
        <ele>1930.1483</ele>
        <time>2014-08-30T13:38:42Z</time>
      </trkpt>
      <trkpt lat="46.15019" lon="6.79281">
        <ele>1930.1483</ele>
        <time>2014-08-30T13:38:47Z</time>
      </trkpt>
      <trkpt lat="46.15019" lon="6.79281">
        <ele>1930.1483</ele>
        <time>2014-08-30T13:38:52Z</time>
      </trkpt>
      <trkpt lat="46.15018" lon="6.79283">
        <ele>1930.817</ele>
        <time>2014-08-30T13:38:57Z</time>
      </trkpt>
      <trkpt lat="46.15018" lon="6.79283">
        <ele>1930.817</ele>
        <time>2014-08-30T13:39:02Z</time>
      </trkpt>
      <trkpt lat="46.15018" lon="6.79284">
        <ele>1930.817</ele>
        <time>2014-08-30T13:39:07Z</time>
      </trkpt>
      <trkpt lat="46.15018" lon="6.79284">
        <ele>1930.817</ele>
        <time>2014-08-30T13:39:12Z</time>
      </trkpt>
      <trkpt lat="46.15019" lon="6.79284">
        <ele>1930.817</ele>
        <time>2014-08-30T13:39:17Z</time>
      </trkpt>
      <trkpt lat="46.15019" lon="6.79285">
        <ele>1930.817</ele>
        <time>2014-08-30T13:39:22Z</time>
      </trkpt>
      <trkpt lat="46.1502" lon="6.79285">
        <ele>1930.817</ele>
        <time>2014-08-30T13:39:27Z</time>
      </trkpt>
      <trkpt lat="46.1502" lon="6.79283">
        <ele>1930.817</ele>
        <time>2014-08-30T13:39:32Z</time>
      </trkpt>
      <trkpt lat="46.15021" lon="6.79283">
        <ele>1930.817</ele>
        <time>2014-08-30T13:39:37Z</time>
      </trkpt>
      <trkpt lat="46.15019" lon="6.7928">
        <ele>1930.817</ele>
        <time>2014-08-30T13:39:42Z</time>
      </trkpt>
      <trkpt lat="46.15015" lon="6.79277">
        <ele>1930.7876</ele>
        <time>2014-08-30T13:39:47Z</time>
      </trkpt>
      <trkpt lat="46.15011" lon="6.79278">
        <ele>1930.7876</ele>
        <time>2014-08-30T13:39:52Z</time>
      </trkpt>
      <trkpt lat="46.15006" lon="6.79277">
        <ele>1930.7876</ele>
        <time>2014-08-30T13:39:57Z</time>
      </trkpt>
      <trkpt lat="46.15" lon="6.79276">
        <ele>1930.2747</ele>
        <time>2014-08-30T13:40:02Z</time>
      </trkpt>
      <trkpt lat="46.14996" lon="6.79272">
        <ele>1930.2747</ele>
        <time>2014-08-30T13:40:07Z</time>
      </trkpt>
      <trkpt lat="46.14993" lon="6.79271">
        <ele>1930.2747</ele>
        <time>2014-08-30T13:40:12Z</time>
      </trkpt>
      <trkpt lat="46.14989" lon="6.79272">
        <ele>1929.3344</ele>
        <time>2014-08-30T13:40:17Z</time>
      </trkpt>
      <trkpt lat="46.14983" lon="6.79272">
        <ele>1929.3344</ele>
        <time>2014-08-30T13:40:22Z</time>
      </trkpt>
      <trkpt lat="46.14978" lon="6.79272">
        <ele>1928.1925</ele>
        <time>2014-08-30T13:40:27Z</time>
      </trkpt>
      <trkpt lat="46.14972" lon="6.7927">
        <ele>1928.1925</ele>
        <time>2014-08-30T13:40:32Z</time>
      </trkpt>
      <trkpt lat="46.14968" lon="6.79268">
        <ele>1926.8289</ele>
        <time>2014-08-30T13:40:37Z</time>
      </trkpt>
      <trkpt lat="46.14963" lon="6.79269">
        <ele>1926.8289</ele>
        <time>2014-08-30T13:40:42Z</time>
      </trkpt>
      <trkpt lat="46.14959" lon="6.79268">
        <ele>1925.2822</ele>
        <time>2014-08-30T13:40:47Z</time>
      </trkpt>
      <trkpt lat="46.1496" lon="6.79268">
        <ele>1925.2822</ele>
        <time>2014-08-30T13:40:52Z</time>
      </trkpt>
      <trkpt lat="46.1496" lon="6.79268">
        <ele>1925.2822</ele>
        <time>2014-08-30T13:40:57Z</time>
      </trkpt>
      <trkpt lat="46.14957" lon="6.79267">
        <ele>1925.2822</ele>
        <time>2014-08-30T13:41:02Z</time>
      </trkpt>
      <trkpt lat="46.14949" lon="6.79267">
        <ele>1923.4308</ele>
        <time>2014-08-30T13:41:07Z</time>
      </trkpt>
      <trkpt lat="46.14944" lon="6.79268">
        <ele>1923.4308</ele>
        <time>2014-08-30T13:41:12Z</time>
      </trkpt>
      <trkpt lat="46.14938" lon="6.79267">
        <ele>1921.2778</ele>
        <time>2014-08-30T13:41:17Z</time>
      </trkpt>
      <trkpt lat="46.14935" lon="6.79264">
        <ele>1921.2778</ele>
        <time>2014-08-30T13:41:22Z</time>
      </trkpt>
      <trkpt lat="46.14931" lon="6.79261">
        <ele>1921.2778</ele>
        <time>2014-08-30T13:41:27Z</time>
      </trkpt>
      <trkpt lat="46.14926" lon="6.79259">
        <ele>1918.6537</ele>
        <time>2014-08-30T13:41:32Z</time>
      </trkpt>
      <trkpt lat="46.14921" lon="6.79255">
        <ele>1918.6537</ele>
        <time>2014-08-30T13:41:37Z</time>
      </trkpt>
      <trkpt lat="46.14918" lon="6.79253">
        <ele>1915.9647</ele>
        <time>2014-08-30T13:41:42Z</time>
      </trkpt>
      <trkpt lat="46.14915" lon="6.79248">
        <ele>1915.9647</ele>
        <time>2014-08-30T13:41:47Z</time>
      </trkpt>
      <trkpt lat="46.14912" lon="6.79241">
        <ele>1913.2848</ele>
        <time>2014-08-30T13:41:52Z</time>
      </trkpt>
      <trkpt lat="46.14909" lon="6.79235">
        <ele>1913.2848</ele>
        <time>2014-08-30T13:41:57Z</time>
      </trkpt>
      <trkpt lat="46.14904" lon="6.79228">
        <ele>1910.5667</ele>
        <time>2014-08-30T13:42:02Z</time>
      </trkpt>
      <trkpt lat="46.14902" lon="6.79224">
        <ele>1910.5667</ele>
        <time>2014-08-30T13:42:07Z</time>
      </trkpt>
      <trkpt lat="46.14897" lon="6.79221">
        <ele>1910.5667</ele>
        <time>2014-08-30T13:42:12Z</time>
      </trkpt>
      <trkpt lat="46.14892" lon="6.7922">
        <ele>1907.7666</ele>
        <time>2014-08-30T13:42:17Z</time>
      </trkpt>
      <trkpt lat="46.14888" lon="6.79217">
        <ele>1907.7666</ele>
        <time>2014-08-30T13:42:22Z</time>
      </trkpt>
      <trkpt lat="46.14885" lon="6.79212">
        <ele>1904.9736</ele>
        <time>2014-08-30T13:42:27Z</time>
      </trkpt>
      <trkpt lat="46.14881" lon="6.79207">
        <ele>1904.9736</ele>
        <time>2014-08-30T13:42:32Z</time>
      </trkpt>
      <trkpt lat="46.14877" lon="6.79201">
        <ele>1902.3566</ele>
        <time>2014-08-30T13:42:37Z</time>
      </trkpt>
      <trkpt lat="46.14874" lon="6.79197">
        <ele>1902.3566</ele>
        <time>2014-08-30T13:42:42Z</time>
      </trkpt>
      <trkpt lat="46.14869" lon="6.79195">
        <ele>1902.3566</ele>
        <time>2014-08-30T13:42:47Z</time>
      </trkpt>
      <trkpt lat="46.14867" lon="6.79199">
        <ele>1899.7683</ele>
        <time>2014-08-30T13:42:52Z</time>
      </trkpt>
      <trkpt lat="46.14864" lon="6.79202">
        <ele>1899.7683</ele>
        <time>2014-08-30T13:42:57Z</time>
      </trkpt>
      <trkpt lat="46.14862" lon="6.79202">
        <ele>1899.7683</ele>
        <time>2014-08-30T13:43:02Z</time>
      </trkpt>
      <trkpt lat="46.14858" lon="6.79196">
        <ele>1897.0868</ele>
        <time>2014-08-30T13:43:07Z</time>
      </trkpt>
      <trkpt lat="46.14853" lon="6.79191">
        <ele>1897.0868</ele>
        <time>2014-08-30T13:43:12Z</time>
      </trkpt>
      <trkpt lat="46.14851" lon="6.79187">
        <ele>1894.5591</ele>
        <time>2014-08-30T13:43:17Z</time>
      </trkpt>
      <trkpt lat="46.14849" lon="6.79183">
        <ele>1894.5591</ele>
        <time>2014-08-30T13:43:22Z</time>
      </trkpt>
      <trkpt lat="46.14847" lon="6.79179">
        <ele>1894.5591</ele>
        <time>2014-08-30T13:43:27Z</time>
      </trkpt>
      <trkpt lat="46.14845" lon="6.79175">
        <ele>1892.1394</ele>
        <time>2014-08-30T13:43:32Z</time>
      </trkpt>
      <trkpt lat="46.14842" lon="6.79168">
        <ele>1892.1394</ele>
        <time>2014-08-30T13:43:37Z</time>
      </trkpt>
      <trkpt lat="46.14836" lon="6.79164">
        <ele>1889.857</ele>
        <time>2014-08-30T13:43:42Z</time>
      </trkpt>
      <trkpt lat="46.14833" lon="6.79162">
        <ele>1889.857</ele>
        <time>2014-08-30T13:43:47Z</time>
      </trkpt>
      <trkpt lat="46.14831" lon="6.79161">
        <ele>1889.857</ele>
        <time>2014-08-30T13:43:52Z</time>
      </trkpt>
      <trkpt lat="46.14828" lon="6.79159">
        <ele>1889.857</ele>
        <time>2014-08-30T13:43:57Z</time>
      </trkpt>
      <trkpt lat="46.14825" lon="6.79157">
        <ele>1887.2484</ele>
        <time>2014-08-30T13:44:02Z</time>
      </trkpt>
      <trkpt lat="46.1482" lon="6.79152">
        <ele>1887.2484</ele>
        <time>2014-08-30T13:44:07Z</time>
      </trkpt>
      <trkpt lat="46.14818" lon="6.79148">
        <ele>1884.5762</ele>
        <time>2014-08-30T13:44:12Z</time>
      </trkpt>
      <trkpt lat="46.14815" lon="6.79143">
        <ele>1884.5762</ele>
        <time>2014-08-30T13:44:17Z</time>
      </trkpt>
      <trkpt lat="46.14813" lon="6.79136">
        <ele>1881.9684</ele>
        <time>2014-08-30T13:44:22Z</time>
      </trkpt>
      <trkpt lat="46.14812" lon="6.79131">
        <ele>1881.9684</ele>
        <time>2014-08-30T13:44:27Z</time>
      </trkpt>
      <trkpt lat="46.14811" lon="6.79124">
        <ele>1881.9684</ele>
        <time>2014-08-30T13:44:32Z</time>
      </trkpt>
      <trkpt lat="46.14809" lon="6.79118">
        <ele>1879.3417</ele>
        <time>2014-08-30T13:44:37Z</time>
      </trkpt>
      <trkpt lat="46.14807" lon="6.79113">
        <ele>1879.3417</ele>
        <time>2014-08-30T13:44:42Z</time>
      </trkpt>
      <trkpt lat="46.14801" lon="6.79108">
        <ele>1876.8055</ele>
        <time>2014-08-30T13:44:47Z</time>
      </trkpt>
      <trkpt lat="46.14797" lon="6.79104">
        <ele>1876.8055</ele>
        <time>2014-08-30T13:44:52Z</time>
      </trkpt>
      <trkpt lat="46.14795" lon="6.791">
        <ele>1876.8055</ele>
        <time>2014-08-30T13:44:57Z</time>
      </trkpt>
      <trkpt lat="46.14792" lon="6.79096">
        <ele>1874.2161</ele>
        <time>2014-08-30T13:45:02Z</time>
      </trkpt>
      <trkpt lat="46.14789" lon="6.79093">
        <ele>1874.2161</ele>
        <time>2014-08-30T13:45:07Z</time>
      </trkpt>
      <trkpt lat="46.14785" lon="6.79089">
        <ele>1874.2161</ele>
        <time>2014-08-30T13:45:12Z</time>
      </trkpt>
      <trkpt lat="46.1478" lon="6.79086">
        <ele>1871.6847</ele>
        <time>2014-08-30T13:45:17Z</time>
      </trkpt>
      <trkpt lat="46.14775" lon="6.79083">
        <ele>1871.6847</ele>
        <time>2014-08-30T13:45:22Z</time>
      </trkpt>
      <trkpt lat="46.14772" lon="6.79083">
        <ele>1871.6847</ele>
        <time>2014-08-30T13:45:27Z</time>
      </trkpt>
      <trkpt lat="46.14769" lon="6.7908">
        <ele>1869.0116</ele>
        <time>2014-08-30T13:45:32Z</time>
      </trkpt>
      <trkpt lat="46.14764" lon="6.79075">
        <ele>1869.0116</ele>
        <time>2014-08-30T13:45:37Z</time>
      </trkpt>
      <trkpt lat="46.14763" lon="6.79074">
        <ele>1869.0116</ele>
        <time>2014-08-30T13:45:42Z</time>
      </trkpt>
      <trkpt lat="46.14761" lon="6.7907">
        <ele>1866.3145</ele>
        <time>2014-08-30T13:45:47Z</time>
      </trkpt>
      <trkpt lat="46.14761" lon="6.79063">
        <ele>1866.3145</ele>
        <time>2014-08-30T13:45:52Z</time>
      </trkpt>
      <trkpt lat="46.14759" lon="6.79056">
        <ele>1863.774</ele>
        <time>2014-08-30T13:45:57Z</time>
      </trkpt>
      <trkpt lat="46.14759" lon="6.79052">
        <ele>1863.774</ele>
        <time>2014-08-30T13:46:02Z</time>
      </trkpt>
      <trkpt lat="46.14756" lon="6.79047">
        <ele>1863.774</ele>
        <time>2014-08-30T13:46:07Z</time>
      </trkpt>
      <trkpt lat="46.14752" lon="6.7904">
        <ele>1861.2113</ele>
        <time>2014-08-30T13:46:12Z</time>
      </trkpt>
      <trkpt lat="46.14751" lon="6.79037">
        <ele>1861.2113</ele>
        <time>2014-08-30T13:46:17Z</time>
      </trkpt>
      <trkpt lat="46.1475" lon="6.79032">
        <ele>1861.2113</ele>
        <time>2014-08-30T13:46:22Z</time>
      </trkpt>
      <trkpt lat="46.14749" lon="6.79028">
        <ele>1861.2113</ele>
        <time>2014-08-30T13:46:27Z</time>
      </trkpt>
      <trkpt lat="46.14748" lon="6.79023">
        <ele>1858.5609</ele>
        <time>2014-08-30T13:46:32Z</time>
      </trkpt>
      <trkpt lat="46.14749" lon="6.79015">
        <ele>1858.5609</ele>
        <time>2014-08-30T13:46:37Z</time>
      </trkpt>
      <trkpt lat="46.14753" lon="6.79013">
        <ele>1855.9353</ele>
        <time>2014-08-30T13:46:42Z</time>
      </trkpt>
      <trkpt lat="46.14758" lon="6.79012">
        <ele>1855.9353</ele>
        <time>2014-08-30T13:46:47Z</time>
      </trkpt>
      <trkpt lat="46.14765" lon="6.79012">
        <ele>1853.2222</ele>
        <time>2014-08-30T13:46:52Z</time>
      </trkpt>
      <trkpt lat="46.14769" lon="6.79012">
        <ele>1853.2222</ele>
        <time>2014-08-30T13:46:57Z</time>
      </trkpt>
      <trkpt lat="46.14773" lon="6.79015">
        <ele>1853.2222</ele>
        <time>2014-08-30T13:47:02Z</time>
      </trkpt>
      <trkpt lat="46.14777" lon="6.79013">
        <ele>1850.303</ele>
        <time>2014-08-30T13:47:07Z</time>
      </trkpt>
      <trkpt lat="46.14782" lon="6.79012">
        <ele>1850.303</ele>
        <time>2014-08-30T13:47:12Z</time>
      </trkpt>
      <trkpt lat="46.14788" lon="6.7901">
        <ele>1847.4575</ele>
        <time>2014-08-30T13:47:17Z</time>
      </trkpt>
      <trkpt lat="46.14795" lon="6.79003">
        <ele>1847.4575</ele>
        <time>2014-08-30T13:47:22Z</time>
      </trkpt>
      <trkpt lat="46.14797" lon="6.79">
        <ele>1844.6992</ele>
        <time>2014-08-30T13:47:27Z</time>
      </trkpt>
      <trkpt lat="46.14797" lon="6.78988">
        <ele>1844.6992</ele>
        <time>2014-08-30T13:47:32Z</time>
      </trkpt>
      <trkpt lat="46.14795" lon="6.78983">
        <ele>1842.0259</ele>
        <time>2014-08-30T13:47:37Z</time>
      </trkpt>
      <trkpt lat="46.14792" lon="6.78975">
        <ele>1842.0259</ele>
        <time>2014-08-30T13:47:42Z</time>
      </trkpt>
      <trkpt lat="46.1479" lon="6.7897">
        <ele>1839.4781</ele>
        <time>2014-08-30T13:47:47Z</time>
      </trkpt>
      <trkpt lat="46.14787" lon="6.78964">
        <ele>1839.4781</ele>
        <time>2014-08-30T13:47:52Z</time>
      </trkpt>
      <trkpt lat="46.14784" lon="6.78958">
        <ele>1836.9202</ele>
        <time>2014-08-30T13:47:57Z</time>
      </trkpt>
      <trkpt lat="46.14781" lon="6.78957">
        <ele>1836.9202</ele>
        <time>2014-08-30T13:48:02Z</time>
      </trkpt>
      <trkpt lat="46.14776" lon="6.78951">
        <ele>1836.9202</ele>
        <time>2014-08-30T13:48:07Z</time>
      </trkpt>
      <trkpt lat="46.1477" lon="6.78947">
        <ele>1834.1681</ele>
        <time>2014-08-30T13:48:12Z</time>
      </trkpt>
      <trkpt lat="46.14766" lon="6.78946">
        <ele>1834.1681</ele>
        <time>2014-08-30T13:48:17Z</time>
      </trkpt>
      <trkpt lat="46.14762" lon="6.78944">
        <ele>1834.1681</ele>
        <time>2014-08-30T13:48:22Z</time>
      </trkpt>
      <trkpt lat="46.14758" lon="6.78941">
        <ele>1831.2972</ele>
        <time>2014-08-30T13:48:27Z</time>
      </trkpt>
      <trkpt lat="46.14754" lon="6.78939">
        <ele>1831.2972</ele>
        <time>2014-08-30T13:48:32Z</time>
      </trkpt>
      <trkpt lat="46.14751" lon="6.78937">
        <ele>1831.2972</ele>
        <time>2014-08-30T13:48:37Z</time>
      </trkpt>
      <trkpt lat="46.14747" lon="6.78933">
        <ele>1828.3196</ele>
        <time>2014-08-30T13:48:42Z</time>
      </trkpt>
      <trkpt lat="46.14741" lon="6.78928">
        <ele>1828.3196</ele>
        <time>2014-08-30T13:48:47Z</time>
      </trkpt>
      <trkpt lat="46.14738" lon="6.78923">
        <ele>1825.5344</ele>
        <time>2014-08-30T13:48:52Z</time>
      </trkpt>
      <trkpt lat="46.14735" lon="6.78918">
        <ele>1825.5344</ele>
        <time>2014-08-30T13:48:57Z</time>
      </trkpt>
      <trkpt lat="46.14731" lon="6.78913">
        <ele>1822.9883</ele>
        <time>2014-08-30T13:49:02Z</time>
      </trkpt>
      <trkpt lat="46.14727" lon="6.78907">
        <ele>1822.9883</ele>
        <time>2014-08-30T13:49:07Z</time>
      </trkpt>
      <trkpt lat="46.14724" lon="6.78902">
        <ele>1820.6218</ele>
        <time>2014-08-30T13:49:12Z</time>
      </trkpt>
      <trkpt lat="46.14722" lon="6.78898">
        <ele>1820.6218</ele>
        <time>2014-08-30T13:49:17Z</time>
      </trkpt>
      <trkpt lat="46.14722" lon="6.78896">
        <ele>1820.6218</ele>
        <time>2014-08-30T13:49:22Z</time>
      </trkpt>
      <trkpt lat="46.14721" lon="6.7889">
        <ele>1820.6218</ele>
        <time>2014-08-30T13:49:27Z</time>
      </trkpt>
      <trkpt lat="46.14716" lon="6.78886">
        <ele>1818.0342</ele>
        <time>2014-08-30T13:49:32Z</time>
      </trkpt>
      <trkpt lat="46.14711" lon="6.78882">
        <ele>1818.0342</ele>
        <time>2014-08-30T13:49:37Z</time>
      </trkpt>
      <trkpt lat="46.14708" lon="6.78879">
        <ele>1815.3727</ele>
        <time>2014-08-30T13:49:42Z</time>
      </trkpt>
      <trkpt lat="46.14703" lon="6.78874">
        <ele>1815.3727</ele>
        <time>2014-08-30T13:49:47Z</time>
      </trkpt>
      <trkpt lat="46.147" lon="6.78874">
        <ele>1815.3727</ele>
        <time>2014-08-30T13:49:52Z</time>
      </trkpt>
      <trkpt lat="46.14699" lon="6.78874">
        <ele>1812.6876</ele>
        <time>2014-08-30T13:49:57Z</time>
      </trkpt>
      <trkpt lat="46.14696" lon="6.78874">
        <ele>1812.6876</ele>
        <time>2014-08-30T13:50:02Z</time>
      </trkpt>
      <trkpt lat="46.14691" lon="6.78874">
        <ele>1812.6876</ele>
        <time>2014-08-30T13:50:07Z</time>
      </trkpt>
      <trkpt lat="46.14689" lon="6.78873">
        <ele>1809.9967</ele>
        <time>2014-08-30T13:50:12Z</time>
      </trkpt>
      <trkpt lat="46.14688" lon="6.78872">
        <ele>1809.9967</ele>
        <time>2014-08-30T13:50:17Z</time>
      </trkpt>
      <trkpt lat="46.14688" lon="6.7887">
        <ele>1809.9967</ele>
        <time>2014-08-30T13:50:22Z</time>
      </trkpt>
      <trkpt lat="46.14688" lon="6.7887">
        <ele>1809.9967</ele>
        <time>2014-08-30T13:50:27Z</time>
      </trkpt>
      <trkpt lat="46.14688" lon="6.78869">
        <ele>1809.9967</ele>
        <time>2014-08-30T13:50:32Z</time>
      </trkpt>
      <trkpt lat="46.14688" lon="6.78865">
        <ele>1809.9967</ele>
        <time>2014-08-30T13:50:37Z</time>
      </trkpt>
      <trkpt lat="46.14686" lon="6.78859">
        <ele>1806.9127</ele>
        <time>2014-08-30T13:50:42Z</time>
      </trkpt>
      <trkpt lat="46.14683" lon="6.78851">
        <ele>1806.9127</ele>
        <time>2014-08-30T13:50:47Z</time>
      </trkpt>
      <trkpt lat="46.14682" lon="6.78842">
        <ele>1804.0145</ele>
        <time>2014-08-30T13:50:52Z</time>
      </trkpt>
      <trkpt lat="46.14682" lon="6.78835">
        <ele>1804.0145</ele>
        <time>2014-08-30T13:50:57Z</time>
      </trkpt>
      <trkpt lat="46.14683" lon="6.78829">
        <ele>1804.0145</ele>
        <time>2014-08-30T13:51:02Z</time>
      </trkpt>
      <trkpt lat="46.1468" lon="6.78822">
        <ele>1801.1315</ele>
        <time>2014-08-30T13:51:07Z</time>
      </trkpt>
      <trkpt lat="46.14677" lon="6.78817">
        <ele>1801.1315</ele>
        <time>2014-08-30T13:51:12Z</time>
      </trkpt>
      <trkpt lat="46.14673" lon="6.7881">
        <ele>1798.4515</ele>
        <time>2014-08-30T13:51:17Z</time>
      </trkpt>
      <trkpt lat="46.14669" lon="6.78806">
        <ele>1798.4515</ele>
        <time>2014-08-30T13:51:22Z</time>
      </trkpt>
      <trkpt lat="46.14664" lon="6.78803">
        <ele>1795.8451</ele>
        <time>2014-08-30T13:51:27Z</time>
      </trkpt>
      <trkpt lat="46.14659" lon="6.78802">
        <ele>1795.8451</ele>
        <time>2014-08-30T13:51:32Z</time>
      </trkpt>
      <trkpt lat="46.14655" lon="6.788">
        <ele>1793.3795</ele>
        <time>2014-08-30T13:51:37Z</time>
      </trkpt>
      <trkpt lat="46.1465" lon="6.78798">
        <ele>1793.3795</ele>
        <time>2014-08-30T13:51:42Z</time>
      </trkpt>
      <trkpt lat="46.14647" lon="6.78795">
        <ele>1793.3795</ele>
        <time>2014-08-30T13:51:47Z</time>
      </trkpt>
      <trkpt lat="46.14644" lon="6.78792">
        <ele>1790.785</ele>
        <time>2014-08-30T13:51:52Z</time>
      </trkpt>
      <trkpt lat="46.14642" lon="6.78785">
        <ele>1790.785</ele>
        <time>2014-08-30T13:51:57Z</time>
      </trkpt>
      <trkpt lat="46.14643" lon="6.78779">
        <ele>1788.3162</ele>
        <time>2014-08-30T13:52:02Z</time>
      </trkpt>
      <trkpt lat="46.14643" lon="6.78774">
        <ele>1788.3162</ele>
        <time>2014-08-30T13:52:07Z</time>
      </trkpt>
      <trkpt lat="46.14643" lon="6.78773">
        <ele>1788.3162</ele>
        <time>2014-08-30T13:52:12Z</time>
      </trkpt>
      <trkpt lat="46.14643" lon="6.78769">
        <ele>1788.3162</ele>
        <time>2014-08-30T13:52:17Z</time>
      </trkpt>
      <trkpt lat="46.14644" lon="6.78763">
        <ele>1785.6034</ele>
        <time>2014-08-30T13:52:22Z</time>
      </trkpt>
      <trkpt lat="46.14644" lon="6.78756">
        <ele>1785.6034</ele>
        <time>2014-08-30T13:52:27Z</time>
      </trkpt>
      <trkpt lat="46.14643" lon="6.78751">
        <ele>1785.6034</ele>
        <time>2014-08-30T13:52:32Z</time>
      </trkpt>
      <trkpt lat="46.14642" lon="6.78741">
        <ele>1782.7657</ele>
        <time>2014-08-30T13:52:37Z</time>
      </trkpt>
      <trkpt lat="46.1464" lon="6.78736">
        <ele>1782.7657</ele>
        <time>2014-08-30T13:52:42Z</time>
      </trkpt>
      <trkpt lat="46.14637" lon="6.78726">
        <ele>1780.0438</ele>
        <time>2014-08-30T13:52:47Z</time>
      </trkpt>
      <trkpt lat="46.14636" lon="6.78717">
        <ele>1780.0438</ele>
        <time>2014-08-30T13:52:52Z</time>
      </trkpt>
      <trkpt lat="46.14636" lon="6.78709">
        <ele>1777.4293</ele>
        <time>2014-08-30T13:52:57Z</time>
      </trkpt>
      <trkpt lat="46.14636" lon="6.78704">
        <ele>1777.4293</ele>
        <time>2014-08-30T13:53:02Z</time>
      </trkpt>
      <trkpt lat="46.14635" lon="6.78697">
        <ele>1777.4293</ele>
        <time>2014-08-30T13:53:07Z</time>
      </trkpt>
      <trkpt lat="46.14633" lon="6.7869">
        <ele>1774.871</ele>
        <time>2014-08-30T13:53:12Z</time>
      </trkpt>
      <trkpt lat="46.14633" lon="6.78681">
        <ele>1774.871</ele>
        <time>2014-08-30T13:53:17Z</time>
      </trkpt>
      <trkpt lat="46.14632" lon="6.78676">
        <ele>1772.3354</ele>
        <time>2014-08-30T13:53:22Z</time>
      </trkpt>
      <trkpt lat="46.1463" lon="6.78669">
        <ele>1772.3354</ele>
        <time>2014-08-30T13:53:27Z</time>
      </trkpt>
      <trkpt lat="46.1463" lon="6.7866">
        <ele>1769.8639</ele>
        <time>2014-08-30T13:53:32Z</time>
      </trkpt>
      <trkpt lat="46.1463" lon="6.78653">
        <ele>1769.8639</ele>
        <time>2014-08-30T13:53:37Z</time>
      </trkpt>
      <trkpt lat="46.14628" lon="6.78646">
        <ele>1767.4221</ele>
        <time>2014-08-30T13:53:42Z</time>
      </trkpt>
      <trkpt lat="46.14627" lon="6.78638">
        <ele>1767.4221</ele>
        <time>2014-08-30T13:53:47Z</time>
      </trkpt>
      <trkpt lat="46.14627" lon="6.78631">
        <ele>1764.9926</ele>
        <time>2014-08-30T13:53:52Z</time>
      </trkpt>
      <trkpt lat="46.14624" lon="6.78623">
        <ele>1764.9926</ele>
        <time>2014-08-30T13:53:57Z</time>
      </trkpt>
      <trkpt lat="46.14623" lon="6.78617">
        <ele>1762.6888</ele>
        <time>2014-08-30T13:54:02Z</time>
      </trkpt>
      <trkpt lat="46.1462" lon="6.78611">
        <ele>1762.6888</ele>
        <time>2014-08-30T13:54:07Z</time>
      </trkpt>
      <trkpt lat="46.14618" lon="6.78604">
        <ele>1760.4572</ele>
        <time>2014-08-30T13:54:12Z</time>
      </trkpt>
      <trkpt lat="46.14617" lon="6.78598">
        <ele>1760.4572</ele>
        <time>2014-08-30T13:54:17Z</time>
      </trkpt>
      <trkpt lat="46.14616" lon="6.78592">
        <ele>1760.4572</ele>
        <time>2014-08-30T13:54:22Z</time>
      </trkpt>
      <trkpt lat="46.14615" lon="6.78583">
        <ele>1758.1754</ele>
        <time>2014-08-30T13:54:27Z</time>
      </trkpt>
      <trkpt lat="46.14614" lon="6.78576">
        <ele>1758.1754</ele>
        <time>2014-08-30T13:54:32Z</time>
      </trkpt>
      <trkpt lat="46.14612" lon="6.78571">
        <ele>1758.1754</ele>
        <time>2014-08-30T13:54:37Z</time>
      </trkpt>
      <trkpt lat="46.14611" lon="6.78561">
        <ele>1755.817</ele>
        <time>2014-08-30T13:54:42Z</time>
      </trkpt>
      <trkpt lat="46.14611" lon="6.78554">
        <ele>1755.817</ele>
        <time>2014-08-30T13:54:47Z</time>
      </trkpt>
      <trkpt lat="46.14613" lon="6.78548">
        <ele>1753.6458</ele>
        <time>2014-08-30T13:54:52Z</time>
      </trkpt>
      <trkpt lat="46.14614" lon="6.78538">
        <ele>1753.6458</ele>
        <time>2014-08-30T13:54:57Z</time>
      </trkpt>
      <trkpt lat="46.14614" lon="6.78531">
        <ele>1751.6029</ele>
        <time>2014-08-30T13:55:02Z</time>
      </trkpt>
      <trkpt lat="46.14614" lon="6.78523">
        <ele>1751.6029</ele>
        <time>2014-08-30T13:55:07Z</time>
      </trkpt>
      <trkpt lat="46.14613" lon="6.78521">
        <ele>1751.6029</ele>
        <time>2014-08-30T13:55:12Z</time>
      </trkpt>
      <trkpt lat="46.14611" lon="6.78522">
        <ele>1751.6029</ele>
        <time>2014-08-30T13:55:17Z</time>
      </trkpt>
      <trkpt lat="46.14611" lon="6.78519">
        <ele>1749.504</ele>
        <time>2014-08-30T13:55:22Z</time>
      </trkpt>
      <trkpt lat="46.14609" lon="6.78512">
        <ele>1749.504</ele>
        <time>2014-08-30T13:55:27Z</time>
      </trkpt>
      <trkpt lat="46.14608" lon="6.78507">
        <ele>1749.504</ele>
        <time>2014-08-30T13:55:32Z</time>
      </trkpt>
      <trkpt lat="46.14609" lon="6.78506">
        <ele>1749.504</ele>
        <time>2014-08-30T13:55:37Z</time>
      </trkpt>
      <trkpt lat="46.14609" lon="6.78505">
        <ele>1747.3224</ele>
        <time>2014-08-30T13:55:42Z</time>
      </trkpt>
      <trkpt lat="46.14609" lon="6.78505">
        <ele>1747.3224</ele>
        <time>2014-08-30T13:55:47Z</time>
      </trkpt>
      <trkpt lat="46.14609" lon="6.78505">
        <ele>1747.3224</ele>
        <time>2014-08-30T13:55:52Z</time>
      </trkpt>
      <trkpt lat="46.14609" lon="6.78503">
        <ele>1747.3224</ele>
        <time>2014-08-30T13:55:57Z</time>
      </trkpt>
      <trkpt lat="46.14607" lon="6.78502">
        <ele>1747.3224</ele>
        <time>2014-08-30T13:56:02Z</time>
      </trkpt>
      <trkpt lat="46.14607" lon="6.78502">
        <ele>1747.3224</ele>
        <time>2014-08-30T13:56:07Z</time>
      </trkpt>
      <trkpt lat="46.14607" lon="6.78501">
        <ele>1747.3224</ele>
        <time>2014-08-30T13:56:12Z</time>
      </trkpt>
      <trkpt lat="46.14608" lon="6.785">
        <ele>1747.3224</ele>
        <time>2014-08-30T13:56:17Z</time>
      </trkpt>
      <trkpt lat="46.14608" lon="6.78499">
        <ele>1747.3224</ele>
        <time>2014-08-30T13:56:22Z</time>
      </trkpt>
      <trkpt lat="46.14608" lon="6.78498">
        <ele>1747.3224</ele>
        <time>2014-08-30T13:56:27Z</time>
      </trkpt>
      <trkpt lat="46.14608" lon="6.78498">
        <ele>1747.3224</ele>
        <time>2014-08-30T13:56:32Z</time>
      </trkpt>
      <trkpt lat="46.14608" lon="6.785">
        <ele>1747.3224</ele>
        <time>2014-08-30T13:56:37Z</time>
      </trkpt>
      <trkpt lat="46.14608" lon="6.785">
        <ele>1747.3224</ele>
        <time>2014-08-30T13:56:42Z</time>
      </trkpt>
      <trkpt lat="46.14609" lon="6.78501">
        <ele>1745.2067</ele>
        <time>2014-08-30T13:56:47Z</time>
      </trkpt>
      <trkpt lat="46.1461" lon="6.78502">
        <ele>1745.2067</ele>
        <time>2014-08-30T13:56:52Z</time>
      </trkpt>
      <trkpt lat="46.14608" lon="6.78504">
        <ele>1745.2067</ele>
        <time>2014-08-30T13:56:57Z</time>
      </trkpt>
      <trkpt lat="46.14608" lon="6.78504">
        <ele>1745.2067</ele>
        <time>2014-08-30T13:57:02Z</time>
      </trkpt>
      <trkpt lat="46.14608" lon="6.78502">
        <ele>1745.2067</ele>
        <time>2014-08-30T13:58:07Z</time>
      </trkpt>
      <trkpt lat="46.14608" lon="6.78502">
        <ele>1745.2067</ele>
        <time>2014-08-30T13:58:12Z</time>
      </trkpt>
      <trkpt lat="46.14608" lon="6.78503">
        <ele>1745.2067</ele>
        <time>2014-08-30T13:58:17Z</time>
      </trkpt>
      <trkpt lat="46.14609" lon="6.78503">
        <ele>1745.2067</ele>
        <time>2014-08-30T13:58:22Z</time>
      </trkpt>
      <trkpt lat="46.14609" lon="6.78504">
        <ele>1745.2067</ele>
        <time>2014-08-30T13:58:27Z</time>
      </trkpt>
      <trkpt lat="46.1461" lon="6.78504">
        <ele>1743.049</ele>
        <time>2014-08-30T13:58:32Z</time>
      </trkpt>
      <trkpt lat="46.14611" lon="6.78503">
        <ele>1743.049</ele>
        <time>2014-08-30T13:58:37Z</time>
      </trkpt>
      <trkpt lat="46.14612" lon="6.78502">
        <ele>1743.049</ele>
        <time>2014-08-30T13:58:42Z</time>
      </trkpt>
      <trkpt lat="46.14614" lon="6.78502">
        <ele>1743.049</ele>
        <time>2014-08-30T13:58:47Z</time>
      </trkpt>
      <trkpt lat="46.14614" lon="6.78503">
        <ele>1743.049</ele>
        <time>2014-08-30T13:58:52Z</time>
      </trkpt>
      <trkpt lat="46.14613" lon="6.78503">
        <ele>1743.049</ele>
        <time>2014-08-30T13:58:57Z</time>
      </trkpt>
      <trkpt lat="46.14611" lon="6.78502">
        <ele>1743.049</ele>
        <time>2014-08-30T13:59:02Z</time>
      </trkpt>
      <trkpt lat="46.14609" lon="6.78502">
        <ele>1741.2255</ele>
        <time>2014-08-30T13:59:07Z</time>
      </trkpt>
      <trkpt lat="46.14609" lon="6.78502">
        <ele>1741.2255</ele>
        <time>2014-08-30T13:59:12Z</time>
      </trkpt>
      <trkpt lat="46.1461" lon="6.785">
        <ele>1741.2255</ele>
        <time>2014-08-30T13:59:17Z</time>
      </trkpt>
      <trkpt lat="46.14609" lon="6.78498">
        <ele>1741.2255</ele>
        <time>2014-08-30T13:59:22Z</time>
      </trkpt>
      <trkpt lat="46.14607" lon="6.78491">
        <ele>1739.5791</ele>
        <time>2014-08-30T13:59:27Z</time>
      </trkpt>
      <trkpt lat="46.14604" lon="6.78479">
        <ele>1739.5791</ele>
        <time>2014-08-30T13:59:32Z</time>
      </trkpt>
      <trkpt lat="46.14602" lon="6.78472">
        <ele>1738.094</ele>
        <time>2014-08-30T13:59:37Z</time>
      </trkpt>
      <trkpt lat="46.14598" lon="6.78466">
        <ele>1738.094</ele>
        <time>2014-08-30T13:59:42Z</time>
      </trkpt>
      <trkpt lat="46.14597" lon="6.78461">
        <ele>1736.7976</ele>
        <time>2014-08-30T13:59:47Z</time>
      </trkpt>
      <trkpt lat="46.14593" lon="6.78452">
        <ele>1736.7976</ele>
        <time>2014-08-30T13:59:52Z</time>
      </trkpt>
      <trkpt lat="46.14591" lon="6.7844">
        <ele>1735.557</ele>
        <time>2014-08-30T13:59:57Z</time>
      </trkpt>
      <trkpt lat="46.14589" lon="6.78432">
        <ele>1735.557</ele>
        <time>2014-08-30T14:00:02Z</time>
      </trkpt>
      <trkpt lat="46.14585" lon="6.78423">
        <ele>1734.508</ele>
        <time>2014-08-30T14:00:07Z</time>
      </trkpt>
      <trkpt lat="46.14582" lon="6.78418">
        <ele>1734.508</ele>
        <time>2014-08-30T14:00:12Z</time>
      </trkpt>
      <trkpt lat="46.1458" lon="6.78411">
        <ele>1733.6464</ele>
        <time>2014-08-30T14:00:17Z</time>
      </trkpt>
      <trkpt lat="46.14577" lon="6.78406">
        <ele>1733.6464</ele>
        <time>2014-08-30T14:00:22Z</time>
      </trkpt>
      <trkpt lat="46.14575" lon="6.78401">
        <ele>1733.6464</ele>
        <time>2014-08-30T14:00:27Z</time>
      </trkpt>
      <trkpt lat="46.14572" lon="6.78397">
        <ele>1732.5928</ele>
        <time>2014-08-30T14:00:32Z</time>
      </trkpt>
      <trkpt lat="46.1457" lon="6.78392">
        <ele>1732.5928</ele>
        <time>2014-08-30T14:00:37Z</time>
      </trkpt>
      <trkpt lat="46.14566" lon="6.78385">
        <ele>1731.4435</ele>
        <time>2014-08-30T14:00:42Z</time>
      </trkpt>
      <trkpt lat="46.14565" lon="6.78386">
        <ele>1731.4435</ele>
        <time>2014-08-30T14:00:47Z</time>
      </trkpt>
      <trkpt lat="46.14567" lon="6.78387">
        <ele>1731.4435</ele>
        <time>2014-08-30T14:00:52Z</time>
      </trkpt>
      <trkpt lat="46.14566" lon="6.78389">
        <ele>1731.4435</ele>
        <time>2014-08-30T14:00:57Z</time>
      </trkpt>
      <trkpt lat="46.14566" lon="6.7839">
        <ele>1731.4435</ele>
        <time>2014-08-30T14:01:02Z</time>
      </trkpt>
      <trkpt lat="46.14563" lon="6.7839">
        <ele>1731.4435</ele>
        <time>2014-08-30T14:01:07Z</time>
      </trkpt>
      <trkpt lat="46.14564" lon="6.78388">
        <ele>1731.4435</ele>
        <time>2014-08-30T14:01:12Z</time>
      </trkpt>
      <trkpt lat="46.14564" lon="6.78386">
        <ele>1730.4175</ele>
        <time>2014-08-30T14:01:17Z</time>
      </trkpt>
      <trkpt lat="46.14561" lon="6.78386">
        <ele>1730.4175</ele>
        <time>2014-08-30T14:01:22Z</time>
      </trkpt>
      <trkpt lat="46.14557" lon="6.78387">
        <ele>1730.4175</ele>
        <time>2014-08-30T14:01:27Z</time>
      </trkpt>
      <trkpt lat="46.14553" lon="6.78391">
        <ele>1729.2131</ele>
        <time>2014-08-30T14:01:32Z</time>
      </trkpt>
      <trkpt lat="46.1455" lon="6.78393">
        <ele>1729.2131</ele>
        <time>2014-08-30T14:01:37Z</time>
      </trkpt>
      <trkpt lat="46.14547" lon="6.78401">
        <ele>1728.013</ele>
        <time>2014-08-30T14:01:42Z</time>
      </trkpt>
      <trkpt lat="46.14545" lon="6.78402">
        <ele>1728.013</ele>
        <time>2014-08-30T14:01:47Z</time>
      </trkpt>
      <trkpt lat="46.14546" lon="6.78401">
        <ele>1728.013</ele>
        <time>2014-08-30T14:01:52Z</time>
      </trkpt>
      <trkpt lat="46.14545" lon="6.78384">
        <ele>1726.7693</ele>
        <time>2014-08-30T14:01:57Z</time>
      </trkpt>
      <trkpt lat="46.14542" lon="6.78367">
        <ele>1725.7561</ele>
        <time>2014-08-30T14:02:02Z</time>
      </trkpt>
      <trkpt lat="46.14543" lon="6.78357">
        <ele>1725.7561</ele>
        <time>2014-08-30T14:02:07Z</time>
      </trkpt>
      <trkpt lat="46.14544" lon="6.78348">
        <ele>1724.8658</ele>
        <time>2014-08-30T14:02:12Z</time>
      </trkpt>
      <trkpt lat="46.14542" lon="6.78339">
        <ele>1724.8658</ele>
        <time>2014-08-30T14:02:17Z</time>
      </trkpt>
      <trkpt lat="46.14539" lon="6.78331">
        <ele>1724.1572</ele>
        <time>2014-08-30T14:02:22Z</time>
      </trkpt>
      <trkpt lat="46.1454" lon="6.78326">
        <ele>1724.1572</ele>
        <time>2014-08-30T14:02:27Z</time>
      </trkpt>
      <trkpt lat="46.1454" lon="6.78323">
        <ele>1724.1572</ele>
        <time>2014-08-30T14:02:32Z</time>
      </trkpt>
      <trkpt lat="46.14536" lon="6.7832">
        <ele>1723.3964</ele>
        <time>2014-08-30T14:02:37Z</time>
      </trkpt>
      <trkpt lat="46.14531" lon="6.78322">
        <ele>1723.3964</ele>
        <time>2014-08-30T14:02:42Z</time>
      </trkpt>
      <trkpt lat="46.14528" lon="6.78327">
        <ele>1722.424</ele>
        <time>2014-08-30T14:02:47Z</time>
      </trkpt>
      <trkpt lat="46.14524" lon="6.78331">
        <ele>1722.424</ele>
        <time>2014-08-30T14:02:52Z</time>
      </trkpt>
      <trkpt lat="46.1452" lon="6.78335">
        <ele>1721.0216</ele>
        <time>2014-08-30T14:02:57Z</time>
      </trkpt>
      <trkpt lat="46.14516" lon="6.78331">
        <ele>1721.0216</ele>
        <time>2014-08-30T14:03:02Z</time>
      </trkpt>
      <trkpt lat="46.14513" lon="6.78324">
        <ele>1719.2616</ele>
        <time>2014-08-30T14:03:07Z</time>
      </trkpt>
      <trkpt lat="46.1451" lon="6.78314">
        <ele>1719.2616</ele>
        <time>2014-08-30T14:03:12Z</time>
      </trkpt>
      <trkpt lat="46.1451" lon="6.78306">
        <ele>1717.4142</ele>
        <time>2014-08-30T14:03:17Z</time>
      </trkpt>
      <trkpt lat="46.14511" lon="6.78296">
        <ele>1717.4142</ele>
        <time>2014-08-30T14:03:22Z</time>
      </trkpt>
      <trkpt lat="46.1452" lon="6.78287">
        <ele>1715.6003</ele>
        <time>2014-08-30T14:03:27Z</time>
      </trkpt>
      <trkpt lat="46.14524" lon="6.78282">
        <ele>1715.6003</ele>
        <time>2014-08-30T14:03:32Z</time>
      </trkpt>
      <trkpt lat="46.14528" lon="6.7828">
        <ele>1713.7013</ele>
        <time>2014-08-30T14:03:37Z</time>
      </trkpt>
      <trkpt lat="46.14533" lon="6.78284">
        <ele>1713.7013</ele>
        <time>2014-08-30T14:03:42Z</time>
      </trkpt>
      <trkpt lat="46.14537" lon="6.78286">
        <ele>1711.8094</ele>
        <time>2014-08-30T14:03:47Z</time>
      </trkpt>
      <trkpt lat="46.14543" lon="6.78295">
        <ele>1711.8094</ele>
        <time>2014-08-30T14:03:52Z</time>
      </trkpt>
      <trkpt lat="46.14546" lon="6.78299">
        <ele>1709.9382</ele>
        <time>2014-08-30T14:03:57Z</time>
      </trkpt>
      <trkpt lat="46.14549" lon="6.78305">
        <ele>1709.9382</ele>
        <time>2014-08-30T14:04:02Z</time>
      </trkpt>
      <trkpt lat="46.14554" lon="6.78307">
        <ele>1708.1149</ele>
        <time>2014-08-30T14:04:07Z</time>
      </trkpt>
      <trkpt lat="46.14561" lon="6.78303">
        <ele>1708.1149</ele>
        <time>2014-08-30T14:04:12Z</time>
      </trkpt>
      <trkpt lat="46.14564" lon="6.78294">
        <ele>1706.2919</ele>
        <time>2014-08-30T14:04:17Z</time>
      </trkpt>
      <trkpt lat="46.14563" lon="6.78286">
        <ele>1706.2919</ele>
        <time>2014-08-30T14:04:22Z</time>
      </trkpt>
      <trkpt lat="46.14562" lon="6.78272">
        <ele>1704.5269</ele>
        <time>2014-08-30T14:04:27Z</time>
      </trkpt>
      <trkpt lat="46.14561" lon="6.78263">
        <ele>1704.5269</ele>
        <time>2014-08-30T14:04:32Z</time>
      </trkpt>
      <trkpt lat="46.14566" lon="6.78263">
        <ele>1702.8727</ele>
        <time>2014-08-30T14:04:37Z</time>
      </trkpt>
      <trkpt lat="46.14569" lon="6.78262">
        <ele>1702.8727</ele>
        <time>2014-08-30T14:04:42Z</time>
      </trkpt>
      <trkpt lat="46.14569" lon="6.78262">
        <ele>1702.8727</ele>
        <time>2014-08-30T14:04:47Z</time>
      </trkpt>
      <trkpt lat="46.14572" lon="6.78257">
        <ele>1702.8727</ele>
        <time>2014-08-30T14:04:52Z</time>
      </trkpt>
      <trkpt lat="46.14579" lon="6.78246">
        <ele>1700.8451</ele>
        <time>2014-08-30T14:04:57Z</time>
      </trkpt>
      <trkpt lat="46.14581" lon="6.78235">
        <ele>1700.8451</ele>
        <time>2014-08-30T14:05:02Z</time>
      </trkpt>
      <trkpt lat="46.14578" lon="6.78226">
        <ele>1698.6881</ele>
        <time>2014-08-30T14:05:07Z</time>
      </trkpt>
      <trkpt lat="46.14573" lon="6.78217">
        <ele>1698.6881</ele>
        <time>2014-08-30T14:05:12Z</time>
      </trkpt>
      <trkpt lat="46.14564" lon="6.78209">
        <ele>1696.7725</ele>
        <time>2014-08-30T14:05:17Z</time>
      </trkpt>
      <trkpt lat="46.14561" lon="6.78207">
        <ele>1696.7725</ele>
        <time>2014-08-30T14:05:22Z</time>
      </trkpt>
      <trkpt lat="46.14559" lon="6.782">
        <ele>1695.1239</ele>
        <time>2014-08-30T14:05:27Z</time>
      </trkpt>
      <trkpt lat="46.14557" lon="6.78194">
        <ele>1695.1239</ele>
        <time>2014-08-30T14:05:32Z</time>
      </trkpt>
      <trkpt lat="46.14555" lon="6.78191">
        <ele>1695.1239</ele>
        <time>2014-08-30T14:05:37Z</time>
      </trkpt>
      <trkpt lat="46.14553" lon="6.78188">
        <ele>1693.2324</ele>
        <time>2014-08-30T14:05:42Z</time>
      </trkpt>
      <trkpt lat="46.14553" lon="6.78187">
        <ele>1693.2324</ele>
        <time>2014-08-30T14:05:47Z</time>
      </trkpt>
      <trkpt lat="46.14548" lon="6.78178">
        <ele>1693.2324</ele>
        <time>2014-08-30T14:05:52Z</time>
      </trkpt>
      <trkpt lat="46.14542" lon="6.78174">
        <ele>1691.2747</ele>
        <time>2014-08-30T14:05:57Z</time>
      </trkpt>
      <trkpt lat="46.14539" lon="6.78172">
        <ele>1691.2747</ele>
        <time>2014-08-30T14:06:02Z</time>
      </trkpt>
      <trkpt lat="46.14537" lon="6.78167">
        <ele>1691.2747</ele>
        <time>2014-08-30T14:06:07Z</time>
      </trkpt>
      <trkpt lat="46.14536" lon="6.78162">
        <ele>1689.4292</ele>
        <time>2014-08-30T14:06:12Z</time>
      </trkpt>
      <trkpt lat="46.14536" lon="6.78153">
        <ele>1689.4292</ele>
        <time>2014-08-30T14:06:17Z</time>
      </trkpt>
      <trkpt lat="46.14538" lon="6.7815">
        <ele>1687.8031</ele>
        <time>2014-08-30T14:06:22Z</time>
      </trkpt>
      <trkpt lat="46.14538" lon="6.7815">
        <ele>1687.8031</ele>
        <time>2014-08-30T14:06:27Z</time>
      </trkpt>
      <trkpt lat="46.14538" lon="6.78148">
        <ele>1687.8031</ele>
        <time>2014-08-30T14:06:37Z</time>
      </trkpt>
      <trkpt lat="46.14537" lon="6.78147">
        <ele>1687.8031</ele>
        <time>2014-08-30T14:06:42Z</time>
      </trkpt>
      <trkpt lat="46.14537" lon="6.78146">
        <ele>1687.8031</ele>
        <time>2014-08-30T14:06:47Z</time>
      </trkpt>
      <trkpt lat="46.14537" lon="6.78145">
        <ele>1687.8031</ele>
        <time>2014-08-30T14:06:52Z</time>
      </trkpt>
      <trkpt lat="46.14537" lon="6.78145">
        <ele>1687.8031</ele>
        <time>2014-08-30T14:06:57Z</time>
      </trkpt>
      <trkpt lat="46.14538" lon="6.78136">
        <ele>1685.8036</ele>
        <time>2014-08-30T14:07:02Z</time>
      </trkpt>
      <trkpt lat="46.14539" lon="6.78132">
        <ele>1685.8036</ele>
        <time>2014-08-30T14:07:07Z</time>
      </trkpt>
      <trkpt lat="46.14539" lon="6.78131">
        <ele>1685.8036</ele>
        <time>2014-08-30T14:07:12Z</time>
      </trkpt>
      <trkpt lat="46.14539" lon="6.78129">
        <ele>1685.8036</ele>
        <time>2014-08-30T14:07:17Z</time>
      </trkpt>
      <trkpt lat="46.14535" lon="6.78116">
        <ele>1683.6749</ele>
        <time>2014-08-30T14:07:22Z</time>
      </trkpt>
      <trkpt lat="46.14537" lon="6.78106">
        <ele>1683.6749</ele>
        <time>2014-08-30T14:07:27Z</time>
      </trkpt>
      <trkpt lat="46.14538" lon="6.78106">
        <ele>1683.6749</ele>
        <time>2014-08-30T14:07:32Z</time>
      </trkpt>
      <trkpt lat="46.14544" lon="6.78109">
        <ele>1681.5</ele>
        <time>2014-08-30T14:07:37Z</time>
      </trkpt>
      <trkpt lat="46.14548" lon="6.78109">
        <ele>1681.5</ele>
        <time>2014-08-30T14:07:42Z</time>
      </trkpt>
      <trkpt lat="46.14553" lon="6.7811">
        <ele>1681.5</ele>
        <time>2014-08-30T14:07:47Z</time>
      </trkpt>
      <trkpt lat="46.14559" lon="6.78113">
        <ele>1679.0815</ele>
        <time>2014-08-30T14:07:52Z</time>
      </trkpt>
      <trkpt lat="46.14567" lon="6.78121">
        <ele>1676.7278</ele>
        <time>2014-08-30T14:07:57Z</time>
      </trkpt>
      <trkpt lat="46.14571" lon="6.78127">
        <ele>1676.7278</ele>
        <time>2014-08-30T14:08:02Z</time>
      </trkpt>
      <trkpt lat="46.14573" lon="6.78137">
        <ele>1674.6664</ele>
        <time>2014-08-30T14:08:07Z</time>
      </trkpt>
      <trkpt lat="46.14578" lon="6.7815">
        <ele>1672.9633</ele>
        <time>2014-08-30T14:08:12Z</time>
      </trkpt>
      <trkpt lat="46.14585" lon="6.78153">
        <ele>1672.9633</ele>
        <time>2014-08-30T14:08:17Z</time>
      </trkpt>
      <trkpt lat="46.14594" lon="6.78157">
        <ele>1671.5201</ele>
        <time>2014-08-30T14:08:22Z</time>
      </trkpt>
      <trkpt lat="46.14598" lon="6.78158">
        <ele>1671.5201</ele>
        <time>2014-08-30T14:08:27Z</time>
      </trkpt>
      <trkpt lat="46.14602" lon="6.78157">
        <ele>1671.5201</ele>
        <time>2014-08-30T14:08:32Z</time>
      </trkpt>
      <trkpt lat="46.14603" lon="6.78156">
        <ele>1670.0433</ele>
        <time>2014-08-30T14:08:37Z</time>
      </trkpt>
      <trkpt lat="46.14603" lon="6.78156">
        <ele>1670.0433</ele>
        <time>2014-08-30T14:08:42Z</time>
      </trkpt>
      <trkpt lat="46.14602" lon="6.78156">
        <ele>1670.0433</ele>
        <time>2014-08-30T14:10:07Z</time>
      </trkpt>
      <trkpt lat="46.14602" lon="6.78156">
        <ele>1670.0433</ele>
        <time>2014-08-30T14:10:12Z</time>
      </trkpt>
      <trkpt lat="46.14602" lon="6.78157">
        <ele>1670.0433</ele>
        <time>2014-08-30T14:10:22Z</time>
      </trkpt>
      <trkpt lat="46.146" lon="6.78153">
        <ele>1670.0433</ele>
        <time>2014-08-30T14:11:02Z</time>
      </trkpt>
      <trkpt lat="46.14599" lon="6.78151">
        <ele>1670.0433</ele>
        <time>2014-08-30T14:11:07Z</time>
      </trkpt>
      <trkpt lat="46.146" lon="6.78135">
        <ele>1667.425</ele>
        <time>2014-08-30T14:11:12Z</time>
      </trkpt>
      <trkpt lat="46.14601" lon="6.78127">
        <ele>1667.425</ele>
        <time>2014-08-30T14:11:17Z</time>
      </trkpt>
      <trkpt lat="46.14601" lon="6.78122">
        <ele>1664.2561</ele>
        <time>2014-08-30T14:11:22Z</time>
      </trkpt>
      <trkpt lat="46.146" lon="6.78115">
        <ele>1664.2561</ele>
        <time>2014-08-30T14:11:27Z</time>
      </trkpt>
      <trkpt lat="46.146" lon="6.78115">
        <ele>1664.2561</ele>
        <time>2014-08-30T14:11:32Z</time>
      </trkpt>
      <trkpt lat="46.146" lon="6.78113">
        <ele>1664.2561</ele>
        <time>2014-08-30T14:12:02Z</time>
      </trkpt>
      <trkpt lat="46.14599" lon="6.78104">
        <ele>1660.5234</ele>
        <time>2014-08-30T14:12:07Z</time>
      </trkpt>
      <trkpt lat="46.14599" lon="6.78095">
        <ele>1660.5234</ele>
        <time>2014-08-30T14:12:12Z</time>
      </trkpt>
      <trkpt lat="46.14601" lon="6.78082">
        <ele>1657.081</ele>
        <time>2014-08-30T14:12:17Z</time>
      </trkpt>
      <trkpt lat="46.14599" lon="6.78064">
        <ele>1654.0856</ele>
        <time>2014-08-30T14:12:22Z</time>
      </trkpt>
      <trkpt lat="46.14596" lon="6.78056">
        <ele>1654.0856</ele>
        <time>2014-08-30T14:12:27Z</time>
      </trkpt>
      <trkpt lat="46.14591" lon="6.78048">
        <ele>1651.5219</ele>
        <time>2014-08-30T14:12:32Z</time>
      </trkpt>
      <trkpt lat="46.14588" lon="6.78042">
        <ele>1651.5219</ele>
        <time>2014-08-30T14:12:37Z</time>
      </trkpt>
      <trkpt lat="46.14586" lon="6.78039">
        <ele>1651.5219</ele>
        <time>2014-08-30T14:12:42Z</time>
      </trkpt>
      <trkpt lat="46.14581" lon="6.78041">
        <ele>1649.1013</ele>
        <time>2014-08-30T14:12:47Z</time>
      </trkpt>
      <trkpt lat="46.14574" lon="6.78041">
        <ele>1649.1013</ele>
        <time>2014-08-30T14:12:52Z</time>
      </trkpt>
      <trkpt lat="46.14573" lon="6.78041">
        <ele>1649.1013</ele>
        <time>2014-08-30T14:12:57Z</time>
      </trkpt>
      <trkpt lat="46.1457" lon="6.78041">
        <ele>1646.4547</ele>
        <time>2014-08-30T14:13:02Z</time>
      </trkpt>
      <trkpt lat="46.14563" lon="6.78034">
        <ele>1646.4547</ele>
        <time>2014-08-30T14:13:07Z</time>
      </trkpt>
      <trkpt lat="46.14557" lon="6.78031">
        <ele>1643.9183</ele>
        <time>2014-08-30T14:13:12Z</time>
      </trkpt>
      <trkpt lat="46.14554" lon="6.78024">
        <ele>1643.9183</ele>
        <time>2014-08-30T14:13:17Z</time>
      </trkpt>
      <trkpt lat="46.14546" lon="6.78018">
        <ele>1641.558</ele>
        <time>2014-08-30T14:13:22Z</time>
      </trkpt>
      <trkpt lat="46.1454" lon="6.78011">
        <ele>1641.558</ele>
        <time>2014-08-30T14:13:27Z</time>
      </trkpt>
      <trkpt lat="46.14535" lon="6.78001">
        <ele>1639.3767</ele>
        <time>2014-08-30T14:13:32Z</time>
      </trkpt>
      <trkpt lat="46.14529" lon="6.77997">
        <ele>1639.3767</ele>
        <time>2014-08-30T14:13:37Z</time>
      </trkpt>
      <trkpt lat="46.14529" lon="6.77997">
        <ele>1639.3767</ele>
        <time>2014-08-30T14:13:42Z</time>
      </trkpt>
      <trkpt lat="46.14526" lon="6.77996">
        <ele>1637.2325</ele>
        <time>2014-08-30T14:13:52Z</time>
      </trkpt>
      <trkpt lat="46.14523" lon="6.77993">
        <ele>1637.2325</ele>
        <time>2014-08-30T14:13:57Z</time>
      </trkpt>
      <trkpt lat="46.14523" lon="6.77986">
        <ele>1637.2325</ele>
        <time>2014-08-30T14:14:02Z</time>
      </trkpt>
      <trkpt lat="46.14526" lon="6.77981">
        <ele>1634.8928</ele>
        <time>2014-08-30T14:14:07Z</time>
      </trkpt>
      <trkpt lat="46.14531" lon="6.77975">
        <ele>1634.8928</ele>
        <time>2014-08-30T14:14:12Z</time>
      </trkpt>
      <trkpt lat="46.1454" lon="6.77972">
        <ele>1632.503</ele>
        <time>2014-08-30T14:14:17Z</time>
      </trkpt>
      <trkpt lat="46.14545" lon="6.77968">
        <ele>1632.503</ele>
        <time>2014-08-30T14:14:22Z</time>
      </trkpt>
      <trkpt lat="46.14545" lon="6.77968">
        <ele>1632.503</ele>
        <time>2014-08-30T14:14:27Z</time>
      </trkpt>
      <trkpt lat="46.14546" lon="6.77968">
        <ele>1632.503</ele>
        <time>2014-08-30T14:14:32Z</time>
      </trkpt>
      <trkpt lat="46.14546" lon="6.77968">
        <ele>1632.503</ele>
        <time>2014-08-30T14:14:37Z</time>
      </trkpt>
      <trkpt lat="46.14546" lon="6.77971">
        <ele>1632.503</ele>
        <time>2014-08-30T14:14:42Z</time>
      </trkpt>
      <trkpt lat="46.1455" lon="6.77972">
        <ele>1630.1401</ele>
        <time>2014-08-30T14:14:47Z</time>
      </trkpt>
      <trkpt lat="46.14552" lon="6.77975">
        <ele>1630.1401</ele>
        <time>2014-08-30T14:14:52Z</time>
      </trkpt>
      <trkpt lat="46.14554" lon="6.77977">
        <ele>1630.1401</ele>
        <time>2014-08-30T14:14:57Z</time>
      </trkpt>
      <trkpt lat="46.14554" lon="6.77977">
        <ele>1630.1401</ele>
        <time>2014-08-30T14:15:02Z</time>
      </trkpt>
      <trkpt lat="46.14558" lon="6.77977">
        <ele>1628.0771</ele>
        <time>2014-08-30T14:15:07Z</time>
      </trkpt>
      <trkpt lat="46.14564" lon="6.77976">
        <ele>1628.0771</ele>
        <time>2014-08-30T14:15:12Z</time>
      </trkpt>
      <trkpt lat="46.14564" lon="6.77977">
        <ele>1628.0771</ele>
        <time>2014-08-30T14:15:17Z</time>
      </trkpt>
      <trkpt lat="46.14574" lon="6.77991">
        <ele>1626.1482</ele>
        <time>2014-08-30T14:15:22Z</time>
      </trkpt>
      <trkpt lat="46.14586" lon="6.77994">
        <ele>1624.3434</ele>
        <time>2014-08-30T14:15:27Z</time>
      </trkpt>
      <trkpt lat="46.14586" lon="6.77994">
        <ele>1624.3434</ele>
        <time>2014-08-30T14:15:32Z</time>
      </trkpt>
      <trkpt lat="46.14586" lon="6.77993">
        <ele>1624.3434</ele>
        <time>2014-08-30T14:15:37Z</time>
      </trkpt>
      <trkpt lat="46.14584" lon="6.77989">
        <ele>1624.3434</ele>
        <time>2014-08-30T14:15:42Z</time>
      </trkpt>
      <trkpt lat="46.14584" lon="6.77989">
        <ele>1624.3434</ele>
        <time>2014-08-30T14:15:47Z</time>
      </trkpt>
      <trkpt lat="46.14582" lon="6.77987">
        <ele>1624.3434</ele>
        <time>2014-08-30T14:15:52Z</time>
      </trkpt>
      <trkpt lat="46.14579" lon="6.77979">
        <ele>1621.4425</ele>
        <time>2014-08-30T14:15:57Z</time>
      </trkpt>
      <trkpt lat="46.14578" lon="6.77967">
        <ele>1621.4425</ele>
        <time>2014-08-30T14:16:02Z</time>
      </trkpt>
      <trkpt lat="46.14577" lon="6.77959">
        <ele>1618.667</ele>
        <time>2014-08-30T14:16:07Z</time>
      </trkpt>
      <trkpt lat="46.14575" lon="6.77948">
        <ele>1618.667</ele>
        <time>2014-08-30T14:16:12Z</time>
      </trkpt>
      <trkpt lat="46.14572" lon="6.77942">
        <ele>1615.9954</ele>
        <time>2014-08-30T14:16:17Z</time>
      </trkpt>
      <trkpt lat="46.1457" lon="6.77933">
        <ele>1615.9954</ele>
        <time>2014-08-30T14:16:22Z</time>
      </trkpt>
      <trkpt lat="46.14567" lon="6.77924">
        <ele>1613.4506</ele>
        <time>2014-08-30T14:16:27Z</time>
      </trkpt>
      <trkpt lat="46.14564" lon="6.77917">
        <ele>1613.4506</ele>
        <time>2014-08-30T14:16:32Z</time>
      </trkpt>
      <trkpt lat="46.14562" lon="6.7791">
        <ele>1611.1255</ele>
        <time>2014-08-30T14:16:37Z</time>
      </trkpt>
      <trkpt lat="46.1456" lon="6.77905">
        <ele>1611.1255</ele>
        <time>2014-08-30T14:16:42Z</time>
      </trkpt>
      <trkpt lat="46.14556" lon="6.77902">
        <ele>1608.9615</ele>
        <time>2014-08-30T14:16:47Z</time>
      </trkpt>
      <trkpt lat="46.14552" lon="6.77901">
        <ele>1608.9615</ele>
        <time>2014-08-30T14:16:52Z</time>
      </trkpt>
      <trkpt lat="46.14548" lon="6.77898">
        <ele>1608.9615</ele>
        <time>2014-08-30T14:16:57Z</time>
      </trkpt>
      <trkpt lat="46.14548" lon="6.77898">
        <ele>1608.9615</ele>
        <time>2014-08-30T14:17:02Z</time>
      </trkpt>
      <trkpt lat="46.1454" lon="6.77895">
        <ele>1606.2986</ele>
        <time>2014-08-30T14:17:07Z</time>
      </trkpt>
      <trkpt lat="46.14533" lon="6.7789">
        <ele>1606.2986</ele>
        <time>2014-08-30T14:17:12Z</time>
      </trkpt>
      <trkpt lat="46.14525" lon="6.77887">
        <ele>1603.8087</ele>
        <time>2014-08-30T14:17:17Z</time>
      </trkpt>
      <trkpt lat="46.14518" lon="6.77883">
        <ele>1603.8087</ele>
        <time>2014-08-30T14:17:22Z</time>
      </trkpt>
      <trkpt lat="46.14512" lon="6.77884">
        <ele>1601.5525</ele>
        <time>2014-08-30T14:17:27Z</time>
      </trkpt>
      <trkpt lat="46.14505" lon="6.77884">
        <ele>1601.5525</ele>
        <time>2014-08-30T14:17:32Z</time>
      </trkpt>
      <trkpt lat="46.14499" lon="6.77888">
        <ele>1599.4408</ele>
        <time>2014-08-30T14:17:37Z</time>
      </trkpt>
      <trkpt lat="46.14495" lon="6.77892">
        <ele>1599.4408</ele>
        <time>2014-08-30T14:17:42Z</time>
      </trkpt>
      <trkpt lat="46.1449" lon="6.77894">
        <ele>1597.6072</ele>
        <time>2014-08-30T14:17:47Z</time>
      </trkpt>
      <trkpt lat="46.14482" lon="6.779">
        <ele>1597.6072</ele>
        <time>2014-08-30T14:17:52Z</time>
      </trkpt>
      <trkpt lat="46.14478" lon="6.77907">
        <ele>1595.9869</ele>
        <time>2014-08-30T14:17:57Z</time>
      </trkpt>
      <trkpt lat="46.14474" lon="6.77914">
        <ele>1595.9869</ele>
        <time>2014-08-30T14:18:02Z</time>
      </trkpt>
      <trkpt lat="46.14468" lon="6.7792">
        <ele>1594.4043</ele>
        <time>2014-08-30T14:18:07Z</time>
      </trkpt>
      <trkpt lat="46.14461" lon="6.77924">
        <ele>1594.4043</ele>
        <time>2014-08-30T14:18:12Z</time>
      </trkpt>
      <trkpt lat="46.14456" lon="6.77928">
        <ele>1592.8115</ele>
        <time>2014-08-30T14:18:17Z</time>
      </trkpt>
      <trkpt lat="46.14453" lon="6.77929">
        <ele>1592.8115</ele>
        <time>2014-08-30T14:18:22Z</time>
      </trkpt>
      <trkpt lat="46.14451" lon="6.77931">
        <ele>1592.8115</ele>
        <time>2014-08-30T14:18:27Z</time>
      </trkpt>
      <trkpt lat="46.14448" lon="6.77936">
        <ele>1591.15</ele>
        <time>2014-08-30T14:18:32Z</time>
      </trkpt>
      <trkpt lat="46.14447" lon="6.77937">
        <ele>1591.15</ele>
        <time>2014-08-30T14:18:37Z</time>
      </trkpt>
      <trkpt lat="46.14446" lon="6.7795">
        <ele>1589.5098</ele>
        <time>2014-08-30T14:18:42Z</time>
      </trkpt>
      <trkpt lat="46.14444" lon="6.77955">
        <ele>1589.5098</ele>
        <time>2014-08-30T14:18:47Z</time>
      </trkpt>
      <trkpt lat="46.1444" lon="6.77963">
        <ele>1587.6138</ele>
        <time>2014-08-30T14:18:52Z</time>
      </trkpt>
      <trkpt lat="46.14433" lon="6.77967">
        <ele>1587.6138</ele>
        <time>2014-08-30T14:18:57Z</time>
      </trkpt>
      <trkpt lat="46.14428" lon="6.77981">
        <ele>1585.7969</ele>
        <time>2014-08-30T14:19:02Z</time>
      </trkpt>
      <trkpt lat="46.14424" lon="6.7799">
        <ele>1585.7969</ele>
        <time>2014-08-30T14:19:07Z</time>
      </trkpt>
      <trkpt lat="46.1442" lon="6.77996">
        <ele>1584.1965</ele>
        <time>2014-08-30T14:19:12Z</time>
      </trkpt>
      <trkpt lat="46.14415" lon="6.77991">
        <ele>1584.1965</ele>
        <time>2014-08-30T14:19:17Z</time>
      </trkpt>
      <trkpt lat="46.14413" lon="6.77982">
        <ele>1582.8092</ele>
        <time>2014-08-30T14:19:22Z</time>
      </trkpt>
      <trkpt lat="46.14419" lon="6.77969">
        <ele>1581.819</ele>
        <time>2014-08-30T14:19:27Z</time>
      </trkpt>
      <trkpt lat="46.14423" lon="6.77957">
        <ele>1581.0923</ele>
        <time>2014-08-30T14:19:32Z</time>
      </trkpt>
      <trkpt lat="46.14428" lon="6.77944">
        <ele>1580.4905</ele>
        <time>2014-08-30T14:19:37Z</time>
      </trkpt>
      <trkpt lat="46.14429" lon="6.77937">
        <ele>1580.4905</ele>
        <time>2014-08-30T14:19:42Z</time>
      </trkpt>
      <trkpt lat="46.1443" lon="6.77937">
        <ele>1580.4905</ele>
        <time>2014-08-30T14:19:47Z</time>
      </trkpt>
      <trkpt lat="46.14429" lon="6.77932">
        <ele>1579.87</ele>
        <time>2014-08-30T14:19:52Z</time>
      </trkpt>
      <trkpt lat="46.1443" lon="6.77921">
        <ele>1579.87</ele>
        <time>2014-08-30T14:19:57Z</time>
      </trkpt>
      <trkpt lat="46.1443" lon="6.7791">
        <ele>1579.3867</ele>
        <time>2014-08-30T14:20:02Z</time>
      </trkpt>
      <trkpt lat="46.14429" lon="6.779">
        <ele>1579.3867</ele>
        <time>2014-08-30T14:20:07Z</time>
      </trkpt>
      <trkpt lat="46.14429" lon="6.77892">
        <ele>1579.1122</ele>
        <time>2014-08-30T14:20:12Z</time>
      </trkpt>
      <trkpt lat="46.1443" lon="6.77884">
        <ele>1579.1122</ele>
        <time>2014-08-30T14:20:17Z</time>
      </trkpt>
      <trkpt lat="46.14434" lon="6.77879">
        <ele>1578.8242</ele>
        <time>2014-08-30T14:20:22Z</time>
      </trkpt>
      <trkpt lat="46.14439" lon="6.77873">
        <ele>1578.8242</ele>
        <time>2014-08-30T14:20:27Z</time>
      </trkpt>
      <trkpt lat="46.14441" lon="6.77869">
        <ele>1578.4899</ele>
        <time>2014-08-30T14:20:32Z</time>
      </trkpt>
      <trkpt lat="46.14445" lon="6.77864">
        <ele>1578.4899</ele>
        <time>2014-08-30T14:20:37Z</time>
      </trkpt>
      <trkpt lat="46.1445" lon="6.77854">
        <ele>1578.0646</ele>
        <time>2014-08-30T14:20:42Z</time>
      </trkpt>
      <trkpt lat="46.14453" lon="6.77845">
        <ele>1578.0646</ele>
        <time>2014-08-30T14:20:47Z</time>
      </trkpt>
      <trkpt lat="46.14453" lon="6.77839">
        <ele>1577.4639</ele>
        <time>2014-08-30T14:20:52Z</time>
      </trkpt>
      <trkpt lat="46.14454" lon="6.77831">
        <ele>1577.4639</ele>
        <time>2014-08-30T14:20:57Z</time>
      </trkpt>
      <trkpt lat="46.14457" lon="6.77822">
        <ele>1576.6824</ele>
        <time>2014-08-30T14:21:02Z</time>
      </trkpt>
      <trkpt lat="46.14459" lon="6.77815">
        <ele>1576.6824</ele>
        <time>2014-08-30T14:21:07Z</time>
      </trkpt>
      <trkpt lat="46.1446" lon="6.77809">
        <ele>1575.9176</ele>
        <time>2014-08-30T14:21:12Z</time>
      </trkpt>
      <trkpt lat="46.14466" lon="6.77804">
        <ele>1575.9176</ele>
        <time>2014-08-30T14:21:17Z</time>
      </trkpt>
      <trkpt lat="46.14471" lon="6.77799">
        <ele>1575.064</ele>
        <time>2014-08-30T14:21:22Z</time>
      </trkpt>
      <trkpt lat="46.14477" lon="6.77796">
        <ele>1575.064</ele>
        <time>2014-08-30T14:21:27Z</time>
      </trkpt>
      <trkpt lat="46.14482" lon="6.77789">
        <ele>1574.0819</ele>
        <time>2014-08-30T14:21:32Z</time>
      </trkpt>
      <trkpt lat="46.14481" lon="6.77781">
        <ele>1574.0819</ele>
        <time>2014-08-30T14:21:37Z</time>
      </trkpt>
      <trkpt lat="46.14479" lon="6.77781">
        <ele>1574.0819</ele>
        <time>2014-08-30T14:21:42Z</time>
      </trkpt>
      <trkpt lat="46.14468" lon="6.77789">
        <ele>1572.6904</ele>
        <time>2014-08-30T14:21:47Z</time>
      </trkpt>
      <trkpt lat="46.14461" lon="6.77797">
        <ele>1571.3938</ele>
        <time>2014-08-30T14:21:52Z</time>
      </trkpt>
      <trkpt lat="46.14457" lon="6.77802">
        <ele>1571.3938</ele>
        <time>2014-08-30T14:21:57Z</time>
      </trkpt>
      <trkpt lat="46.14448" lon="6.77812">
        <ele>1570.155</ele>
        <time>2014-08-30T14:22:02Z</time>
      </trkpt>
      <trkpt lat="46.14442" lon="6.77823">
        <ele>1568.9972</ele>
        <time>2014-08-30T14:22:07Z</time>
      </trkpt>
      <trkpt lat="46.14441" lon="6.77832">
        <ele>1568.9972</ele>
        <time>2014-08-30T14:22:12Z</time>
      </trkpt>
      <trkpt lat="46.1444" lon="6.77836">
        <ele>1567.8984</ele>
        <time>2014-08-30T14:22:17Z</time>
      </trkpt>
      <trkpt lat="46.14437" lon="6.7784">
        <ele>1567.8984</ele>
        <time>2014-08-30T14:22:22Z</time>
      </trkpt>
      <trkpt lat="46.14431" lon="6.77847">
        <ele>1566.9537</ele>
        <time>2014-08-30T14:22:27Z</time>
      </trkpt>
      <trkpt lat="46.14427" lon="6.77854">
        <ele>1566.9537</ele>
        <time>2014-08-30T14:22:32Z</time>
      </trkpt>
      <trkpt lat="46.14423" lon="6.77858">
        <ele>1566.0059</ele>
        <time>2014-08-30T14:22:37Z</time>
      </trkpt>
      <trkpt lat="46.14416" lon="6.77863">
        <ele>1566.0059</ele>
        <time>2014-08-30T14:22:42Z</time>
      </trkpt>
      <trkpt lat="46.14408" lon="6.77866">
        <ele>1564.9521</ele>
        <time>2014-08-30T14:22:47Z</time>
      </trkpt>
      <trkpt lat="46.14403" lon="6.77864">
        <ele>1564.9521</ele>
        <time>2014-08-30T14:22:52Z</time>
      </trkpt>
      <trkpt lat="46.14401" lon="6.77865">
        <ele>1564.9521</ele>
        <time>2014-08-30T14:22:57Z</time>
      </trkpt>
      <trkpt lat="46.14398" lon="6.77869">
        <ele>1563.871</ele>
        <time>2014-08-30T14:23:02Z</time>
      </trkpt>
      <trkpt lat="46.14391" lon="6.77879">
        <ele>1562.893</ele>
        <time>2014-08-30T14:23:07Z</time>
      </trkpt>
      <trkpt lat="46.14386" lon="6.77886">
        <ele>1562.893</ele>
        <time>2014-08-30T14:23:12Z</time>
      </trkpt>
      <trkpt lat="46.14381" lon="6.77887">
        <ele>1562.0088</ele>
        <time>2014-08-30T14:23:17Z</time>
      </trkpt>
      <trkpt lat="46.14375" lon="6.77888">
        <ele>1562.0088</ele>
        <time>2014-08-30T14:23:22Z</time>
      </trkpt>
      <trkpt lat="46.14375" lon="6.77888">
        <ele>1562.0088</ele>
        <time>2014-08-30T14:23:27Z</time>
      </trkpt>
      <trkpt lat="46.14367" lon="6.77893">
        <ele>1561.1957</ele>
        <time>2014-08-30T14:23:32Z</time>
      </trkpt>
      <trkpt lat="46.14361" lon="6.779">
        <ele>1561.1957</ele>
        <time>2014-08-30T14:23:37Z</time>
      </trkpt>
      <trkpt lat="46.14358" lon="6.77908">
        <ele>1560.4321</ele>
        <time>2014-08-30T14:23:42Z</time>
      </trkpt>
      <trkpt lat="46.14356" lon="6.77917">
        <ele>1560.4321</ele>
        <time>2014-08-30T14:23:47Z</time>
      </trkpt>
      <trkpt lat="46.14356" lon="6.77917">
        <ele>1560.4321</ele>
        <time>2014-08-30T14:23:52Z</time>
      </trkpt>
      <trkpt lat="46.14356" lon="6.77916">
        <ele>1560.4321</ele>
        <time>2014-08-30T14:23:57Z</time>
      </trkpt>
      <trkpt lat="46.14355" lon="6.77917">
        <ele>1560.4321</ele>
        <time>2014-08-30T14:24:02Z</time>
      </trkpt>
      <trkpt lat="46.14346" lon="6.77926">
        <ele>1559.727</ele>
        <time>2014-08-30T14:24:07Z</time>
      </trkpt>
      <trkpt lat="46.14336" lon="6.77936">
        <ele>1559.0886</ele>
        <time>2014-08-30T14:24:12Z</time>
      </trkpt>
      <trkpt lat="46.14327" lon="6.77944">
        <ele>1558.4524</ele>
        <time>2014-08-30T14:24:17Z</time>
      </trkpt>
      <trkpt lat="46.14324" lon="6.77945">
        <ele>1558.4524</ele>
        <time>2014-08-30T14:24:22Z</time>
      </trkpt>
      <trkpt lat="46.14323" lon="6.77946">
        <ele>1558.4524</ele>
        <time>2014-08-30T14:24:27Z</time>
      </trkpt>
      <trkpt lat="46.14321" lon="6.77949">
        <ele>1558.4524</ele>
        <time>2014-08-30T14:24:32Z</time>
      </trkpt>
      <trkpt lat="46.14318" lon="6.77956">
        <ele>1557.3981</ele>
        <time>2014-08-30T14:24:37Z</time>
      </trkpt>
      <trkpt lat="46.14316" lon="6.77957">
        <ele>1557.3981</ele>
        <time>2014-08-30T14:24:42Z</time>
      </trkpt>
      <trkpt lat="46.14313" lon="6.77959">
        <ele>1557.3981</ele>
        <time>2014-08-30T14:24:47Z</time>
      </trkpt>
      <trkpt lat="46.14309" lon="6.77964">
        <ele>1556.2296</ele>
        <time>2014-08-30T14:24:52Z</time>
      </trkpt>
      <trkpt lat="46.14305" lon="6.77965">
        <ele>1556.2296</ele>
        <time>2014-08-30T14:24:57Z</time>
      </trkpt>
      <trkpt lat="46.14304" lon="6.77965">
        <ele>1556.2296</ele>
        <time>2014-08-30T14:25:02Z</time>
      </trkpt>
      <trkpt lat="46.14299" lon="6.77972">
        <ele>1554.6957</ele>
        <time>2014-08-30T14:25:07Z</time>
      </trkpt>
      <trkpt lat="46.14293" lon="6.77978">
        <ele>1554.6957</ele>
        <time>2014-08-30T14:25:12Z</time>
      </trkpt>
      <trkpt lat="46.14292" lon="6.77984">
        <ele>1553.141</ele>
        <time>2014-08-30T14:25:17Z</time>
      </trkpt>
      <trkpt lat="46.1429" lon="6.77992">
        <ele>1553.141</ele>
        <time>2014-08-30T14:25:22Z</time>
      </trkpt>
      <trkpt lat="46.1429" lon="6.77992">
        <ele>1553.141</ele>
        <time>2014-08-30T14:25:27Z</time>
      </trkpt>
      <trkpt lat="46.14289" lon="6.77996">
        <ele>1553.141</ele>
        <time>2014-08-30T14:25:32Z</time>
      </trkpt>
      <trkpt lat="46.14286" lon="6.78">
        <ele>1552.1154</ele>
        <time>2014-08-30T14:25:37Z</time>
      </trkpt>
      <trkpt lat="46.14282" lon="6.78003">
        <ele>1552.1154</ele>
        <time>2014-08-30T14:25:42Z</time>
      </trkpt>
      <trkpt lat="46.14282" lon="6.78003">
        <ele>1552.1154</ele>
        <time>2014-08-30T14:25:47Z</time>
      </trkpt>
      <trkpt lat="46.14278" lon="6.78006">
        <ele>1551.277</ele>
        <time>2014-08-30T14:25:52Z</time>
      </trkpt>
      <trkpt lat="46.14269" lon="6.78017">
        <ele>1550.5532</ele>
        <time>2014-08-30T14:25:57Z</time>
      </trkpt>
      <trkpt lat="46.14256" lon="6.7803">
        <ele>1549.9635</ele>
        <time>2014-08-30T14:26:02Z</time>
      </trkpt>
      <trkpt lat="46.14254" lon="6.78038">
        <ele>1549.9635</ele>
        <time>2014-08-30T14:26:07Z</time>
      </trkpt>
      <trkpt lat="46.14252" lon="6.78049">
        <ele>1549.5393</ele>
        <time>2014-08-30T14:26:12Z</time>
      </trkpt>
      <trkpt lat="46.14253" lon="6.78051">
        <ele>1549.5393</ele>
        <time>2014-08-30T14:26:17Z</time>
      </trkpt>
      <trkpt lat="46.14254" lon="6.78056">
        <ele>1549.5393</ele>
        <time>2014-08-30T14:26:22Z</time>
      </trkpt>
      <trkpt lat="46.14256" lon="6.78064">
        <ele>1548.9208</ele>
        <time>2014-08-30T14:26:27Z</time>
      </trkpt>
      <trkpt lat="46.14251" lon="6.78076">
        <ele>1548.1351</ele>
        <time>2014-08-30T14:26:32Z</time>
      </trkpt>
      <trkpt lat="46.1426" lon="6.78086">
        <ele>1547.1938</ele>
        <time>2014-08-30T14:26:37Z</time>
      </trkpt>
      <trkpt lat="46.14258" lon="6.78095">
        <ele>1547.1938</ele>
        <time>2014-08-30T14:26:42Z</time>
      </trkpt>
      <trkpt lat="46.14257" lon="6.78104">
        <ele>1545.8196</ele>
        <time>2014-08-30T14:26:47Z</time>
      </trkpt>
      <trkpt lat="46.14255" lon="6.78114">
        <ele>1545.8196</ele>
        <time>2014-08-30T14:26:52Z</time>
      </trkpt>
      <trkpt lat="46.14248" lon="6.7813">
        <ele>1544.0162</ele>
        <time>2014-08-30T14:26:57Z</time>
      </trkpt>
      <trkpt lat="46.14249" lon="6.78147">
        <ele>1541.9615</ele>
        <time>2014-08-30T14:27:02Z</time>
      </trkpt>
      <trkpt lat="46.14248" lon="6.78162">
        <ele>1539.7057</ele>
        <time>2014-08-30T14:27:07Z</time>
      </trkpt>
      <trkpt lat="46.14245" lon="6.78177">
        <ele>1537.3533</ele>
        <time>2014-08-30T14:27:12Z</time>
      </trkpt>
      <trkpt lat="46.14245" lon="6.78188">
        <ele>1537.3533</ele>
        <time>2014-08-30T14:27:17Z</time>
      </trkpt>
      <trkpt lat="46.1424" lon="6.78202">
        <ele>1534.872</ele>
        <time>2014-08-30T14:27:22Z</time>
      </trkpt>
      <trkpt lat="46.14241" lon="6.78206">
        <ele>1534.872</ele>
        <time>2014-08-30T14:27:27Z</time>
      </trkpt>
      <trkpt lat="46.14243" lon="6.78206">
        <ele>1534.872</ele>
        <time>2014-08-30T14:27:32Z</time>
      </trkpt>
      <trkpt lat="46.1424" lon="6.78206">
        <ele>1534.872</ele>
        <time>2014-08-30T14:27:37Z</time>
      </trkpt>
      <trkpt lat="46.1424" lon="6.78205">
        <ele>1534.872</ele>
        <time>2014-08-30T14:27:42Z</time>
      </trkpt>
      <trkpt lat="46.1424" lon="6.78205">
        <ele>1534.872</ele>
        <time>2014-08-30T14:27:47Z</time>
      </trkpt>
      <trkpt lat="46.14239" lon="6.78204">
        <ele>1534.872</ele>
        <time>2014-08-30T14:28:07Z</time>
      </trkpt>
      <trkpt lat="46.14236" lon="6.78204">
        <ele>1531.8285</ele>
        <time>2014-08-30T14:28:12Z</time>
      </trkpt>
      <trkpt lat="46.14234" lon="6.78203">
        <ele>1531.8285</ele>
        <time>2014-08-30T14:28:17Z</time>
      </trkpt>
      <trkpt lat="46.14233" lon="6.78204">
        <ele>1531.8285</ele>
        <time>2014-08-30T14:28:22Z</time>
      </trkpt>
      <trkpt lat="46.14233" lon="6.78205">
        <ele>1531.8285</ele>
        <time>2014-08-30T14:28:30Z</time>
      </trkpt>
      <trkpt lat="46.14233" lon="6.78205">
        <ele>1531.8285</ele>
        <time>2014-08-30T14:28:32Z</time>
      </trkpt>
      <trkpt lat="46.14228" lon="6.78206">
        <ele>1531.8285</ele>
        <time>2014-08-30T14:28:52Z</time>
      </trkpt>
      <trkpt lat="46.14229" lon="6.78205">
        <ele>1531.8285</ele>
        <time>2014-08-30T14:28:57Z</time>
      </trkpt>
      <trkpt lat="46.1423" lon="6.78204">
        <ele>1528.8894</ele>
        <time>2014-08-30T14:29:02Z</time>
      </trkpt>
      <trkpt lat="46.1423" lon="6.78204">
        <ele>1528.8894</ele>
        <time>2014-08-30T14:29:07Z</time>
      </trkpt>
      <trkpt lat="46.14229" lon="6.78204">
        <ele>1528.8894</ele>
        <time>2014-08-30T14:29:12Z</time>
      </trkpt>
      <trkpt lat="46.14228" lon="6.78205">
        <ele>1528.8894</ele>
        <time>2014-08-30T14:29:17Z</time>
      </trkpt>
      <trkpt lat="46.14229" lon="6.78203">
        <ele>1528.8894</ele>
        <time>2014-08-30T14:29:22Z</time>
      </trkpt>
      <trkpt lat="46.14229" lon="6.78207">
        <ele>1528.8894</ele>
        <time>2014-08-30T14:29:27Z</time>
      </trkpt>
      <trkpt lat="46.14231" lon="6.7821">
        <ele>1525.3894</ele>
        <time>2014-08-30T14:29:32Z</time>
      </trkpt>
      <trkpt lat="46.14232" lon="6.78214">
        <ele>1525.3894</ele>
        <time>2014-08-30T14:29:37Z</time>
      </trkpt>
      <trkpt lat="46.14234" lon="6.78219">
        <ele>1525.3894</ele>
        <time>2014-08-30T14:29:42Z</time>
      </trkpt>
      <trkpt lat="46.14234" lon="6.7822">
        <ele>1525.3894</ele>
        <time>2014-08-30T14:29:47Z</time>
      </trkpt>
      <trkpt lat="46.14234" lon="6.7822">
        <ele>1525.3894</ele>
        <time>2014-08-30T14:29:52Z</time>
      </trkpt>
      <trkpt lat="46.1423" lon="6.78222">
        <ele>1521.4055</ele>
        <time>2014-08-30T14:29:57Z</time>
      </trkpt>
      <trkpt lat="46.14226" lon="6.78224">
        <ele>1521.4055</ele>
        <time>2014-08-30T14:30:02Z</time>
      </trkpt>
      <trkpt lat="46.14218" lon="6.78226">
        <ele>1517.3705</ele>
        <time>2014-08-30T14:30:07Z</time>
      </trkpt>
      <trkpt lat="46.14212" lon="6.78226">
        <ele>1517.3705</ele>
        <time>2014-08-30T14:30:12Z</time>
      </trkpt>
      <trkpt lat="46.14207" lon="6.78219">
        <ele>1513.3826</ele>
        <time>2014-08-30T14:30:17Z</time>
      </trkpt>
      <trkpt lat="46.14203" lon="6.78217">
        <ele>1513.3826</ele>
        <time>2014-08-30T14:30:22Z</time>
      </trkpt>
      <trkpt lat="46.14195" lon="6.78214">
        <ele>1509.504</ele>
        <time>2014-08-30T14:30:27Z</time>
      </trkpt>
      <trkpt lat="46.14188" lon="6.78207">
        <ele>1509.504</ele>
        <time>2014-08-30T14:30:32Z</time>
      </trkpt>
      <trkpt lat="46.14183" lon="6.78203">
        <ele>1505.9073</ele>
        <time>2014-08-30T14:30:37Z</time>
      </trkpt>
      <trkpt lat="46.14179" lon="6.78201">
        <ele>1505.9073</ele>
        <time>2014-08-30T14:30:42Z</time>
      </trkpt>
      <trkpt lat="46.14177" lon="6.78201">
        <ele>1505.9073</ele>
        <time>2014-08-30T14:30:47Z</time>
      </trkpt>
      <trkpt lat="46.14174" lon="6.78201">
        <ele>1505.9073</ele>
        <time>2014-08-30T14:30:52Z</time>
      </trkpt>
      <trkpt lat="46.14174" lon="6.78201">
        <ele>1505.9073</ele>
        <time>2014-08-30T14:30:57Z</time>
      </trkpt>
      <trkpt lat="46.14173" lon="6.78201">
        <ele>1502.2612</ele>
        <time>2014-08-30T14:31:02Z</time>
      </trkpt>
      <trkpt lat="46.14173" lon="6.78202">
        <ele>1502.2612</ele>
        <time>2014-08-30T14:31:07Z</time>
      </trkpt>
      <trkpt lat="46.1417" lon="6.78202">
        <ele>1502.2612</ele>
        <time>2014-08-30T14:31:12Z</time>
      </trkpt>
      <trkpt lat="46.1417" lon="6.78202">
        <ele>1502.2612</ele>
        <time>2014-08-30T14:31:17Z</time>
      </trkpt>
      <trkpt lat="46.1417" lon="6.78202">
        <ele>1502.2612</ele>
        <time>2014-08-30T14:31:22Z</time>
      </trkpt>
      <trkpt lat="46.14165" lon="6.78199">
        <ele>1498.8068</ele>
        <time>2014-08-30T14:31:27Z</time>
      </trkpt>
      <trkpt lat="46.14155" lon="6.78196">
        <ele>1495.6797</ele>
        <time>2014-08-30T14:31:32Z</time>
      </trkpt>
      <trkpt lat="46.14149" lon="6.78195">
        <ele>1495.6797</ele>
        <time>2014-08-30T14:31:37Z</time>
      </trkpt>
      <trkpt lat="46.14142" lon="6.78192">
        <ele>1492.7312</ele>
        <time>2014-08-30T14:31:42Z</time>
      </trkpt>
      <trkpt lat="46.14139" lon="6.78193">
        <ele>1492.7312</ele>
        <time>2014-08-30T14:31:47Z</time>
      </trkpt>
      <trkpt lat="46.14132" lon="6.7819">
        <ele>1490.0533</ele>
        <time>2014-08-30T14:31:52Z</time>
      </trkpt>
      <trkpt lat="46.14128" lon="6.78185">
        <ele>1490.0533</ele>
        <time>2014-08-30T14:31:57Z</time>
      </trkpt>
      <trkpt lat="46.14121" lon="6.78168">
        <ele>1487.5286</ele>
        <time>2014-08-30T14:32:02Z</time>
      </trkpt>
      <trkpt lat="46.14121" lon="6.78159">
        <ele>1487.5286</ele>
        <time>2014-08-30T14:32:07Z</time>
      </trkpt>
      <trkpt lat="46.14116" lon="6.78149">
        <ele>1485.206</ele>
        <time>2014-08-30T14:32:12Z</time>
      </trkpt>
      <trkpt lat="46.14114" lon="6.78137">
        <ele>1485.206</ele>
        <time>2014-08-30T14:32:17Z</time>
      </trkpt>
      <trkpt lat="46.14107" lon="6.7813">
        <ele>1483.044</ele>
        <time>2014-08-30T14:32:22Z</time>
      </trkpt>
      <trkpt lat="46.14101" lon="6.78126">
        <ele>1483.044</ele>
        <time>2014-08-30T14:32:27Z</time>
      </trkpt>
      <trkpt lat="46.14097" lon="6.7812">
        <ele>1481.1329</ele>
        <time>2014-08-30T14:32:32Z</time>
      </trkpt>
      <trkpt lat="46.14088" lon="6.78111">
        <ele>1479.4983</ele>
        <time>2014-08-30T14:32:37Z</time>
      </trkpt>
      <trkpt lat="46.14084" lon="6.78101">
        <ele>1479.4983</ele>
        <time>2014-08-30T14:32:42Z</time>
      </trkpt>
      <trkpt lat="46.14081" lon="6.78099">
        <ele>1478.004</ele>
        <time>2014-08-30T14:32:47Z</time>
      </trkpt>
      <trkpt lat="46.14078" lon="6.78097">
        <ele>1478.004</ele>
        <time>2014-08-30T14:32:52Z</time>
      </trkpt>
      <trkpt lat="46.14075" lon="6.78097">
        <ele>1478.004</ele>
        <time>2014-08-30T14:32:57Z</time>
      </trkpt>
      <trkpt lat="46.14074" lon="6.78092">
        <ele>1476.6821</ele>
        <time>2014-08-30T14:33:02Z</time>
      </trkpt>
      <trkpt lat="46.14067" lon="6.78086">
        <ele>1476.6821</ele>
        <time>2014-08-30T14:33:07Z</time>
      </trkpt>
      <trkpt lat="46.14066" lon="6.78082">
        <ele>1475.4899</ele>
        <time>2014-08-30T14:33:12Z</time>
      </trkpt>
      <trkpt lat="46.14061" lon="6.78079">
        <ele>1475.4899</ele>
        <time>2014-08-30T14:33:17Z</time>
      </trkpt>
      <trkpt lat="46.14056" lon="6.78073">
        <ele>1474.3291</ele>
        <time>2014-08-30T14:33:22Z</time>
      </trkpt>
      <trkpt lat="46.14051" lon="6.78071">
        <ele>1474.3291</ele>
        <time>2014-08-30T14:33:27Z</time>
      </trkpt>
      <trkpt lat="46.14044" lon="6.7806">
        <ele>1473.1812</ele>
        <time>2014-08-30T14:33:32Z</time>
      </trkpt>
      <trkpt lat="46.14038" lon="6.78059">
        <ele>1473.1812</ele>
        <time>2014-08-30T14:33:37Z</time>
      </trkpt>
      <trkpt lat="46.14033" lon="6.78056">
        <ele>1472.2877</ele>
        <time>2014-08-30T14:33:42Z</time>
      </trkpt>
      <trkpt lat="46.14027" lon="6.78051">
        <ele>1472.2877</ele>
        <time>2014-08-30T14:33:47Z</time>
      </trkpt>
      <trkpt lat="46.14022" lon="6.7805">
        <ele>1471.4113</ele>
        <time>2014-08-30T14:33:52Z</time>
      </trkpt>
      <trkpt lat="46.14016" lon="6.78048">
        <ele>1471.4113</ele>
        <time>2014-08-30T14:33:57Z</time>
      </trkpt>
      <trkpt lat="46.1401" lon="6.78044">
        <ele>1470.5039</ele>
        <time>2014-08-30T14:34:02Z</time>
      </trkpt>
      <trkpt lat="46.14008" lon="6.78038">
        <ele>1470.5039</ele>
        <time>2014-08-30T14:34:07Z</time>
      </trkpt>
      <trkpt lat="46.14007" lon="6.78034">
        <ele>1470.5039</ele>
        <time>2014-08-30T14:34:12Z</time>
      </trkpt>
      <trkpt lat="46.14007" lon="6.78034">
        <ele>1470.5039</ele>
        <time>2014-08-30T14:34:17Z</time>
      </trkpt>
      <trkpt lat="46.14006" lon="6.78032">
        <ele>1469.4642</ele>
        <time>2014-08-30T14:34:32Z</time>
      </trkpt>
      <trkpt lat="46.14004" lon="6.78025">
        <ele>1469.4642</ele>
        <time>2014-08-30T14:34:37Z</time>
      </trkpt>
      <trkpt lat="46.14001" lon="6.7802">
        <ele>1468.2128</ele>
        <time>2014-08-30T14:34:42Z</time>
      </trkpt>
      <trkpt lat="46.14001" lon="6.78009">
        <ele>1468.2128</ele>
        <time>2014-08-30T14:34:47Z</time>
      </trkpt>
      <trkpt lat="46.13997" lon="6.77999">
        <ele>1466.8783</ele>
        <time>2014-08-30T14:34:52Z</time>
      </trkpt>
      <trkpt lat="46.13995" lon="6.77991">
        <ele>1466.8783</ele>
        <time>2014-08-30T14:34:57Z</time>
      </trkpt>
      <trkpt lat="46.13993" lon="6.77984">
        <ele>1465.5804</ele>
        <time>2014-08-30T14:35:02Z</time>
      </trkpt>
      <trkpt lat="46.13992" lon="6.77976">
        <ele>1465.5804</ele>
        <time>2014-08-30T14:35:07Z</time>
      </trkpt>
      <trkpt lat="46.13991" lon="6.77967">
        <ele>1464.2279</ele>
        <time>2014-08-30T14:35:12Z</time>
      </trkpt>
      <trkpt lat="46.13987" lon="6.7796">
        <ele>1464.2279</ele>
        <time>2014-08-30T14:35:17Z</time>
      </trkpt>
      <trkpt lat="46.13985" lon="6.7795">
        <ele>1462.924</ele>
        <time>2014-08-30T14:35:22Z</time>
      </trkpt>
      <trkpt lat="46.13982" lon="6.77941">
        <ele>1462.924</ele>
        <time>2014-08-30T14:35:27Z</time>
      </trkpt>
      <trkpt lat="46.13978" lon="6.77933">
        <ele>1461.6919</ele>
        <time>2014-08-30T14:35:32Z</time>
      </trkpt>
      <trkpt lat="46.13974" lon="6.77925">
        <ele>1461.6919</ele>
        <time>2014-08-30T14:35:37Z</time>
      </trkpt>
      <trkpt lat="46.13971" lon="6.77916">
        <ele>1460.582</ele>
        <time>2014-08-30T14:35:42Z</time>
      </trkpt>
      <trkpt lat="46.13969" lon="6.77909">
        <ele>1460.582</ele>
        <time>2014-08-30T14:35:47Z</time>
      </trkpt>
      <trkpt lat="46.13968" lon="6.77901">
        <ele>1459.5684</ele>
        <time>2014-08-30T14:35:52Z</time>
      </trkpt>
      <trkpt lat="46.13966" lon="6.77894">
        <ele>1459.5684</ele>
        <time>2014-08-30T14:35:57Z</time>
      </trkpt>
      <trkpt lat="46.13962" lon="6.77887">
        <ele>1458.4253</ele>
        <time>2014-08-30T14:36:02Z</time>
      </trkpt>
      <trkpt lat="46.13959" lon="6.77881">
        <ele>1458.4253</ele>
        <time>2014-08-30T14:36:07Z</time>
      </trkpt>
      <trkpt lat="46.13956" lon="6.77873">
        <ele>1457.203</ele>
        <time>2014-08-30T14:36:12Z</time>
      </trkpt>
      <trkpt lat="46.13955" lon="6.77864">
        <ele>1457.203</ele>
        <time>2014-08-30T14:36:17Z</time>
      </trkpt>
      <trkpt lat="46.13952" lon="6.77857">
        <ele>1455.8623</ele>
        <time>2014-08-30T14:36:22Z</time>
      </trkpt>
      <trkpt lat="46.13948" lon="6.77851">
        <ele>1455.8623</ele>
        <time>2014-08-30T14:36:27Z</time>
      </trkpt>
      <trkpt lat="46.13944" lon="6.77846">
        <ele>1454.3092</ele>
        <time>2014-08-30T14:36:32Z</time>
      </trkpt>
      <trkpt lat="46.13941" lon="6.77844">
        <ele>1454.3092</ele>
        <time>2014-08-30T14:36:37Z</time>
      </trkpt>
      <trkpt lat="46.13941" lon="6.77844">
        <ele>1454.3092</ele>
        <time>2014-08-30T14:36:42Z</time>
      </trkpt>
      <trkpt lat="46.1394" lon="6.77843">
        <ele>1454.3092</ele>
        <time>2014-08-30T14:36:47Z</time>
      </trkpt>
      <trkpt lat="46.13937" lon="6.77841">
        <ele>1454.3092</ele>
        <time>2014-08-30T14:36:52Z</time>
      </trkpt>
      <trkpt lat="46.13932" lon="6.77838">
        <ele>1452.717</ele>
        <time>2014-08-30T14:36:57Z</time>
      </trkpt>
      <trkpt lat="46.13928" lon="6.77833">
        <ele>1452.717</ele>
        <time>2014-08-30T14:37:02Z</time>
      </trkpt>
      <trkpt lat="46.13926" lon="6.77827">
        <ele>1451.275</ele>
        <time>2014-08-30T14:37:07Z</time>
      </trkpt>
      <trkpt lat="46.13923" lon="6.77818">
        <ele>1451.275</ele>
        <time>2014-08-30T14:37:12Z</time>
      </trkpt>
      <trkpt lat="46.1392" lon="6.77812">
        <ele>1449.8989</ele>
        <time>2014-08-30T14:37:17Z</time>
      </trkpt>
      <trkpt lat="46.13918" lon="6.77808">
        <ele>1449.8989</ele>
        <time>2014-08-30T14:37:22Z</time>
      </trkpt>
      <trkpt lat="46.13913" lon="6.77804">
        <ele>1448.4673</ele>
        <time>2014-08-30T14:37:27Z</time>
      </trkpt>
      <trkpt lat="46.13909" lon="6.77803">
        <ele>1448.4673</ele>
        <time>2014-08-30T14:37:32Z</time>
      </trkpt>
      <trkpt lat="46.13906" lon="6.77797">
        <ele>1446.81</ele>
        <time>2014-08-30T14:37:37Z</time>
      </trkpt>
      <trkpt lat="46.139" lon="6.77792">
        <ele>1446.81</ele>
        <time>2014-08-30T14:37:42Z</time>
      </trkpt>
      <trkpt lat="46.13897" lon="6.77784">
        <ele>1445.2603</ele>
        <time>2014-08-30T14:37:47Z</time>
      </trkpt>
      <trkpt lat="46.13893" lon="6.77776">
        <ele>1445.2603</ele>
        <time>2014-08-30T14:37:52Z</time>
      </trkpt>
      <trkpt lat="46.1389" lon="6.77768">
        <ele>1443.5933</ele>
        <time>2014-08-30T14:37:57Z</time>
      </trkpt>
      <trkpt lat="46.13887" lon="6.77763">
        <ele>1443.5933</ele>
        <time>2014-08-30T14:38:02Z</time>
      </trkpt>
      <trkpt lat="46.13887" lon="6.77759">
        <ele>1443.5933</ele>
        <time>2014-08-30T14:38:07Z</time>
      </trkpt>
      <trkpt lat="46.13887" lon="6.77758">
        <ele>1443.5933</ele>
        <time>2014-08-30T14:38:12Z</time>
      </trkpt>
      <trkpt lat="46.13887" lon="6.77758">
        <ele>1443.5933</ele>
        <time>2014-08-30T14:38:17Z</time>
      </trkpt>
      <trkpt lat="46.13887" lon="6.7776">
        <ele>1441.9612</ele>
        <time>2014-08-30T14:38:32Z</time>
      </trkpt>
      <trkpt lat="46.13887" lon="6.7776">
        <ele>1441.9612</ele>
        <time>2014-08-30T14:38:37Z</time>
      </trkpt>
      <trkpt lat="46.13887" lon="6.7776">
        <ele>1441.9612</ele>
        <time>2014-08-30T14:38:52Z</time>
      </trkpt>
      <trkpt lat="46.13888" lon="6.77756">
        <ele>1441.9612</ele>
        <time>2014-08-30T14:38:57Z</time>
      </trkpt>
      <trkpt lat="46.13887" lon="6.77749">
        <ele>1441.9612</ele>
        <time>2014-08-30T14:39:02Z</time>
      </trkpt>
      <trkpt lat="46.13888" lon="6.77744">
        <ele>1439.6263</ele>
        <time>2014-08-30T14:39:07Z</time>
      </trkpt>
      <trkpt lat="46.13889" lon="6.77738">
        <ele>1439.6263</ele>
        <time>2014-08-30T14:39:12Z</time>
      </trkpt>
      <trkpt lat="46.13892" lon="6.77731">
        <ele>1437.1317</ele>
        <time>2014-08-30T14:39:17Z</time>
      </trkpt>
      <trkpt lat="46.13893" lon="6.7772">
        <ele>1437.1317</ele>
        <time>2014-08-30T14:39:22Z</time>
      </trkpt>
      <trkpt lat="46.13895" lon="6.77712">
        <ele>1434.6497</ele>
        <time>2014-08-30T14:39:27Z</time>
      </trkpt>
      <trkpt lat="46.13898" lon="6.77708">
        <ele>1434.6497</ele>
        <time>2014-08-30T14:39:32Z</time>
      </trkpt>
      <trkpt lat="46.13899" lon="6.77702">
        <ele>1434.6497</ele>
        <time>2014-08-30T14:39:37Z</time>
      </trkpt>
      <trkpt lat="46.13899" lon="6.77695">
        <ele>1432.0084</ele>
        <time>2014-08-30T14:39:42Z</time>
      </trkpt>
      <trkpt lat="46.139" lon="6.77688">
        <ele>1432.0084</ele>
        <time>2014-08-30T14:39:47Z</time>
      </trkpt>
      <trkpt lat="46.13899" lon="6.77684">
        <ele>1432.0084</ele>
        <time>2014-08-30T14:39:52Z</time>
      </trkpt>
      <trkpt lat="46.13898" lon="6.77677">
        <ele>1429.078</ele>
        <time>2014-08-30T14:39:57Z</time>
      </trkpt>
      <trkpt lat="46.13897" lon="6.77674">
        <ele>1429.078</ele>
        <time>2014-08-30T14:40:02Z</time>
      </trkpt>
      <trkpt lat="46.13898" lon="6.77671">
        <ele>1429.078</ele>
        <time>2014-08-30T14:40:07Z</time>
      </trkpt>
      <trkpt lat="46.13898" lon="6.77669">
        <ele>1429.078</ele>
        <time>2014-08-30T14:40:12Z</time>
      </trkpt>
      <trkpt lat="46.13899" lon="6.77661">
        <ele>1426.0702</ele>
        <time>2014-08-30T14:40:17Z</time>
      </trkpt>
      <trkpt lat="46.1389" lon="6.77658">
        <ele>1423.1962</ele>
        <time>2014-08-30T14:40:22Z</time>
      </trkpt>
      <trkpt lat="46.13888" lon="6.77653">
        <ele>1423.1962</ele>
        <time>2014-08-30T14:40:27Z</time>
      </trkpt>
      <trkpt lat="46.13884" lon="6.7765">
        <ele>1423.1962</ele>
        <time>2014-08-30T14:40:32Z</time>
      </trkpt>
      <trkpt lat="46.13881" lon="6.77647">
        <ele>1419.9159</ele>
        <time>2014-08-30T14:40:37Z</time>
      </trkpt>
      <trkpt lat="46.13881" lon="6.77643">
        <ele>1419.9159</ele>
        <time>2014-08-30T14:40:42Z</time>
      </trkpt>
      <trkpt lat="46.13881" lon="6.77642">
        <ele>1419.9159</ele>
        <time>2014-08-30T14:40:47Z</time>
      </trkpt>
      <trkpt lat="46.1388" lon="6.77639">
        <ele>1419.9159</ele>
        <time>2014-08-30T14:40:52Z</time>
      </trkpt>
      <trkpt lat="46.13881" lon="6.77637">
        <ele>1419.9159</ele>
        <time>2014-08-30T14:40:57Z</time>
      </trkpt>
      <trkpt lat="46.13882" lon="6.77636">
        <ele>1416.3932</ele>
        <time>2014-08-30T14:41:02Z</time>
      </trkpt>
      <trkpt lat="46.13885" lon="6.7763">
        <ele>1416.3932</ele>
        <time>2014-08-30T14:41:07Z</time>
      </trkpt>
      <trkpt lat="46.13883" lon="6.77627">
        <ele>1416.3932</ele>
        <time>2014-08-30T14:41:12Z</time>
      </trkpt>
      <trkpt lat="46.13883" lon="6.77626">
        <ele>1416.3932</ele>
        <time>2014-08-30T14:41:17Z</time>
      </trkpt>
      <trkpt lat="46.13882" lon="6.77627">
        <ele>1416.3932</ele>
        <time>2014-08-30T14:41:22Z</time>
      </trkpt>
      <trkpt lat="46.13882" lon="6.77627">
        <ele>1416.3932</ele>
        <time>2014-08-30T14:41:27Z</time>
      </trkpt>
      <trkpt lat="46.13883" lon="6.77627">
        <ele>1412.3768</ele>
        <time>2014-08-30T14:41:37Z</time>
      </trkpt>
      <trkpt lat="46.13885" lon="6.77626">
        <ele>1412.3768</ele>
        <time>2014-08-30T14:41:42Z</time>
      </trkpt>
      <trkpt lat="46.13888" lon="6.77617">
        <ele>1412.3768</ele>
        <time>2014-08-30T14:41:47Z</time>
      </trkpt>
      <trkpt lat="46.13888" lon="6.77616">
        <ele>1408.457</ele>
        <time>2014-08-30T14:41:52Z</time>
      </trkpt>
      <trkpt lat="46.1389" lon="6.77612">
        <ele>1408.457</ele>
        <time>2014-08-30T14:41:57Z</time>
      </trkpt>
      <trkpt lat="46.13894" lon="6.77614">
        <ele>1408.457</ele>
        <time>2014-08-30T14:42:02Z</time>
      </trkpt>
      <trkpt lat="46.13896" lon="6.77613">
        <ele>1404.7334</ele>
        <time>2014-08-30T14:42:07Z</time>
      </trkpt>
      <trkpt lat="46.13892" lon="6.77608">
        <ele>1404.7334</ele>
        <time>2014-08-30T14:42:12Z</time>
      </trkpt>
      <trkpt lat="46.13892" lon="6.77608">
        <ele>1404.7334</ele>
        <time>2014-08-30T14:42:17Z</time>
      </trkpt>
      <trkpt lat="46.13891" lon="6.77605">
        <ele>1404.7334</ele>
        <time>2014-08-30T14:42:22Z</time>
      </trkpt>
      <trkpt lat="46.13892" lon="6.77605">
        <ele>1402.6193</ele>
        <time>2014-08-30T14:42:27Z</time>
      </trkpt>
      <trkpt lat="46.13893" lon="6.77601">
        <ele>1400.5051</ele>
        <time>2014-08-30T14:42:32Z</time>
      </trkpt>
      <trkpt lat="46.13892" lon="6.77598">
        <ele>1400.5051</ele>
        <time>2014-08-30T14:42:37Z</time>
      </trkpt>
      <trkpt lat="46.13892" lon="6.77598">
        <ele>1400.5051</ele>
        <time>2014-08-30T14:42:42Z</time>
      </trkpt>
      <trkpt lat="46.13891" lon="6.77597">
        <ele>1400.5051</ele>
        <time>2014-08-30T14:42:47Z</time>
      </trkpt>
      <trkpt lat="46.13892" lon="6.77598">
        <ele>1400.5051</ele>
        <time>2014-08-30T14:42:52Z</time>
      </trkpt>
      <trkpt lat="46.13891" lon="6.77598">
        <ele>1400.5051</ele>
        <time>2014-08-30T14:42:57Z</time>
      </trkpt>
      <trkpt lat="46.13892" lon="6.77598">
        <ele>1400.5051</ele>
        <time>2014-08-30T14:43:02Z</time>
      </trkpt>
      <trkpt lat="46.13894" lon="6.77597">
        <ele>1400.5051</ele>
        <time>2014-08-30T14:43:07Z</time>
      </trkpt>
      <trkpt lat="46.13894" lon="6.77589">
        <ele>1396.0033</ele>
        <time>2014-08-30T14:43:12Z</time>
      </trkpt>
      <trkpt lat="46.13894" lon="6.77587">
        <ele>1396.0033</ele>
        <time>2014-08-30T14:43:17Z</time>
      </trkpt>
      <trkpt lat="46.13894" lon="6.77587">
        <ele>1396.0033</ele>
        <time>2014-08-30T14:43:22Z</time>
      </trkpt>
      <trkpt lat="46.13893" lon="6.77588">
        <ele>1396.0033</ele>
        <time>2014-08-30T14:43:27Z</time>
      </trkpt>
      <trkpt lat="46.13893" lon="6.77588">
        <ele>1396.0033</ele>
        <time>2014-08-30T14:43:32Z</time>
      </trkpt>
      <trkpt lat="46.13894" lon="6.77588">
        <ele>1396.0033</ele>
        <time>2014-08-30T14:43:37Z</time>
      </trkpt>
      <trkpt lat="46.13891" lon="6.77586">
        <ele>1396.0033</ele>
        <time>2014-08-30T14:43:42Z</time>
      </trkpt>
      <trkpt lat="46.13893" lon="6.77586">
        <ele>1396.0033</ele>
        <time>2014-08-30T14:43:47Z</time>
      </trkpt>
      <trkpt lat="46.13894" lon="6.77586">
        <ele>1396.0033</ele>
        <time>2014-08-30T14:43:52Z</time>
      </trkpt>
      <trkpt lat="46.13896" lon="6.7758">
        <ele>1393.8165</ele>
        <time>2014-08-30T14:43:57Z</time>
      </trkpt>
      <trkpt lat="46.13894" lon="6.77579">
        <ele>1391.6298</ele>
        <time>2014-08-30T14:44:02Z</time>
      </trkpt>
      <trkpt lat="46.13892" lon="6.77581">
        <ele>1391.6298</ele>
        <time>2014-08-30T14:44:07Z</time>
      </trkpt>
      <trkpt lat="46.13892" lon="6.77581">
        <ele>1391.6298</ele>
        <time>2014-08-30T14:44:12Z</time>
      </trkpt>
      <trkpt lat="46.13893" lon="6.7758">
        <ele>1391.6298</ele>
        <time>2014-08-30T14:44:17Z</time>
      </trkpt>
      <trkpt lat="46.13891" lon="6.77578">
        <ele>1391.6298</ele>
        <time>2014-08-30T14:44:22Z</time>
      </trkpt>
      <trkpt lat="46.13891" lon="6.77578">
        <ele>1391.6298</ele>
        <time>2014-08-30T14:44:27Z</time>
      </trkpt>
      <trkpt lat="46.13889" lon="6.77575">
        <ele>1387.598</ele>
        <time>2014-08-30T14:44:32Z</time>
      </trkpt>
      <trkpt lat="46.13884" lon="6.77576">
        <ele>1387.598</ele>
        <time>2014-08-30T14:44:37Z</time>
      </trkpt>
      <trkpt lat="46.13881" lon="6.77573">
        <ele>1387.598</ele>
        <time>2014-08-30T14:44:42Z</time>
      </trkpt>
      <trkpt lat="46.13878" lon="6.7757">
        <ele>1383.7303</ele>
        <time>2014-08-30T14:44:47Z</time>
      </trkpt>
      <trkpt lat="46.13876" lon="6.7757">
        <ele>1383.7303</ele>
        <time>2014-08-30T14:44:52Z</time>
      </trkpt>
      <trkpt lat="46.13873" lon="6.77568">
        <ele>1383.7303</ele>
        <time>2014-08-30T14:44:57Z</time>
      </trkpt>
      <trkpt lat="46.1387" lon="6.77567">
        <ele>1383.7303</ele>
        <time>2014-08-30T14:45:02Z</time>
      </trkpt>
      <trkpt lat="46.1387" lon="6.77568">
        <ele>1383.7303</ele>
        <time>2014-08-30T14:45:07Z</time>
      </trkpt>
      <trkpt lat="46.1387" lon="6.77568">
        <ele>1383.7303</ele>
        <time>2014-08-30T14:45:12Z</time>
      </trkpt>
      <trkpt lat="46.13871" lon="6.77567">
        <ele>1379.6884</ele>
        <time>2014-08-30T14:45:17Z</time>
      </trkpt>
      <trkpt lat="46.13871" lon="6.77567">
        <ele>1379.6884</ele>
        <time>2014-08-30T14:45:22Z</time>
      </trkpt>
      <trkpt lat="46.13871" lon="6.77565">
        <ele>1379.6884</ele>
        <time>2014-08-30T14:45:32Z</time>
      </trkpt>
      <trkpt lat="46.13871" lon="6.77564">
        <ele>1379.6884</ele>
        <time>2014-08-30T14:45:37Z</time>
      </trkpt>
      <trkpt lat="46.13871" lon="6.77563">
        <ele>1379.6884</ele>
        <time>2014-08-30T14:45:42Z</time>
      </trkpt>
      <trkpt lat="46.13871" lon="6.77563">
        <ele>1379.6884</ele>
        <time>2014-08-30T14:45:47Z</time>
      </trkpt>
      <trkpt lat="46.13871" lon="6.77563">
        <ele>1379.6884</ele>
        <time>2014-08-30T14:45:52Z</time>
      </trkpt>
      <trkpt lat="46.13868" lon="6.77563">
        <ele>1379.6884</ele>
        <time>2014-08-30T14:45:57Z</time>
      </trkpt>
      <trkpt lat="46.13868" lon="6.77563">
        <ele>1378.9161</ele>
        <time>2014-08-30T14:46:02Z</time>
      </trkpt>
      <trkpt lat="46.13865" lon="6.77563">
        <ele>1378.144</ele>
        <time>2014-08-30T14:46:07Z</time>
      </trkpt>
      <trkpt lat="46.13862" lon="6.77562">
        <ele>1377.3718</ele>
        <time>2014-08-30T14:46:12Z</time>
      </trkpt>
      <trkpt lat="46.13858" lon="6.77555">
        <ele>1376.5997</ele>
        <time>2014-08-30T14:46:17Z</time>
      </trkpt>
      <trkpt lat="46.13858" lon="6.77555">
        <ele>1376.5997</ele>
        <time>2014-08-30T14:46:22Z</time>
      </trkpt>
      <trkpt lat="46.1386" lon="6.77555">
        <ele>1376.5997</ele>
        <time>2014-08-30T14:46:32Z</time>
      </trkpt>
      <trkpt lat="46.1386" lon="6.77555">
        <ele>1376.5997</ele>
        <time>2014-08-30T14:46:37Z</time>
      </trkpt>
      <trkpt lat="46.13862" lon="6.77556">
        <ele>1376.5997</ele>
        <time>2014-08-30T14:46:52Z</time>
      </trkpt>
      <trkpt lat="46.13864" lon="6.77554">
        <ele>1376.5997</ele>
        <time>2014-08-30T14:46:57Z</time>
      </trkpt>
      <trkpt lat="46.13865" lon="6.77551">
        <ele>1376.5997</ele>
        <time>2014-08-30T14:47:02Z</time>
      </trkpt>
      <trkpt lat="46.13865" lon="6.77545">
        <ele>1373.7776</ele>
        <time>2014-08-30T14:47:07Z</time>
      </trkpt>
      <trkpt lat="46.13869" lon="6.77539">
        <ele>1373.7776</ele>
        <time>2014-08-30T14:47:12Z</time>
      </trkpt>
      <trkpt lat="46.13871" lon="6.77531">
        <ele>1371.2185</ele>
        <time>2014-08-30T14:47:17Z</time>
      </trkpt>
      <trkpt lat="46.13874" lon="6.77527">
        <ele>1371.2185</ele>
        <time>2014-08-30T14:47:22Z</time>
      </trkpt>
      <trkpt lat="46.13878" lon="6.77525">
        <ele>1371.2185</ele>
        <time>2014-08-30T14:47:27Z</time>
      </trkpt>
      <trkpt lat="46.13882" lon="6.77523">
        <ele>1368.7744</ele>
        <time>2014-08-30T14:47:32Z</time>
      </trkpt>
      <trkpt lat="46.13885" lon="6.77518">
        <ele>1368.7744</ele>
        <time>2014-08-30T14:47:37Z</time>
      </trkpt>
      <trkpt lat="46.13886" lon="6.77515">
        <ele>1368.7744</ele>
        <time>2014-08-30T14:47:42Z</time>
      </trkpt>
      <trkpt lat="46.13891" lon="6.77513">
        <ele>1366.2067</ele>
        <time>2014-08-30T14:47:47Z</time>
      </trkpt>
      <trkpt lat="46.13893" lon="6.77512">
        <ele>1366.2067</ele>
        <time>2014-08-30T14:47:52Z</time>
      </trkpt>
      <trkpt lat="46.13893" lon="6.77511">
        <ele>1366.2067</ele>
        <time>2014-08-30T14:47:57Z</time>
      </trkpt>
      <trkpt lat="46.13895" lon="6.7751">
        <ele>1366.2067</ele>
        <time>2014-08-30T14:48:02Z</time>
      </trkpt>
      <trkpt lat="46.13896" lon="6.77509">
        <ele>1366.2067</ele>
        <time>2014-08-30T14:48:07Z</time>
      </trkpt>
      <trkpt lat="46.139" lon="6.77506">
        <ele>1362.8187</ele>
        <time>2014-08-30T14:48:12Z</time>
      </trkpt>
      <trkpt lat="46.13903" lon="6.77501">
        <ele>1362.8187</ele>
        <time>2014-08-30T14:48:17Z</time>
      </trkpt>
      <trkpt lat="46.13906" lon="6.77494">
        <ele>1359.481</ele>
        <time>2014-08-30T14:48:22Z</time>
      </trkpt>
      <trkpt lat="46.1391" lon="6.77485">
        <ele>1359.481</ele>
        <time>2014-08-30T14:48:27Z</time>
      </trkpt>
      <trkpt lat="46.13916" lon="6.7748">
        <ele>1356.3219</ele>
        <time>2014-08-30T14:48:32Z</time>
      </trkpt>
      <trkpt lat="46.13919" lon="6.77472">
        <ele>1356.3219</ele>
        <time>2014-08-30T14:48:37Z</time>
      </trkpt>
      <trkpt lat="46.13923" lon="6.77463">
        <ele>1353.4457</ele>
        <time>2014-08-30T14:48:42Z</time>
      </trkpt>
      <trkpt lat="46.13926" lon="6.77457">
        <ele>1353.4457</ele>
        <time>2014-08-30T14:48:47Z</time>
      </trkpt>
      <trkpt lat="46.13928" lon="6.77449">
        <ele>1350.7605</ele>
        <time>2014-08-30T14:48:52Z</time>
      </trkpt>
      <trkpt lat="46.13933" lon="6.77441">
        <ele>1350.7605</ele>
        <time>2014-08-30T14:48:57Z</time>
      </trkpt>
      <trkpt lat="46.13938" lon="6.77433">
        <ele>1348.2096</ele>
        <time>2014-08-30T14:49:02Z</time>
      </trkpt>
      <trkpt lat="46.13937" lon="6.77426">
        <ele>1348.2096</ele>
        <time>2014-08-30T14:49:07Z</time>
      </trkpt>
      <trkpt lat="46.13938" lon="6.77417">
        <ele>1345.7255</ele>
        <time>2014-08-30T14:49:12Z</time>
      </trkpt>
      <trkpt lat="46.13942" lon="6.77407">
        <ele>1345.7255</ele>
        <time>2014-08-30T14:49:17Z</time>
      </trkpt>
      <trkpt lat="46.13945" lon="6.774">
        <ele>1343.3893</ele>
        <time>2014-08-30T14:49:22Z</time>
      </trkpt>
      <trkpt lat="46.13949" lon="6.77394">
        <ele>1343.3893</ele>
        <time>2014-08-30T14:49:27Z</time>
      </trkpt>
      <trkpt lat="46.13954" lon="6.77392">
        <ele>1341.2471</ele>
        <time>2014-08-30T14:49:32Z</time>
      </trkpt>
      <trkpt lat="46.13959" lon="6.77391">
        <ele>1341.2471</ele>
        <time>2014-08-30T14:49:37Z</time>
      </trkpt>
      <trkpt lat="46.13959" lon="6.7739">
        <ele>1341.2471</ele>
        <time>2014-08-30T14:49:42Z</time>
      </trkpt>
      <trkpt lat="46.13959" lon="6.77391">
        <ele>1341.2471</ele>
        <time>2014-08-30T14:49:47Z</time>
      </trkpt>
      <trkpt lat="46.13959" lon="6.77392">
        <ele>1341.2471</ele>
        <time>2014-08-30T14:49:52Z</time>
      </trkpt>
      <trkpt lat="46.13959" lon="6.77392">
        <ele>1341.2471</ele>
        <time>2014-08-30T14:49:57Z</time>
      </trkpt>
      <trkpt lat="46.13963" lon="6.77394">
        <ele>1339.5138</ele>
        <time>2014-08-30T14:50:02Z</time>
      </trkpt>
      <trkpt lat="46.13963" lon="6.77394">
        <ele>1339.5138</ele>
        <time>2014-08-30T14:50:07Z</time>
      </trkpt>
      <trkpt lat="46.13966" lon="6.77394">
        <ele>1339.5138</ele>
        <time>2014-08-30T14:50:17Z</time>
      </trkpt>
      <trkpt lat="46.13972" lon="6.77396">
        <ele>1337.7388</ele>
        <time>2014-08-30T14:50:22Z</time>
      </trkpt>
      <trkpt lat="46.13976" lon="6.77398">
        <ele>1337.7388</ele>
        <time>2014-08-30T14:50:27Z</time>
      </trkpt>
      <trkpt lat="46.13981" lon="6.77401">
        <ele>1336.11</ele>
        <time>2014-08-30T14:50:32Z</time>
      </trkpt>
      <trkpt lat="46.13987" lon="6.77405">
        <ele>1336.11</ele>
        <time>2014-08-30T14:50:37Z</time>
      </trkpt>
      <trkpt lat="46.13991" lon="6.77409">
        <ele>1334.7288</ele>
        <time>2014-08-30T14:50:42Z</time>
      </trkpt>
      <trkpt lat="46.13993" lon="6.77414">
        <ele>1334.7288</ele>
        <time>2014-08-30T14:50:47Z</time>
      </trkpt>
      <trkpt lat="46.13995" lon="6.77414">
        <ele>1334.7288</ele>
        <time>2014-08-30T14:50:52Z</time>
      </trkpt>
      <trkpt lat="46.13999" lon="6.77418">
        <ele>1333.631</ele>
        <time>2014-08-30T14:50:57Z</time>
      </trkpt>
      <trkpt lat="46.14004" lon="6.77423">
        <ele>1333.631</ele>
        <time>2014-08-30T14:51:02Z</time>
      </trkpt>
      <trkpt lat="46.14009" lon="6.77424">
        <ele>1332.8633</ele>
        <time>2014-08-30T14:51:07Z</time>
      </trkpt>
      <trkpt lat="46.14014" lon="6.77427">
        <ele>1332.8633</ele>
        <time>2014-08-30T14:51:12Z</time>
      </trkpt>
      <trkpt lat="46.14016" lon="6.77429">
        <ele>1332.8633</ele>
        <time>2014-08-30T14:51:17Z</time>
      </trkpt>
      <trkpt lat="46.14018" lon="6.77427">
        <ele>1332.3096</ele>
        <time>2014-08-30T14:51:22Z</time>
      </trkpt>
      <trkpt lat="46.14024" lon="6.77418">
        <ele>1332.3096</ele>
        <time>2014-08-30T14:51:27Z</time>
      </trkpt>
      <trkpt lat="46.14025" lon="6.77415">
        <ele>1331.9048</ele>
        <time>2014-08-30T14:51:32Z</time>
      </trkpt>
      <trkpt lat="46.14027" lon="6.77412">
        <ele>1331.9048</ele>
        <time>2014-08-30T14:51:37Z</time>
      </trkpt>
      <trkpt lat="46.14029" lon="6.77409">
        <ele>1331.9048</ele>
        <time>2014-08-30T14:51:42Z</time>
      </trkpt>
      <trkpt lat="46.14032" lon="6.77407">
        <ele>1331.9048</ele>
        <time>2014-08-30T14:51:47Z</time>
      </trkpt>
      <trkpt lat="46.14032" lon="6.77407">
        <ele>1331.9048</ele>
        <time>2014-08-30T14:51:52Z</time>
      </trkpt>
      <trkpt lat="46.14032" lon="6.77408">
        <ele>1331.9054</ele>
        <time>2014-08-30T14:53:17Z</time>
      </trkpt>
      <trkpt lat="46.14032" lon="6.77408">
        <ele>1331.9054</ele>
        <time>2014-08-30T14:53:22Z</time>
      </trkpt>
      <trkpt lat="46.14031" lon="6.77408">
        <ele>1331.9054</ele>
        <time>2014-08-30T14:53:37Z</time>
      </trkpt>
      <trkpt lat="46.14031" lon="6.77408">
        <ele>1331.9054</ele>
        <time>2014-08-30T14:53:42Z</time>
      </trkpt>
      <trkpt lat="46.1403" lon="6.7741">
        <ele>1331.9054</ele>
        <time>2014-08-30T14:53:57Z</time>
      </trkpt>
      <trkpt lat="46.14028" lon="6.77409">
        <ele>1331.9054</ele>
        <time>2014-08-30T14:54:02Z</time>
      </trkpt>
      <trkpt lat="46.14027" lon="6.77408">
        <ele>1331.9054</ele>
        <time>2014-08-30T14:54:07Z</time>
      </trkpt>
      <trkpt lat="46.14027" lon="6.77408">
        <ele>1331.9054</ele>
        <time>2014-08-30T14:54:12Z</time>
      </trkpt>
      <trkpt lat="46.14027" lon="6.77408">
        <ele>1331.9054</ele>
        <time>2014-08-30T14:56:32Z</time>
      </trkpt>
      <trkpt lat="46.14029" lon="6.77408">
        <ele>1331.9054</ele>
        <time>2014-08-30T14:56:37Z</time>
      </trkpt>
      <trkpt lat="46.14031" lon="6.77406">
        <ele>1333.1388</ele>
        <time>2014-08-30T14:56:42Z</time>
      </trkpt>
      <trkpt lat="46.14032" lon="6.77405">
        <ele>1333.1388</ele>
        <time>2014-08-30T14:56:47Z</time>
      </trkpt>
      <trkpt lat="46.14029" lon="6.77405">
        <ele>1333.1388</ele>
        <time>2014-08-30T14:56:52Z</time>
      </trkpt>
      <trkpt lat="46.14028" lon="6.77402">
        <ele>1333.1388</ele>
        <time>2014-08-30T14:56:57Z</time>
      </trkpt>
      <trkpt lat="46.14028" lon="6.77402">
        <ele>1333.1388</ele>
        <time>2014-08-30T14:57:02Z</time>
      </trkpt>
      <trkpt lat="46.1403" lon="6.77404">
        <ele>1333.1388</ele>
        <time>2014-08-30T14:59:32Z</time>
      </trkpt>
      <trkpt lat="46.1403" lon="6.77404">
        <ele>1333.1388</ele>
        <time>2014-08-30T14:59:37Z</time>
      </trkpt>
    </trkseg>
  </trk>
</gpx>